<?xml version="1.0" encoding="UTF-8"?>
<gpx version="1.1" creator="https://www.youtrack.es" xsi:schemaLocation="http://www.topografix.com/GPX/1/1 http://www.topografix.com/GPX/1/1/gpx.xsd http://www.garmin.com/xmlschemas/GpxExtensions/v3 http://www.garmin.com/xmlschemas/GpxExtensionsv3.xsd http://www.garmin.com/xmlschemas/TrackPointExtension/v1 http://www.garmin.com/xmlschemas/TrackPointExtensionv1.xsd" xmlns:gpxtpx="http://www.garmin.com/xmlschemas/TrackPointExtension/v1" xmlns:gpxx="http://www.garmin.com/xmlschemas/GpxExtensions/v3" xmlns:xsi="http://www.w3.org/2001/XMLSchema-instance">
  <metadata>
    <author>
      <name>Marc Pastor</name>
      <email id="marcpastorg" domain="gmail.com"/>
    </author>
    <link href="https://www.youtrack.es">
      <text>YouTrack.es</text>
    </link>
    <time>2026-05-08T23:36:47Z</time>
  </metadata>
  <trk>
    <src>https://www.youtrack.es</src>
    <link href="https://www.youtrack.es/ruta/4204-20190222-mtb">
      <text>YouTrack.es</text>
    </link>
    <trkseg>
      <trkpt lat="41.473964089527726" lon="2.0688246935606003">
        <ele>165.0</ele>
        <time>2019-02-22T15:45:34.000Z</time>
      </trkpt>
      <trkpt lat="41.47397398017347" lon="2.068837434053421">
        <ele>164.8000030517578</ele>
        <time>2019-02-22T15:45:35.000Z</time>
      </trkpt>
      <trkpt lat="41.47398915141821" lon="2.068851850926876">
        <ele>164.39999389648438</ele>
        <time>2019-02-22T15:45:36.000Z</time>
      </trkpt>
      <trkpt lat="41.47402536123991" lon="2.0688590593636036">
        <ele>164.60000610351562</ele>
        <time>2019-02-22T15:45:38.000Z</time>
      </trkpt>
      <trkpt lat="41.47407774813473" lon="2.068880433216691">
        <ele>164.1999969482422</ele>
        <time>2019-02-22T15:45:41.000Z</time>
      </trkpt>
      <trkpt lat="41.47409358993173" lon="2.068958217278123">
        <ele>164.1999969482422</ele>
        <time>2019-02-22T15:45:43.000Z</time>
      </trkpt>
      <trkpt lat="41.47408973425627" lon="2.06902795471251">
        <ele>164.1999969482422</ele>
        <time>2019-02-22T15:45:44.000Z</time>
      </trkpt>
      <trkpt lat="41.47408143617213" lon="2.069117808714509">
        <ele>164.0</ele>
        <time>2019-02-22T15:45:45.000Z</time>
      </trkpt>
      <trkpt lat="41.47407338954508" lon="2.0692195650190115">
        <ele>163.60000610351562</ele>
        <time>2019-02-22T15:45:46.000Z</time>
      </trkpt>
      <trkpt lat="41.47406039759517" lon="2.069444367662072">
        <ele>162.39999389648438</ele>
        <time>2019-02-22T15:45:48.000Z</time>
      </trkpt>
      <trkpt lat="41.474052937701344" lon="2.069569258019328">
        <ele>161.39999389648438</ele>
        <time>2019-02-22T15:45:49.000Z</time>
      </trkpt>
      <trkpt lat="41.47404924966395" lon="2.0698357187211514">
        <ele>159.60000610351562</ele>
        <time>2019-02-22T15:45:51.000Z</time>
      </trkpt>
      <trkpt lat="41.474048998206854" lon="2.0701143331825733">
        <ele>157.8000030517578</ele>
        <time>2019-02-22T15:45:53.000Z</time>
      </trkpt>
      <trkpt lat="41.47403474897146" lon="2.0704014133661985">
        <ele>156.1999969482422</ele>
        <time>2019-02-22T15:45:55.000Z</time>
      </trkpt>
      <trkpt lat="41.47400432266295" lon="2.07067659124732">
        <ele>155.60000610351562</ele>
        <time>2019-02-22T15:45:57.000Z</time>
      </trkpt>
      <trkpt lat="41.47394950501621" lon="2.0709760766476393">
        <ele>156.8000030517578</ele>
        <time>2019-02-22T15:46:00.000Z</time>
      </trkpt>
      <trkpt lat="41.47391254082322" lon="2.071070959791541">
        <ele>157.8000030517578</ele>
        <time>2019-02-22T15:46:01.000Z</time>
      </trkpt>
      <trkpt lat="41.473887311294675" lon="2.0711591374129057">
        <ele>158.1999969482422</ele>
        <time>2019-02-22T15:46:02.000Z</time>
      </trkpt>
      <trkpt lat="41.47385193966329" lon="2.071345802396536">
        <ele>158.60000610351562</ele>
        <time>2019-02-22T15:46:04.000Z</time>
      </trkpt>
      <trkpt lat="41.47382796742022" lon="2.0714399311691523">
        <ele>158.39999389648438</ele>
        <time>2019-02-22T15:46:05.000Z</time>
      </trkpt>
      <trkpt lat="41.47376778535545" lon="2.0716315414756536">
        <ele>157.39999389648438</ele>
        <time>2019-02-22T15:46:07.000Z</time>
      </trkpt>
      <trkpt lat="41.473732413724065" lon="2.071733046323061">
        <ele>157.0</ele>
        <time>2019-02-22T15:46:08.000Z</time>
      </trkpt>
      <trkpt lat="41.47364180535078" lon="2.071928260847926">
        <ele>156.39999389648438</ele>
        <time>2019-02-22T15:46:10.000Z</time>
      </trkpt>
      <trkpt lat="41.47355228662491" lon="2.072128588333726">
        <ele>156.1999969482422</ele>
        <time>2019-02-22T15:46:12.000Z</time>
      </trkpt>
      <trkpt lat="41.47350291721523" lon="2.0722228847444057">
        <ele>156.1999969482422</ele>
        <time>2019-02-22T15:46:13.000Z</time>
      </trkpt>
      <trkpt lat="41.47339219227433" lon="2.072397395968437">
        <ele>155.60000610351562</ele>
        <time>2019-02-22T15:46:15.000Z</time>
      </trkpt>
      <trkpt lat="41.473337542265654" lon="2.0724842324852943">
        <ele>155.60000610351562</ele>
        <time>2019-02-22T15:46:16.000Z</time>
      </trkpt>
      <trkpt lat="41.473228577524424" lon="2.07265161909163">
        <ele>155.8000030517578</ele>
        <time>2019-02-22T15:46:18.000Z</time>
      </trkpt>
      <trkpt lat="41.47317845374346" lon="2.0727318339049816">
        <ele>155.8000030517578</ele>
        <time>2019-02-22T15:46:19.000Z</time>
      </trkpt>
      <trkpt lat="41.47312589921057" lon="2.0728031639009714">
        <ele>156.0</ele>
        <time>2019-02-22T15:46:20.000Z</time>
      </trkpt>
      <trkpt lat="41.473022885620594" lon="2.072937274351716">
        <ele>156.1999969482422</ele>
        <time>2019-02-22T15:46:22.000Z</time>
      </trkpt>
      <trkpt lat="41.47298692725599" lon="2.0730187464505434">
        <ele>156.39999389648438</ele>
        <time>2019-02-22T15:46:23.000Z</time>
      </trkpt>
      <trkpt lat="41.47291123867035" lon="2.073315130546689">
        <ele>155.8000030517578</ele>
        <time>2019-02-22T15:46:26.000Z</time>
      </trkpt>
      <trkpt lat="41.47287846542895" lon="2.073421999812126">
        <ele>155.1999969482422</ele>
        <time>2019-02-22T15:46:27.000Z</time>
      </trkpt>
      <trkpt lat="41.47280956618488" lon="2.0736392587423325">
        <ele>154.0</ele>
        <time>2019-02-22T15:46:29.000Z</time>
      </trkpt>
      <trkpt lat="41.47262558341026" lon="2.0743863377720118">
        <ele>153.0</ele>
        <time>2019-02-22T15:46:35.000Z</time>
      </trkpt>
      <trkpt lat="41.472545117139816" lon="2.0748786069452763">
        <ele>151.8000030517578</ele>
        <time>2019-02-22T15:46:39.000Z</time>
      </trkpt>
      <trkpt lat="41.472508907318115" lon="2.0751283038407564">
        <ele>150.60000610351562</ele>
        <time>2019-02-22T15:46:41.000Z</time>
      </trkpt>
      <trkpt lat="41.47248133085668" lon="2.0753763243556023">
        <ele>150.0</ele>
        <time>2019-02-22T15:46:43.000Z</time>
      </trkpt>
      <trkpt lat="41.47246087901294" lon="2.075743116438389">
        <ele>149.60000610351562</ele>
        <time>2019-02-22T15:46:46.000Z</time>
      </trkpt>
      <trkpt lat="41.47245584987104" lon="2.0758637320250273">
        <ele>149.1999969482422</ele>
        <time>2019-02-22T15:46:47.000Z</time>
      </trkpt>
      <trkpt lat="41.472480995580554" lon="2.0761260855942965">
        <ele>148.60000610351562</ele>
        <time>2019-02-22T15:46:49.000Z</time>
      </trkpt>
      <trkpt lat="41.472507985308766" lon="2.0765307638794184">
        <ele>147.0</ele>
        <time>2019-02-22T15:46:52.000Z</time>
      </trkpt>
      <trkpt lat="41.47252131253481" lon="2.0766527205705643">
        <ele>146.60000610351562</ele>
        <time>2019-02-22T15:46:53.000Z</time>
      </trkpt>
      <trkpt lat="41.47254444658756" lon="2.076843995600939">
        <ele>145.60000610351562</ele>
        <time>2019-02-22T15:46:55.000Z</time>
      </trkpt>
      <trkpt lat="41.4725564327091" lon="2.076916666701436">
        <ele>145.1999969482422</ele>
        <time>2019-02-22T15:46:56.000Z</time>
      </trkpt>
      <trkpt lat="41.472566574811935" lon="2.076976178213954">
        <ele>144.8000030517578</ele>
        <time>2019-02-22T15:46:57.000Z</time>
      </trkpt>
      <trkpt lat="41.47257671691477" lon="2.0770304929465055">
        <ele>144.60000610351562</ele>
        <time>2019-02-22T15:46:58.000Z</time>
      </trkpt>
      <trkpt lat="41.4725944865495" lon="2.07711573690176">
        <ele>144.0</ele>
        <time>2019-02-22T15:47:00.000Z</time>
      </trkpt>
      <trkpt lat="41.472592474892735" lon="2.0771776791661978">
        <ele>143.39999389648438</ele>
        <time>2019-02-22T15:47:03.000Z</time>
      </trkpt>
      <trkpt lat="41.47259406745434" lon="2.0772069320082664">
        <ele>143.39999389648438</ele>
        <time>2019-02-22T15:47:04.000Z</time>
      </trkpt>
      <trkpt lat="41.47261309437454" lon="2.0774060860276222">
        <ele>143.0</ele>
        <time>2019-02-22T15:47:09.000Z</time>
      </trkpt>
      <trkpt lat="41.47261711768806" lon="2.0774557068943977">
        <ele>142.8000030517578</ele>
        <time>2019-02-22T15:47:10.000Z</time>
      </trkpt>
      <trkpt lat="41.472649639472365" lon="2.077641701325774">
        <ele>142.1999969482422</ele>
        <time>2019-02-22T15:47:13.000Z</time>
      </trkpt>
      <trkpt lat="41.47265533916652" lon="2.077715964987874">
        <ele>142.0</ele>
        <time>2019-02-22T15:47:14.000Z</time>
      </trkpt>
      <trkpt lat="41.47264678962529" lon="2.0778595469892025">
        <ele>142.0</ele>
        <time>2019-02-22T15:47:16.000Z</time>
      </trkpt>
      <trkpt lat="41.47262164391577" lon="2.0779917296022177">
        <ele>142.60000610351562</ele>
        <time>2019-02-22T15:47:18.000Z</time>
      </trkpt>
      <trkpt lat="41.47260353900492" lon="2.07807638682425">
        <ele>143.0</ele>
        <time>2019-02-22T15:47:20.000Z</time>
      </trkpt>
      <trkpt lat="41.47258384153247" lon="2.0781398378312588">
        <ele>143.39999389648438</ele>
        <time>2019-02-22T15:47:22.000Z</time>
      </trkpt>
      <trkpt lat="41.47255182266235" lon="2.078204294666648">
        <ele>143.60000610351562</ele>
        <time>2019-02-22T15:47:24.000Z</time>
      </trkpt>
      <trkpt lat="41.47252835333347" lon="2.0782403368502855">
        <ele>143.60000610351562</ele>
        <time>2019-02-22T15:47:25.000Z</time>
      </trkpt>
      <trkpt lat="41.47250019013882" lon="2.078282916918397">
        <ele>143.60000610351562</ele>
        <time>2019-02-22T15:47:26.000Z</time>
      </trkpt>
      <trkpt lat="41.47246968001127" lon="2.0783301908522844">
        <ele>143.60000610351562</ele>
        <time>2019-02-22T15:47:27.000Z</time>
      </trkpt>
      <trkpt lat="41.472437577322125" lon="2.0783802308142185">
        <ele>143.39999389648438</ele>
        <time>2019-02-22T15:47:28.000Z</time>
      </trkpt>
      <trkpt lat="41.472400361672044" lon="2.0784294325858355">
        <ele>143.39999389648438</ele>
        <time>2019-02-22T15:47:29.000Z</time>
      </trkpt>
      <trkpt lat="41.47230740636587" lon="2.0785142574459314">
        <ele>143.1999969482422</ele>
        <time>2019-02-22T15:47:31.000Z</time>
      </trkpt>
      <trkpt lat="41.47222559899092" lon="2.0786234736442566">
        <ele>143.0</ele>
        <time>2019-02-22T15:47:33.000Z</time>
      </trkpt>
      <trkpt lat="41.4719604793936" lon="2.0789766032248735">
        <ele>143.1999969482422</ele>
        <time>2019-02-22T15:47:39.000Z</time>
      </trkpt>
      <trkpt lat="41.471850257366896" lon="2.079109037294984">
        <ele>143.1999969482422</ele>
        <time>2019-02-22T15:47:42.000Z</time>
      </trkpt>
      <trkpt lat="41.47182310000062" lon="2.0791432354599237">
        <ele>143.1999969482422</ele>
        <time>2019-02-22T15:47:43.000Z</time>
      </trkpt>
      <trkpt lat="41.47172846831381" lon="2.079304251819849">
        <ele>143.0</ele>
        <time>2019-02-22T15:47:47.000Z</time>
      </trkpt>
      <trkpt lat="41.471692342311144" lon="2.0793627575039864">
        <ele>142.8000030517578</ele>
        <time>2019-02-22T15:47:48.000Z</time>
      </trkpt>
      <trkpt lat="41.471530739218" lon="2.079551015049219">
        <ele>142.1999969482422</ele>
        <time>2019-02-22T15:47:51.000Z</time>
      </trkpt>
      <trkpt lat="41.47140677087009" lon="2.0796978659927845">
        <ele>141.60000610351562</ele>
        <time>2019-02-22T15:47:53.000Z</time>
      </trkpt>
      <trkpt lat="41.471348935738206" lon="2.0797735545784235">
        <ele>141.0</ele>
        <time>2019-02-22T15:47:54.000Z</time>
      </trkpt>
      <trkpt lat="41.471237959340215" lon="2.0799322240054607">
        <ele>140.0</ele>
        <time>2019-02-22T15:47:56.000Z</time>
      </trkpt>
      <trkpt lat="41.471135867759585" lon="2.0800828468054533">
        <ele>138.8000030517578</ele>
        <time>2019-02-22T15:47:58.000Z</time>
      </trkpt>
      <trkpt lat="41.47104769013822" lon="2.0802561845630407">
        <ele>137.39999389648438</ele>
        <time>2019-02-22T15:48:01.000Z</time>
      </trkpt>
      <trkpt lat="41.47099211812019" lon="2.0803231559693813">
        <ele>136.39999389648438</ele>
        <time>2019-02-22T15:48:03.000Z</time>
      </trkpt>
      <trkpt lat="41.47095641121268" lon="2.080383924767375">
        <ele>135.8000030517578</ele>
        <time>2019-02-22T15:48:05.000Z</time>
      </trkpt>
      <trkpt lat="41.4709191955626" lon="2.0804813224822283">
        <ele>135.60000610351562</ele>
        <time>2019-02-22T15:48:08.000Z</time>
      </trkpt>
      <trkpt lat="41.47090628743172" lon="2.080522645264864">
        <ele>135.60000610351562</ele>
        <time>2019-02-22T15:48:10.000Z</time>
      </trkpt>
      <trkpt lat="41.470895390957594" lon="2.0805363915860653">
        <ele>135.1999969482422</ele>
        <time>2019-02-22T15:48:12.000Z</time>
      </trkpt>
      <trkpt lat="41.470890110358596" lon="2.0805483777076006">
        <ele>135.0</ele>
        <time>2019-02-22T15:48:13.000Z</time>
      </trkpt>
      <trkpt lat="41.47087477147579" lon="2.0805982500314713">
        <ele>134.60000610351562</ele>
        <time>2019-02-22T15:48:15.000Z</time>
      </trkpt>
      <trkpt lat="41.47083763964474" lon="2.0806626230478287">
        <ele>134.1999969482422</ele>
        <time>2019-02-22T15:48:17.000Z</time>
      </trkpt>
      <trkpt lat="41.470797657966614" lon="2.0807462744414806">
        <ele>134.0</ele>
        <time>2019-02-22T15:48:19.000Z</time>
      </trkpt>
      <trkpt lat="41.47073697298765" lon="2.080901339650154">
        <ele>134.1999969482422</ele>
        <time>2019-02-22T15:48:22.000Z</time>
      </trkpt>
      <trkpt lat="41.47068131715059" lon="2.0810031797736883">
        <ele>134.0</ele>
        <time>2019-02-22T15:48:24.000Z</time>
      </trkpt>
      <trkpt lat="41.470580818131566" lon="2.0811444148421288">
        <ele>133.60000610351562</ele>
        <time>2019-02-22T15:48:27.000Z</time>
      </trkpt>
      <trkpt lat="41.470519211143255" lon="2.0812445785850286">
        <ele>133.8000030517578</ele>
        <time>2019-02-22T15:48:29.000Z</time>
      </trkpt>
      <trkpt lat="41.470444947481155" lon="2.081290679052472">
        <ele>133.8000030517578</ele>
        <time>2019-02-22T15:48:31.000Z</time>
      </trkpt>
      <trkpt lat="41.47041083313525" lon="2.0813059341162443">
        <ele>134.0</ele>
        <time>2019-02-22T15:48:32.000Z</time>
      </trkpt>
      <trkpt lat="41.47026238963008" lon="2.0814611669629812">
        <ele>134.0</ele>
        <time>2019-02-22T15:48:37.000Z</time>
      </trkpt>
      <trkpt lat="41.47025367245078" lon="2.081676833331585">
        <ele>134.39999389648438</ele>
        <time>2019-02-22T15:48:41.000Z</time>
      </trkpt>
      <trkpt lat="41.470363810658455" lon="2.081962153315544">
        <ele>133.8000030517578</ele>
        <time>2019-02-22T15:48:46.000Z</time>
      </trkpt>
      <trkpt lat="41.4703803230077" lon="2.0820138696581125">
        <ele>133.60000610351562</ele>
        <time>2019-02-22T15:48:47.000Z</time>
      </trkpt>
      <trkpt lat="41.4704030379653" lon="2.082068771123886">
        <ele>133.39999389648438</ele>
        <time>2019-02-22T15:48:49.000Z</time>
      </trkpt>
      <trkpt lat="41.4704167842865" lon="2.0820831041783094">
        <ele>133.1999969482422</ele>
        <time>2019-02-22T15:48:50.000Z</time>
      </trkpt>
      <trkpt lat="41.470438996329904" lon="2.0820950902998447">
        <ele>133.0</ele>
        <time>2019-02-22T15:48:51.000Z</time>
      </trkpt>
      <trkpt lat="41.470471769571304" lon="2.0821140334010124">
        <ele>133.0</ele>
        <time>2019-02-22T15:48:53.000Z</time>
      </trkpt>
      <trkpt lat="41.47047981619835" lon="2.0821272768080235">
        <ele>133.0</ele>
        <time>2019-02-22T15:48:54.000Z</time>
      </trkpt>
      <trkpt lat="41.4705063868314" lon="2.082223668694496">
        <ele>133.1999969482422</ele>
        <time>2019-02-22T15:48:58.000Z</time>
      </trkpt>
      <trkpt lat="41.47051074542105" lon="2.082228194922209">
        <ele>133.1999969482422</ele>
        <time>2019-02-22T15:48:59.000Z</time>
      </trkpt>
      <trkpt lat="41.470514768734574" lon="2.0822100900113583">
        <ele>133.39999389648438</ele>
        <time>2019-02-22T15:49:02.000Z</time>
      </trkpt>
      <trkpt lat="41.47049942985177" lon="2.082207826897502">
        <ele>133.1999969482422</ele>
        <time>2019-02-22T15:49:04.000Z</time>
      </trkpt>
      <trkpt lat="41.47049507126212" lon="2.0822354033589363">
        <ele>133.39999389648438</ele>
        <time>2019-02-22T15:49:05.000Z</time>
      </trkpt>
      <trkpt lat="41.470517199486494" lon="2.082358365878463">
        <ele>133.1999969482422</ele>
        <time>2019-02-22T15:49:08.000Z</time>
      </trkpt>
      <trkpt lat="41.47057947702706" lon="2.0825690869241953">
        <ele>133.1999969482422</ele>
        <time>2019-02-22T15:49:12.000Z</time>
      </trkpt>
      <trkpt lat="41.470679892227054" lon="2.082927245646715">
        <ele>133.0</ele>
        <time>2019-02-22T15:49:17.000Z</time>
      </trkpt>
      <trkpt lat="41.4707101508975" lon="2.0830953866243362">
        <ele>132.8000030517578</ele>
        <time>2019-02-22T15:49:19.000Z</time>
      </trkpt>
      <trkpt lat="41.470784582197666" lon="2.0834178384393454">
        <ele>132.1999969482422</ele>
        <time>2019-02-22T15:49:23.000Z</time>
      </trkpt>
      <trkpt lat="41.47079254500568" lon="2.083504172042012">
        <ele>132.1999969482422</ele>
        <time>2019-02-22T15:49:24.000Z</time>
      </trkpt>
      <trkpt lat="41.470829509198666" lon="2.083758730441332">
        <ele>132.1999969482422</ele>
        <time>2019-02-22T15:49:27.000Z</time>
      </trkpt>
      <trkpt lat="41.470846524462104" lon="2.0838421303778887">
        <ele>132.1999969482422</ele>
        <time>2019-02-22T15:49:28.000Z</time>
      </trkpt>
      <trkpt lat="41.470880303531885" lon="2.084018150344491">
        <ele>131.8000030517578</ele>
        <time>2019-02-22T15:49:30.000Z</time>
      </trkpt>
      <trkpt lat="41.47090209648013" lon="2.084110351279378">
        <ele>131.39999389648438</ele>
        <time>2019-02-22T15:49:31.000Z</time>
      </trkpt>
      <trkpt lat="41.47095431573689" lon="2.0842916518449783">
        <ele>130.8000030517578</ele>
        <time>2019-02-22T15:49:33.000Z</time>
      </trkpt>
      <trkpt lat="41.470983903855085" lon="2.0843805838376284">
        <ele>130.60000610351562</ele>
        <time>2019-02-22T15:49:34.000Z</time>
      </trkpt>
      <trkpt lat="41.47105305455625" lon="2.084536235779524">
        <ele>130.39999389648438</ele>
        <time>2019-02-22T15:49:36.000Z</time>
      </trkpt>
      <trkpt lat="41.47116428241134" lon="2.084752405062318">
        <ele>130.39999389648438</ele>
        <time>2019-02-22T15:49:39.000Z</time>
      </trkpt>
      <trkpt lat="41.47118733264506" lon="2.0848346315324306">
        <ele>130.39999389648438</ele>
        <time>2019-02-22T15:49:40.000Z</time>
      </trkpt>
      <trkpt lat="41.47119462490082" lon="2.0849288441240788">
        <ele>130.39999389648438</ele>
        <time>2019-02-22T15:49:41.000Z</time>
      </trkpt>
      <trkpt lat="41.471193451434374" lon="2.0850155130028725">
        <ele>130.39999389648438</ele>
        <time>2019-02-22T15:49:42.000Z</time>
      </trkpt>
      <trkpt lat="41.471197474747896" lon="2.0851721707731485">
        <ele>130.0</ele>
        <time>2019-02-22T15:49:44.000Z</time>
      </trkpt>
      <trkpt lat="41.47121314890683" lon="2.085250373929739">
        <ele>129.60000610351562</ele>
        <time>2019-02-22T15:49:45.000Z</time>
      </trkpt>
      <trkpt lat="41.47124106064439" lon="2.0853196922689676">
        <ele>129.39999389648438</ele>
        <time>2019-02-22T15:49:46.000Z</time>
      </trkpt>
      <trkpt lat="41.47138137370348" lon="2.085619680583477">
        <ele>130.0</ele>
        <time>2019-02-22T15:49:51.000Z</time>
      </trkpt>
      <trkpt lat="41.47142470814288" lon="2.0857241190969944">
        <ele>130.60000610351562</ele>
        <time>2019-02-22T15:49:54.000Z</time>
      </trkpt>
      <trkpt lat="41.47143610753119" lon="2.0857876539230347">
        <ele>130.8000030517578</ele>
        <time>2019-02-22T15:49:55.000Z</time>
      </trkpt>
      <trkpt lat="41.47150835953653" lon="2.085893517360091">
        <ele>130.8000030517578</ele>
        <time>2019-02-22T15:49:58.000Z</time>
      </trkpt>
      <trkpt lat="41.47155571728945" lon="2.0859672781080008">
        <ele>131.0</ele>
        <time>2019-02-22T15:50:00.000Z</time>
      </trkpt>
      <trkpt lat="41.47164708003402" lon="2.086167437955737">
        <ele>130.39999389648438</ele>
        <time>2019-02-22T15:50:04.000Z</time>
      </trkpt>
      <trkpt lat="41.47171262651682" lon="2.086264919489622">
        <ele>129.8000030517578</ele>
        <time>2019-02-22T15:50:06.000Z</time>
      </trkpt>
      <trkpt lat="41.471735844388604" lon="2.086320910602808">
        <ele>129.60000610351562</ele>
        <time>2019-02-22T15:50:07.000Z</time>
      </trkpt>
      <trkpt lat="41.47178647108376" lon="2.08644462749362">
        <ele>129.60000610351562</ele>
        <time>2019-02-22T15:50:09.000Z</time>
      </trkpt>
      <trkpt lat="41.471805749461055" lon="2.0865131076425314">
        <ele>129.60000610351562</ele>
        <time>2019-02-22T15:50:10.000Z</time>
      </trkpt>
      <trkpt lat="41.47183273918927" lon="2.086668675765395">
        <ele>129.60000610351562</ele>
        <time>2019-02-22T15:50:12.000Z</time>
      </trkpt>
      <trkpt lat="41.471839025616646" lon="2.0867478009313345">
        <ele>129.60000610351562</ele>
        <time>2019-02-22T15:50:13.000Z</time>
      </trkpt>
      <trkpt lat="41.47184455767274" lon="2.0868198852986097">
        <ele>129.39999389648438</ele>
        <time>2019-02-22T15:50:14.000Z</time>
      </trkpt>
      <trkpt lat="41.47189258597791" lon="2.0870329532772303">
        <ele>129.0</ele>
        <time>2019-02-22T15:50:17.000Z</time>
      </trkpt>
      <trkpt lat="41.47190859541297" lon="2.087110485881567">
        <ele>129.0</ele>
        <time>2019-02-22T15:50:18.000Z</time>
      </trkpt>
      <trkpt lat="41.471940195187926" lon="2.087441235780716">
        <ele>128.8000030517578</ele>
        <time>2019-02-22T15:50:22.000Z</time>
      </trkpt>
      <trkpt lat="41.47189510054886" lon="2.087822277098894">
        <ele>128.8000030517578</ele>
        <time>2019-02-22T15:50:27.000Z</time>
      </trkpt>
      <trkpt lat="41.4718864671886" lon="2.087890589609742">
        <ele>128.60000610351562</ele>
        <time>2019-02-22T15:50:28.000Z</time>
      </trkpt>
      <trkpt lat="41.47184204310179" lon="2.0881034899502993">
        <ele>127.80000305175781</ele>
        <time>2019-02-22T15:50:32.000Z</time>
      </trkpt>
      <trkpt lat="41.471799379214644" lon="2.088166605681181">
        <ele>127.80000305175781</ele>
        <time>2019-02-22T15:50:34.000Z</time>
      </trkpt>
      <trkpt lat="41.47177146747708" lon="2.0881764125078917">
        <ele>127.80000305175781</ele>
        <time>2019-02-22T15:50:35.000Z</time>
      </trkpt>
      <trkpt lat="41.47164775058627" lon="2.088177837431431">
        <ele>128.1999969482422</ele>
        <time>2019-02-22T15:50:40.000Z</time>
      </trkpt>
      <trkpt lat="41.471579102799296" lon="2.0881920866668224">
        <ele>129.0</ele>
        <time>2019-02-22T15:50:44.000Z</time>
      </trkpt>
      <trkpt lat="41.4715304877609" lon="2.0882101077586412">
        <ele>129.1999969482422</ele>
        <time>2019-02-22T15:50:46.000Z</time>
      </trkpt>
      <trkpt lat="41.471376763656735" lon="2.088251430541277">
        <ele>129.1999969482422</ele>
        <time>2019-02-22T15:50:51.000Z</time>
      </trkpt>
      <trkpt lat="41.471341559663415" lon="2.088250759989023">
        <ele>129.39999389648438</ele>
        <time>2019-02-22T15:50:52.000Z</time>
      </trkpt>
      <trkpt lat="41.471306104213" lon="2.088248999789357">
        <ele>129.60000610351562</ele>
        <time>2019-02-22T15:50:53.000Z</time>
      </trkpt>
      <trkpt lat="41.471096305176616" lon="2.088247910141945">
        <ele>130.1999969482422</ele>
        <time>2019-02-22T15:50:58.000Z</time>
      </trkpt>
      <trkpt lat="41.471054311841726" lon="2.0882438868284225">
        <ele>130.1999969482422</ele>
        <time>2019-02-22T15:50:59.000Z</time>
      </trkpt>
      <trkpt lat="41.470975605770946" lon="2.0882409531623125">
        <ele>130.1999969482422</ele>
        <time>2019-02-22T15:51:01.000Z</time>
      </trkpt>
      <trkpt lat="41.47081308066845" lon="2.0882671885192394">
        <ele>130.8000030517578</ele>
        <time>2019-02-22T15:51:05.000Z</time>
      </trkpt>
      <trkpt lat="41.47077108733356" lon="2.0882694516330957">
        <ele>131.0</ele>
        <time>2019-02-22T15:51:06.000Z</time>
      </trkpt>
      <trkpt lat="41.4704928919673" lon="2.08831949159503">
        <ele>131.8000030517578</ele>
        <time>2019-02-22T15:51:13.000Z</time>
      </trkpt>
      <trkpt lat="41.47034604102373" lon="2.0883220061659813">
        <ele>132.60000610351562</ele>
        <time>2019-02-22T15:51:17.000Z</time>
      </trkpt>
      <trkpt lat="41.47025174461305" lon="2.0883370097726583">
        <ele>132.39999389648438</ele>
        <time>2019-02-22T15:51:19.000Z</time>
      </trkpt>
      <trkpt lat="41.470104893669486" lon="2.088349163532257">
        <ele>132.39999389648438</ele>
        <time>2019-02-22T15:51:23.000Z</time>
      </trkpt>
      <trkpt lat="41.47005728445947" lon="2.088362742215395">
        <ele>133.0</ele>
        <time>2019-02-22T15:51:25.000Z</time>
      </trkpt>
      <trkpt lat="41.47003532387316" lon="2.088417811319232">
        <ele>132.8000030517578</ele>
        <time>2019-02-22T15:51:27.000Z</time>
      </trkpt>
      <trkpt lat="41.4700317196548" lon="2.0884804241359234">
        <ele>132.8000030517578</ele>
        <time>2019-02-22T15:51:29.000Z</time>
      </trkpt>
      <trkpt lat="41.470053009688854" lon="2.088621910661459">
        <ele>132.8000030517578</ele>
        <time>2019-02-22T15:51:34.000Z</time>
      </trkpt>
      <trkpt lat="41.47005627863109" lon="2.0886629819869995">
        <ele>132.60000610351562</ele>
        <time>2019-02-22T15:51:35.000Z</time>
      </trkpt>
      <trkpt lat="41.4700539316982" lon="2.0887036342173815">
        <ele>132.8000030517578</ele>
        <time>2019-02-22T15:51:36.000Z</time>
      </trkpt>
      <trkpt lat="41.47005518898368" lon="2.0887348987162113">
        <ele>132.8000030517578</ele>
        <time>2019-02-22T15:51:37.000Z</time>
      </trkpt>
      <trkpt lat="41.47005720064044" lon="2.0887640677392483">
        <ele>132.60000610351562</ele>
        <time>2019-02-22T15:51:38.000Z</time>
      </trkpt>
      <trkpt lat="41.47006021812558" lon="2.0888096652925014">
        <ele>132.39999389648438</ele>
        <time>2019-02-22T15:51:40.000Z</time>
      </trkpt>
      <trkpt lat="41.47006885148585" lon="2.088927598670125">
        <ele>132.1999969482422</ele>
        <time>2019-02-22T15:51:47.000Z</time>
      </trkpt>
      <trkpt lat="41.4700679294765" lon="2.0890723541378975">
        <ele>132.0</ele>
        <time>2019-02-22T15:51:52.000Z</time>
      </trkpt>
      <trkpt lat="41.47007153369486" lon="2.089113425463438">
        <ele>132.0</ele>
        <time>2019-02-22T15:51:53.000Z</time>
      </trkpt>
      <trkpt lat="41.47007488645613" lon="2.0891539938747883">
        <ele>131.8000030517578</ele>
        <time>2019-02-22T15:51:54.000Z</time>
      </trkpt>
      <trkpt lat="41.47004638798535" lon="2.0892629586160183">
        <ele>131.60000610351562</ele>
        <time>2019-02-22T15:51:58.000Z</time>
      </trkpt>
      <trkpt lat="41.47003624588251" lon="2.089282488450408">
        <ele>131.60000610351562</ele>
        <time>2019-02-22T15:52:00.000Z</time>
      </trkpt>
      <trkpt lat="41.469968017190695" lon="2.0892928820103407">
        <ele>131.60000610351562</ele>
        <time>2019-02-22T15:52:02.000Z</time>
      </trkpt>
      <trkpt lat="41.46992074325681" lon="2.089313082396984">
        <ele>131.60000610351562</ele>
        <time>2019-02-22T15:52:03.000Z</time>
      </trkpt>
      <trkpt lat="41.46988193504512" lon="2.0894013438373804">
        <ele>131.39999389648438</ele>
        <time>2019-02-22T15:52:05.000Z</time>
      </trkpt>
      <trkpt lat="41.46989090368152" lon="2.0895951334387064">
        <ele>131.39999389648438</ele>
        <time>2019-02-22T15:52:08.000Z</time>
      </trkpt>
      <trkpt lat="41.469898615032434" lon="2.089799316599965">
        <ele>131.39999389648438</ele>
        <time>2019-02-22T15:52:11.000Z</time>
      </trkpt>
      <trkpt lat="41.4698950946331" lon="2.089871233329177">
        <ele>131.1999969482422</ele>
        <time>2019-02-22T15:52:12.000Z</time>
      </trkpt>
      <trkpt lat="41.46986701525748" lon="2.0900790207087994">
        <ele>131.1999969482422</ele>
        <time>2019-02-22T15:52:15.000Z</time>
      </trkpt>
      <trkpt lat="41.46984773688018" lon="2.090127971023321">
        <ele>131.1999969482422</ele>
        <time>2019-02-22T15:52:16.000Z</time>
      </trkpt>
      <trkpt lat="41.469712536782026" lon="2.0903027337044477">
        <ele>131.1999969482422</ele>
        <time>2019-02-22T15:52:21.000Z</time>
      </trkpt>
      <trkpt lat="41.46966643631458" lon="2.090336512774229">
        <ele>131.39999389648438</ele>
        <time>2019-02-22T15:52:24.000Z</time>
      </trkpt>
      <trkpt lat="41.46966417320073" lon="2.0903540309518576">
        <ele>131.60000610351562</ele>
        <time>2019-02-22T15:52:25.000Z</time>
      </trkpt>
      <trkpt lat="41.46970013156533" lon="2.0905043184757233">
        <ele>131.60000610351562</ele>
        <time>2019-02-22T15:52:30.000Z</time>
      </trkpt>
      <trkpt lat="41.46980063058436" lon="2.090585371479392">
        <ele>131.39999389648438</ele>
        <time>2019-02-22T15:52:34.000Z</time>
      </trkpt>
      <trkpt lat="41.46985620260239" lon="2.09067371673882">
        <ele>131.0</ele>
        <time>2019-02-22T15:52:36.000Z</time>
      </trkpt>
      <trkpt lat="41.46988713182509" lon="2.090713530778885">
        <ele>131.0</ele>
        <time>2019-02-22T15:52:37.000Z</time>
      </trkpt>
      <trkpt lat="41.46992518566549" lon="2.0907530933618546">
        <ele>131.0</ele>
        <time>2019-02-22T15:52:38.000Z</time>
      </trkpt>
      <trkpt lat="41.4699659217149" lon="2.0907984394580126">
        <ele>130.8000030517578</ele>
        <time>2019-02-22T15:52:39.000Z</time>
      </trkpt>
      <trkpt lat="41.47001814097166" lon="2.090923748910427">
        <ele>130.8000030517578</ele>
        <time>2019-02-22T15:52:41.000Z</time>
      </trkpt>
      <trkpt lat="41.47006742656231" lon="2.0913499686867">
        <ele>130.39999389648438</ele>
        <time>2019-02-22T15:52:47.000Z</time>
      </trkpt>
      <trkpt lat="41.47007580846548" lon="2.0914958138018847">
        <ele>130.0</ele>
        <time>2019-02-22T15:52:49.000Z</time>
      </trkpt>
      <trkpt lat="41.47009240463376" lon="2.0917153358459473">
        <ele>130.0</ele>
        <time>2019-02-22T15:52:52.000Z</time>
      </trkpt>
      <trkpt lat="41.4701091684401" lon="2.0920126419514418">
        <ele>130.0</ele>
        <time>2019-02-22T15:52:56.000Z</time>
      </trkpt>
      <trkpt lat="41.47012651897967" lon="2.092189332470298">
        <ele>129.8000030517578</ele>
        <time>2019-02-22T15:52:59.000Z</time>
      </trkpt>
      <trkpt lat="41.470130039379" lon="2.0923411287367344">
        <ele>129.60000610351562</ele>
        <time>2019-02-22T15:53:02.000Z</time>
      </trkpt>
      <trkpt lat="41.47011872380972" lon="2.0926005486398935">
        <ele>129.1999969482422</ele>
        <time>2019-02-22T15:53:08.000Z</time>
      </trkpt>
      <trkpt lat="41.470116544514894" lon="2.0927126985043287">
        <ele>128.8000030517578</ele>
        <time>2019-02-22T15:53:10.000Z</time>
      </trkpt>
      <trkpt lat="41.47010958753526" lon="2.092909002676606">
        <ele>128.60000610351562</ele>
        <time>2019-02-22T15:53:13.000Z</time>
      </trkpt>
      <trkpt lat="41.47006994113326" lon="2.0934059657156467">
        <ele>128.1999969482422</ele>
        <time>2019-02-22T15:53:20.000Z</time>
      </trkpt>
      <trkpt lat="41.470046220347285" lon="2.0935500506311655">
        <ele>127.5999984741211</ele>
        <time>2019-02-22T15:53:22.000Z</time>
      </trkpt>
      <trkpt lat="41.4699920732528" lon="2.0938210375607014">
        <ele>126.80000305175781</ele>
        <time>2019-02-22T15:53:26.000Z</time>
      </trkpt>
      <trkpt lat="41.46994764916599" lon="2.0941040944308043">
        <ele>127.19999694824219</ele>
        <time>2019-02-22T15:53:32.000Z</time>
      </trkpt>
      <trkpt lat="41.46990272216499" lon="2.0943417213857174">
        <ele>127.4000015258789</ele>
        <time>2019-02-22T15:53:38.000Z</time>
      </trkpt>
      <trkpt lat="41.46986525505781" lon="2.0944359339773655">
        <ele>127.4000015258789</ele>
        <time>2019-02-22T15:53:40.000Z</time>
      </trkpt>
      <trkpt lat="41.46983616985381" lon="2.094540875405073">
        <ele>127.19999694824219</ele>
        <time>2019-02-22T15:53:42.000Z</time>
      </trkpt>
      <trkpt lat="41.469811694696546" lon="2.094648415222764">
        <ele>127.19999694824219</ele>
        <time>2019-02-22T15:53:44.000Z</time>
      </trkpt>
      <trkpt lat="41.46979685872793" lon="2.0947022270411253">
        <ele>127.0</ele>
        <time>2019-02-22T15:53:45.000Z</time>
      </trkpt>
      <trkpt lat="41.469760313630104" lon="2.0948072522878647">
        <ele>126.5999984741211</ele>
        <time>2019-02-22T15:53:47.000Z</time>
      </trkpt>
      <trkpt lat="41.46968278102577" lon="2.0949639100581408">
        <ele>126.4000015258789</ele>
        <time>2019-02-22T15:53:50.000Z</time>
      </trkpt>
      <trkpt lat="41.4696292206645" lon="2.0950714498758316">
        <ele>126.0</ele>
        <time>2019-02-22T15:53:52.000Z</time>
      </trkpt>
      <trkpt lat="41.46954984404147" lon="2.0951421093195677">
        <ele>125.5999984741211</ele>
        <time>2019-02-22T15:53:54.000Z</time>
      </trkpt>
      <trkpt lat="41.46950894035399" lon="2.0951548498123884">
        <ele>125.5999984741211</ele>
        <time>2019-02-22T15:53:55.000Z</time>
      </trkpt>
      <trkpt lat="41.469365023076534" lon="2.0952172111719847">
        <ele>125.4000015258789</ele>
        <time>2019-02-22T15:53:59.000Z</time>
      </trkpt>
      <trkpt lat="41.46929444745183" lon="2.0953554287552834">
        <ele>125.5999984741211</ele>
        <time>2019-02-22T15:54:03.000Z</time>
      </trkpt>
      <trkpt lat="41.46926309913397" lon="2.0954876113682985">
        <ele>125.4000015258789</ele>
        <time>2019-02-22T15:54:06.000Z</time>
      </trkpt>
      <trkpt lat="41.469228733330965" lon="2.095594061538577">
        <ele>125.19999694824219</ele>
        <time>2019-02-22T15:54:09.000Z</time>
      </trkpt>
      <trkpt lat="41.469185231253505" lon="2.0957980770617723">
        <ele>124.4000015258789</ele>
        <time>2019-02-22T15:54:13.000Z</time>
      </trkpt>
      <trkpt lat="41.469173999503255" lon="2.0959767792373896">
        <ele>123.0</ele>
        <time>2019-02-22T15:54:16.000Z</time>
      </trkpt>
      <trkpt lat="41.46918212994933" lon="2.09610384888947">
        <ele>122.19999694824219</ele>
        <time>2019-02-22T15:54:18.000Z</time>
      </trkpt>
      <trkpt lat="41.46920660510659" lon="2.0962087903171778">
        <ele>122.0</ele>
        <time>2019-02-22T15:54:20.000Z</time>
      </trkpt>
      <trkpt lat="41.46924398839474" lon="2.096302416175604">
        <ele>121.4000015258789</ele>
        <time>2019-02-22T15:54:22.000Z</time>
      </trkpt>
      <trkpt lat="41.46925991401076" lon="2.0963485166430473">
        <ele>121.5999984741211</ele>
        <time>2019-02-22T15:54:23.000Z</time>
      </trkpt>
      <trkpt lat="41.469253627583385" lon="2.096502995118499">
        <ele>121.4000015258789</ele>
        <time>2019-02-22T15:54:26.000Z</time>
      </trkpt>
      <trkpt lat="41.46915514022112" lon="2.096790662035346">
        <ele>123.0</ele>
        <time>2019-02-22T15:54:32.000Z</time>
      </trkpt>
      <trkpt lat="41.469133431091905" lon="2.096838103607297">
        <ele>123.19999694824219</ele>
        <time>2019-02-22T15:54:33.000Z</time>
      </trkpt>
      <trkpt lat="41.469058664515615" lon="2.096977327018976">
        <ele>123.80000305175781</ele>
        <time>2019-02-22T15:54:36.000Z</time>
      </trkpt>
      <trkpt lat="41.46900619380176" lon="2.0970805920660496">
        <ele>124.0</ele>
        <time>2019-02-22T15:54:38.000Z</time>
      </trkpt>
      <trkpt lat="41.468950202688575" lon="2.09718762896955">
        <ele>124.19999694824219</ele>
        <time>2019-02-22T15:54:40.000Z</time>
      </trkpt>
      <trkpt lat="41.4688400644809" lon="2.0974131021648645">
        <ele>124.19999694824219</ele>
        <time>2019-02-22T15:54:44.000Z</time>
      </trkpt>
      <trkpt lat="41.46870268508792" lon="2.097705714404583">
        <ele>124.4000015258789</ele>
        <time>2019-02-22T15:54:49.000Z</time>
      </trkpt>
      <trkpt lat="41.468473859131336" lon="2.098190439864993">
        <ele>124.0</ele>
        <time>2019-02-22T15:54:57.000Z</time>
      </trkpt>
      <trkpt lat="41.468272525817156" lon="2.098594531416893">
        <ele>124.5999984741211</ele>
        <time>2019-02-22T15:55:04.000Z</time>
      </trkpt>
      <trkpt lat="41.468209913000464" lon="2.098697880282998">
        <ele>124.4000015258789</ele>
        <time>2019-02-22T15:55:06.000Z</time>
      </trkpt>
      <trkpt lat="41.46808133460581" lon="2.0988186635077">
        <ele>124.5999984741211</ele>
        <time>2019-02-22T15:55:09.000Z</time>
      </trkpt>
      <trkpt lat="41.46785845980048" lon="2.099147317931056">
        <ele>124.0</ele>
        <time>2019-02-22T15:55:15.000Z</time>
      </trkpt>
      <trkpt lat="41.467767767608166" lon="2.099328450858593">
        <ele>124.19999694824219</ele>
        <time>2019-02-22T15:55:18.000Z</time>
      </trkpt>
      <trkpt lat="41.46774304099381" lon="2.099392404779792">
        <ele>124.4000015258789</ele>
        <time>2019-02-22T15:55:19.000Z</time>
      </trkpt>
      <trkpt lat="41.46772015839815" lon="2.099453592672944">
        <ele>124.4000015258789</ele>
        <time>2019-02-22T15:55:20.000Z</time>
      </trkpt>
      <trkpt lat="41.46766877733171" lon="2.0995747949928045">
        <ele>124.5999984741211</ele>
        <time>2019-02-22T15:55:22.000Z</time>
      </trkpt>
      <trkpt lat="41.46747733466327" lon="2.099990453571081">
        <ele>124.80000305175781</ele>
        <time>2019-02-22T15:55:29.000Z</time>
      </trkpt>
      <trkpt lat="41.467452608048916" lon="2.100051222369075">
        <ele>125.19999694824219</ele>
        <time>2019-02-22T15:55:30.000Z</time>
      </trkpt>
      <trkpt lat="41.46740290336311" lon="2.1001699939370155">
        <ele>126.19999694824219</ele>
        <time>2019-02-22T15:55:32.000Z</time>
      </trkpt>
      <trkpt lat="41.4673738181591" lon="2.1002242248505354">
        <ele>126.5999984741211</ele>
        <time>2019-02-22T15:55:33.000Z</time>
      </trkpt>
      <trkpt lat="41.46731405518949" lon="2.100318856537342">
        <ele>126.5999984741211</ele>
        <time>2019-02-22T15:55:35.000Z</time>
      </trkpt>
      <trkpt lat="41.46729209460318" lon="2.1003678906708956">
        <ele>126.5999984741211</ele>
        <time>2019-02-22T15:55:36.000Z</time>
      </trkpt>
      <trkpt lat="41.46727491170168" lon="2.100425809621811">
        <ele>126.4000015258789</ele>
        <time>2019-02-22T15:55:37.000Z</time>
      </trkpt>
      <trkpt lat="41.467229230329394" lon="2.1006781049072742">
        <ele>125.80000305175781</ele>
        <time>2019-02-22T15:55:41.000Z</time>
      </trkpt>
      <trkpt lat="41.46718455478549" lon="2.1010388620197773">
        <ele>127.4000015258789</ele>
        <time>2019-02-22T15:55:47.000Z</time>
      </trkpt>
      <trkpt lat="41.46717080846429" lon="2.1010973677039146">
        <ele>127.5999984741211</ele>
        <time>2019-02-22T15:55:48.000Z</time>
      </trkpt>
      <trkpt lat="41.46709755063057" lon="2.1015794947743416">
        <ele>128.60000610351562</ele>
        <time>2019-02-22T15:55:56.000Z</time>
      </trkpt>
      <trkpt lat="41.46704181097448" lon="2.101863557472825">
        <ele>129.8000030517578</ele>
        <time>2019-02-22T15:56:01.000Z</time>
      </trkpt>
      <trkpt lat="41.46701507270336" lon="2.102042008191347">
        <ele>130.0</ele>
        <time>2019-02-22T15:56:04.000Z</time>
      </trkpt>
      <trkpt lat="41.466949777677655" lon="2.1024141646921635">
        <ele>130.1999969482422</ele>
        <time>2019-02-22T15:56:10.000Z</time>
      </trkpt>
      <trkpt lat="41.46692278794944" lon="2.102535283192992">
        <ele>130.39999389648438</ele>
        <time>2019-02-22T15:56:12.000Z</time>
      </trkpt>
      <trkpt lat="41.466904850676656" lon="2.1025932859629393">
        <ele>130.60000610351562</ele>
        <time>2019-02-22T15:56:13.000Z</time>
      </trkpt>
      <trkpt lat="41.46688791923225" lon="2.1026500314474106">
        <ele>130.8000030517578</ele>
        <time>2019-02-22T15:56:14.000Z</time>
      </trkpt>
      <trkpt lat="41.46687023341656" lon="2.1027039270848036">
        <ele>131.1999969482422</ele>
        <time>2019-02-22T15:56:15.000Z</time>
      </trkpt>
      <trkpt lat="41.466783648356795" lon="2.1029024943709373">
        <ele>132.0</ele>
        <time>2019-02-22T15:56:19.000Z</time>
      </trkpt>
      <trkpt lat="41.46664350293577" lon="2.1031749062240124">
        <ele>132.8000030517578</ele>
        <time>2019-02-22T15:56:25.000Z</time>
      </trkpt>
      <trkpt lat="41.466541746631265" lon="2.103498363867402">
        <ele>132.8000030517578</ele>
        <time>2019-02-22T15:56:30.000Z</time>
      </trkpt>
      <trkpt lat="41.466510063037276" lon="2.1035561989992857">
        <ele>132.8000030517578</ele>
        <time>2019-02-22T15:56:31.000Z</time>
      </trkpt>
      <trkpt lat="41.46642490290105" lon="2.1037980169057846">
        <ele>132.60000610351562</ele>
        <time>2019-02-22T15:56:35.000Z</time>
      </trkpt>
      <trkpt lat="41.466380562633276" lon="2.1039075683802366">
        <ele>132.39999389648438</ele>
        <time>2019-02-22T15:56:37.000Z</time>
      </trkpt>
      <trkpt lat="41.46631484851241" lon="2.103985184803605">
        <ele>132.8000030517578</ele>
        <time>2019-02-22T15:56:39.000Z</time>
      </trkpt>
      <trkpt lat="41.46627436392009" lon="2.1040104143321514">
        <ele>133.1999969482422</ele>
        <time>2019-02-22T15:56:40.000Z</time>
      </trkpt>
      <trkpt lat="41.46623170003295" lon="2.1040268428623676">
        <ele>133.1999969482422</ele>
        <time>2019-02-22T15:56:41.000Z</time>
      </trkpt>
      <trkpt lat="41.46615106612444" lon="2.104054167866707">
        <ele>133.39999389648438</ele>
        <time>2019-02-22T15:56:43.000Z</time>
      </trkpt>
      <trkpt lat="41.46606372669339" lon="2.104116026312113">
        <ele>133.60000610351562</ele>
        <time>2019-02-22T15:56:45.000Z</time>
      </trkpt>
      <trkpt lat="41.466029193252325" lon="2.104156343266368">
        <ele>133.60000610351562</ele>
        <time>2019-02-22T15:56:46.000Z</time>
      </trkpt>
      <trkpt lat="41.46599750965834" lon="2.104207221418619">
        <ele>133.60000610351562</ele>
        <time>2019-02-22T15:56:47.000Z</time>
      </trkpt>
      <trkpt lat="41.465969514101744" lon="2.1042597759515047">
        <ele>133.60000610351562</ele>
        <time>2019-02-22T15:56:48.000Z</time>
      </trkpt>
      <trkpt lat="41.465902123600245" lon="2.104431437328458">
        <ele>134.1999969482422</ele>
        <time>2019-02-22T15:56:51.000Z</time>
      </trkpt>
      <trkpt lat="41.465879241004586" lon="2.104490026831627">
        <ele>134.1999969482422</ele>
        <time>2019-02-22T15:56:52.000Z</time>
      </trkpt>
      <trkpt lat="41.465823920443654" lon="2.104668812826276">
        <ele>134.39999389648438</ele>
        <time>2019-02-22T15:56:55.000Z</time>
      </trkpt>
      <trkpt lat="41.46578234620392" lon="2.104848939925432">
        <ele>134.60000610351562</ele>
        <time>2019-02-22T15:56:58.000Z</time>
      </trkpt>
      <trkpt lat="41.46562962792814" lon="2.105289828032255">
        <ele>135.1999969482422</ele>
        <time>2019-02-22T15:57:06.000Z</time>
      </trkpt>
      <trkpt lat="41.465605990961194" lon="2.105341125279665">
        <ele>135.1999969482422</ele>
        <time>2019-02-22T15:57:07.000Z</time>
      </trkpt>
      <trkpt lat="41.46554044447839" lon="2.105494011193514">
        <ele>135.39999389648438</ele>
        <time>2019-02-22T15:57:10.000Z</time>
      </trkpt>
      <trkpt lat="41.465506413951516" lon="2.1056075859814882">
        <ele>135.60000610351562</ele>
        <time>2019-02-22T15:57:12.000Z</time>
      </trkpt>
      <trkpt lat="41.465371968224645" lon="2.1058761421591043">
        <ele>135.39999389648438</ele>
        <time>2019-02-22T15:57:17.000Z</time>
      </trkpt>
      <trkpt lat="41.465350510552526" lon="2.105927187949419">
        <ele>135.60000610351562</ele>
        <time>2019-02-22T15:57:18.000Z</time>
      </trkpt>
      <trkpt lat="41.46532695740461" lon="2.1060313750058413">
        <ele>135.60000610351562</ele>
        <time>2019-02-22T15:57:20.000Z</time>
      </trkpt>
      <trkpt lat="41.46531891077757" lon="2.106086192652583">
        <ele>135.8000030517578</ele>
        <time>2019-02-22T15:57:21.000Z</time>
      </trkpt>
      <trkpt lat="41.465299632400274" lon="2.1062819100916386">
        <ele>136.1999969482422</ele>
        <time>2019-02-22T15:57:24.000Z</time>
      </trkpt>
      <trkpt lat="41.46529904566705" lon="2.106411326676607">
        <ele>136.39999389648438</ele>
        <time>2019-02-22T15:57:26.000Z</time>
      </trkpt>
      <trkpt lat="41.46528923884034" lon="2.1064760349690914">
        <ele>136.60000610351562</ele>
        <time>2019-02-22T15:57:27.000Z</time>
      </trkpt>
      <trkpt lat="41.46521866321564" lon="2.1066565811634064">
        <ele>136.39999389648438</ele>
        <time>2019-02-22T15:57:30.000Z</time>
      </trkpt>
      <trkpt lat="41.4651876501739" lon="2.106707375496626">
        <ele>136.39999389648438</ele>
        <time>2019-02-22T15:57:31.000Z</time>
      </trkpt>
      <trkpt lat="41.4651102013886" lon="2.106786835938692">
        <ele>136.39999389648438</ele>
        <time>2019-02-22T15:57:33.000Z</time>
      </trkpt>
      <trkpt lat="41.46499939262867" lon="2.1068835631012917">
        <ele>136.0</ele>
        <time>2019-02-22T15:57:36.000Z</time>
      </trkpt>
      <trkpt lat="41.46496376954019" lon="2.1070200204849243">
        <ele>135.8000030517578</ele>
        <time>2019-02-22T15:57:38.000Z</time>
      </trkpt>
      <trkpt lat="41.46497927606106" lon="2.1071079466491938">
        <ele>135.8000030517578</ele>
        <time>2019-02-22T15:57:39.000Z</time>
      </trkpt>
      <trkpt lat="41.465007523074746" lon="2.107197716832161">
        <ele>135.60000610351562</ele>
        <time>2019-02-22T15:57:40.000Z</time>
      </trkpt>
      <trkpt lat="41.46503945812583" lon="2.107298467308283">
        <ele>134.60000610351562</ele>
        <time>2019-02-22T15:57:41.000Z</time>
      </trkpt>
      <trkpt lat="41.465079355984926" lon="2.10739703848958">
        <ele>133.39999389648438</ele>
        <time>2019-02-22T15:57:42.000Z</time>
      </trkpt>
      <trkpt lat="41.46514029242098" lon="2.1075960248708725">
        <ele>131.8000030517578</ele>
        <time>2019-02-22T15:57:44.000Z</time>
      </trkpt>
      <trkpt lat="41.4651810284704" lon="2.107769111171365">
        <ele>131.60000610351562</ele>
        <time>2019-02-22T15:57:46.000Z</time>
      </trkpt>
      <trkpt lat="41.465187901631" lon="2.1079220809042454">
        <ele>132.8000030517578</ele>
        <time>2019-02-22T15:57:48.000Z</time>
      </trkpt>
      <trkpt lat="41.46516309119761" lon="2.108043786138296">
        <ele>134.1999969482422</ele>
        <time>2019-02-22T15:57:50.000Z</time>
      </trkpt>
      <trkpt lat="41.46512646228075" lon="2.1081497333943844">
        <ele>135.1999969482422</ele>
        <time>2019-02-22T15:57:52.000Z</time>
      </trkpt>
      <trkpt lat="41.46507650613785" lon="2.108301781117916">
        <ele>136.8000030517578</ele>
        <time>2019-02-22T15:57:55.000Z</time>
      </trkpt>
      <trkpt lat="41.46506141871214" lon="2.1084002684801817">
        <ele>138.0</ele>
        <time>2019-02-22T15:57:57.000Z</time>
      </trkpt>
      <trkpt lat="41.46505203098059" lon="2.1084467880427837">
        <ele>138.1999969482422</ele>
        <time>2019-02-22T15:57:58.000Z</time>
      </trkpt>
      <trkpt lat="41.465031914412975" lon="2.1085859276354313">
        <ele>139.1999969482422</ele>
        <time>2019-02-22T15:58:01.000Z</time>
      </trkpt>
      <trkpt lat="41.46501858718693" lon="2.108668237924576">
        <ele>139.39999389648438</ele>
        <time>2019-02-22T15:58:03.000Z</time>
      </trkpt>
      <trkpt lat="41.46498137153685" lon="2.108740070834756">
        <ele>140.0</ele>
        <time>2019-02-22T15:58:05.000Z</time>
      </trkpt>
      <trkpt lat="41.464951783418655" lon="2.1087569184601307">
        <ele>140.0</ele>
        <time>2019-02-22T15:58:06.000Z</time>
      </trkpt>
      <trkpt lat="41.46492412313819" lon="2.1087654680013657">
        <ele>140.1999969482422</ele>
        <time>2019-02-22T15:58:07.000Z</time>
      </trkpt>
      <trkpt lat="41.46483653225005" lon="2.10876421071589">
        <ele>140.60000610351562</ele>
        <time>2019-02-22T15:58:10.000Z</time>
      </trkpt>
      <trkpt lat="41.46480828523636" lon="2.1087611094117165">
        <ele>140.60000610351562</ele>
        <time>2019-02-22T15:58:11.000Z</time>
      </trkpt>
      <trkpt lat="41.46468875929713" lon="2.1087322756648064">
        <ele>140.39999389648438</ele>
        <time>2019-02-22T15:58:16.000Z</time>
      </trkpt>
      <trkpt lat="41.46461483091116" lon="2.1087461058050394">
        <ele>141.60000610351562</ele>
        <time>2019-02-22T15:58:19.000Z</time>
      </trkpt>
      <trkpt lat="41.464556492865086" lon="2.10879840888083">
        <ele>142.8000030517578</ele>
        <time>2019-02-22T15:58:22.000Z</time>
      </trkpt>
      <trkpt lat="41.464513996616006" lon="2.1088630333542824">
        <ele>143.8000030517578</ele>
        <time>2019-02-22T15:58:25.000Z</time>
      </trkpt>
      <trkpt lat="41.464462196454406" lon="2.1089584194123745">
        <ele>144.8000030517578</ele>
        <time>2019-02-22T15:58:29.000Z</time>
      </trkpt>
      <trkpt lat="41.464446522295475" lon="2.108986834064126">
        <ele>145.0</ele>
        <time>2019-02-22T15:58:30.000Z</time>
      </trkpt>
      <trkpt lat="41.46436362527311" lon="2.109094290062785">
        <ele>146.39999389648438</ele>
        <time>2019-02-22T15:58:35.000Z</time>
      </trkpt>
      <trkpt lat="41.46434501744807" lon="2.1091157477349043">
        <ele>146.8000030517578</ele>
        <time>2019-02-22T15:58:36.000Z</time>
      </trkpt>
      <trkpt lat="41.464308220893145" lon="2.109159165993333">
        <ele>147.8000030517578</ele>
        <time>2019-02-22T15:58:38.000Z</time>
      </trkpt>
      <trkpt lat="41.46418861113489" lon="2.109254887327552">
        <ele>148.8000030517578</ele>
        <time>2019-02-22T15:58:44.000Z</time>
      </trkpt>
      <trkpt lat="41.46411828696728" lon="2.1093475073575974">
        <ele>150.1999969482422</ele>
        <time>2019-02-22T15:58:48.000Z</time>
      </trkpt>
      <trkpt lat="41.46406413987279" lon="2.1094604954123497">
        <ele>151.39999389648438</ele>
        <time>2019-02-22T15:58:52.000Z</time>
      </trkpt>
      <trkpt lat="41.464037988334894" lon="2.109656296670437">
        <ele>152.60000610351562</ele>
        <time>2019-02-22T15:58:58.000Z</time>
      </trkpt>
      <trkpt lat="41.464036982506514" lon="2.1096858847886324">
        <ele>152.8000030517578</ele>
        <time>2019-02-22T15:58:59.000Z</time>
      </trkpt>
      <trkpt lat="41.46402164362371" lon="2.109887972474098">
        <ele>153.0</ele>
        <time>2019-02-22T15:59:05.000Z</time>
      </trkpt>
      <trkpt lat="41.46405014209449" lon="2.1101169660687447">
        <ele>153.60000610351562</ele>
        <time>2019-02-22T15:59:10.000Z</time>
      </trkpt>
      <trkpt lat="41.46406229585409" lon="2.11022375151515">
        <ele>153.8000030517578</ele>
        <time>2019-02-22T15:59:12.000Z</time>
      </trkpt>
      <trkpt lat="41.464065397158265" lon="2.110402872785926">
        <ele>154.0</ele>
        <time>2019-02-22T15:59:15.000Z</time>
      </trkpt>
      <trkpt lat="41.46404720842838" lon="2.1105864364653826">
        <ele>153.39999389648438</ele>
        <time>2019-02-22T15:59:18.000Z</time>
      </trkpt>
      <trkpt lat="41.46401435136795" lon="2.1107125002890825">
        <ele>153.1999969482422</ele>
        <time>2019-02-22T15:59:20.000Z</time>
      </trkpt>
      <trkpt lat="41.46394218318164" lon="2.110938224941492">
        <ele>154.0</ele>
        <time>2019-02-22T15:59:24.000Z</time>
      </trkpt>
      <trkpt lat="41.463832380250096" lon="2.111327648162842">
        <ele>154.1999969482422</ele>
        <time>2019-02-22T15:59:31.000Z</time>
      </trkpt>
      <trkpt lat="41.463765827938914" lon="2.111446587368846">
        <ele>154.8000030517578</ele>
        <time>2019-02-22T15:59:34.000Z</time>
      </trkpt>
      <trkpt lat="41.463677398860455" lon="2.1115638501942158">
        <ele>156.0</ele>
        <time>2019-02-22T15:59:37.000Z</time>
      </trkpt>
      <trkpt lat="41.46353289484978" lon="2.111727213487029">
        <ele>156.8000030517578</ele>
        <time>2019-02-22T15:59:42.000Z</time>
      </trkpt>
      <trkpt lat="41.46348268724978" lon="2.1117716375738382">
        <ele>157.0</ele>
        <time>2019-02-22T15:59:44.000Z</time>
      </trkpt>
      <trkpt lat="41.46334061399102" lon="2.1118236891925335">
        <ele>157.8000030517578</ele>
        <time>2019-02-22T15:59:48.000Z</time>
      </trkpt>
      <trkpt lat="41.46322175860405" lon="2.1118037402629852">
        <ele>158.0</ele>
        <time>2019-02-22T15:59:51.000Z</time>
      </trkpt>
      <trkpt lat="41.46313249133527" lon="2.111766440793872">
        <ele>157.8000030517578</ele>
        <time>2019-02-22T15:59:53.000Z</time>
      </trkpt>
      <trkpt lat="41.463089156895876" lon="2.1117417979985476">
        <ele>157.60000610351562</ele>
        <time>2019-02-22T15:59:54.000Z</time>
      </trkpt>
      <trkpt lat="41.463008942082524" lon="2.1117182448506355">
        <ele>157.60000610351562</ele>
        <time>2019-02-22T15:59:56.000Z</time>
      </trkpt>
      <trkpt lat="41.462968960404396" lon="2.1117176581174135">
        <ele>157.60000610351562</ele>
        <time>2019-02-22T15:59:57.000Z</time>
      </trkpt>
      <trkpt lat="41.46289436146617" lon="2.1117197535932064">
        <ele>157.39999389648438</ele>
        <time>2019-02-22T15:59:59.000Z</time>
      </trkpt>
      <trkpt lat="41.462699649855494" lon="2.11173752322793">
        <ele>157.0</ele>
        <time>2019-02-22T16:00:03.000Z</time>
      </trkpt>
      <trkpt lat="41.462576771155" lon="2.111710114404559">
        <ele>156.39999389648438</ele>
        <time>2019-02-22T16:00:05.000Z</time>
      </trkpt>
      <trkpt lat="41.462447522208095" lon="2.1116390358656645">
        <ele>155.8000030517578</ele>
        <time>2019-02-22T16:00:07.000Z</time>
      </trkpt>
      <trkpt lat="41.46227083168924" lon="2.1114682964980602">
        <ele>154.8000030517578</ele>
        <time>2019-02-22T16:00:10.000Z</time>
      </trkpt>
      <trkpt lat="41.462157843634486" lon="2.111340304836631">
        <ele>154.60000610351562</ele>
        <time>2019-02-22T16:00:12.000Z</time>
      </trkpt>
      <trkpt lat="41.46202549338341" lon="2.1111388877034187">
        <ele>154.0</ele>
        <time>2019-02-22T16:00:15.000Z</time>
      </trkpt>
      <trkpt lat="41.46192692220211" lon="2.1110378857702017">
        <ele>154.1999969482422</ele>
        <time>2019-02-22T16:00:17.000Z</time>
      </trkpt>
      <trkpt lat="41.46167395636439" lon="2.1107773762196302">
        <ele>155.0</ele>
        <time>2019-02-22T16:00:23.000Z</time>
      </trkpt>
      <trkpt lat="41.461637914180756" lon="2.110743010416627">
        <ele>155.39999389648438</ele>
        <time>2019-02-22T16:00:24.000Z</time>
      </trkpt>
      <trkpt lat="41.46152878180146" lon="2.110668495297432">
        <ele>155.60000610351562</ele>
        <time>2019-02-22T16:00:27.000Z</time>
      </trkpt>
      <trkpt lat="41.46149114705622" lon="2.1106530725955963">
        <ele>156.0</ele>
        <time>2019-02-22T16:00:28.000Z</time>
      </trkpt>
      <trkpt lat="41.46139022894204" lon="2.110588029026985">
        <ele>156.8000030517578</ele>
        <time>2019-02-22T16:00:31.000Z</time>
      </trkpt>
      <trkpt lat="41.4612920768559" lon="2.1105510648339987">
        <ele>157.60000610351562</ele>
        <time>2019-02-22T16:00:34.000Z</time>
      </trkpt>
      <trkpt lat="41.461198115721345" lon="2.1105514001101255">
        <ele>158.0</ele>
        <time>2019-02-22T16:00:37.000Z</time>
      </trkpt>
      <trkpt lat="41.46107339300215" lon="2.1105607878416777">
        <ele>159.1999969482422</ele>
        <time>2019-02-22T16:00:41.000Z</time>
      </trkpt>
      <trkpt lat="41.46094414405525" lon="2.110546538606286">
        <ele>160.39999389648438</ele>
        <time>2019-02-22T16:00:45.000Z</time>
      </trkpt>
      <trkpt lat="41.460829144343734" lon="2.110537737607956">
        <ele>161.39999389648438</ele>
        <time>2019-02-22T16:00:49.000Z</time>
      </trkpt>
      <trkpt lat="41.46079905331135" lon="2.110537653788924">
        <ele>161.60000610351562</ele>
        <time>2019-02-22T16:00:50.000Z</time>
      </trkpt>
      <trkpt lat="41.460715821012855" lon="2.1105195488780737">
        <ele>162.8000030517578</ele>
        <time>2019-02-22T16:00:53.000Z</time>
      </trkpt>
      <trkpt lat="41.460653292015195" lon="2.1105069760233164">
        <ele>163.39999389648438</ele>
        <time>2019-02-22T16:00:55.000Z</time>
      </trkpt>
      <trkpt lat="41.460623033344746" lon="2.110497420653701">
        <ele>163.8000030517578</ele>
        <time>2019-02-22T16:00:56.000Z</time>
      </trkpt>
      <trkpt lat="41.46043938584626" lon="2.1105016116052866">
        <ele>164.8000030517578</ele>
        <time>2019-02-22T16:01:02.000Z</time>
      </trkpt>
      <trkpt lat="41.46040828898549" lon="2.110506221652031">
        <ele>164.8000030517578</ele>
        <time>2019-02-22T16:01:03.000Z</time>
      </trkpt>
      <trkpt lat="41.460288260132074" lon="2.110461210832">
        <ele>164.8000030517578</ele>
        <time>2019-02-22T16:01:08.000Z</time>
      </trkpt>
      <trkpt lat="41.46012833341956" lon="2.1103994362056255">
        <ele>166.0</ele>
        <time>2019-02-22T16:01:15.000Z</time>
      </trkpt>
      <trkpt lat="41.460105534642935" lon="2.1103965025395155">
        <ele>166.1999969482422</ele>
        <time>2019-02-22T16:01:16.000Z</time>
      </trkpt>
      <trkpt lat="41.460038563236594" lon="2.1103599574416876">
        <ele>167.0</ele>
        <time>2019-02-22T16:01:20.000Z</time>
      </trkpt>
      <trkpt lat="41.45998525433242" lon="2.110358029603958">
        <ele>167.39999389648438</ele>
        <time>2019-02-22T16:01:23.000Z</time>
      </trkpt>
      <trkpt lat="41.45992540754378" lon="2.1103514917194843">
        <ele>168.39999389648438</ele>
        <time>2019-02-22T16:01:26.000Z</time>
      </trkpt>
      <trkpt lat="41.459863716736436" lon="2.1103497315198183">
        <ele>169.60000610351562</ele>
        <time>2019-02-22T16:01:29.000Z</time>
      </trkpt>
      <trkpt lat="41.45982541143894" lon="2.110343361273408">
        <ele>170.0</ele>
        <time>2019-02-22T16:01:31.000Z</time>
      </trkpt>
      <trkpt lat="41.45977436564863" lon="2.110317964106798">
        <ele>170.8000030517578</ele>
        <time>2019-02-22T16:01:34.000Z</time>
      </trkpt>
      <trkpt lat="41.459683338180184" lon="2.1102863643318415">
        <ele>171.1999969482422</ele>
        <time>2019-02-22T16:01:39.000Z</time>
      </trkpt>
      <trkpt lat="41.45952911116183" lon="2.110267421230674">
        <ele>172.0</ele>
        <time>2019-02-22T16:01:46.000Z</time>
      </trkpt>
      <trkpt lat="41.45950773730874" lon="2.1102663315832615">
        <ele>172.1999969482422</ele>
        <time>2019-02-22T16:01:47.000Z</time>
      </trkpt>
      <trkpt lat="41.45942945033312" lon="2.110263481736183">
        <ele>173.1999969482422</ele>
        <time>2019-02-22T16:01:51.000Z</time>
      </trkpt>
      <trkpt lat="41.45935342647135" lon="2.110270271077752">
        <ele>173.8000030517578</ele>
        <time>2019-02-22T16:01:55.000Z</time>
      </trkpt>
      <trkpt lat="41.45931461825967" lon="2.1102836821228266">
        <ele>174.39999389648438</ele>
        <time>2019-02-22T16:01:57.000Z</time>
      </trkpt>
      <trkpt lat="41.45921143703163" lon="2.1103446185588837">
        <ele>174.60000610351562</ele>
        <time>2019-02-22T16:02:02.000Z</time>
      </trkpt>
      <trkpt lat="41.4591143745929" lon="2.1104036271572113">
        <ele>175.39999389648438</ele>
        <time>2019-02-22T16:02:07.000Z</time>
      </trkpt>
      <trkpt lat="41.45909199491143" lon="2.110420810058713">
        <ele>175.39999389648438</ele>
        <time>2019-02-22T16:02:08.000Z</time>
      </trkpt>
      <trkpt lat="41.458925027400255" lon="2.1105752885341644">
        <ele>175.1999969482422</ele>
        <time>2019-02-22T16:02:16.000Z</time>
      </trkpt>
      <trkpt lat="41.45875034853816" lon="2.110811322927475">
        <ele>175.0</ele>
        <time>2019-02-22T16:02:23.000Z</time>
      </trkpt>
      <trkpt lat="41.45860416814685" lon="2.111072838306427">
        <ele>174.8000030517578</ele>
        <time>2019-02-22T16:02:29.000Z</time>
      </trkpt>
      <trkpt lat="41.45851372741163" lon="2.111289342865348">
        <ele>174.39999389648438</ele>
        <time>2019-02-22T16:02:33.000Z</time>
      </trkpt>
      <trkpt lat="41.45846636965871" lon="2.1113916859030724">
        <ele>174.1999969482422</ele>
        <time>2019-02-22T16:02:35.000Z</time>
      </trkpt>
      <trkpt lat="41.458395877853036" lon="2.111539877951145">
        <ele>174.1999969482422</ele>
        <time>2019-02-22T16:02:38.000Z</time>
      </trkpt>
      <trkpt lat="41.45830283872783" lon="2.1116432268172503">
        <ele>174.39999389648438</ele>
        <time>2019-02-22T16:02:41.000Z</time>
      </trkpt>
      <trkpt lat="41.458143666386604" lon="2.1118072606623173">
        <ele>174.8000030517578</ele>
        <time>2019-02-22T16:02:46.000Z</time>
      </trkpt>
      <trkpt lat="41.45813528448343" lon="2.111840369179845">
        <ele>175.0</ele>
        <time>2019-02-22T16:02:47.000Z</time>
      </trkpt>
      <trkpt lat="41.45813268609345" lon="2.111872723326087">
        <ele>175.0</ele>
        <time>2019-02-22T16:02:48.000Z</time>
      </trkpt>
      <trkpt lat="41.45813268609345" lon="2.111872723326087">
        <ele>175.0</ele>
        <time>2019-02-22T16:02:48.000Z</time>
      </trkpt>
      <trkpt lat="41.45816436968744" lon="2.112001134082675">
        <ele>175.1999969482422</ele>
        <time>2019-02-22T16:02:51.000Z</time>
      </trkpt>
      <trkpt lat="41.4581801276654" lon="2.1120527666062117">
        <ele>175.39999389648438</ele>
        <time>2019-02-22T16:02:52.000Z</time>
      </trkpt>
      <trkpt lat="41.458224803209305" lon="2.112163072451949">
        <ele>174.60000610351562</ele>
        <time>2019-02-22T16:02:54.000Z</time>
      </trkpt>
      <trkpt lat="41.45823972299695" lon="2.1122281160205603">
        <ele>173.60000610351562</ele>
        <time>2019-02-22T16:02:55.000Z</time>
      </trkpt>
      <trkpt lat="41.458246763795614" lon="2.112296847626567">
        <ele>173.0</ele>
        <time>2019-02-22T16:02:56.000Z</time>
      </trkpt>
      <trkpt lat="41.458240393549204" lon="2.1123631484806538">
        <ele>172.60000610351562</ele>
        <time>2019-02-22T16:02:57.000Z</time>
      </trkpt>
      <trkpt lat="41.458224300295115" lon="2.112421067431569">
        <ele>172.39999389648438</ele>
        <time>2019-02-22T16:02:58.000Z</time>
      </trkpt>
      <trkpt lat="41.45816495642066" lon="2.11251150816679">
        <ele>172.1999969482422</ele>
        <time>2019-02-22T16:03:00.000Z</time>
      </trkpt>
      <trkpt lat="41.458125645294785" lon="2.112549226731062">
        <ele>172.0</ele>
        <time>2019-02-22T16:03:01.000Z</time>
      </trkpt>
      <trkpt lat="41.458083568140864" lon="2.1125784795731306">
        <ele>171.60000610351562</ele>
        <time>2019-02-22T16:03:02.000Z</time>
      </trkpt>
      <trkpt lat="41.45799337886274" lon="2.1126145217567682">
        <ele>170.60000610351562</ele>
        <time>2019-02-22T16:03:04.000Z</time>
      </trkpt>
      <trkpt lat="41.457945853471756" lon="2.1126211434602737">
        <ele>170.39999389648438</ele>
        <time>2019-02-22T16:03:05.000Z</time>
      </trkpt>
      <trkpt lat="41.45773504860699" lon="2.1126105822622776">
        <ele>170.1999969482422</ele>
        <time>2019-02-22T16:03:10.000Z</time>
      </trkpt>
      <trkpt lat="41.4576032012701" lon="2.1126029547303915">
        <ele>171.60000610351562</ele>
        <time>2019-02-22T16:03:14.000Z</time>
      </trkpt>
      <trkpt lat="41.45757864229381" lon="2.1126156114041805">
        <ele>172.0</ele>
        <time>2019-02-22T16:03:15.000Z</time>
      </trkpt>
      <trkpt lat="41.45750035531819" lon="2.1126742009073496">
        <ele>172.8000030517578</ele>
        <time>2019-02-22T16:03:18.000Z</time>
      </trkpt>
      <trkpt lat="41.45742081105709" lon="2.112743519246578">
        <ele>172.8000030517578</ele>
        <time>2019-02-22T16:03:20.000Z</time>
      </trkpt>
      <trkpt lat="41.45728703588247" lon="2.112862206995487">
        <ele>171.39999389648438</ele>
        <time>2019-02-22T16:03:23.000Z</time>
      </trkpt>
      <trkpt lat="41.45719802007079" lon="2.112920293584466">
        <ele>170.0</ele>
        <time>2019-02-22T16:03:25.000Z</time>
      </trkpt>
      <trkpt lat="41.45712652243674" lon="2.112958012148738">
        <ele>168.39999389648438</ele>
        <time>2019-02-22T16:03:27.000Z</time>
      </trkpt>
      <trkpt lat="41.457074638456106" lon="2.1130103152245283">
        <ele>167.1999969482422</ele>
        <time>2019-02-22T16:03:29.000Z</time>
      </trkpt>
      <trkpt lat="41.45704220049083" lon="2.1131566632539034">
        <ele>166.0</ele>
        <time>2019-02-22T16:03:31.000Z</time>
      </trkpt>
      <trkpt lat="41.4570386800915" lon="2.1132478583604097">
        <ele>165.0</ele>
        <time>2019-02-22T16:03:32.000Z</time>
      </trkpt>
      <trkpt lat="41.457027196884155" lon="2.1133222058415413">
        <ele>163.39999389648438</ele>
        <time>2019-02-22T16:03:33.000Z</time>
      </trkpt>
      <trkpt lat="41.456965170800686" lon="2.1134110540151596">
        <ele>162.0</ele>
        <time>2019-02-22T16:03:35.000Z</time>
      </trkpt>
      <trkpt lat="41.45684229210019" lon="2.113568466156721">
        <ele>162.1999969482422</ele>
        <time>2019-02-22T16:03:38.000Z</time>
      </trkpt>
      <trkpt lat="41.45681295543909" lon="2.1136143151670694">
        <ele>162.39999389648438</ele>
        <time>2019-02-22T16:03:39.000Z</time>
      </trkpt>
      <trkpt lat="41.456748247146606" lon="2.11368715390563">
        <ele>163.1999969482422</ele>
        <time>2019-02-22T16:03:41.000Z</time>
      </trkpt>
      <trkpt lat="41.4566898252815" lon="2.1137273870408535">
        <ele>164.39999389648438</ele>
        <time>2019-02-22T16:03:43.000Z</time>
      </trkpt>
      <trkpt lat="41.45666082389653" lon="2.113732248544693">
        <ele>164.60000610351562</ele>
        <time>2019-02-22T16:03:44.000Z</time>
      </trkpt>
      <trkpt lat="41.45651682280004" lon="2.1137473359704018">
        <ele>165.1999969482422</ele>
        <time>2019-02-22T16:03:49.000Z</time>
      </trkpt>
      <trkpt lat="41.456392435356975" lon="2.113767033442855">
        <ele>164.8000030517578</ele>
        <time>2019-02-22T16:03:52.000Z</time>
      </trkpt>
      <trkpt lat="41.45634834654629" lon="2.11376435123384">
        <ele>164.60000610351562</ele>
        <time>2019-02-22T16:03:53.000Z</time>
      </trkpt>
      <trkpt lat="41.456263940781355" lon="2.113718083128333">
        <ele>164.1999969482422</ele>
        <time>2019-02-22T16:03:55.000Z</time>
      </trkpt>
      <trkpt lat="41.45614307373762" lon="2.113611549139023">
        <ele>164.0</ele>
        <time>2019-02-22T16:03:58.000Z</time>
      </trkpt>
      <trkpt lat="41.45597795024514" lon="2.1135812904685736">
        <ele>165.0</ele>
        <time>2019-02-22T16:04:03.000Z</time>
      </trkpt>
      <trkpt lat="41.455901926383376" lon="2.1135878283530474">
        <ele>165.60000610351562</ele>
        <time>2019-02-22T16:04:05.000Z</time>
      </trkpt>
      <trkpt lat="41.455755578354" lon="2.1136104594916105">
        <ele>165.8000030517578</ele>
        <time>2019-02-22T16:04:09.000Z</time>
      </trkpt>
      <trkpt lat="41.45558835938573" lon="2.113632168620825">
        <ele>166.60000610351562</ele>
        <time>2019-02-22T16:04:14.000Z</time>
      </trkpt>
      <trkpt lat="41.45535693503916" lon="2.1137318294495344">
        <ele>167.1999969482422</ele>
        <time>2019-02-22T16:04:20.000Z</time>
      </trkpt>
      <trkpt lat="41.4552426058799" lon="2.1137742418795824">
        <ele>167.8000030517578</ele>
        <time>2019-02-22T16:04:24.000Z</time>
      </trkpt>
      <trkpt lat="41.45519549958408" lon="2.1138004772365093">
        <ele>168.39999389648438</ele>
        <time>2019-02-22T16:04:26.000Z</time>
      </trkpt>
      <trkpt lat="41.4551408495754" lon="2.1138302329927683">
        <ele>169.0</ele>
        <time>2019-02-22T16:04:28.000Z</time>
      </trkpt>
      <trkpt lat="41.455067256465554" lon="2.1138636767864227">
        <ele>170.0</ele>
        <time>2019-02-22T16:04:31.000Z</time>
      </trkpt>
      <trkpt lat="41.45502601750195" lon="2.1138794347643852">
        <ele>170.1999969482422</ele>
        <time>2019-02-22T16:04:33.000Z</time>
      </trkpt>
      <trkpt lat="41.45491814240813" lon="2.1139364317059517">
        <ele>171.1999969482422</ele>
        <time>2019-02-22T16:04:38.000Z</time>
      </trkpt>
      <trkpt lat="41.45489660091698" lon="2.1139526087790728">
        <ele>171.39999389648438</ele>
        <time>2019-02-22T16:04:39.000Z</time>
      </trkpt>
      <trkpt lat="41.45485837943852" lon="2.1139713004231453">
        <ele>171.8000030517578</ele>
        <time>2019-02-22T16:04:41.000Z</time>
      </trkpt>
      <trkpt lat="41.45480364561081" lon="2.1140178199857473">
        <ele>172.0</ele>
        <time>2019-02-22T16:04:44.000Z</time>
      </trkpt>
      <trkpt lat="41.454724855721" lon="2.114086551591754">
        <ele>172.60000610351562</ele>
        <time>2019-02-22T16:04:49.000Z</time>
      </trkpt>
      <trkpt lat="41.45468596369028" lon="2.1141285449266434">
        <ele>173.0</ele>
        <time>2019-02-22T16:04:51.000Z</time>
      </trkpt>
      <trkpt lat="41.45458278246224" lon="2.1141817700117826">
        <ele>173.39999389648438</ele>
        <time>2019-02-22T16:04:55.000Z</time>
      </trkpt>
      <trkpt lat="41.45444791764021" lon="2.1142460592091084">
        <ele>172.8000030517578</ele>
        <time>2019-02-22T16:04:58.000Z</time>
      </trkpt>
      <trkpt lat="41.45434431731701" lon="2.114278497174382">
        <ele>172.0</ele>
        <time>2019-02-22T16:05:00.000Z</time>
      </trkpt>
      <trkpt lat="41.454247925430536" lon="2.1142902318388224">
        <ele>171.60000610351562</ele>
        <time>2019-02-22T16:05:02.000Z</time>
      </trkpt>
      <trkpt lat="41.454175505787134" lon="2.1142650861293077">
        <ele>170.60000610351562</ele>
        <time>2019-02-22T16:05:04.000Z</time>
      </trkpt>
      <trkpt lat="41.45413711667061" lon="2.1142572071403265">
        <ele>170.1999969482422</ele>
        <time>2019-02-22T16:05:05.000Z</time>
      </trkpt>
      <trkpt lat="41.45398439839482" lon="2.1143207419663668">
        <ele>170.0</ele>
        <time>2019-02-22T16:05:08.000Z</time>
      </trkpt>
      <trkpt lat="41.45386847667396" lon="2.1143195684999228">
        <ele>170.0</ele>
        <time>2019-02-22T16:05:11.000Z</time>
      </trkpt>
      <trkpt lat="41.45384592935443" lon="2.1143080852925777">
        <ele>170.1999969482422</ele>
        <time>2019-02-22T16:05:12.000Z</time>
      </trkpt>
      <trkpt lat="41.453785579651594" lon="2.114295931532979">
        <ele>171.0</ele>
        <time>2019-02-22T16:05:16.000Z</time>
      </trkpt>
      <trkpt lat="41.45377510227263" lon="2.1142954286187887">
        <ele>171.1999969482422</ele>
        <time>2019-02-22T16:05:17.000Z</time>
      </trkpt>
      <trkpt lat="41.45376227796078" lon="2.114286459982395">
        <ele>171.39999389648438</ele>
        <time>2019-02-22T16:05:18.000Z</time>
      </trkpt>
      <trkpt lat="41.453740233555436" lon="2.1142660919576883">
        <ele>171.60000610351562</ele>
        <time>2019-02-22T16:05:19.000Z</time>
      </trkpt>
      <trkpt lat="41.453688433393836" lon="2.1142133697867393">
        <ele>172.0</ele>
        <time>2019-02-22T16:05:22.000Z</time>
      </trkpt>
      <trkpt lat="41.453605284914374" lon="2.114184955134988">
        <ele>172.1999969482422</ele>
        <time>2019-02-22T16:05:26.000Z</time>
      </trkpt>
      <trkpt lat="41.45357678644359" lon="2.114184871315956">
        <ele>172.39999389648438</ele>
        <time>2019-02-22T16:05:27.000Z</time>
      </trkpt>
      <trkpt lat="41.45340805873275" lon="2.1142041496932507">
        <ele>172.8000030517578</ele>
        <time>2019-02-22T16:05:32.000Z</time>
      </trkpt>
      <trkpt lat="41.45336849614978" lon="2.1142008807510138">
        <ele>172.8000030517578</ele>
        <time>2019-02-22T16:05:33.000Z</time>
      </trkpt>
      <trkpt lat="41.4531600382179" lon="2.1142300497740507">
        <ele>173.1999969482422</ele>
        <time>2019-02-22T16:05:39.000Z</time>
      </trkpt>
      <trkpt lat="41.45308812148869" lon="2.1142472326755524">
        <ele>173.39999389648438</ele>
        <time>2019-02-22T16:05:41.000Z</time>
      </trkpt>
      <trkpt lat="41.452895337715745" lon="2.1142769884318113">
        <ele>173.60000610351562</ele>
        <time>2019-02-22T16:05:47.000Z</time>
      </trkpt>
      <trkpt lat="41.45271956920624" lon="2.114299116656184">
        <ele>173.60000610351562</ele>
        <time>2019-02-22T16:05:52.000Z</time>
      </trkpt>
      <trkpt lat="41.45260876044631" lon="2.1143049839884043">
        <ele>173.39999389648438</ele>
        <time>2019-02-22T16:05:56.000Z</time>
      </trkpt>
      <trkpt lat="41.45258571021259" lon="2.1143096778541803">
        <ele>173.1999969482422</ele>
        <time>2019-02-22T16:05:57.000Z</time>
      </trkpt>
      <trkpt lat="41.45247339271009" lon="2.1143995318561792">
        <ele>172.8000030517578</ele>
        <time>2019-02-22T16:06:01.000Z</time>
      </trkpt>
      <trkpt lat="41.45240633748472" lon="2.1145744621753693">
        <ele>173.60000610351562</ele>
        <time>2019-02-22T16:06:06.000Z</time>
      </trkpt>
      <trkpt lat="41.452326122671366" lon="2.1147851832211018">
        <ele>174.1999969482422</ele>
        <time>2019-02-22T16:06:12.000Z</time>
      </trkpt>
      <trkpt lat="41.45231354981661" lon="2.1148112509399652">
        <ele>174.60000610351562</ele>
        <time>2019-02-22T16:06:13.000Z</time>
      </trkpt>
      <trkpt lat="41.45226770080626" lon="2.1149203833192587">
        <ele>175.8000030517578</ele>
        <time>2019-02-22T16:06:17.000Z</time>
      </trkpt>
      <trkpt lat="41.45225554704666" lon="2.1149449422955513">
        <ele>176.1999969482422</ele>
        <time>2019-02-22T16:06:18.000Z</time>
      </trkpt>
      <trkpt lat="41.452189246192575" lon="2.1150341257452965">
        <ele>177.0</ele>
        <time>2019-02-22T16:06:22.000Z</time>
      </trkpt>
      <trkpt lat="41.45214800722897" lon="2.1150950621813536">
        <ele>177.8000030517578</ele>
        <time>2019-02-22T16:06:25.000Z</time>
      </trkpt>
      <trkpt lat="41.4521274715662" lon="2.1151250693947077">
        <ele>178.0</ele>
        <time>2019-02-22T16:06:26.000Z</time>
      </trkpt>
      <trkpt lat="41.452047592028975" lon="2.1152337826788425">
        <ele>179.1999969482422</ele>
        <time>2019-02-22T16:06:31.000Z</time>
      </trkpt>
      <trkpt lat="41.45201959647238" lon="2.115279044955969">
        <ele>180.1999969482422</ele>
        <time>2019-02-22T16:06:33.000Z</time>
      </trkpt>
      <trkpt lat="41.452001659199595" lon="2.115302598103881">
        <ele>180.39999389648438</ele>
        <time>2019-02-22T16:06:34.000Z</time>
      </trkpt>
      <trkpt lat="41.45191532559693" lon="2.115435618907213">
        <ele>181.0</ele>
        <time>2019-02-22T16:06:39.000Z</time>
      </trkpt>
      <trkpt lat="41.45188691094518" lon="2.115538464859128">
        <ele>181.60000610351562</ele>
        <time>2019-02-22T16:06:42.000Z</time>
      </trkpt>
      <trkpt lat="41.45185673609376" lon="2.1156272292137146">
        <ele>182.60000610351562</ele>
        <time>2019-02-22T16:06:45.000Z</time>
      </trkpt>
      <trkpt lat="41.45179177634418" lon="2.115762010216713">
        <ele>183.8000030517578</ele>
        <time>2019-02-22T16:06:51.000Z</time>
      </trkpt>
      <trkpt lat="41.45169504918158" lon="2.1158498525619507">
        <ele>184.8000030517578</ele>
        <time>2019-02-22T16:06:57.000Z</time>
      </trkpt>
      <trkpt lat="41.45156353712082" lon="2.1158528700470924">
        <ele>184.8000030517578</ele>
        <time>2019-02-22T16:07:01.000Z</time>
      </trkpt>
      <trkpt lat="41.45138366147876" lon="2.115846248343587">
        <ele>184.0</ele>
        <time>2019-02-22T16:07:06.000Z</time>
      </trkpt>
      <trkpt lat="41.451341919600964" lon="2.115844488143921">
        <ele>183.60000610351562</ele>
        <time>2019-02-22T16:07:07.000Z</time>
      </trkpt>
      <trkpt lat="41.45115206949413" lon="2.11586887948215">
        <ele>182.8000030517578</ele>
        <time>2019-02-22T16:07:11.000Z</time>
      </trkpt>
      <trkpt lat="41.45110513083637" lon="2.115877429023385">
        <ele>182.60000610351562</ele>
        <time>2019-02-22T16:07:12.000Z</time>
      </trkpt>
      <trkpt lat="41.450900277122855" lon="2.1159105375409126">
        <ele>182.60000610351562</ele>
        <time>2019-02-22T16:07:17.000Z</time>
      </trkpt>
      <trkpt lat="41.450746301561594" lon="2.1159134712070227">
        <ele>182.0</ele>
        <time>2019-02-22T16:07:21.000Z</time>
      </trkpt>
      <trkpt lat="41.45067094825208" lon="2.1159332524985075">
        <ele>181.39999389648438</ele>
        <time>2019-02-22T16:07:23.000Z</time>
      </trkpt>
      <trkpt lat="41.45053599961102" lon="2.11597491055727">
        <ele>180.8000030517578</ele>
        <time>2019-02-22T16:07:26.000Z</time>
      </trkpt>
      <trkpt lat="41.45035528577864" lon="2.115928139537573">
        <ele>181.39999389648438</ele>
        <time>2019-02-22T16:07:31.000Z</time>
      </trkpt>
      <trkpt lat="41.45017239265144" lon="2.1158687956631184">
        <ele>182.39999389648438</ele>
        <time>2019-02-22T16:07:36.000Z</time>
      </trkpt>
      <trkpt lat="41.45003266632557" lon="2.1158834639936686">
        <ele>182.8000030517578</ele>
        <time>2019-02-22T16:07:41.000Z</time>
      </trkpt>
      <trkpt lat="41.44995253533125" lon="2.115936353802681">
        <ele>182.8000030517578</ele>
        <time>2019-02-22T16:07:44.000Z</time>
      </trkpt>
      <trkpt lat="41.44991640932858" lon="2.1159703005105257">
        <ele>182.8000030517578</ele>
        <time>2019-02-22T16:07:46.000Z</time>
      </trkpt>
      <trkpt lat="41.44986502826214" lon="2.116030650213361">
        <ele>183.1999969482422</ele>
        <time>2019-02-22T16:07:49.000Z</time>
      </trkpt>
      <trkpt lat="41.44984449259937" lon="2.116050850600004">
        <ele>183.60000610351562</ele>
        <time>2019-02-22T16:07:50.000Z</time>
      </trkpt>
      <trkpt lat="41.44978640601039" lon="2.1160813607275486">
        <ele>184.60000610351562</ele>
        <time>2019-02-22T16:07:53.000Z</time>
      </trkpt>
      <trkpt lat="41.4497684687376" lon="2.1160896588116884">
        <ele>184.8000030517578</ele>
        <time>2019-02-22T16:07:54.000Z</time>
      </trkpt>
      <trkpt lat="41.449695294722915" lon="2.116098375990987">
        <ele>186.39999389648438</ele>
        <time>2019-02-22T16:07:58.000Z</time>
      </trkpt>
      <trkpt lat="41.449624970555305" lon="2.1160814445465803">
        <ele>187.60000610351562</ele>
        <time>2019-02-22T16:08:01.000Z</time>
      </trkpt>
      <trkpt lat="41.44948407076299" lon="2.116086222231388">
        <ele>188.1999969482422</ele>
        <time>2019-02-22T16:08:07.000Z</time>
      </trkpt>
      <trkpt lat="41.44943646155298" lon="2.116081528365612">
        <ele>188.8000030517578</ele>
        <time>2019-02-22T16:08:09.000Z</time>
      </trkpt>
      <trkpt lat="41.449362114071846" lon="2.1160689555108547">
        <ele>189.39999389648438</ele>
        <time>2019-02-22T16:08:12.000Z</time>
      </trkpt>
      <trkpt lat="41.449217442423105" lon="2.1160355117172003">
        <ele>189.39999389648438</ele>
        <time>2019-02-22T16:08:17.000Z</time>
      </trkpt>
      <trkpt lat="41.44917268306017" lon="2.116017658263445">
        <ele>189.1999969482422</ele>
        <time>2019-02-22T16:08:18.000Z</time>
      </trkpt>
      <trkpt lat="41.44892659038305" lon="2.1159973740577698">
        <ele>189.1999969482422</ele>
        <time>2019-02-22T16:08:24.000Z</time>
      </trkpt>
      <trkpt lat="41.44875065423548" lon="2.1159290615469217">
        <ele>189.60000610351562</ele>
        <time>2019-02-22T16:08:29.000Z</time>
      </trkpt>
      <trkpt lat="41.44871545024216" lon="2.1159094478935003">
        <ele>189.60000610351562</ele>
        <time>2019-02-22T16:08:30.000Z</time>
      </trkpt>
      <trkpt lat="41.44856097176671" lon="2.1158875711262226">
        <ele>189.8000030517578</ele>
        <time>2019-02-22T16:08:35.000Z</time>
      </trkpt>
      <trkpt lat="41.448501627892256" lon="2.115890420973301">
        <ele>190.0</ele>
        <time>2019-02-22T16:08:37.000Z</time>
      </trkpt>
      <trkpt lat="41.44838838838041" lon="2.115942472591996">
        <ele>190.0</ele>
        <time>2019-02-22T16:08:41.000Z</time>
      </trkpt>
      <trkpt lat="41.44821044057608" lon="2.1159529499709606">
        <ele>190.8000030517578</ele>
        <time>2019-02-22T16:08:48.000Z</time>
      </trkpt>
      <trkpt lat="41.448157131671906" lon="2.115962840616703">
        <ele>191.0</ele>
        <time>2019-02-22T16:08:50.000Z</time>
      </trkpt>
      <trkpt lat="41.448046239092946" lon="2.1159645169973373">
        <ele>192.1999969482422</ele>
        <time>2019-02-22T16:08:55.000Z</time>
      </trkpt>
      <trkpt lat="41.44803324714303" lon="2.1159557159990072">
        <ele>192.39999389648438</ele>
        <time>2019-02-22T16:08:56.000Z</time>
      </trkpt>
      <trkpt lat="41.44793258048594" lon="2.115948172286153">
        <ele>193.60000610351562</ele>
        <time>2019-02-22T16:09:01.000Z</time>
      </trkpt>
      <trkpt lat="41.44788664765656" lon="2.1159530337899923">
        <ele>194.39999389648438</ele>
        <time>2019-02-22T16:09:03.000Z</time>
      </trkpt>
      <trkpt lat="41.447870302945375" lon="2.115944232791662">
        <ele>194.8000030517578</ele>
        <time>2019-02-22T16:09:04.000Z</time>
      </trkpt>
      <trkpt lat="41.44780056551099" lon="2.115930151194334">
        <ele>195.8000030517578</ele>
        <time>2019-02-22T16:09:08.000Z</time>
      </trkpt>
      <trkpt lat="41.44775521941483" lon="2.1159300673753023">
        <ele>196.8000030517578</ele>
        <time>2019-02-22T16:09:11.000Z</time>
      </trkpt>
      <trkpt lat="41.44773761741817" lon="2.1159302350133657">
        <ele>196.8000030517578</ele>
        <time>2019-02-22T16:09:12.000Z</time>
      </trkpt>
      <trkpt lat="41.44758473150432" lon="2.1159464959055185">
        <ele>197.60000610351562</ele>
        <time>2019-02-22T16:09:19.000Z</time>
      </trkpt>
      <trkpt lat="41.44747853279114" lon="2.11604087613523">
        <ele>197.1999969482422</ele>
        <time>2019-02-22T16:09:25.000Z</time>
      </trkpt>
      <trkpt lat="41.44743042066693" lon="2.1161749865859747">
        <ele>197.8000030517578</ele>
        <time>2019-02-22T16:09:30.000Z</time>
      </trkpt>
      <trkpt lat="41.447424637153745" lon="2.1162122022360563">
        <ele>198.0</ele>
        <time>2019-02-22T16:09:31.000Z</time>
      </trkpt>
      <trkpt lat="41.4474010001868" lon="2.1164041478186846">
        <ele>199.0</ele>
        <time>2019-02-22T16:09:37.000Z</time>
      </trkpt>
      <trkpt lat="41.44739815033972" lon="2.116439016535878">
        <ele>199.1999969482422</ele>
        <time>2019-02-22T16:09:38.000Z</time>
      </trkpt>
      <trkpt lat="41.44737568683922" lon="2.1166064869612455">
        <ele>200.1999969482422</ele>
        <time>2019-02-22T16:09:43.000Z</time>
      </trkpt>
      <trkpt lat="41.44734458997846" lon="2.116703549399972">
        <ele>200.39999389648438</ele>
        <time>2019-02-22T16:09:46.000Z</time>
      </trkpt>
      <trkpt lat="41.44723596051335" lon="2.1168273501098156">
        <ele>201.39999389648438</ele>
        <time>2019-02-22T16:09:51.000Z</time>
      </trkpt>
      <trkpt lat="41.44711249507964" lon="2.1168370731174946">
        <ele>201.60000610351562</ele>
        <time>2019-02-22T16:09:55.000Z</time>
      </trkpt>
      <trkpt lat="41.44691719673574" lon="2.1167982649058104">
        <ele>202.1999969482422</ele>
        <time>2019-02-22T16:10:02.000Z</time>
      </trkpt>
      <trkpt lat="41.446840250864625" lon="2.1167872846126556">
        <ele>202.39999389648438</ele>
        <time>2019-02-22T16:10:05.000Z</time>
      </trkpt>
      <trkpt lat="41.44675148651004" lon="2.116831624880433">
        <ele>203.39999389648438</ele>
        <time>2019-02-22T16:10:10.000Z</time>
      </trkpt>
      <trkpt lat="41.44671670161188" lon="2.116862805560231">
        <ele>203.60000610351562</ele>
        <time>2019-02-22T16:10:12.000Z</time>
      </trkpt>
      <trkpt lat="41.44661997444928" lon="2.116947630420327">
        <ele>204.1999969482422</ele>
        <time>2019-02-22T16:10:17.000Z</time>
      </trkpt>
      <trkpt lat="41.4465859439224" lon="2.1169840916991234">
        <ele>204.8000030517578</ele>
        <time>2019-02-22T16:10:19.000Z</time>
      </trkpt>
      <trkpt lat="41.446519223973155" lon="2.117051398381591">
        <ele>206.0</ele>
        <time>2019-02-22T16:10:23.000Z</time>
      </trkpt>
      <trkpt lat="41.44646465778351" lon="2.117116441950202">
        <ele>206.39999389648438</ele>
        <time>2019-02-22T16:10:26.000Z</time>
      </trkpt>
      <trkpt lat="41.44643439911306" lon="2.117155082523823">
        <ele>207.1999969482422</ele>
        <time>2019-02-22T16:10:28.000Z</time>
      </trkpt>
      <trkpt lat="41.44636591896415" lon="2.117205373942852">
        <ele>208.39999389648438</ele>
        <time>2019-02-22T16:10:32.000Z</time>
      </trkpt>
      <trkpt lat="41.446348233148456" lon="2.117218030616641">
        <ele>208.60000610351562</ele>
        <time>2019-02-22T16:10:33.000Z</time>
      </trkpt>
      <trkpt lat="41.44629039801657" lon="2.1173127461224794">
        <ele>209.1999969482422</ele>
        <time>2019-02-22T16:10:38.000Z</time>
      </trkpt>
      <trkpt lat="41.44626106135547" lon="2.1173537336289883">
        <ele>209.39999389648438</ele>
        <time>2019-02-22T16:10:40.000Z</time>
      </trkpt>
      <trkpt lat="41.44618093036115" lon="2.1174753550440073">
        <ele>210.1999969482422</ele>
        <time>2019-02-22T16:10:46.000Z</time>
      </trkpt>
      <trkpt lat="41.446116557344794" lon="2.1175675559788942">
        <ele>210.39999389648438</ele>
        <time>2019-02-22T16:10:50.000Z</time>
      </trkpt>
      <trkpt lat="41.446054028347135" lon="2.1176139917224646">
        <ele>210.60000610351562</ele>
        <time>2019-02-22T16:10:53.000Z</time>
      </trkpt>
      <trkpt lat="41.44595663063228" lon="2.11768900975585">
        <ele>211.0</ele>
        <time>2019-02-22T16:10:58.000Z</time>
      </trkpt>
      <trkpt lat="41.44587599672377" lon="2.117728488519788">
        <ele>211.60000610351562</ele>
        <time>2019-02-22T16:11:02.000Z</time>
      </trkpt>
      <trkpt lat="41.44585948437452" lon="2.1177385468035936">
        <ele>211.60000610351562</ele>
        <time>2019-02-22T16:11:03.000Z</time>
      </trkpt>
      <trkpt lat="41.445716908201575" lon="2.1178224496543407">
        <ele>211.8000030517578</ele>
        <time>2019-02-22T16:11:10.000Z</time>
      </trkpt>
      <trkpt lat="41.44564582966268" lon="2.1178876608610153">
        <ele>212.8000030517578</ele>
        <time>2019-02-22T16:11:14.000Z</time>
      </trkpt>
      <trkpt lat="41.44558388739824" lon="2.117944657802582">
        <ele>214.0</ele>
        <time>2019-02-22T16:11:18.000Z</time>
      </trkpt>
      <trkpt lat="41.44557014107704" lon="2.1179556380957365">
        <ele>214.39999389648438</ele>
        <time>2019-02-22T16:11:19.000Z</time>
      </trkpt>
      <trkpt lat="41.44554474391043" lon="2.1179900877177715">
        <ele>215.0</ele>
        <time>2019-02-22T16:11:21.000Z</time>
      </trkpt>
      <trkpt lat="41.445499900728464" lon="2.118086228147149">
        <ele>216.1999969482422</ele>
        <time>2019-02-22T16:11:25.000Z</time>
      </trkpt>
      <trkpt lat="41.44548799842596" lon="2.1181119605898857">
        <ele>216.39999389648438</ele>
        <time>2019-02-22T16:11:26.000Z</time>
      </trkpt>
      <trkpt lat="41.44545086659491" lon="2.118184883147478">
        <ele>217.39999389648438</ele>
        <time>2019-02-22T16:11:29.000Z</time>
      </trkpt>
      <trkpt lat="41.44539847970009" lon="2.118336008861661">
        <ele>218.39999389648438</ele>
        <time>2019-02-22T16:11:34.000Z</time>
      </trkpt>
      <trkpt lat="41.44539018161595" lon="2.11836869828403">
        <ele>218.60000610351562</ele>
        <time>2019-02-22T16:11:35.000Z</time>
      </trkpt>
      <trkpt lat="41.445343578234315" lon="2.1185590513050556">
        <ele>219.39999389648438</ele>
        <time>2019-02-22T16:11:41.000Z</time>
      </trkpt>
      <trkpt lat="41.44529001787305" lon="2.1186794992536306">
        <ele>219.60000610351562</ele>
        <time>2019-02-22T16:11:45.000Z</time>
      </trkpt>
      <trkpt lat="41.44523503258824" lon="2.118762144818902">
        <ele>219.60000610351562</ele>
        <time>2019-02-22T16:11:48.000Z</time>
      </trkpt>
      <trkpt lat="41.44511709921062" lon="2.1188801620155573">
        <ele>219.8000030517578</ele>
        <time>2019-02-22T16:11:54.000Z</time>
      </trkpt>
      <trkpt lat="41.44501408562064" lon="2.119041094556451">
        <ele>220.39999389648438</ele>
        <time>2019-02-22T16:12:02.000Z</time>
      </trkpt>
      <trkpt lat="41.44500855356455" lon="2.1190747059881687">
        <ele>220.60000610351562</ele>
        <time>2019-02-22T16:12:03.000Z</time>
      </trkpt>
      <trkpt lat="41.44497158937156" lon="2.119221054017544">
        <ele>221.8000030517578</ele>
        <time>2019-02-22T16:12:08.000Z</time>
      </trkpt>
      <trkpt lat="41.44492959603667" lon="2.1194026060402393">
        <ele>223.0</ele>
        <time>2019-02-22T16:12:14.000Z</time>
      </trkpt>
      <trkpt lat="41.44492029212415" lon="2.1194932982325554">
        <ele>224.0</ele>
        <time>2019-02-22T16:12:17.000Z</time>
      </trkpt>
      <trkpt lat="41.44491953775287" lon="2.119521042332053">
        <ele>224.1999969482422</ele>
        <time>2019-02-22T16:12:18.000Z</time>
      </trkpt>
      <trkpt lat="41.44493479281664" lon="2.119653979316354">
        <ele>225.39999389648438</ele>
        <time>2019-02-22T16:12:23.000Z</time>
      </trkpt>
      <trkpt lat="41.4449420850724" lon="2.119676023721695">
        <ele>225.8000030517578</ele>
        <time>2019-02-22T16:12:24.000Z</time>
      </trkpt>
      <trkpt lat="41.44496597349644" lon="2.1197415702044964">
        <ele>226.60000610351562</ele>
        <time>2019-02-22T16:12:27.000Z</time>
      </trkpt>
      <trkpt lat="41.44499924965203" lon="2.1198284067213535">
        <ele>227.60000610351562</ele>
        <time>2019-02-22T16:12:31.000Z</time>
      </trkpt>
      <trkpt lat="41.445026407018304" lon="2.1198861580342054">
        <ele>227.8000030517578</ele>
        <time>2019-02-22T16:12:34.000Z</time>
      </trkpt>
      <trkpt lat="41.44510553218424" lon="2.120005264878273">
        <ele>228.8000030517578</ele>
        <time>2019-02-22T16:12:41.000Z</time>
      </trkpt>
      <trkpt lat="41.445170659571886" lon="2.1201356034725904">
        <ele>229.8000030517578</ele>
        <time>2019-02-22T16:12:48.000Z</time>
      </trkpt>
      <trkpt lat="41.44517627544701" lon="2.120153373107314">
        <ele>230.0</ele>
        <time>2019-02-22T16:12:49.000Z</time>
      </trkpt>
      <trkpt lat="41.445187171921134" lon="2.120192851871252">
        <ele>230.60000610351562</ele>
        <time>2019-02-22T16:12:51.000Z</time>
      </trkpt>
      <trkpt lat="41.44519446417689" lon="2.120238281786442">
        <ele>230.8000030517578</ele>
        <time>2019-02-22T16:12:53.000Z</time>
      </trkpt>
      <trkpt lat="41.445196978747845" lon="2.120328890159726">
        <ele>231.60000610351562</ele>
        <time>2019-02-22T16:12:57.000Z</time>
      </trkpt>
      <trkpt lat="41.4451958052814" lon="2.120348419994116">
        <ele>232.0</ele>
        <time>2019-02-22T16:12:58.000Z</time>
      </trkpt>
      <trkpt lat="41.445169150829315" lon="2.1204333286732435">
        <ele>233.0</ele>
        <time>2019-02-22T16:13:03.000Z</time>
      </trkpt>
      <trkpt lat="41.44516244530678" lon="2.120449421927333">
        <ele>233.1999969482422</ele>
        <time>2019-02-22T16:13:04.000Z</time>
      </trkpt>
      <trkpt lat="41.44513570703566" lon="2.1205461490899324">
        <ele>234.1999969482422</ele>
        <time>2019-02-22T16:13:09.000Z</time>
      </trkpt>
      <trkpt lat="41.44510536454618" lon="2.120595183223486">
        <ele>234.39999389648438</ele>
        <time>2019-02-22T16:13:12.000Z</time>
      </trkpt>
      <trkpt lat="41.44495834596455" lon="2.1206610649824142">
        <ele>234.60000610351562</ele>
        <time>2019-02-22T16:13:18.000Z</time>
      </trkpt>
      <trkpt lat="41.44478383474052" lon="2.120701549574733">
        <ele>234.39999389648438</ele>
        <time>2019-02-22T16:13:24.000Z</time>
      </trkpt>
      <trkpt lat="41.444591637700796" lon="2.120799198746681">
        <ele>234.0</ele>
        <time>2019-02-22T16:13:30.000Z</time>
      </trkpt>
      <trkpt lat="41.44448921084404" lon="2.1208123583346605">
        <ele>234.0</ele>
        <time>2019-02-22T16:13:32.000Z</time>
      </trkpt>
      <trkpt lat="41.44440773874521" lon="2.1207973547279835">
        <ele>233.8000030517578</ele>
        <time>2019-02-22T16:13:34.000Z</time>
      </trkpt>
      <trkpt lat="41.444279411807656" lon="2.120835157111287">
        <ele>233.39999389648438</ele>
        <time>2019-02-22T16:13:38.000Z</time>
      </trkpt>
      <trkpt lat="41.44412920810282" lon="2.120968848466873">
        <ele>233.60000610351562</ele>
        <time>2019-02-22T16:13:45.000Z</time>
      </trkpt>
      <trkpt lat="41.44401085563004" lon="2.1210866142064333">
        <ele>234.60000610351562</ele>
        <time>2019-02-22T16:13:51.000Z</time>
      </trkpt>
      <trkpt lat="41.443984284996986" lon="2.1211039647459984">
        <ele>234.8000030517578</ele>
        <time>2019-02-22T16:13:52.000Z</time>
      </trkpt>
      <trkpt lat="41.443931479007006" lon="2.1211381629109383">
        <ele>235.1999969482422</ele>
        <time>2019-02-22T16:13:54.000Z</time>
      </trkpt>
      <trkpt lat="41.44380432553589" lon="2.1212599519640207">
        <ele>235.60000610351562</ele>
        <time>2019-02-22T16:14:00.000Z</time>
      </trkpt>
      <trkpt lat="41.44370114430785" lon="2.121397415176034">
        <ele>235.8000030517578</ele>
        <time>2019-02-22T16:14:06.000Z</time>
      </trkpt>
      <trkpt lat="41.44364984706044" lon="2.1214099042117596">
        <ele>235.39999389648438</ele>
        <time>2019-02-22T16:14:08.000Z</time>
      </trkpt>
      <trkpt lat="41.44360860809684" lon="2.1213810704648495">
        <ele>235.1999969482422</ele>
        <time>2019-02-22T16:14:10.000Z</time>
      </trkpt>
      <trkpt lat="41.443546917289495" lon="2.121338825672865">
        <ele>234.0</ele>
        <time>2019-02-22T16:14:13.000Z</time>
      </trkpt>
      <trkpt lat="41.44351498223841" lon="2.121330862864852">
        <ele>233.0</ele>
        <time>2019-02-22T16:14:15.000Z</time>
      </trkpt>
      <trkpt lat="41.44344197586179" lon="2.121351733803749">
        <ele>231.60000610351562</ele>
        <time>2019-02-22T16:14:18.000Z</time>
      </trkpt>
      <trkpt lat="41.44341381266713" lon="2.1213701739907265">
        <ele>230.60000610351562</ele>
        <time>2019-02-22T16:14:19.000Z</time>
      </trkpt>
      <trkpt lat="41.44338497892022" lon="2.1213845908641815">
        <ele>229.60000610351562</ele>
        <time>2019-02-22T16:14:20.000Z</time>
      </trkpt>
      <trkpt lat="41.443337202072144" lon="2.1214083954691887">
        <ele>228.60000610351562</ele>
        <time>2019-02-22T16:14:22.000Z</time>
      </trkpt>
      <trkpt lat="41.443281630054116" lon="2.1214393246918917">
        <ele>227.60000610351562</ele>
        <time>2019-02-22T16:14:24.000Z</time>
      </trkpt>
      <trkpt lat="41.44324852153659" lon="2.12147930637002">
        <ele>227.1999969482422</ele>
        <time>2019-02-22T16:14:25.000Z</time>
      </trkpt>
      <trkpt lat="41.4431806281209" lon="2.121545020490885">
        <ele>226.0</ele>
        <time>2019-02-22T16:14:27.000Z</time>
      </trkpt>
      <trkpt lat="41.44310167059302" lon="2.1215813141316175">
        <ele>225.0</ele>
        <time>2019-02-22T16:14:29.000Z</time>
      </trkpt>
      <trkpt lat="41.44306043162942" lon="2.1215942222625017">
        <ele>224.60000610351562</ele>
        <time>2019-02-22T16:14:30.000Z</time>
      </trkpt>
      <trkpt lat="41.44297585822642" lon="2.121648285537958">
        <ele>224.0</ele>
        <time>2019-02-22T16:14:32.000Z</time>
      </trkpt>
      <trkpt lat="41.44285541027784" lon="2.1217336133122444">
        <ele>223.39999389648438</ele>
        <time>2019-02-22T16:14:34.000Z</time>
      </trkpt>
      <trkpt lat="41.4426607824862" lon="2.1217910293489695">
        <ele>222.39999389648438</ele>
        <time>2019-02-22T16:14:37.000Z</time>
      </trkpt>
      <trkpt lat="41.442601857706904" lon="2.1217910293489695">
        <ele>222.1999969482422</ele>
        <time>2019-02-22T16:14:38.000Z</time>
      </trkpt>
      <trkpt lat="41.4424208085984" lon="2.1216859202831984">
        <ele>221.60000610351562</ele>
        <time>2019-02-22T16:14:42.000Z</time>
      </trkpt>
      <trkpt lat="41.44230513833463" lon="2.1215560007840395">
        <ele>222.8000030517578</ele>
        <time>2019-02-22T16:14:46.000Z</time>
      </trkpt>
      <trkpt lat="41.442245207726955" lon="2.121499255299568">
        <ele>223.60000610351562</ele>
        <time>2019-02-22T16:14:48.000Z</time>
      </trkpt>
      <trkpt lat="41.442151414230466" lon="2.1214026119560003">
        <ele>225.0</ele>
        <time>2019-02-22T16:14:51.000Z</time>
      </trkpt>
      <trkpt lat="41.441980339586735" lon="2.1212998498231173">
        <ele>226.0</ele>
        <time>2019-02-22T16:14:56.000Z</time>
      </trkpt>
      <trkpt lat="41.44194890744984" lon="2.1212840918451548">
        <ele>226.1999969482422</ele>
        <time>2019-02-22T16:14:57.000Z</time>
      </trkpt>
      <trkpt lat="41.441757548600435" lon="2.12127847597003">
        <ele>226.39999389648438</ele>
        <time>2019-02-22T16:15:03.000Z</time>
      </trkpt>
      <trkpt lat="41.44156736321747" lon="2.121301693841815">
        <ele>226.8000030517578</ele>
        <time>2019-02-22T16:15:08.000Z</time>
      </trkpt>
      <trkpt lat="41.441514138132334" lon="2.1212989278137684">
        <ele>227.0</ele>
        <time>2019-02-22T16:15:10.000Z</time>
      </trkpt>
      <trkpt lat="41.441437527537346" lon="2.1212726924568415">
        <ele>227.60000610351562</ele>
        <time>2019-02-22T16:15:13.000Z</time>
      </trkpt>
      <trkpt lat="41.44136359915137" lon="2.1212496422231197">
        <ele>228.39999389648438</ele>
        <time>2019-02-22T16:15:16.000Z</time>
      </trkpt>
      <trkpt lat="41.44130718894303" lon="2.1212308667600155">
        <ele>228.8000030517578</ele>
        <time>2019-02-22T16:15:18.000Z</time>
      </trkpt>
      <trkpt lat="41.44121649675071" lon="2.1212208922952414">
        <ele>229.39999389648438</ele>
        <time>2019-02-22T16:15:21.000Z</time>
      </trkpt>
      <trkpt lat="41.44115664996207" lon="2.1211793180555105">
        <ele>229.60000610351562</ele>
        <time>2019-02-22T16:15:24.000Z</time>
      </trkpt>
      <trkpt lat="41.4410047698766" lon="2.1211445331573486">
        <ele>230.1999969482422</ele>
        <time>2019-02-22T16:15:30.000Z</time>
      </trkpt>
      <trkpt lat="41.44098339602351" lon="2.12114411406219">
        <ele>230.39999389648438</ele>
        <time>2019-02-22T16:15:31.000Z</time>
      </trkpt>
      <trkpt lat="41.44095649011433" lon="2.1211427729576826">
        <ele>230.60000610351562</ele>
        <time>2019-02-22T16:15:32.000Z</time>
      </trkpt>
      <trkpt lat="41.44080352038145" lon="2.1210873685777187">
        <ele>231.39999389648438</ele>
        <time>2019-02-22T16:15:37.000Z</time>
      </trkpt>
      <trkpt lat="41.440768986940384" lon="2.121080160140991">
        <ele>231.8000030517578</ele>
        <time>2019-02-22T16:15:38.000Z</time>
      </trkpt>
      <trkpt lat="41.44064778462052" lon="2.1210509072989225">
        <ele>232.60000610351562</ele>
        <time>2019-02-22T16:15:42.000Z</time>
      </trkpt>
      <trkpt lat="41.44062322564423" lon="2.121043698862195">
        <ele>233.0</ele>
        <time>2019-02-22T16:15:43.000Z</time>
      </trkpt>
      <trkpt lat="41.440519876778126" lon="2.121018385514617">
        <ele>234.0</ele>
        <time>2019-02-22T16:15:47.000Z</time>
      </trkpt>
      <trkpt lat="41.44049271941185" lon="2.1210105065256357">
        <ele>234.0</ele>
        <time>2019-02-22T16:15:48.000Z</time>
      </trkpt>
      <trkpt lat="41.44037411548197" lon="2.1209643222391605">
        <ele>234.8000030517578</ele>
        <time>2019-02-22T16:15:54.000Z</time>
      </trkpt>
      <trkpt lat="41.44035492092371" lon="2.120960047468543">
        <ele>235.0</ele>
        <time>2019-02-22T16:15:55.000Z</time>
      </trkpt>
      <trkpt lat="41.44024738110602" lon="2.1209687646478415">
        <ele>235.8000030517578</ele>
        <time>2019-02-22T16:15:59.000Z</time>
      </trkpt>
      <trkpt lat="41.440219385549426" lon="2.120971782132983">
        <ele>236.1999969482422</ele>
        <time>2019-02-22T16:16:00.000Z</time>
      </trkpt>
      <trkpt lat="41.440101116895676" lon="2.1209502406418324">
        <ele>237.1999969482422</ele>
        <time>2019-02-22T16:16:05.000Z</time>
      </trkpt>
      <trkpt lat="41.440077144652605" lon="2.1209427807480097">
        <ele>237.1999969482422</ele>
        <time>2019-02-22T16:16:06.000Z</time>
      </trkpt>
      <trkpt lat="41.439969604834914" lon="2.120910007506609">
        <ele>238.0</ele>
        <time>2019-02-22T16:16:10.000Z</time>
      </trkpt>
      <trkpt lat="41.439918307587504" lon="2.120906487107277">
        <ele>238.39999389648438</ele>
        <time>2019-02-22T16:16:12.000Z</time>
      </trkpt>
      <trkpt lat="41.43985753878951" lon="2.1209112647920847">
        <ele>238.60000610351562</ele>
        <time>2019-02-22T16:16:15.000Z</time>
      </trkpt>
      <trkpt lat="41.43972150050104" lon="2.1208842750638723">
        <ele>238.8000030517578</ele>
        <time>2019-02-22T16:16:20.000Z</time>
      </trkpt>
      <trkpt lat="41.4395419601351" lon="2.1208933275192976">
        <ele>237.8000030517578</ele>
        <time>2019-02-22T16:16:26.000Z</time>
      </trkpt>
      <trkpt lat="41.43939318135381" lon="2.120882263407111">
        <ele>237.39999389648438</ele>
        <time>2019-02-22T16:16:30.000Z</time>
      </trkpt>
      <trkpt lat="41.43923199735582" lon="2.1208297926932573">
        <ele>237.39999389648438</ele>
        <time>2019-02-22T16:16:35.000Z</time>
      </trkpt>
      <trkpt lat="41.439091600477695" lon="2.120749829337001">
        <ele>238.39999389648438</ele>
        <time>2019-02-22T16:16:40.000Z</time>
      </trkpt>
      <trkpt lat="41.43897836096585" lon="2.1206553652882576">
        <ele>239.39999389648438</ele>
        <time>2019-02-22T16:16:45.000Z</time>
      </trkpt>
      <trkpt lat="41.43895648419857" lon="2.120639104396105">
        <ele>239.39999389648438</ele>
        <time>2019-02-22T16:16:46.000Z</time>
      </trkpt>
      <trkpt lat="41.43882664851844" lon="2.1205659303814173">
        <ele>240.0</ele>
        <time>2019-02-22T16:16:52.000Z</time>
      </trkpt>
      <trkpt lat="41.438759844750166" lon="2.120532738044858">
        <ele>240.60000610351562</ele>
        <time>2019-02-22T16:16:55.000Z</time>
      </trkpt>
      <trkpt lat="41.438688514754176" lon="2.120498539879918">
        <ele>241.60000610351562</ele>
        <time>2019-02-22T16:16:58.000Z</time>
      </trkpt>
      <trkpt lat="41.43866336904466" lon="2.1204909961670637">
        <ele>241.8000030517578</ele>
        <time>2019-02-22T16:16:59.000Z</time>
      </trkpt>
      <trkpt lat="41.43855566158891" lon="2.1203994657844305">
        <ele>242.8000030517578</ele>
        <time>2019-02-22T16:17:05.000Z</time>
      </trkpt>
      <trkpt lat="41.438490618020296" lon="2.120378678664565">
        <ele>244.0</ele>
        <time>2019-02-22T16:17:09.000Z</time>
      </trkpt>
      <trkpt lat="41.438455330207944" lon="2.1203526109457016">
        <ele>244.8000030517578</ele>
        <time>2019-02-22T16:17:11.000Z</time>
      </trkpt>
      <trkpt lat="41.438417695462704" lon="2.1203379426151514">
        <ele>245.39999389648438</ele>
        <time>2019-02-22T16:17:13.000Z</time>
      </trkpt>
      <trkpt lat="41.43834167160094" lon="2.1203226037323475">
        <ele>246.60000610351562</ele>
        <time>2019-02-22T16:17:17.000Z</time>
      </trkpt>
      <trkpt lat="41.438305377960205" lon="2.120312796905637">
        <ele>247.0</ele>
        <time>2019-02-22T16:17:19.000Z</time>
      </trkpt>
      <trkpt lat="41.438263887539506" lon="2.1202886570245028">
        <ele>248.0</ele>
        <time>2019-02-22T16:17:22.000Z</time>
      </trkpt>
      <trkpt lat="41.438221307471395" lon="2.1202656906098127">
        <ele>249.0</ele>
        <time>2019-02-22T16:17:25.000Z</time>
      </trkpt>
      <trkpt lat="41.438209069892764" lon="2.120255632326007">
        <ele>249.1999969482422</ele>
        <time>2019-02-22T16:17:26.000Z</time>
      </trkpt>
      <trkpt lat="41.43816783092916" lon="2.120239958167076">
        <ele>250.39999389648438</ele>
        <time>2019-02-22T16:17:29.000Z</time>
      </trkpt>
      <trkpt lat="41.438087448477745" lon="2.1202029939740896">
        <ele>251.39999389648438</ele>
        <time>2019-02-22T16:17:34.000Z</time>
      </trkpt>
      <trkpt lat="41.43807336688042" lon="2.120194276794791">
        <ele>251.60000610351562</ele>
        <time>2019-02-22T16:17:35.000Z</time>
      </trkpt>
      <trkpt lat="41.438043443486094" lon="2.1201794408261776">
        <ele>252.0</ele>
        <time>2019-02-22T16:17:37.000Z</time>
      </trkpt>
      <trkpt lat="41.43800522200763" lon="2.1201468352228403">
        <ele>252.60000610351562</ele>
        <time>2019-02-22T16:17:40.000Z</time>
      </trkpt>
      <trkpt lat="41.43791913986206" lon="2.1200613398104906">
        <ele>253.8000030517578</ele>
        <time>2019-02-22T16:17:47.000Z</time>
      </trkpt>
      <trkpt lat="41.43790002912283" lon="2.120020939037204">
        <ele>254.39999389648438</ele>
        <time>2019-02-22T16:17:50.000Z</time>
      </trkpt>
      <trkpt lat="41.437873458489776" lon="2.120002331212163">
        <ele>255.0</ele>
        <time>2019-02-22T16:17:52.000Z</time>
      </trkpt>
      <trkpt lat="41.43786130473018" lon="2.1199901774525642">
        <ele>255.1999969482422</ele>
        <time>2019-02-22T16:17:53.000Z</time>
      </trkpt>
      <trkpt lat="41.43783406354487" lon="2.119969641789794">
        <ele>256.0</ele>
        <time>2019-02-22T16:17:55.000Z</time>
      </trkpt>
      <trkpt lat="41.437741024419665" lon="2.1199119742959738">
        <ele>256.79998779296875</ele>
        <time>2019-02-22T16:18:01.000Z</time>
      </trkpt>
      <trkpt lat="41.437725350260735" lon="2.1199035085737705">
        <ele>257.0</ele>
        <time>2019-02-22T16:18:02.000Z</time>
      </trkpt>
      <trkpt lat="41.43768419511616" lon="2.119872998446226">
        <ele>258.20001220703125</ele>
        <time>2019-02-22T16:18:05.000Z</time>
      </trkpt>
      <trkpt lat="41.43764454871416" lon="2.119835615158081">
        <ele>258.79998779296875</ele>
        <time>2019-02-22T16:18:08.000Z</time>
      </trkpt>
      <trkpt lat="41.437621749937534" lon="2.1198034286499023">
        <ele>259.0</ele>
        <time>2019-02-22T16:18:10.000Z</time>
      </trkpt>
      <trkpt lat="41.437612529844046" lon="2.1197800431400537">
        <ele>259.20001220703125</ele>
        <time>2019-02-22T16:18:11.000Z</time>
      </trkpt>
      <trkpt lat="41.43758327700198" lon="2.1197167597711086">
        <ele>259.79998779296875</ele>
        <time>2019-02-22T16:18:14.000Z</time>
      </trkpt>
      <trkpt lat="41.437572464346886" lon="2.1196791250258684">
        <ele>260.6000061035156</ele>
        <time>2019-02-22T16:18:16.000Z</time>
      </trkpt>
      <trkpt lat="41.43756626173854" lon="2.1196164283901453">
        <ele>261.6000061035156</ele>
        <time>2019-02-22T16:18:19.000Z</time>
      </trkpt>
      <trkpt lat="41.43755502998829" lon="2.1195637062191963">
        <ele>262.3999938964844</ele>
        <time>2019-02-22T16:18:22.000Z</time>
      </trkpt>
      <trkpt lat="41.437548995018005" lon="2.1195462718605995">
        <ele>262.79998779296875</ele>
        <time>2019-02-22T16:18:23.000Z</time>
      </trkpt>
      <trkpt lat="41.437500547617674" lon="2.1194724272936583">
        <ele>263.20001220703125</ele>
        <time>2019-02-22T16:18:29.000Z</time>
      </trkpt>
      <trkpt lat="41.43747749738395" lon="2.1194375585764647">
        <ele>263.79998779296875</ele>
        <time>2019-02-22T16:18:32.000Z</time>
      </trkpt>
      <trkpt lat="41.43743542023003" lon="2.1194146759808064">
        <ele>264.6000061035156</ele>
        <time>2019-02-22T16:18:36.000Z</time>
      </trkpt>
      <trkpt lat="41.437415136024356" lon="2.119396571069956">
        <ele>265.0</ele>
        <time>2019-02-22T16:18:38.000Z</time>
      </trkpt>
      <trkpt lat="41.437386805191636" lon="2.1193683240562677">
        <ele>266.20001220703125</ele>
        <time>2019-02-22T16:18:41.000Z</time>
      </trkpt>
      <trkpt lat="41.43733894452453" lon="2.1193454414606094">
        <ele>267.20001220703125</ele>
        <time>2019-02-22T16:18:45.000Z</time>
      </trkpt>
      <trkpt lat="41.43732972443104" lon="2.1193338744342327">
        <ele>267.20001220703125</ele>
        <time>2019-02-22T16:18:46.000Z</time>
      </trkpt>
      <trkpt lat="41.43726451322436" lon="2.1192850917577744">
        <ele>268.0</ele>
        <time>2019-02-22T16:18:52.000Z</time>
      </trkpt>
      <trkpt lat="41.43725311383605" lon="2.119276039302349">
        <ele>268.3999938964844</ele>
        <time>2019-02-22T16:18:53.000Z</time>
      </trkpt>
      <trkpt lat="41.43718387931585" lon="2.119215102866292">
        <ele>269.3999938964844</ele>
        <time>2019-02-22T16:18:59.000Z</time>
      </trkpt>
      <trkpt lat="41.437175245955586" lon="2.1192007698118687">
        <ele>269.3999938964844</ele>
        <time>2019-02-22T16:19:00.000Z</time>
      </trkpt>
      <trkpt lat="41.43715135753155" lon="2.1191681642085314">
        <ele>270.3999938964844</ele>
        <time>2019-02-22T16:19:03.000Z</time>
      </trkpt>
      <trkpt lat="41.43711824901402" lon="2.119122566655278">
        <ele>271.79998779296875</ele>
        <time>2019-02-22T16:19:07.000Z</time>
      </trkpt>
      <trkpt lat="41.43708446994424" lon="2.1190815791487694">
        <ele>273.0</ele>
        <time>2019-02-22T16:19:11.000Z</time>
      </trkpt>
      <trkpt lat="41.437050104141235" lon="2.1190815791487694">
        <ele>273.3999938964844</ele>
        <time>2019-02-22T16:19:13.000Z</time>
      </trkpt>
      <trkpt lat="41.43703761510551" lon="2.1190742030739784">
        <ele>273.6000061035156</ele>
        <time>2019-02-22T16:19:14.000Z</time>
      </trkpt>
      <trkpt lat="41.4370296522975" lon="2.119048135355115">
        <ele>274.20001220703125</ele>
        <time>2019-02-22T16:19:16.000Z</time>
      </trkpt>
      <trkpt lat="41.43702453933656" lon="2.1190274320542812">
        <ele>274.6000061035156</ele>
        <time>2019-02-22T16:19:18.000Z</time>
      </trkpt>
      <trkpt lat="41.437018839642406" lon="2.1190179605036974">
        <ele>275.20001220703125</ele>
        <time>2019-02-22T16:19:21.000Z</time>
      </trkpt>
      <trkpt lat="41.437006602063775" lon="2.118995664641261">
        <ele>275.3999938964844</ele>
        <time>2019-02-22T16:19:25.000Z</time>
      </trkpt>
      <trkpt lat="41.43698430620134" lon="2.118986276909709">
        <ele>275.6000061035156</ele>
        <time>2019-02-22T16:19:28.000Z</time>
      </trkpt>
      <trkpt lat="41.43695890903473" lon="2.1189734525978565">
        <ele>276.20001220703125</ele>
        <time>2019-02-22T16:19:32.000Z</time>
      </trkpt>
      <trkpt lat="41.436954382807016" lon="2.118967166170478">
        <ele>276.20001220703125</ele>
        <time>2019-02-22T16:19:33.000Z</time>
      </trkpt>
      <trkpt lat="41.4369051810354" lon="2.11892182007432">
        <ele>277.20001220703125</ele>
        <time>2019-02-22T16:19:41.000Z</time>
      </trkpt>
      <trkpt lat="41.43688363954425" lon="2.1188936568796635">
        <ele>277.6000061035156</ele>
        <time>2019-02-22T16:19:47.000Z</time>
      </trkpt>
      <trkpt lat="41.43687819130719" lon="2.1188860293477774">
        <ele>277.79998779296875</ele>
        <time>2019-02-22T16:19:48.000Z</time>
      </trkpt>
      <trkpt lat="41.43687408417463" lon="2.1188626438379288">
        <ele>277.79998779296875</ele>
        <time>2019-02-22T16:19:51.000Z</time>
      </trkpt>
      <trkpt lat="41.43682370893657" lon="2.118729455396533">
        <ele>275.79998779296875</ele>
        <time>2019-02-22T16:23:51.000Z</time>
      </trkpt>
      <trkpt lat="41.43682052381337" lon="2.118746219202876">
        <ele>275.79998779296875</ele>
        <time>2019-02-22T16:23:52.000Z</time>
      </trkpt>
      <trkpt lat="41.43682714551687" lon="2.1187039744108915">
        <ele>276.0</ele>
        <time>2019-02-22T16:23:59.000Z</time>
      </trkpt>
      <trkpt lat="41.436840472742915" lon="2.118628788739443">
        <ele>276.0</ele>
        <time>2019-02-22T16:24:05.000Z</time>
      </trkpt>
      <trkpt lat="41.436837036162615" lon="2.118613449856639">
        <ele>276.0</ele>
        <time>2019-02-22T16:24:06.000Z</time>
      </trkpt>
      <trkpt lat="41.436818931251764" lon="2.118546226993203">
        <ele>276.6000061035156</ele>
        <time>2019-02-22T16:24:09.000Z</time>
      </trkpt>
      <trkpt lat="41.43681675195694" lon="2.118529547005892">
        <ele>277.0</ele>
        <time>2019-02-22T16:24:10.000Z</time>
      </trkpt>
      <trkpt lat="41.436815578490496" lon="2.118495851755142">
        <ele>277.79998779296875</ele>
        <time>2019-02-22T16:24:12.000Z</time>
      </trkpt>
      <trkpt lat="41.43681272864342" lon="2.1184772439301014">
        <ele>278.0</ele>
        <time>2019-02-22T16:24:13.000Z</time>
      </trkpt>
      <trkpt lat="41.43680753186345" lon="2.1184572111815214">
        <ele>278.20001220703125</ele>
        <time>2019-02-22T16:24:14.000Z</time>
      </trkpt>
      <trkpt lat="41.43681138753891" lon="2.11841756477952">
        <ele>278.79998779296875</ele>
        <time>2019-02-22T16:24:16.000Z</time>
      </trkpt>
      <trkpt lat="41.43681817688048" lon="2.1183590590953827">
        <ele>279.3999938964844</ele>
        <time>2019-02-22T16:24:19.000Z</time>
      </trkpt>
      <trkpt lat="41.4368206076324" lon="2.1183384396135807">
        <ele>279.6000061035156</ele>
        <time>2019-02-22T16:24:20.000Z</time>
      </trkpt>
      <trkpt lat="41.436823876574636" lon="2.1183167304843664">
        <ele>280.0</ele>
        <time>2019-02-22T16:24:21.000Z</time>
      </trkpt>
      <trkpt lat="41.436835527420044" lon="2.1182763297110796">
        <ele>280.6000061035156</ele>
        <time>2019-02-22T16:24:23.000Z</time>
      </trkpt>
      <trkpt lat="41.43686226569116" lon="2.118226122111082">
        <ele>281.20001220703125</ele>
        <time>2019-02-22T16:24:26.000Z</time>
      </trkpt>
      <trkpt lat="41.43688070587814" lon="2.1181927621364594">
        <ele>281.6000061035156</ele>
        <time>2019-02-22T16:24:28.000Z</time>
      </trkpt>
      <trkpt lat="41.436881963163614" lon="2.1181720588356256">
        <ele>282.0</ele>
        <time>2019-02-22T16:24:29.000Z</time>
      </trkpt>
      <trkpt lat="41.436875173822045" lon="2.1181076020002365">
        <ele>283.0</ele>
        <time>2019-02-22T16:24:32.000Z</time>
      </trkpt>
      <trkpt lat="41.43685874529183" lon="2.1180542930960655">
        <ele>284.20001220703125</ele>
        <time>2019-02-22T16:24:35.000Z</time>
      </trkpt>
      <trkpt lat="41.43685882911086" lon="2.118026129901409">
        <ele>284.6000061035156</ele>
        <time>2019-02-22T16:24:36.000Z</time>
      </trkpt>
      <trkpt lat="41.43683234229684" lon="2.117950776591897">
        <ele>285.3999938964844</ele>
        <time>2019-02-22T16:24:40.000Z</time>
      </trkpt>
      <trkpt lat="41.43677978776395" lon="2.1179250441491604">
        <ele>286.0</ele>
        <time>2019-02-22T16:24:43.000Z</time>
      </trkpt>
      <trkpt lat="41.4367360342294" lon="2.1179047599434853">
        <ele>286.3999938964844</ele>
        <time>2019-02-22T16:24:46.000Z</time>
      </trkpt>
      <trkpt lat="41.436701668426394" lon="2.117891851812601">
        <ele>287.0</ele>
        <time>2019-02-22T16:24:48.000Z</time>
      </trkpt>
      <trkpt lat="41.43665590323508" lon="2.117855306714773">
        <ele>287.3999938964844</ele>
        <time>2019-02-22T16:24:51.000Z</time>
      </trkpt>
      <trkpt lat="41.43662623129785" lon="2.117834435775876">
        <ele>287.6000061035156</ele>
        <time>2019-02-22T16:24:53.000Z</time>
      </trkpt>
      <trkpt lat="41.43656252883375" lon="2.1177786961197853">
        <ele>288.20001220703125</ele>
        <time>2019-02-22T16:24:58.000Z</time>
      </trkpt>
      <trkpt lat="41.436556074768305" lon="2.11775841191411">
        <ele>288.3999938964844</ele>
        <time>2019-02-22T16:24:59.000Z</time>
      </trkpt>
      <trkpt lat="41.436498407274485" lon="2.1177006606012583">
        <ele>288.79998779296875</ele>
        <time>2019-02-22T16:25:04.000Z</time>
      </trkpt>
      <trkpt lat="41.436490109190345" lon="2.1176853217184544">
        <ele>289.20001220703125</ele>
        <time>2019-02-22T16:25:05.000Z</time>
      </trkpt>
      <trkpt lat="41.43647954799235" lon="2.1176710724830627">
        <ele>289.3999938964844</ele>
        <time>2019-02-22T16:25:06.000Z</time>
      </trkpt>
      <trkpt lat="41.43643068149686" lon="2.11760594509542">
        <ele>289.79998779296875</ele>
        <time>2019-02-22T16:25:11.000Z</time>
      </trkpt>
      <trkpt lat="41.436421209946275" lon="2.117594378069043">
        <ele>289.79998779296875</ele>
        <time>2019-02-22T16:25:12.000Z</time>
      </trkpt>
      <trkpt lat="41.436389023438096" lon="2.117563532665372">
        <ele>290.20001220703125</ele>
        <time>2019-02-22T16:25:15.000Z</time>
      </trkpt>
      <trkpt lat="41.436359602957964" lon="2.11752044968307">
        <ele>290.6000061035156</ele>
        <time>2019-02-22T16:25:18.000Z</time>
      </trkpt>
      <trkpt lat="41.43634929321706" lon="2.1175052784383297">
        <ele>290.6000061035156</ele>
        <time>2019-02-22T16:25:19.000Z</time>
      </trkpt>
      <trkpt lat="41.436337223276496" lon="2.117465380579233">
        <ele>291.0</ele>
        <time>2019-02-22T16:25:21.000Z</time>
      </trkpt>
      <trkpt lat="41.43628768622875" lon="2.1174111496657133">
        <ele>291.6000061035156</ele>
        <time>2019-02-22T16:25:26.000Z</time>
      </trkpt>
      <trkpt lat="41.4362542424351" lon="2.117364713922143">
        <ele>292.0</ele>
        <time>2019-02-22T16:25:30.000Z</time>
      </trkpt>
      <trkpt lat="41.436231192201376" lon="2.1173462737351656">
        <ele>292.20001220703125</ele>
        <time>2019-02-22T16:25:32.000Z</time>
      </trkpt>
      <trkpt lat="41.436222307384014" lon="2.11733914911747">
        <ele>292.20001220703125</ele>
        <time>2019-02-22T16:25:33.000Z</time>
      </trkpt>
      <trkpt lat="41.43618777394295" lon="2.1172985807061195">
        <ele>292.3999938964844</ele>
        <time>2019-02-22T16:25:36.000Z</time>
      </trkpt>
      <trkpt lat="41.43615256994963" lon="2.117273937910795">
        <ele>292.79998779296875</ele>
        <time>2019-02-22T16:25:38.000Z</time>
      </trkpt>
      <trkpt lat="41.43609456717968" lon="2.1172759495675564">
        <ele>293.20001220703125</ele>
        <time>2019-02-22T16:25:41.000Z</time>
      </trkpt>
      <trkpt lat="41.436059698462486" lon="2.1172958984971046">
        <ele>293.6000061035156</ele>
        <time>2019-02-22T16:25:43.000Z</time>
      </trkpt>
      <trkpt lat="41.436018543317914" lon="2.1173235587775707">
        <ele>293.79998779296875</ele>
        <time>2019-02-22T16:25:46.000Z</time>
      </trkpt>
      <trkpt lat="41.435989793390036" lon="2.117365300655365">
        <ele>294.20001220703125</ele>
        <time>2019-02-22T16:25:49.000Z</time>
      </trkpt>
      <trkpt lat="41.43598317168653" lon="2.117383237928152">
        <ele>294.20001220703125</ele>
        <time>2019-02-22T16:25:50.000Z</time>
      </trkpt>
      <trkpt lat="41.43593740649521" lon="2.117490191012621">
        <ele>295.0</ele>
        <time>2019-02-22T16:25:55.000Z</time>
      </trkpt>
      <trkpt lat="41.43591267988086" lon="2.117552887648344">
        <ele>295.3999938964844</ele>
        <time>2019-02-22T16:25:57.000Z</time>
      </trkpt>
      <trkpt lat="41.435877308249474" lon="2.1176429092884064">
        <ele>295.6000061035156</ele>
        <time>2019-02-22T16:26:00.000Z</time>
      </trkpt>
      <trkpt lat="41.435876386240125" lon="2.1176669653505087">
        <ele>295.79998779296875</ele>
        <time>2019-02-22T16:26:01.000Z</time>
      </trkpt>
      <trkpt lat="41.43588786944747" lon="2.1177338529378176">
        <ele>296.3999938964844</ele>
        <time>2019-02-22T16:26:04.000Z</time>
      </trkpt>
      <trkpt lat="41.435893569141626" lon="2.117791436612606">
        <ele>296.79998779296875</ele>
        <time>2019-02-22T16:26:07.000Z</time>
      </trkpt>
      <trkpt lat="41.43588049337268" lon="2.11791574023664">
        <ele>297.3999938964844</ele>
        <time>2019-02-22T16:26:12.000Z</time>
      </trkpt>
      <trkpt lat="41.43587437458336" lon="2.1179465856403112">
        <ele>297.6000061035156</ele>
        <time>2019-02-22T16:26:13.000Z</time>
      </trkpt>
      <trkpt lat="41.43582634627819" lon="2.1181320771574974">
        <ele>298.3999938964844</ele>
        <time>2019-02-22T16:26:20.000Z</time>
      </trkpt>
      <trkpt lat="41.435821652412415" lon="2.1181573066860437">
        <ele>298.79998779296875</ele>
        <time>2019-02-22T16:26:21.000Z</time>
      </trkpt>
      <trkpt lat="41.43582969903946" lon="2.118260655552149">
        <ele>299.3999938964844</ele>
        <time>2019-02-22T16:26:27.000Z</time>
      </trkpt>
      <trkpt lat="41.43580924719572" lon="2.118289405480027">
        <ele>299.79998779296875</ele>
        <time>2019-02-22T16:26:29.000Z</time>
      </trkpt>
      <trkpt lat="41.43573699519038" lon="2.1183791756629944">
        <ele>301.0</ele>
        <time>2019-02-22T16:26:35.000Z</time>
      </trkpt>
      <trkpt lat="41.43568024970591" lon="2.118422342464328">
        <ele>301.79998779296875</ele>
        <time>2019-02-22T16:26:40.000Z</time>
      </trkpt>
      <trkpt lat="41.43564831465483" lon="2.1184344962239265">
        <ele>302.0</ele>
        <time>2019-02-22T16:26:42.000Z</time>
      </trkpt>
      <trkpt lat="41.43561772070825" lon="2.1184322331100702">
        <ele>302.3999938964844</ele>
        <time>2019-02-22T16:26:44.000Z</time>
      </trkpt>
      <trkpt lat="41.435584696009755" lon="2.1184215042740107">
        <ele>303.20001220703125</ele>
        <time>2019-02-22T16:26:46.000Z</time>
      </trkpt>
      <trkpt lat="41.43555301241577" lon="2.1184079255908728">
        <ele>303.6000061035156</ele>
        <time>2019-02-22T16:26:48.000Z</time>
      </trkpt>
      <trkpt lat="41.435501128435135" lon="2.1183682791888714">
        <ele>304.20001220703125</ele>
        <time>2019-02-22T16:26:52.000Z</time>
      </trkpt>
      <trkpt lat="41.435447903349996" lon="2.1183115337044">
        <ele>304.79998779296875</ele>
        <time>2019-02-22T16:26:56.000Z</time>
      </trkpt>
      <trkpt lat="41.43540758639574" lon="2.118245316669345">
        <ele>305.3999938964844</ele>
        <time>2019-02-22T16:27:00.000Z</time>
      </trkpt>
      <trkpt lat="41.4353665150702" lon="2.118213465437293">
        <ele>306.0</ele>
        <time>2019-02-22T16:27:03.000Z</time>
      </trkpt>
      <trkpt lat="41.43535536713898" lon="2.1181997191160917">
        <ele>306.3999938964844</ele>
        <time>2019-02-22T16:27:04.000Z</time>
      </trkpt>
      <trkpt lat="41.4353181514889" lon="2.1181658562272787">
        <ele>307.6000061035156</ele>
        <time>2019-02-22T16:27:07.000Z</time>
      </trkpt>
      <trkpt lat="41.43530691973865" lon="2.1181536186486483">
        <ele>307.79998779296875</ele>
        <time>2019-02-22T16:27:08.000Z</time>
      </trkpt>
      <trkpt lat="41.435297364369035" lon="2.1181366872042418">
        <ele>308.0</ele>
        <time>2019-02-22T16:27:09.000Z</time>
      </trkpt>
      <trkpt lat="41.43529233522713" lon="2.1181202586740255">
        <ele>308.20001220703125</ele>
        <time>2019-02-22T16:27:10.000Z</time>
      </trkpt>
      <trkpt lat="41.435273392125964" lon="2.118060579523444">
        <ele>308.6000061035156</ele>
        <time>2019-02-22T16:27:13.000Z</time>
      </trkpt>
      <trkpt lat="41.43526484258473" lon="2.118041468784213">
        <ele>308.6000061035156</ele>
        <time>2019-02-22T16:27:14.000Z</time>
      </trkpt>
      <trkpt lat="41.435172222554684" lon="2.1179188415408134">
        <ele>309.3999938964844</ele>
        <time>2019-02-22T16:27:22.000Z</time>
      </trkpt>
      <trkpt lat="41.43512084148824" lon="2.117889169603586">
        <ele>309.6000061035156</ele>
        <time>2019-02-22T16:27:26.000Z</time>
      </trkpt>
      <trkpt lat="41.43508790060878" lon="2.117883302271366">
        <ele>310.0</ele>
        <time>2019-02-22T16:27:29.000Z</time>
      </trkpt>
      <trkpt lat="41.43505864776671" lon="2.1178657840937376">
        <ele>310.3999938964844</ele>
        <time>2019-02-22T16:27:32.000Z</time>
      </trkpt>
      <trkpt lat="41.435044817626476" lon="2.1178561449050903">
        <ele>310.6000061035156</ele>
        <time>2019-02-22T16:27:33.000Z</time>
      </trkpt>
      <trkpt lat="41.435013972222805" lon="2.117837369441986">
        <ele>311.0</ele>
        <time>2019-02-22T16:27:35.000Z</time>
      </trkpt>
      <trkpt lat="41.43492227420211" lon="2.1177919395267963">
        <ele>311.6000061035156</ele>
        <time>2019-02-22T16:27:42.000Z</time>
      </trkpt>
      <trkpt lat="41.4349122159183" lon="2.1177827194333076">
        <ele>311.79998779296875</ele>
        <time>2019-02-22T16:27:43.000Z</time>
      </trkpt>
      <trkpt lat="41.4348656963557" lon="2.117742905393243">
        <ele>312.6000061035156</ele>
        <time>2019-02-22T16:27:48.000Z</time>
      </trkpt>
      <trkpt lat="41.43478070385754" lon="2.1177114732563496">
        <ele>313.79998779296875</ele>
        <time>2019-02-22T16:27:54.000Z</time>
      </trkpt>
      <trkpt lat="41.43468389287591" lon="2.1176293306052685">
        <ele>314.6000061035156</ele>
        <time>2019-02-22T16:28:02.000Z</time>
      </trkpt>
      <trkpt lat="41.43464667722583" lon="2.117605861276388">
        <ele>314.79998779296875</ele>
        <time>2019-02-22T16:28:04.000Z</time>
      </trkpt>
      <trkpt lat="41.43458758480847" lon="2.1175650414079428">
        <ele>316.0</ele>
        <time>2019-02-22T16:28:08.000Z</time>
      </trkpt>
      <trkpt lat="41.434570234268904" lon="2.117562862113118">
        <ele>316.0</ele>
        <time>2019-02-22T16:28:09.000Z</time>
      </trkpt>
      <trkpt lat="41.43455263227224" lon="2.1175626944750547">
        <ele>316.20001220703125</ele>
        <time>2019-02-22T16:28:10.000Z</time>
      </trkpt>
      <trkpt lat="41.43447048962116" lon="2.117565544322133">
        <ele>316.3999938964844</ele>
        <time>2019-02-22T16:28:14.000Z</time>
      </trkpt>
      <trkpt lat="41.43439706414938" lon="2.1175450924783945">
        <ele>317.0</ele>
        <time>2019-02-22T16:28:18.000Z</time>
      </trkpt>
      <trkpt lat="41.43433101475239" lon="2.117518102750182">
        <ele>317.6000061035156</ele>
        <time>2019-02-22T16:28:22.000Z</time>
      </trkpt>
      <trkpt lat="41.43432070501149" lon="2.117511397227645">
        <ele>317.79998779296875</ele>
        <time>2019-02-22T16:28:23.000Z</time>
      </trkpt>
      <trkpt lat="41.43430913798511" lon="2.1175023447722197">
        <ele>318.0</ele>
        <time>2019-02-22T16:28:24.000Z</time>
      </trkpt>
      <trkpt lat="41.43426211550832" lon="2.1174688171595335">
        <ele>318.6000061035156</ele>
        <time>2019-02-22T16:28:28.000Z</time>
      </trkpt>
      <trkpt lat="41.43423495814204" lon="2.1174590941518545">
        <ele>319.20001220703125</ele>
        <time>2019-02-22T16:28:30.000Z</time>
      </trkpt>
      <trkpt lat="41.43415273167193" lon="2.117463955655694">
        <ele>319.79998779296875</ele>
        <time>2019-02-22T16:28:35.000Z</time>
      </trkpt>
      <trkpt lat="41.434086849913" lon="2.1174691524356604">
        <ele>320.20001220703125</ele>
        <time>2019-02-22T16:28:39.000Z</time>
      </trkpt>
      <trkpt lat="41.43404586240649" lon="2.1174490358680487">
        <ele>320.6000061035156</ele>
        <time>2019-02-22T16:28:42.000Z</time>
      </trkpt>
      <trkpt lat="41.43397537060082" lon="2.1173858363181353">
        <ele>321.20001220703125</ele>
        <time>2019-02-22T16:28:48.000Z</time>
      </trkpt>
      <trkpt lat="41.43397092819214" lon="2.1173236425966024">
        <ele>322.20001220703125</ele>
        <time>2019-02-22T16:28:54.000Z</time>
      </trkpt>
      <trkpt lat="41.43397344276309" lon="2.1173120755702257">
        <ele>322.20001220703125</ele>
        <time>2019-02-22T16:28:55.000Z</time>
      </trkpt>
      <trkpt lat="41.434012250974774" lon="2.1172812301665545">
        <ele>322.3999938964844</ele>
        <time>2019-02-22T16:28:59.000Z</time>
      </trkpt>
      <trkpt lat="41.43404368311167" lon="2.117276033386588">
        <ele>322.3999938964844</ele>
        <time>2019-02-22T16:29:01.000Z</time>
      </trkpt>
      <trkpt lat="41.434175949543715" lon="2.1173129975795746">
        <ele>322.3999938964844</ele>
        <time>2019-02-22T16:29:07.000Z</time>
      </trkpt>
      <trkpt lat="41.43428659066558" lon="2.1173627860844135">
        <ele>323.3999938964844</ele>
        <time>2019-02-22T16:29:13.000Z</time>
      </trkpt>
      <trkpt lat="41.43433797173202" lon="2.117366222664714">
        <ele>323.6000061035156</ele>
        <time>2019-02-22T16:29:16.000Z</time>
      </trkpt>
      <trkpt lat="41.43445950932801" lon="2.117375358939171">
        <ele>324.6000061035156</ele>
        <time>2019-02-22T16:29:22.000Z</time>
      </trkpt>
      <trkpt lat="41.43451918847859" lon="2.117373514920473">
        <ele>325.0</ele>
        <time>2019-02-22T16:29:25.000Z</time>
      </trkpt>
      <trkpt lat="41.434605941176414" lon="2.117357086390257">
        <ele>325.79998779296875</ele>
        <time>2019-02-22T16:29:29.000Z</time>
      </trkpt>
      <trkpt lat="41.43464005552232" lon="2.117358176037669">
        <ele>326.20001220703125</ele>
        <time>2019-02-22T16:29:31.000Z</time>
      </trkpt>
      <trkpt lat="41.43469554372132" lon="2.1173537336289883">
        <ele>326.79998779296875</ele>
        <time>2019-02-22T16:29:35.000Z</time>
      </trkpt>
      <trkpt lat="41.43474415875971" lon="2.1173442620784044">
        <ele>327.79998779296875</ele>
        <time>2019-02-22T16:29:39.000Z</time>
      </trkpt>
      <trkpt lat="41.43475614488125" lon="2.117340322583914">
        <ele>328.0</ele>
        <time>2019-02-22T16:29:40.000Z</time>
      </trkpt>
      <trkpt lat="41.43483770079911" lon="2.117303693667054">
        <ele>329.0</ele>
        <time>2019-02-22T16:29:45.000Z</time>
      </trkpt>
      <trkpt lat="41.43484759144485" lon="2.117299335077405">
        <ele>329.20001220703125</ele>
        <time>2019-02-22T16:29:46.000Z</time>
      </trkpt>
      <trkpt lat="41.434922609478235" lon="2.117282822728157">
        <ele>330.0</ele>
        <time>2019-02-22T16:29:51.000Z</time>
      </trkpt>
      <trkpt lat="41.434972900897264" lon="2.1172635443508625">
        <ele>330.20001220703125</ele>
        <time>2019-02-22T16:29:54.000Z</time>
      </trkpt>
      <trkpt lat="41.43501992337406" lon="2.1171369776129723">
        <ele>330.79998779296875</ele>
        <time>2019-02-22T16:29:59.000Z</time>
      </trkpt>
      <trkpt lat="41.43500676378608" lon="2.1170965768396854">
        <ele>331.20001220703125</ele>
        <time>2019-02-22T16:30:01.000Z</time>
      </trkpt>
      <trkpt lat="41.434961250051856" lon="2.1170620433986187">
        <ele>332.20001220703125</ele>
        <time>2019-02-22T16:30:05.000Z</time>
      </trkpt>
      <trkpt lat="41.43490148708224" lon="2.1170667372643948">
        <ele>333.20001220703125</ele>
        <time>2019-02-22T16:30:09.000Z</time>
      </trkpt>
      <trkpt lat="41.434881621971726" lon="2.11706162430346">
        <ele>333.3999938964844</ele>
        <time>2019-02-22T16:30:11.000Z</time>
      </trkpt>
      <trkpt lat="41.43486896529794" lon="2.1170601155608892">
        <ele>333.6000061035156</ele>
        <time>2019-02-22T16:30:12.000Z</time>
      </trkpt>
      <trkpt lat="41.434828313067555" lon="2.1170491352677345">
        <ele>334.3999938964844</ele>
        <time>2019-02-22T16:30:15.000Z</time>
      </trkpt>
      <trkpt lat="41.434785732999444" lon="2.1170255821198225">
        <ele>334.79998779296875</ele>
        <time>2019-02-22T16:30:18.000Z</time>
      </trkpt>
      <trkpt lat="41.43472831696272" lon="2.1170001849532127">
        <ele>335.3999938964844</ele>
        <time>2019-02-22T16:30:22.000Z</time>
      </trkpt>
      <trkpt lat="41.43470359034836" lon="2.1169891208410263">
        <ele>336.0</ele>
        <time>2019-02-22T16:30:24.000Z</time>
      </trkpt>
      <trkpt lat="41.43465589731932" lon="2.1169887017458677">
        <ele>336.6000061035156</ele>
        <time>2019-02-22T16:30:27.000Z</time>
      </trkpt>
      <trkpt lat="41.434594709426165" lon="2.1169483847916126">
        <ele>337.6000061035156</ele>
        <time>2019-02-22T16:30:32.000Z</time>
      </trkpt>
      <trkpt lat="41.43458037637174" lon="2.116943523287773">
        <ele>337.6000061035156</ele>
        <time>2019-02-22T16:30:33.000Z</time>
      </trkpt>
      <trkpt lat="41.43448297865689" lon="2.1169021166861057">
        <ele>338.79998779296875</ele>
        <time>2019-02-22T16:30:39.000Z</time>
      </trkpt>
      <trkpt lat="41.434446685016155" lon="2.1168889570981264">
        <ele>339.0</ele>
        <time>2019-02-22T16:30:41.000Z</time>
      </trkpt>
      <trkpt lat="41.43438180908561" lon="2.11686372756958">
        <ele>339.79998779296875</ele>
        <time>2019-02-22T16:30:45.000Z</time>
      </trkpt>
      <trkpt lat="41.434322129935026" lon="2.1168364863842726">
        <ele>340.3999938964844</ele>
        <time>2019-02-22T16:30:49.000Z</time>
      </trkpt>
      <trkpt lat="41.43427770584822" lon="2.116820141673088">
        <ele>341.0</ele>
        <time>2019-02-22T16:30:52.000Z</time>
      </trkpt>
      <trkpt lat="41.434200340881944" lon="2.116807149723172">
        <ele>341.79998779296875</ele>
        <time>2019-02-22T16:30:57.000Z</time>
      </trkpt>
      <trkpt lat="41.434174524620175" lon="2.116789296269417">
        <ele>342.0</ele>
        <time>2019-02-22T16:30:59.000Z</time>
      </trkpt>
      <trkpt lat="41.434108559042215" lon="2.116756606847048">
        <ele>342.6000061035156</ele>
        <time>2019-02-22T16:31:04.000Z</time>
      </trkpt>
      <trkpt lat="41.43404770642519" lon="2.1167057286947966">
        <ele>343.0</ele>
        <time>2019-02-22T16:31:09.000Z</time>
      </trkpt>
      <trkpt lat="41.43403245136142" lon="2.11669759824872">
        <ele>343.20001220703125</ele>
        <time>2019-02-22T16:31:10.000Z</time>
      </trkpt>
      <trkpt lat="41.4339108299464" lon="2.1166150365024805">
        <ele>344.0</ele>
        <time>2019-02-22T16:31:18.000Z</time>
      </trkpt>
      <trkpt lat="41.43389414995909" lon="2.116606906056404">
        <ele>344.20001220703125</ele>
        <time>2019-02-22T16:31:19.000Z</time>
      </trkpt>
      <trkpt lat="41.433834973722696" lon="2.116523841395974">
        <ele>344.79998779296875</ele>
        <time>2019-02-22T16:31:25.000Z</time>
      </trkpt>
      <trkpt lat="41.433841763064265" lon="2.1165069099515676">
        <ele>345.0</ele>
        <time>2019-02-22T16:31:29.000Z</time>
      </trkpt>
      <trkpt lat="41.43383547663689" lon="2.1164903976023197">
        <ele>343.20001220703125</ele>
        <time>2019-02-22T16:34:02.000Z</time>
      </trkpt>
      <trkpt lat="41.43384134396911" lon="2.116500036790967">
        <ele>343.20001220703125</ele>
        <time>2019-02-22T16:34:03.000Z</time>
      </trkpt>
      <trkpt lat="41.433840841054916" lon="2.1165016293525696">
        <ele>343.20001220703125</ele>
        <time>2019-02-22T16:34:04.000Z</time>
      </trkpt>
      <trkpt lat="41.43384302034974" lon="2.11650556884706">
        <ele>344.79998779296875</ele>
        <time>2019-02-22T16:34:07.000Z</time>
      </trkpt>
      <trkpt lat="41.43384243361652" lon="2.1164916548877954">
        <ele>345.0</ele>
        <time>2019-02-22T16:34:09.000Z</time>
      </trkpt>
      <trkpt lat="41.433843690901995" lon="2.116476148366928">
        <ele>343.20001220703125</ele>
        <time>2019-02-22T16:34:10.000Z</time>
      </trkpt>
      <trkpt lat="41.433885265141726" lon="2.1164324786514044">
        <ele>343.6000061035156</ele>
        <time>2019-02-22T16:34:14.000Z</time>
      </trkpt>
      <trkpt lat="41.43399431370199" lon="2.116493582725525">
        <ele>343.6000061035156</ele>
        <time>2019-02-22T16:34:19.000Z</time>
      </trkpt>
      <trkpt lat="41.43410881049931" lon="2.1166108455508947">
        <ele>344.3999938964844</ele>
        <time>2019-02-22T16:34:24.000Z</time>
      </trkpt>
      <trkpt lat="41.434128507971764" lon="2.1166288666427135">
        <ele>344.6000061035156</ele>
        <time>2019-02-22T16:34:25.000Z</time>
      </trkpt>
      <trkpt lat="41.434230180457234" lon="2.1166641544550657">
        <ele>345.3999938964844</ele>
        <time>2019-02-22T16:34:29.000Z</time>
      </trkpt>
      <trkpt lat="41.43428131006658" lon="2.1166722010821104">
        <ele>345.79998779296875</ele>
        <time>2019-02-22T16:34:31.000Z</time>
      </trkpt>
      <trkpt lat="41.43439429812133" lon="2.116662561893463">
        <ele>346.6000061035156</ele>
        <time>2019-02-22T16:34:36.000Z</time>
      </trkpt>
      <trkpt lat="41.43443503417075" lon="2.1166618913412094">
        <ele>347.0</ele>
        <time>2019-02-22T16:34:38.000Z</time>
      </trkpt>
      <trkpt lat="41.43448700197041" lon="2.1166592929512262">
        <ele>347.3999938964844</ele>
        <time>2019-02-22T16:34:41.000Z</time>
      </trkpt>
      <trkpt lat="41.43452497199178" lon="2.1166624780744314">
        <ele>347.79998779296875</ele>
        <time>2019-02-22T16:34:43.000Z</time>
      </trkpt>
      <trkpt lat="41.43460719846189" lon="2.116658203303814">
        <ele>349.0</ele>
        <time>2019-02-22T16:34:48.000Z</time>
      </trkpt>
      <trkpt lat="41.43462236970663" lon="2.1166544314473867">
        <ele>349.20001220703125</ele>
        <time>2019-02-22T16:34:49.000Z</time>
      </trkpt>
      <trkpt lat="41.434707110747695" lon="2.1165638230741024">
        <ele>349.6000061035156</ele>
        <time>2019-02-22T16:34:55.000Z</time>
      </trkpt>
      <trkpt lat="41.43470736220479" lon="2.116535073146224">
        <ele>350.20001220703125</ele>
        <time>2019-02-22T16:34:57.000Z</time>
      </trkpt>
      <trkpt lat="41.43469906412065" lon="2.1165210753679276">
        <ele>350.3999938964844</ele>
        <time>2019-02-22T16:34:58.000Z</time>
      </trkpt>
      <trkpt lat="41.434659669175744" lon="2.116497103124857">
        <ele>350.6000061035156</ele>
        <time>2019-02-22T16:35:01.000Z</time>
      </trkpt>
      <trkpt lat="41.43460133112967" lon="2.1164955105632544">
        <ele>351.3999938964844</ele>
        <time>2019-02-22T16:35:05.000Z</time>
      </trkpt>
      <trkpt lat="41.434575682505965" lon="2.11649919860065">
        <ele>352.0</ele>
        <time>2019-02-22T16:35:07.000Z</time>
      </trkpt>
      <trkpt lat="41.43452983349562" lon="2.116506155580282">
        <ele>352.3999938964844</ele>
        <time>2019-02-22T16:35:10.000Z</time>
      </trkpt>
      <trkpt lat="41.434465292841196" lon="2.1165090054273605">
        <ele>353.3999938964844</ele>
        <time>2019-02-22T16:35:14.000Z</time>
      </trkpt>
      <trkpt lat="41.43444542773068" lon="2.1165105141699314">
        <ele>353.3999938964844</ele>
        <time>2019-02-22T16:35:15.000Z</time>
      </trkpt>
      <trkpt lat="41.43443277105689" lon="2.116504479199648">
        <ele>353.6000061035156</ele>
        <time>2019-02-22T16:35:16.000Z</time>
      </trkpt>
      <trkpt lat="41.43437032587826" lon="2.1164777409285307">
        <ele>354.20001220703125</ele>
        <time>2019-02-22T16:35:20.000Z</time>
      </trkpt>
      <trkpt lat="41.43435716629028" lon="2.116461731493473">
        <ele>354.3999938964844</ele>
        <time>2019-02-22T16:35:21.000Z</time>
      </trkpt>
      <trkpt lat="41.434344509616494" lon="2.1164478175342083">
        <ele>354.6000061035156</ele>
        <time>2019-02-22T16:35:22.000Z</time>
      </trkpt>
      <trkpt lat="41.434301594272256" lon="2.116429628804326">
        <ele>355.0</ele>
        <time>2019-02-22T16:35:25.000Z</time>
      </trkpt>
      <trkpt lat="41.434266306459904" lon="2.1164297964423895">
        <ele>355.3999938964844</ele>
        <time>2019-02-22T16:35:27.000Z</time>
      </trkpt>
      <trkpt lat="41.43421123735607" lon="2.1163952630013227">
        <ele>356.0</ele>
        <time>2019-02-22T16:35:30.000Z</time>
      </trkpt>
      <trkpt lat="41.434183325618505" lon="2.1163617353886366">
        <ele>356.3999938964844</ele>
        <time>2019-02-22T16:35:32.000Z</time>
      </trkpt>
      <trkpt lat="41.43413454294205" lon="2.1162740606814623">
        <ele>357.3999938964844</ele>
        <time>2019-02-22T16:35:37.000Z</time>
      </trkpt>
      <trkpt lat="41.43412381410599" lon="2.116254363209009">
        <ele>357.6000061035156</ele>
        <time>2019-02-22T16:35:38.000Z</time>
      </trkpt>
      <trkpt lat="41.434056255966425" lon="2.116159815341234">
        <ele>358.3999938964844</ele>
        <time>2019-02-22T16:35:44.000Z</time>
      </trkpt>
      <trkpt lat="41.434034295380116" lon="2.116134837269783">
        <ele>358.6000061035156</ele>
        <time>2019-02-22T16:35:46.000Z</time>
      </trkpt>
      <trkpt lat="41.43401937559247" lon="2.1160955261439085">
        <ele>358.79998779296875</ele>
        <time>2019-02-22T16:35:48.000Z</time>
      </trkpt>
      <trkpt lat="41.43403111025691" lon="2.11605504155159">
        <ele>359.20001220703125</ele>
        <time>2019-02-22T16:35:50.000Z</time>
      </trkpt>
      <trkpt lat="41.434084586799145" lon="2.1160145569592714">
        <ele>359.79998779296875</ele>
        <time>2019-02-22T16:35:53.000Z</time>
      </trkpt>
      <trkpt lat="41.43412205390632" lon="2.1160183288156986">
        <ele>360.20001220703125</ele>
        <time>2019-02-22T16:35:55.000Z</time>
      </trkpt>
      <trkpt lat="41.43415616825223" lon="2.1160586457699537">
        <ele>361.0</ele>
        <time>2019-02-22T16:35:58.000Z</time>
      </trkpt>
      <trkpt lat="41.434187768027186" lon="2.116117151454091">
        <ele>361.6000061035156</ele>
        <time>2019-02-22T16:36:02.000Z</time>
      </trkpt>
      <trkpt lat="41.43422112800181" lon="2.1161444764584303">
        <ele>362.0</ele>
        <time>2019-02-22T16:36:05.000Z</time>
      </trkpt>
      <trkpt lat="41.43425893038511" lon="2.116162497550249">
        <ele>362.6000061035156</ele>
        <time>2019-02-22T16:36:08.000Z</time>
      </trkpt>
      <trkpt lat="41.43435146659613" lon="2.116215554997325">
        <ele>363.0</ele>
        <time>2019-02-22T16:36:15.000Z</time>
      </trkpt>
      <trkpt lat="41.43436839804053" lon="2.116221757605672">
        <ele>363.0</ele>
        <time>2019-02-22T16:36:16.000Z</time>
      </trkpt>
      <trkpt lat="41.4344219584018" lon="2.116251764819026">
        <ele>363.6000061035156</ele>
        <time>2019-02-22T16:36:20.000Z</time>
      </trkpt>
      <trkpt lat="41.43445137888193" lon="2.116257296875119">
        <ele>363.79998779296875</ele>
        <time>2019-02-22T16:36:23.000Z</time>
      </trkpt>
      <trkpt lat="41.43448314629495" lon="2.116237934678793">
        <ele>364.0</ele>
        <time>2019-02-22T16:36:26.000Z</time>
      </trkpt>
      <trkpt lat="41.43449345603585" lon="2.1162265352904797">
        <ele>364.20001220703125</ele>
        <time>2019-02-22T16:36:27.000Z</time>
      </trkpt>
      <trkpt lat="41.43450259231031" lon="2.1162099391222">
        <ele>364.20001220703125</ele>
        <time>2019-02-22T16:36:28.000Z</time>
      </trkpt>
      <trkpt lat="41.434533689171076" lon="2.116128047928214">
        <ele>364.6000061035156</ele>
        <time>2019-02-22T16:36:32.000Z</time>
      </trkpt>
      <trkpt lat="41.43452807329595" lon="2.1161146368831396">
        <ele>364.79998779296875</ele>
        <time>2019-02-22T16:36:33.000Z</time>
      </trkpt>
      <trkpt lat="41.43451097421348" lon="2.1160923410207033">
        <ele>365.20001220703125</ele>
        <time>2019-02-22T16:36:35.000Z</time>
      </trkpt>
      <trkpt lat="41.43447828479111" lon="2.116080606356263">
        <ele>365.20001220703125</ele>
        <time>2019-02-22T16:36:37.000Z</time>
      </trkpt>
      <trkpt lat="41.434442242607474" lon="2.11606677621603">
        <ele>365.3999938964844</ele>
        <time>2019-02-22T16:36:40.000Z</time>
      </trkpt>
      <trkpt lat="41.43440687097609" lon="2.1160601545125246">
        <ele>365.79998779296875</ele>
        <time>2019-02-22T16:36:43.000Z</time>
      </trkpt>
      <trkpt lat="41.4343786239624" lon="2.1160625014454126">
        <ele>366.3999938964844</ele>
        <time>2019-02-22T16:36:45.000Z</time>
      </trkpt>
      <trkpt lat="41.43430368974805" lon="2.1160205081105232">
        <ele>366.79998779296875</ele>
        <time>2019-02-22T16:36:50.000Z</time>
      </trkpt>
      <trkpt lat="41.43425884656608" lon="2.1159589011222124">
        <ele>367.3999938964844</ele>
        <time>2019-02-22T16:36:54.000Z</time>
      </trkpt>
      <trkpt lat="41.434247866272926" lon="2.115939874202013">
        <ele>367.3999938964844</ele>
        <time>2019-02-22T16:36:55.000Z</time>
      </trkpt>
      <trkpt lat="41.434185253456235" lon="2.1158445719629526">
        <ele>368.3999938964844</ele>
        <time>2019-02-22T16:37:01.000Z</time>
      </trkpt>
      <trkpt lat="41.434111492708325" lon="2.1157024148851633">
        <ele>369.3999938964844</ele>
        <time>2019-02-22T16:37:09.000Z</time>
      </trkpt>
      <trkpt lat="41.43410185351968" lon="2.115685483440757">
        <ele>369.6000061035156</ele>
        <time>2019-02-22T16:37:10.000Z</time>
      </trkpt>
      <trkpt lat="41.434081150218844" lon="2.115607028827071">
        <ele>370.79998779296875</ele>
        <time>2019-02-22T16:37:14.000Z</time>
      </trkpt>
      <trkpt lat="41.43407939001918" lon="2.1155872475355864">
        <ele>371.0</ele>
        <time>2019-02-22T16:37:15.000Z</time>
      </trkpt>
      <trkpt lat="41.434069415554404" lon="2.1154585853219032">
        <ele>372.0</ele>
        <time>2019-02-22T16:37:21.000Z</time>
      </trkpt>
      <trkpt lat="41.43406631425023" lon="2.11543838493526">
        <ele>372.20001220703125</ele>
        <time>2019-02-22T16:37:22.000Z</time>
      </trkpt>
      <trkpt lat="41.43405449576676" lon="2.115355907008052">
        <ele>373.20001220703125</ele>
        <time>2019-02-22T16:37:27.000Z</time>
      </trkpt>
      <trkpt lat="41.43405122682452" lon="2.1152948029339314">
        <ele>373.79998779296875</ele>
        <time>2019-02-22T16:37:31.000Z</time>
      </trkpt>
      <trkpt lat="41.43405600450933" lon="2.115259263664484">
        <ele>374.20001220703125</ele>
        <time>2019-02-22T16:37:33.000Z</time>
      </trkpt>
      <trkpt lat="41.43404577858746" lon="2.115185670554638">
        <ele>375.0</ele>
        <time>2019-02-22T16:37:37.000Z</time>
      </trkpt>
      <trkpt lat="41.43405441194773" lon="2.115136217325926">
        <ele>375.20001220703125</ele>
        <time>2019-02-22T16:37:39.000Z</time>
      </trkpt>
      <trkpt lat="41.4340559206903" lon="2.1150965709239244">
        <ele>375.3999938964844</ele>
        <time>2019-02-22T16:37:41.000Z</time>
      </trkpt>
      <trkpt lat="41.43404636532068" lon="2.1150653902441263">
        <ele>375.79998779296875</ele>
        <time>2019-02-22T16:37:43.000Z</time>
      </trkpt>
      <trkpt lat="41.43401065841317" lon="2.1150109078735113">
        <ele>376.20001220703125</ele>
        <time>2019-02-22T16:37:46.000Z</time>
      </trkpt>
      <trkpt lat="41.43395927734673" lon="2.1149596106261015">
        <ele>376.79998779296875</ele>
        <time>2019-02-22T16:37:49.000Z</time>
      </trkpt>
      <trkpt lat="41.43391594290733" lon="2.1149257477372885">
        <ele>377.3999938964844</ele>
        <time>2019-02-22T16:37:52.000Z</time>
      </trkpt>
      <trkpt lat="41.43388928845525" lon="2.1149053797125816">
        <ele>377.79998779296875</ele>
        <time>2019-02-22T16:37:54.000Z</time>
      </trkpt>
      <trkpt lat="41.433839835226536" lon="2.114879982545972">
        <ele>378.3999938964844</ele>
        <time>2019-02-22T16:37:57.000Z</time>
      </trkpt>
      <trkpt lat="41.43379063345492" lon="2.1148682478815317">
        <ele>379.20001220703125</ele>
        <time>2019-02-22T16:38:00.000Z</time>
      </trkpt>
      <trkpt lat="41.43377403728664" lon="2.1148656494915485">
        <ele>379.6000061035156</ele>
        <time>2019-02-22T16:38:01.000Z</time>
      </trkpt>
      <trkpt lat="41.43370857462287" lon="2.114859949797392">
        <ele>380.3999938964844</ele>
        <time>2019-02-22T16:38:06.000Z</time>
      </trkpt>
      <trkpt lat="41.43369751051068" lon="2.1148624643683434">
        <ele>380.3999938964844</ele>
        <time>2019-02-22T16:38:07.000Z</time>
      </trkpt>
      <trkpt lat="41.43367337062955" lon="2.1148567646741867">
        <ele>380.6000061035156</ele>
        <time>2019-02-22T16:38:09.000Z</time>
      </trkpt>
      <trkpt lat="41.43363037146628" lon="2.114842012524605">
        <ele>381.3999938964844</ele>
        <time>2019-02-22T16:38:13.000Z</time>
      </trkpt>
      <trkpt lat="41.43360204063356" lon="2.1148394141346216">
        <ele>381.79998779296875</ele>
        <time>2019-02-22T16:38:15.000Z</time>
      </trkpt>
      <trkpt lat="41.433529453352094" lon="2.114840168505907">
        <ele>382.79998779296875</ele>
        <time>2019-02-22T16:38:20.000Z</time>
      </trkpt>
      <trkpt lat="41.4334184769541" lon="2.1148311998695135">
        <ele>383.6000061035156</ele>
        <time>2019-02-22T16:38:27.000Z</time>
      </trkpt>
      <trkpt lat="41.433404898270965" lon="2.1148279309272766">
        <ele>383.79998779296875</ele>
        <time>2019-02-22T16:38:28.000Z</time>
      </trkpt>
      <trkpt lat="41.43333616666496" lon="2.114778980612755">
        <ele>384.79998779296875</ele>
        <time>2019-02-22T16:38:33.000Z</time>
      </trkpt>
      <trkpt lat="41.43332828767598" lon="2.114762971177697">
        <ele>384.79998779296875</ele>
        <time>2019-02-22T16:38:34.000Z</time>
      </trkpt>
      <trkpt lat="41.43326584249735" lon="2.1146653220057487">
        <ele>385.79998779296875</ele>
        <time>2019-02-22T16:38:40.000Z</time>
      </trkpt>
      <trkpt lat="41.43325259909034" lon="2.114631040021777">
        <ele>385.79998779296875</ele>
        <time>2019-02-22T16:38:42.000Z</time>
      </trkpt>
      <trkpt lat="41.43318780697882" lon="2.1145516633987427">
        <ele>386.79998779296875</ele>
        <time>2019-02-22T16:38:48.000Z</time>
      </trkpt>
      <trkpt lat="41.433170875534415" lon="2.1145400125533342">
        <ele>387.20001220703125</ele>
        <time>2019-02-22T16:38:49.000Z</time>
      </trkpt>
      <trkpt lat="41.43308856524527" lon="2.1144703589379787">
        <ele>388.20001220703125</ele>
        <time>2019-02-22T16:38:55.000Z</time>
      </trkpt>
      <trkpt lat="41.43307666294277" lon="2.114458540454507">
        <ele>388.3999938964844</ele>
        <time>2019-02-22T16:38:56.000Z</time>
      </trkpt>
      <trkpt lat="41.433011200279" lon="2.1144083328545094">
        <ele>389.3999938964844</ele>
        <time>2019-02-22T16:39:01.000Z</time>
      </trkpt>
      <trkpt lat="41.432980354875326" lon="2.1143843606114388">
        <ele>390.0</ele>
        <time>2019-02-22T16:39:04.000Z</time>
      </trkpt>
      <trkpt lat="41.43292872235179" lon="2.114368434995413">
        <ele>390.79998779296875</ele>
        <time>2019-02-22T16:39:08.000Z</time>
      </trkpt>
      <trkpt lat="41.432889914140105" lon="2.1143528446555138">
        <ele>391.6000061035156</ele>
        <time>2019-02-22T16:39:11.000Z</time>
      </trkpt>
      <trkpt lat="41.43283970654011" lon="2.1143447142094374">
        <ele>391.79998779296875</ele>
        <time>2019-02-22T16:39:14.000Z</time>
      </trkpt>
      <trkpt lat="41.43275873735547" lon="2.1143426187336445">
        <ele>392.3999938964844</ele>
        <time>2019-02-22T16:39:19.000Z</time>
      </trkpt>
      <trkpt lat="41.4327331725508" lon="2.114349491894245">
        <ele>393.0</ele>
        <time>2019-02-22T16:39:21.000Z</time>
      </trkpt>
      <trkpt lat="41.43267550505698" lon="2.114339182153344">
        <ele>394.20001220703125</ele>
        <time>2019-02-22T16:39:25.000Z</time>
      </trkpt>
      <trkpt lat="41.432661255821586" lon="2.1143331471830606">
        <ele>394.3999938964844</ele>
        <time>2019-02-22T16:39:26.000Z</time>
      </trkpt>
      <trkpt lat="41.43254139460623" lon="2.1142902318388224">
        <ele>395.3999938964844</ele>
        <time>2019-02-22T16:39:34.000Z</time>
      </trkpt>
      <trkpt lat="41.43252471461892" lon="2.114289226010442">
        <ele>395.6000061035156</ele>
        <time>2019-02-22T16:39:35.000Z</time>
      </trkpt>
      <trkpt lat="41.432490264996886" lon="2.114280592650175">
        <ele>396.3999938964844</ele>
        <time>2019-02-22T16:39:37.000Z</time>
      </trkpt>
      <trkpt lat="41.43242287449539" lon="2.1142565365880728">
        <ele>397.20001220703125</ele>
        <time>2019-02-22T16:39:42.000Z</time>
      </trkpt>
      <trkpt lat="41.4324102178216" lon="2.114252680912614">
        <ele>397.3999938964844</ele>
        <time>2019-02-22T16:39:43.000Z</time>
      </trkpt>
      <trkpt lat="41.43234391696751" lon="2.1142209134995937">
        <ele>398.3999938964844</ele>
        <time>2019-02-22T16:39:49.000Z</time>
      </trkpt>
      <trkpt lat="41.43232975155115" lon="2.1142185665667057">
        <ele>398.6000061035156</ele>
        <time>2019-02-22T16:39:50.000Z</time>
      </trkpt>
      <trkpt lat="41.43226177431643" lon="2.1141945105046034">
        <ele>399.6000061035156</ele>
        <time>2019-02-22T16:39:56.000Z</time>
      </trkpt>
      <trkpt lat="41.43224945291877" lon="2.114186966791749">
        <ele>399.6000061035156</ele>
        <time>2019-02-22T16:39:57.000Z</time>
      </trkpt>
      <trkpt lat="41.43217141740024" lon="2.11415964178741">
        <ele>400.6000061035156</ele>
        <time>2019-02-22T16:40:03.000Z</time>
      </trkpt>
      <trkpt lat="41.43215951509774" lon="2.114157462492585">
        <ele>400.79998779296875</ele>
        <time>2019-02-22T16:40:04.000Z</time>
      </trkpt>
      <trkpt lat="41.43207896500826" lon="2.114133406430483">
        <ele>401.0</ele>
        <time>2019-02-22T16:40:10.000Z</time>
      </trkpt>
      <trkpt lat="41.432022051885724" lon="2.114120414480567">
        <ele>401.6000061035156</ele>
        <time>2019-02-22T16:40:14.000Z</time>
      </trkpt>
      <trkpt lat="41.43195549957454" lon="2.1141117811203003">
        <ele>402.20001220703125</ele>
        <time>2019-02-22T16:40:18.000Z</time>
      </trkpt>
      <trkpt lat="41.43182197585702" lon="2.1141123678535223">
        <ele>402.6000061035156</ele>
        <time>2019-02-22T16:40:26.000Z</time>
      </trkpt>
      <trkpt lat="41.4318057987839" lon="2.114113289862871">
        <ele>402.79998779296875</ele>
        <time>2019-02-22T16:40:27.000Z</time>
      </trkpt>
      <trkpt lat="41.43173052929342" lon="2.1141158044338226">
        <ele>403.6000061035156</ele>
        <time>2019-02-22T16:40:32.000Z</time>
      </trkpt>
      <trkpt lat="41.431699180975556" lon="2.1141102723777294">
        <ele>403.79998779296875</ele>
        <time>2019-02-22T16:40:34.000Z</time>
      </trkpt>
      <trkpt lat="41.43158392980695" lon="2.114096023142338">
        <ele>404.6000061035156</ele>
        <time>2019-02-22T16:40:42.000Z</time>
      </trkpt>
      <trkpt lat="41.4315674174577" lon="2.1140981186181307">
        <ele>404.79998779296875</ele>
        <time>2019-02-22T16:40:43.000Z</time>
      </trkpt>
      <trkpt lat="41.43149801529944" lon="2.1140831150114536">
        <ele>405.6000061035156</ele>
        <time>2019-02-22T16:40:48.000Z</time>
      </trkpt>
      <trkpt lat="41.43147077411413" lon="2.1140780858695507">
        <ele>405.79998779296875</ele>
        <time>2019-02-22T16:40:50.000Z</time>
      </trkpt>
      <trkpt lat="41.43142316490412" lon="2.1140967775136232">
        <ele>406.20001220703125</ele>
        <time>2019-02-22T16:40:53.000Z</time>
      </trkpt>
      <trkpt lat="41.43135401420295" lon="2.1140911616384983">
        <ele>406.79998779296875</ele>
        <time>2019-02-22T16:40:57.000Z</time>
      </trkpt>
      <trkpt lat="41.431302381679416" lon="2.114098034799099">
        <ele>407.6000061035156</ele>
        <time>2019-02-22T16:41:00.000Z</time>
      </trkpt>
      <trkpt lat="41.43123750574887" lon="2.114116223528981">
        <ele>408.0</ele>
        <time>2019-02-22T16:41:04.000Z</time>
      </trkpt>
      <trkpt lat="41.431200290098786" lon="2.1141220070421696">
        <ele>408.20001220703125</ele>
        <time>2019-02-22T16:41:07.000Z</time>
      </trkpt>
      <trkpt lat="41.43112753517926" lon="2.114141872152686">
        <ele>409.20001220703125</ele>
        <time>2019-02-22T16:41:12.000Z</time>
      </trkpt>
      <trkpt lat="41.431019408628345" lon="2.1141381841152906">
        <ele>409.79998779296875</ele>
        <time>2019-02-22T16:41:18.000Z</time>
      </trkpt>
      <trkpt lat="41.430893344804645" lon="2.114114547148347">
        <ele>410.3999938964844</ele>
        <time>2019-02-22T16:41:24.000Z</time>
      </trkpt>
      <trkpt lat="41.43087616190314" lon="2.1141099371016026">
        <ele>410.6000061035156</ele>
        <time>2019-02-22T16:41:25.000Z</time>
      </trkpt>
      <trkpt lat="41.4308091904968" lon="2.1140937600284815">
        <ele>411.6000061035156</ele>
        <time>2019-02-22T16:41:29.000Z</time>
      </trkpt>
      <trkpt lat="41.430759988725185" lon="2.1140728052705526">
        <ele>412.3999938964844</ele>
        <time>2019-02-22T16:41:32.000Z</time>
      </trkpt>
      <trkpt lat="41.43074741587043" lon="2.1140683628618717">
        <ele>412.79998779296875</ele>
        <time>2019-02-22T16:41:33.000Z</time>
      </trkpt>
      <trkpt lat="41.43065814860165" lon="2.1140774991363287">
        <ele>413.79998779296875</ele>
        <time>2019-02-22T16:41:38.000Z</time>
      </trkpt>
      <trkpt lat="41.43064113333821" lon="2.1140837017446756">
        <ele>414.0</ele>
        <time>2019-02-22T16:41:39.000Z</time>
      </trkpt>
      <trkpt lat="41.430539544671774" lon="2.1140961907804012">
        <ele>414.79998779296875</ele>
        <time>2019-02-22T16:41:45.000Z</time>
      </trkpt>
      <trkpt lat="41.430474082008004" lon="2.114098872989416">
        <ele>414.6000061035156</ele>
        <time>2019-02-22T16:41:49.000Z</time>
      </trkpt>
      <trkpt lat="41.43046813085675" lon="2.114075319841504">
        <ele>414.6000061035156</ele>
        <time>2019-02-22T16:41:50.000Z</time>
      </trkpt>
      <trkpt lat="41.43047005869448" lon="2.1140510123223066">
        <ele>414.6000061035156</ele>
        <time>2019-02-22T16:41:51.000Z</time>
      </trkpt>
      <trkpt lat="41.43050425685942" lon="2.1139803528785706">
        <ele>414.0</ele>
        <time>2019-02-22T16:41:54.000Z</time>
      </trkpt>
      <trkpt lat="41.43055882304907" lon="2.113885385915637">
        <ele>413.79998779296875</ele>
        <time>2019-02-22T16:41:59.000Z</time>
      </trkpt>
      <trkpt lat="41.43066217191517" lon="2.113826544955373">
        <ele>414.3999938964844</ele>
        <time>2019-02-22T16:42:06.000Z</time>
      </trkpt>
      <trkpt lat="41.430730149149895" lon="2.1138107031583786">
        <ele>414.20001220703125</ele>
        <time>2019-02-22T16:42:13.000Z</time>
      </trkpt>
      <trkpt lat="41.43074607476592" lon="2.113813804462552">
        <ele>414.20001220703125</ele>
        <time>2019-02-22T16:42:14.000Z</time>
      </trkpt>
      <trkpt lat="41.430746326223016" lon="2.1138675324618816">
        <ele>414.0</ele>
        <time>2019-02-22T16:42:18.000Z</time>
      </trkpt>
      <trkpt lat="41.430738363415" lon="2.113872729241848">
        <ele>414.20001220703125</ele>
        <time>2019-02-22T16:42:19.000Z</time>
      </trkpt>
      <trkpt lat="41.43069435842335" lon="2.1138436440378428">
        <ele>414.6000061035156</ele>
        <time>2019-02-22T16:42:23.000Z</time>
      </trkpt>
      <trkpt lat="41.430625123903155" lon="2.113857977092266">
        <ele>414.3999938964844</ele>
        <time>2019-02-22T16:42:30.000Z</time>
      </trkpt>
      <trkpt lat="41.43056930042803" lon="2.1139303129166365">
        <ele>413.79998779296875</ele>
        <time>2019-02-22T16:42:36.000Z</time>
      </trkpt>
      <trkpt lat="41.430576257407665" lon="2.113974653184414">
        <ele>414.0</ele>
        <time>2019-02-22T16:42:38.000Z</time>
      </trkpt>
      <trkpt lat="41.43055974505842" lon="2.114129802212119">
        <ele>414.79998779296875</ele>
        <time>2019-02-22T16:42:45.000Z</time>
      </trkpt>
      <trkpt lat="41.43054381944239" lon="2.114152517169714">
        <ele>414.79998779296875</ele>
        <time>2019-02-22T16:42:46.000Z</time>
      </trkpt>
      <trkpt lat="41.43045270815492" lon="2.114221667870879">
        <ele>414.79998779296875</ele>
        <time>2019-02-22T16:42:51.000Z</time>
      </trkpt>
      <trkpt lat="41.430360423401" lon="2.114248825237155">
        <ele>414.79998779296875</ele>
        <time>2019-02-22T16:42:57.000Z</time>
      </trkpt>
      <trkpt lat="41.43019990995526" lon="2.114277323707938">
        <ele>415.0</ele>
        <time>2019-02-22T16:43:05.000Z</time>
      </trkpt>
      <trkpt lat="41.430031852796674" lon="2.114262068644166">
        <ele>414.20001220703125</ele>
        <time>2019-02-22T16:43:12.000Z</time>
      </trkpt>
      <trkpt lat="41.429884331300855" lon="2.114252932369709">
        <ele>414.3999938964844</ele>
        <time>2019-02-22T16:43:19.000Z</time>
      </trkpt>
      <trkpt lat="41.429744604974985" lon="2.114281766116619">
        <ele>415.0</ele>
        <time>2019-02-22T16:43:25.000Z</time>
      </trkpt>
      <trkpt lat="41.42961476929486" lon="2.1143381763249636">
        <ele>415.3999938964844</ele>
        <time>2019-02-22T16:43:32.000Z</time>
      </trkpt>
      <trkpt lat="41.42950940877199" lon="2.114495672285557">
        <ele>415.20001220703125</ele>
        <time>2019-02-22T16:43:38.000Z</time>
      </trkpt>
      <trkpt lat="41.42944344319403" lon="2.11460136808455">
        <ele>415.79998779296875</ele>
        <time>2019-02-22T16:43:42.000Z</time>
      </trkpt>
      <trkpt lat="41.42943548038602" lon="2.1146138571202755">
        <ele>415.79998779296875</ele>
        <time>2019-02-22T16:43:44.000Z</time>
      </trkpt>
      <trkpt lat="41.42941410653293" lon="2.1146966703236103">
        <ele>416.0</ele>
        <time>2019-02-22T16:43:46.000Z</time>
      </trkpt>
      <trkpt lat="41.429376639425755" lon="2.1148568484932184">
        <ele>416.20001220703125</ele>
        <time>2019-02-22T16:43:50.000Z</time>
      </trkpt>
      <trkpt lat="41.42933095805347" lon="2.1150963194668293">
        <ele>417.0</ele>
        <time>2019-02-22T16:43:58.000Z</time>
      </trkpt>
      <trkpt lat="41.42932458780706" lon="2.115200674161315">
        <ele>417.20001220703125</ele>
        <time>2019-02-22T16:44:02.000Z</time>
      </trkpt>
      <trkpt lat="41.42930891364813" lon="2.1154149156063795">
        <ele>417.20001220703125</ele>
        <time>2019-02-22T16:44:10.000Z</time>
      </trkpt>
      <trkpt lat="41.42930648289621" lon="2.1155774407088757">
        <ele>417.79998779296875</ele>
        <time>2019-02-22T16:44:17.000Z</time>
      </trkpt>
      <trkpt lat="41.429302878677845" lon="2.115633264183998">
        <ele>418.20001220703125</ele>
        <time>2019-02-22T16:44:19.000Z</time>
      </trkpt>
      <trkpt lat="41.42929198220372" lon="2.1158236172050238">
        <ele>418.6000061035156</ele>
        <time>2019-02-22T16:44:26.000Z</time>
      </trkpt>
      <trkpt lat="41.42926197499037" lon="2.1159800235182047">
        <ele>419.3999938964844</ele>
        <time>2019-02-22T16:44:32.000Z</time>
      </trkpt>
      <trkpt lat="41.4292567782104" lon="2.116010282188654">
        <ele>419.3999938964844</ele>
        <time>2019-02-22T16:44:33.000Z</time>
      </trkpt>
      <trkpt lat="41.429193913936615" lon="2.1162460651248693">
        <ele>420.3999938964844</ele>
        <time>2019-02-22T16:44:41.000Z</time>
      </trkpt>
      <trkpt lat="41.42917010933161" lon="2.116293255239725">
        <ele>420.3999938964844</ele>
        <time>2019-02-22T16:44:43.000Z</time>
      </trkpt>
      <trkpt lat="41.42905293032527" lon="2.1164462249726057">
        <ele>420.20001220703125</ele>
        <time>2019-02-22T16:44:51.000Z</time>
      </trkpt>
      <trkpt lat="41.42890716902912" lon="2.1165756415575743">
        <ele>420.3999938964844</ele>
        <time>2019-02-22T16:44:58.000Z</time>
      </trkpt>
      <trkpt lat="41.42874229699373" lon="2.1166639029979706">
        <ele>420.79998779296875</ele>
        <time>2019-02-22T16:45:05.000Z</time>
      </trkpt>
      <trkpt lat="41.42869762144983" lon="2.11669416166842">
        <ele>421.20001220703125</ele>
        <time>2019-02-22T16:45:07.000Z</time>
      </trkpt>
      <trkpt lat="41.42858890816569" lon="2.1167537569999695">
        <ele>420.6000061035156</ele>
        <time>2019-02-22T16:45:12.000Z</time>
      </trkpt>
      <trkpt lat="41.42847885377705" lon="2.1167964208871126">
        <ele>419.79998779296875</ele>
        <time>2019-02-22T16:45:17.000Z</time>
      </trkpt>
      <trkpt lat="41.42843451350927" lon="2.1168068144470453">
        <ele>419.6000061035156</ele>
        <time>2019-02-22T16:45:19.000Z</time>
      </trkpt>
      <trkpt lat="41.42829939723015" lon="2.116827517747879">
        <ele>419.6000061035156</ele>
        <time>2019-02-22T16:45:25.000Z</time>
      </trkpt>
      <trkpt lat="41.428162939846516" lon="2.1168592013418674">
        <ele>419.6000061035156</ele>
        <time>2019-02-22T16:45:32.000Z</time>
      </trkpt>
      <trkpt lat="41.42807258293033" lon="2.1169622987508774">
        <ele>419.6000061035156</ele>
        <time>2019-02-22T16:45:38.000Z</time>
      </trkpt>
      <trkpt lat="41.42801281996071" lon="2.117134379222989">
        <ele>419.3999938964844</ele>
        <time>2019-02-22T16:45:44.000Z</time>
      </trkpt>
      <trkpt lat="41.42798658460379" lon="2.1172109059989452">
        <ele>420.3999938964844</ele>
        <time>2019-02-22T16:45:47.000Z</time>
      </trkpt>
      <trkpt lat="41.427963366732" lon="2.117244517430663">
        <ele>420.3999938964844</ele>
        <time>2019-02-22T16:45:49.000Z</time>
      </trkpt>
      <trkpt lat="41.42790159210563" lon="2.1174225490540266">
        <ele>419.3999938964844</ele>
        <time>2019-02-22T16:45:54.000Z</time>
      </trkpt>
      <trkpt lat="41.427799332886934" lon="2.117765536531806">
        <ele>418.3999938964844</ele>
        <time>2019-02-22T16:46:02.000Z</time>
      </trkpt>
      <trkpt lat="41.4276853390038" lon="2.1180362720042467">
        <ele>418.3999938964844</ele>
        <time>2019-02-22T16:46:10.000Z</time>
      </trkpt>
      <trkpt lat="41.427640076726675" lon="2.118153953924775">
        <ele>418.3999938964844</ele>
        <time>2019-02-22T16:46:14.000Z</time>
      </trkpt>
      <trkpt lat="41.42762222327292" lon="2.118175830692053">
        <ele>418.3999938964844</ele>
        <time>2019-02-22T16:46:15.000Z</time>
      </trkpt>
      <trkpt lat="41.42752893269062" lon="2.11829443462193">
        <ele>418.79998779296875</ele>
        <time>2019-02-22T16:46:21.000Z</time>
      </trkpt>
      <trkpt lat="41.42751652747393" lon="2.1183244418352842">
        <ele>418.79998779296875</ele>
        <time>2019-02-22T16:46:22.000Z</time>
      </trkpt>
      <trkpt lat="41.42746263183653" lon="2.1185343246906996">
        <ele>418.6000061035156</ele>
        <time>2019-02-22T16:46:28.000Z</time>
      </trkpt>
      <trkpt lat="41.4274075627327" lon="2.118758037686348">
        <ele>419.20001220703125</ele>
        <time>2019-02-22T16:46:34.000Z</time>
      </trkpt>
      <trkpt lat="41.42735190689564" lon="2.118981499224901">
        <ele>419.3999938964844</ele>
        <time>2019-02-22T16:46:41.000Z</time>
      </trkpt>
      <trkpt lat="41.427288707345724" lon="2.1191985066980124">
        <ele>418.6000061035156</ele>
        <time>2019-02-22T16:46:48.000Z</time>
      </trkpt>
      <trkpt lat="41.42725920304656" lon="2.1194181125611067">
        <ele>418.3999938964844</ele>
        <time>2019-02-22T16:46:54.000Z</time>
      </trkpt>
      <trkpt lat="41.42724411562085" lon="2.119502183049917">
        <ele>418.20001220703125</ele>
        <time>2019-02-22T16:46:56.000Z</time>
      </trkpt>
      <trkpt lat="41.42723271623254" lon="2.119698403403163">
        <ele>418.3999938964844</ele>
        <time>2019-02-22T16:47:01.000Z</time>
      </trkpt>
      <trkpt lat="41.42722886055708" lon="2.1198881696909666">
        <ele>418.6000061035156</ele>
        <time>2019-02-22T16:47:06.000Z</time>
      </trkpt>
      <trkpt lat="41.427217880263925" lon="2.1199297439306974">
        <ele>419.20001220703125</ele>
        <time>2019-02-22T16:47:07.000Z</time>
      </trkpt>
      <trkpt lat="41.427214527502656" lon="2.1199688874185085">
        <ele>419.3999938964844</ele>
        <time>2019-02-22T16:47:08.000Z</time>
      </trkpt>
      <trkpt lat="41.42720656469464" lon="2.1201600786298513">
        <ele>419.20001220703125</ele>
        <time>2019-02-22T16:47:13.000Z</time>
      </trkpt>
      <trkpt lat="41.427222322672606" lon="2.12034129537642">
        <ele>419.6000061035156</ele>
        <time>2019-02-22T16:47:19.000Z</time>
      </trkpt>
      <trkpt lat="41.42723372206092" lon="2.1204286348074675">
        <ele>419.6000061035156</ele>
        <time>2019-02-22T16:47:23.000Z</time>
      </trkpt>
      <trkpt lat="41.42723179422319" lon="2.120446739718318">
        <ele>419.6000061035156</ele>
        <time>2019-02-22T16:47:24.000Z</time>
      </trkpt>
      <trkpt lat="41.42723036929965" lon="2.120467107743025">
        <ele>419.3999938964844</ele>
        <time>2019-02-22T16:47:25.000Z</time>
      </trkpt>
      <trkpt lat="41.42721896991134" lon="2.12055335752666">
        <ele>419.6000061035156</ele>
        <time>2019-02-22T16:47:28.000Z</time>
      </trkpt>
      <trkpt lat="41.427227603271604" lon="2.1205817721784115">
        <ele>419.6000061035156</ele>
        <time>2019-02-22T16:47:29.000Z</time>
      </trkpt>
      <trkpt lat="41.42732257023454" lon="2.12077128700912">
        <ele>420.3999938964844</ele>
        <time>2019-02-22T16:47:36.000Z</time>
      </trkpt>
      <trkpt lat="41.427374286577106" lon="2.1208545193076134">
        <ele>421.0</ele>
        <time>2019-02-22T16:47:40.000Z</time>
      </trkpt>
      <trkpt lat="41.42739398404956" lon="2.120873210951686">
        <ele>421.0</ele>
        <time>2019-02-22T16:47:41.000Z</time>
      </trkpt>
      <trkpt lat="41.427414352074265" lon="2.1209074929356575">
        <ele>421.20001220703125</ele>
        <time>2019-02-22T16:47:43.000Z</time>
      </trkpt>
      <trkpt lat="41.42743547447026" lon="2.120934734120965">
        <ele>421.20001220703125</ele>
        <time>2019-02-22T16:47:45.000Z</time>
      </trkpt>
      <trkpt lat="41.42746330238879" lon="2.1209540963172913">
        <ele>421.0</ele>
        <time>2019-02-22T16:47:47.000Z</time>
      </trkpt>
      <trkpt lat="41.42749020829797" lon="2.120972787961364">
        <ele>421.20001220703125</ele>
        <time>2019-02-22T16:47:49.000Z</time>
      </trkpt>
      <trkpt lat="41.42752407118678" lon="2.1210397593677044">
        <ele>421.20001220703125</ele>
        <time>2019-02-22T16:47:53.000Z</time>
      </trkpt>
      <trkpt lat="41.42759280279279" lon="2.1211027074605227">
        <ele>421.3999938964844</ele>
        <time>2019-02-22T16:47:58.000Z</time>
      </trkpt>
      <trkpt lat="41.42763295210898" lon="2.1211372409015894">
        <ele>421.6000061035156</ele>
        <time>2019-02-22T16:48:00.000Z</time>
      </trkpt>
      <trkpt lat="41.42779329791665" lon="2.1212938986718655">
        <ele>421.3999938964844</ele>
        <time>2019-02-22T16:48:08.000Z</time>
      </trkpt>
      <trkpt lat="41.42789488658309" lon="2.1213901229202747">
        <ele>421.3999938964844</ele>
        <time>2019-02-22T16:48:14.000Z</time>
      </trkpt>
      <trkpt lat="41.428012400865555" lon="2.121516102924943">
        <ele>422.0</ele>
        <time>2019-02-22T16:48:21.000Z</time>
      </trkpt>
      <trkpt lat="41.4280999917537" lon="2.1216722577810287">
        <ele>422.20001220703125</ele>
        <time>2019-02-22T16:48:28.000Z</time>
      </trkpt>
      <trkpt lat="41.42818062566221" lon="2.121799411252141">
        <ele>422.20001220703125</ele>
        <time>2019-02-22T16:48:34.000Z</time>
      </trkpt>
      <trkpt lat="41.4282585773617" lon="2.121973168104887">
        <ele>421.6000061035156</ele>
        <time>2019-02-22T16:48:40.000Z</time>
      </trkpt>
      <trkpt lat="41.42829981632531" lon="2.1220596693456173">
        <ele>422.6000061035156</ele>
        <time>2019-02-22T16:48:43.000Z</time>
      </trkpt>
      <trkpt lat="41.42834600061178" lon="2.1221674606204033">
        <ele>422.3999938964844</ele>
        <time>2019-02-22T16:48:47.000Z</time>
      </trkpt>
      <trkpt lat="41.42846401780844" lon="2.1223838813602924">
        <ele>421.79998779296875</ele>
        <time>2019-02-22T16:48:55.000Z</time>
      </trkpt>
      <trkpt lat="41.42854917794466" lon="2.122490331530571">
        <ele>422.20001220703125</ele>
        <time>2019-02-22T16:49:00.000Z</time>
      </trkpt>
      <trkpt lat="41.428569965064526" lon="2.122501563280821">
        <ele>422.20001220703125</ele>
        <time>2019-02-22T16:49:01.000Z</time>
      </trkpt>
      <trkpt lat="41.42863316461444" lon="2.1225671097636223">
        <ele>421.79998779296875</ele>
        <time>2019-02-22T16:49:05.000Z</time>
      </trkpt>
      <trkpt lat="41.428684210404754" lon="2.1226445585489273">
        <ele>422.0</ele>
        <time>2019-02-22T16:49:10.000Z</time>
      </trkpt>
      <trkpt lat="41.42871564254165" lon="2.1226972807198763">
        <ele>422.20001220703125</ele>
        <time>2019-02-22T16:49:14.000Z</time>
      </trkpt>
      <trkpt lat="41.428736010566354" lon="2.1226972807198763">
        <ele>422.20001220703125</ele>
        <time>2019-02-22T16:49:15.000Z</time>
      </trkpt>
      <trkpt lat="41.42877548933029" lon="2.122704740613699">
        <ele>422.0</ele>
        <time>2019-02-22T16:49:19.000Z</time>
      </trkpt>
      <trkpt lat="41.42880080267787" lon="2.1227263659238815">
        <ele>422.0</ele>
        <time>2019-02-22T16:49:21.000Z</time>
      </trkpt>
      <trkpt lat="41.42880583181977" lon="2.122743045911193">
        <ele>422.0</ele>
        <time>2019-02-22T16:49:22.000Z</time>
      </trkpt>
      <trkpt lat="41.428763419389725" lon="2.1228650864213705">
        <ele>421.79998779296875</ele>
        <time>2019-02-22T16:49:25.000Z</time>
      </trkpt>
      <trkpt lat="41.428760988637805" lon="2.122929375618696">
        <ele>421.79998779296875</ele>
        <time>2019-02-22T16:49:26.000Z</time>
      </trkpt>
      <trkpt lat="41.42876526340842" lon="2.1230008732527494">
        <ele>421.6000061035156</ele>
        <time>2019-02-22T16:49:27.000Z</time>
      </trkpt>
      <trkpt lat="41.42882636748254" lon="2.1230518352240324">
        <ele>421.6000061035156</ele>
        <time>2019-02-22T16:49:28.000Z</time>
      </trkpt>
      <trkpt lat="41.428880766034126" lon="2.1231062337756157">
        <ele>421.3999938964844</ele>
        <time>2019-02-22T16:49:29.000Z</time>
      </trkpt>
      <trkpt lat="41.428986210376024" lon="2.123351823538542">
        <ele>420.6000061035156</ele>
        <time>2019-02-22T16:49:33.000Z</time>
      </trkpt>
      <trkpt lat="41.42905586399138" lon="2.1235451102256775">
        <ele>420.20001220703125</ele>
        <time>2019-02-22T16:49:36.000Z</time>
      </trkpt>
      <trkpt lat="41.42917354591191" lon="2.123783491551876">
        <ele>419.20001220703125</ele>
        <time>2019-02-22T16:49:40.000Z</time>
      </trkpt>
      <trkpt lat="41.42925878986716" lon="2.123900670558214">
        <ele>418.20001220703125</ele>
        <time>2019-02-22T16:49:42.000Z</time>
      </trkpt>
      <trkpt lat="41.42930891364813" lon="2.123953141272068">
        <ele>417.6000061035156</ele>
        <time>2019-02-22T16:49:43.000Z</time>
      </trkpt>
      <trkpt lat="41.42940312623978" lon="2.1240636985749006">
        <ele>416.3999938964844</ele>
        <time>2019-02-22T16:49:45.000Z</time>
      </trkpt>
      <trkpt lat="41.42953170463443" lon="2.1242348570376635">
        <ele>415.0</ele>
        <time>2019-02-22T16:49:48.000Z</time>
      </trkpt>
      <trkpt lat="41.42957512289286" lon="2.124291267246008">
        <ele>414.3999938964844</ele>
        <time>2019-02-22T16:49:49.000Z</time>
      </trkpt>
      <trkpt lat="41.4296161942184" lon="2.12434608489275">
        <ele>413.79998779296875</ele>
        <time>2019-02-22T16:49:50.000Z</time>
      </trkpt>
      <trkpt lat="41.429657097905874" lon="2.1243988908827305">
        <ele>413.6000061035156</ele>
        <time>2019-02-22T16:49:51.000Z</time>
      </trkpt>
      <trkpt lat="41.4297438506037" lon="2.1245143096894026">
        <ele>413.0</ele>
        <time>2019-02-22T16:49:53.000Z</time>
      </trkpt>
      <trkpt lat="41.42979129217565" lon="2.1245738212019205">
        <ele>412.6000061035156</ele>
        <time>2019-02-22T16:49:54.000Z</time>
      </trkpt>
      <trkpt lat="41.429935209453106" lon="2.1247599832713604">
        <ele>411.0</ele>
        <time>2019-02-22T16:49:57.000Z</time>
      </trkpt>
      <trkpt lat="41.430085161700845" lon="2.124945307150483">
        <ele>409.79998779296875</ele>
        <time>2019-02-22T16:50:00.000Z</time>
      </trkpt>
      <trkpt lat="41.43013972789049" lon="2.1250061597675085">
        <ele>409.20001220703125</ele>
        <time>2019-02-22T16:50:01.000Z</time>
      </trkpt>
      <trkpt lat="41.430262019857764" lon="2.1251230873167515">
        <ele>408.20001220703125</ele>
        <time>2019-02-22T16:50:03.000Z</time>
      </trkpt>
      <trkpt lat="41.430309461429715" lon="2.125190393999219">
        <ele>407.79998779296875</ele>
        <time>2019-02-22T16:50:04.000Z</time>
      </trkpt>
      <trkpt lat="41.43040610477328" lon="2.125329365953803">
        <ele>406.6000061035156</ele>
        <time>2019-02-22T16:50:06.000Z</time>
      </trkpt>
      <trkpt lat="41.430539125576615" lon="2.125507900491357">
        <ele>405.3999938964844</ele>
        <time>2019-02-22T16:50:09.000Z</time>
      </trkpt>
      <trkpt lat="41.43058103509247" lon="2.1255529951304197">
        <ele>405.20001220703125</ele>
        <time>2019-02-22T16:50:10.000Z</time>
      </trkpt>
      <trkpt lat="41.43069410696626" lon="2.125630360096693">
        <ele>404.6000061035156</ele>
        <time>2019-02-22T16:50:12.000Z</time>
      </trkpt>
      <trkpt lat="41.43073869869113" lon="2.125673359259963">
        <ele>404.6000061035156</ele>
        <time>2019-02-22T16:50:13.000Z</time>
      </trkpt>
      <trkpt lat="41.430783290416" lon="2.1257182862609625">
        <ele>404.6000061035156</ele>
        <time>2019-02-22T16:50:14.000Z</time>
      </trkpt>
      <trkpt lat="41.43086224794388" lon="2.125804452225566">
        <ele>404.20001220703125</ele>
        <time>2019-02-22T16:50:16.000Z</time>
      </trkpt>
      <trkpt lat="41.43089200370014" lon="2.125846780836582">
        <ele>403.79998779296875</ele>
        <time>2019-02-22T16:50:17.000Z</time>
      </trkpt>
      <trkpt lat="41.43096651881933" lon="2.125947279855609">
        <ele>403.20001220703125</ele>
        <time>2019-02-22T16:50:20.000Z</time>
      </trkpt>
      <trkpt lat="41.43098931759596" lon="2.125978209078312">
        <ele>403.20001220703125</ele>
        <time>2019-02-22T16:50:21.000Z</time>
      </trkpt>
      <trkpt lat="41.4310285449028" lon="2.12603528983891">
        <ele>403.3999938964844</ele>
        <time>2019-02-22T16:50:23.000Z</time>
      </trkpt>
      <trkpt lat="41.43103826791048" lon="2.126061273738742">
        <ele>403.20001220703125</ele>
        <time>2019-02-22T16:50:26.000Z</time>
      </trkpt>
      <trkpt lat="41.43103986047208" lon="2.1260601840913296">
        <ele>403.0</ele>
        <time>2019-02-22T16:50:27.000Z</time>
      </trkpt>
      <trkpt lat="41.4310613181442" lon="2.1260493714362383">
        <ele>403.0</ele>
        <time>2019-02-22T16:50:29.000Z</time>
      </trkpt>
      <trkpt lat="41.4311028085649" lon="2.1260216273367405">
        <ele>402.79998779296875</ele>
        <time>2019-02-22T16:50:31.000Z</time>
      </trkpt>
      <trkpt lat="41.43115318380296" lon="2.125979131087661">
        <ele>402.20001220703125</ele>
        <time>2019-02-22T16:50:34.000Z</time>
      </trkpt>
      <trkpt lat="41.43121453933418" lon="2.1259610261768103">
        <ele>400.79998779296875</ele>
        <time>2019-02-22T16:50:36.000Z</time>
      </trkpt>
      <trkpt lat="41.431254437193274" lon="2.1259713359177113">
        <ele>400.20001220703125</ele>
        <time>2019-02-22T16:50:37.000Z</time>
      </trkpt>
      <trkpt lat="41.43132266588509" lon="2.126007629558444">
        <ele>399.3999938964844</ele>
        <time>2019-02-22T16:50:39.000Z</time>
      </trkpt>
      <trkpt lat="41.43140363506973" lon="2.126059429720044">
        <ele>399.0</ele>
        <time>2019-02-22T16:50:42.000Z</time>
      </trkpt>
      <trkpt lat="41.43150153569877" lon="2.1261212043464184">
        <ele>399.20001220703125</ele>
        <time>2019-02-22T16:50:47.000Z</time>
      </trkpt>
      <trkpt lat="41.4316054712981" lon="2.126178704202175">
        <ele>399.3999938964844</ele>
        <time>2019-02-22T16:50:54.000Z</time>
      </trkpt>
      <trkpt lat="41.431652745231986" lon="2.1261717472225428">
        <ele>399.3999938964844</ele>
        <time>2019-02-22T16:50:57.000Z</time>
      </trkpt>
      <trkpt lat="41.43166665919125" lon="2.1261671371757984">
        <ele>399.20001220703125</ele>
        <time>2019-02-22T16:50:59.000Z</time>
      </trkpt>
      <trkpt lat="41.43171393312514" lon="2.1261433325707912">
        <ele>398.79998779296875</ele>
        <time>2019-02-22T16:51:05.000Z</time>
      </trkpt>
      <trkpt lat="41.43176179379225" lon="2.1261324360966682">
        <ele>397.0</ele>
        <time>2019-02-22T16:54:37.000Z</time>
      </trkpt>
      <trkpt lat="41.431755842640996" lon="2.1261427458375692">
        <ele>397.0</ele>
        <time>2019-02-22T16:54:38.000Z</time>
      </trkpt>
      <trkpt lat="41.43174570053816" lon="2.126176441088319">
        <ele>397.0</ele>
        <time>2019-02-22T16:54:40.000Z</time>
      </trkpt>
      <trkpt lat="41.431749891489744" lon="2.126212315633893">
        <ele>397.20001220703125</ele>
        <time>2019-02-22T16:54:42.000Z</time>
      </trkpt>
      <trkpt lat="41.43177595920861" lon="2.126247603446245">
        <ele>397.6000061035156</ele>
        <time>2019-02-22T16:54:44.000Z</time>
      </trkpt>
      <trkpt lat="41.43182340078056" lon="2.12623855099082">
        <ele>397.6000061035156</ele>
        <time>2019-02-22T16:54:46.000Z</time>
      </trkpt>
      <trkpt lat="41.43196941353381" lon="2.126114834100008">
        <ele>397.3999938964844</ele>
        <time>2019-02-22T16:54:51.000Z</time>
      </trkpt>
      <trkpt lat="41.43212154507637" lon="2.1259331982582808">
        <ele>396.3999938964844</ele>
        <time>2019-02-22T16:54:56.000Z</time>
      </trkpt>
      <trkpt lat="41.43216026946902" lon="2.125911572948098">
        <ele>396.20001220703125</ele>
        <time>2019-02-22T16:54:57.000Z</time>
      </trkpt>
      <trkpt lat="41.432202346622944" lon="2.1259052865207195">
        <ele>396.0</ele>
        <time>2019-02-22T16:54:58.000Z</time>
      </trkpt>
      <trkpt lat="41.4322461001575" lon="2.1258993353694677">
        <ele>395.79998779296875</ele>
        <time>2019-02-22T16:54:59.000Z</time>
      </trkpt>
      <trkpt lat="41.43228926695883" lon="2.1259111538529396">
        <ele>395.79998779296875</ele>
        <time>2019-02-22T16:55:00.000Z</time>
      </trkpt>
      <trkpt lat="41.43233737908304" lon="2.1259253192692995">
        <ele>395.6000061035156</ele>
        <time>2019-02-22T16:55:01.000Z</time>
      </trkpt>
      <trkpt lat="41.432440392673016" lon="2.1259725093841553">
        <ele>394.79998779296875</ele>
        <time>2019-02-22T16:55:03.000Z</time>
      </trkpt>
      <trkpt lat="41.4325965475291" lon="2.1260661352425814">
        <ele>394.0</ele>
        <time>2019-02-22T16:55:06.000Z</time>
      </trkpt>
      <trkpt lat="41.432651784271" lon="2.126092789694667">
        <ele>393.79998779296875</ele>
        <time>2019-02-22T16:55:07.000Z</time>
      </trkpt>
      <trkpt lat="41.432701991871" lon="2.126116342842579">
        <ele>393.6000061035156</ele>
        <time>2019-02-22T16:55:08.000Z</time>
      </trkpt>
      <trkpt lat="41.43279536627233" lon="2.1261509601026773">
        <ele>393.6000061035156</ele>
        <time>2019-02-22T16:55:10.000Z</time>
      </trkpt>
      <trkpt lat="41.432842053472996" lon="2.126159258186817">
        <ele>393.6000061035156</ele>
        <time>2019-02-22T16:55:11.000Z</time>
      </trkpt>
      <trkpt lat="41.432945653796196" lon="2.126142578199506">
        <ele>393.3999938964844</ele>
        <time>2019-02-22T16:55:13.000Z</time>
      </trkpt>
      <trkpt lat="41.432992089539766" lon="2.1261147502809763">
        <ele>393.3999938964844</ele>
        <time>2019-02-22T16:55:14.000Z</time>
      </trkpt>
      <trkpt lat="41.433033496141434" lon="2.126076864078641">
        <ele>393.20001220703125</ele>
        <time>2019-02-22T16:55:15.000Z</time>
      </trkpt>
      <trkpt lat="41.433131312951446" lon="2.125908387824893">
        <ele>392.20001220703125</ele>
        <time>2019-02-22T16:55:18.000Z</time>
      </trkpt>
      <trkpt lat="41.43316240981221" lon="2.125841248780489">
        <ele>391.6000061035156</ele>
        <time>2019-02-22T16:55:19.000Z</time>
      </trkpt>
      <trkpt lat="41.43319174647331" lon="2.1257679909467697">
        <ele>391.0</ele>
        <time>2019-02-22T16:55:20.000Z</time>
      </trkpt>
      <trkpt lat="41.4332527667284" lon="2.1256101597100496">
        <ele>389.6000061035156</ele>
        <time>2019-02-22T16:55:22.000Z</time>
      </trkpt>
      <trkpt lat="41.43331286497414" lon="2.1254523284733295">
        <ele>388.6000061035156</ele>
        <time>2019-02-22T16:55:24.000Z</time>
      </trkpt>
      <trkpt lat="41.433331137523055" lon="2.1254082396626472">
        <ele>388.3999938964844</ele>
        <time>2019-02-22T16:55:25.000Z</time>
      </trkpt>
      <trkpt lat="41.433390816673636" lon="2.1252070739865303">
        <ele>387.3999938964844</ele>
        <time>2019-02-22T16:55:28.000Z</time>
      </trkpt>
      <trkpt lat="41.43343834206462" lon="2.1250453870743513">
        <ele>386.79998779296875</ele>
        <time>2019-02-22T16:55:30.000Z</time>
      </trkpt>
      <trkpt lat="41.433579912409186" lon="2.124630818143487">
        <ele>386.3999938964844</ele>
        <time>2019-02-22T16:55:36.000Z</time>
      </trkpt>
      <trkpt lat="41.43361486494541" lon="2.124575162306428">
        <ele>386.3999938964844</ele>
        <time>2019-02-22T16:55:37.000Z</time>
      </trkpt>
      <trkpt lat="41.433658031746745" lon="2.124522775411606">
        <ele>386.3999938964844</ele>
        <time>2019-02-22T16:55:38.000Z</time>
      </trkpt>
      <trkpt lat="41.43379373475909" lon="2.1243774332106113">
        <ele>386.3999938964844</ele>
        <time>2019-02-22T16:55:40.000Z</time>
      </trkpt>
      <trkpt lat="41.433842685073614" lon="2.1244054287672043">
        <ele>386.0</ele>
        <time>2019-02-22T16:55:41.000Z</time>
      </trkpt>
      <trkpt lat="41.43388409167528" lon="2.1244589053094387">
        <ele>385.3999938964844</ele>
        <time>2019-02-22T16:55:42.000Z</time>
      </trkpt>
      <trkpt lat="41.433922983706" lon="2.124523865059018">
        <ele>384.79998779296875</ele>
        <time>2019-02-22T16:55:43.000Z</time>
      </trkpt>
      <trkpt lat="41.433991212397814" lon="2.1246618311852217">
        <ele>384.20001220703125</ele>
        <time>2019-02-22T16:55:45.000Z</time>
      </trkpt>
      <trkpt lat="41.434026919305325" lon="2.1247346699237823">
        <ele>383.79998779296875</ele>
        <time>2019-02-22T16:55:46.000Z</time>
      </trkpt>
      <trkpt lat="41.434071930125356" lon="2.124805161729455">
        <ele>383.6000061035156</ele>
        <time>2019-02-22T16:55:47.000Z</time>
      </trkpt>
      <trkpt lat="41.43411627039313" lon="2.124867858365178">
        <ele>383.20001220703125</ele>
        <time>2019-02-22T16:55:48.000Z</time>
      </trkpt>
      <trkpt lat="41.4342197868973" lon="2.1249787509441376">
        <ele>382.3999938964844</ele>
        <time>2019-02-22T16:55:50.000Z</time>
      </trkpt>
      <trkpt lat="41.43434006720781" lon="2.125054942443967">
        <ele>382.0</ele>
        <time>2019-02-22T16:55:52.000Z</time>
      </trkpt>
      <trkpt lat="41.434459844604135" lon="2.1251230873167515">
        <ele>381.79998779296875</ele>
        <time>2019-02-22T16:55:54.000Z</time>
      </trkpt>
      <trkpt lat="41.434559589251876" lon="2.1252197306603193">
        <ele>381.20001220703125</ele>
        <time>2019-02-22T16:55:56.000Z</time>
      </trkpt>
      <trkpt lat="41.43462664447725" lon="2.1253360714763403">
        <ele>380.3999938964844</ele>
        <time>2019-02-22T16:55:58.000Z</time>
      </trkpt>
      <trkpt lat="41.434642570093274" lon="2.1253887098282576">
        <ele>380.20001220703125</ele>
        <time>2019-02-22T16:55:59.000Z</time>
      </trkpt>
      <trkpt lat="41.43465933389962" lon="2.125468421727419">
        <ele>380.20001220703125</ele>
        <time>2019-02-22T16:56:02.000Z</time>
      </trkpt>
      <trkpt lat="41.434628404676914" lon="2.125549139454961">
        <ele>380.6000061035156</ele>
        <time>2019-02-22T16:56:06.000Z</time>
      </trkpt>
      <trkpt lat="41.43460803665221" lon="2.125582918524742">
        <ele>380.6000061035156</ele>
        <time>2019-02-22T16:56:07.000Z</time>
      </trkpt>
      <trkpt lat="41.43458557315171" lon="2.1256225649267435">
        <ele>380.3999938964844</ele>
        <time>2019-02-22T16:56:08.000Z</time>
      </trkpt>
      <trkpt lat="41.43454466946423" lon="2.1256711799651384">
        <ele>380.3999938964844</ele>
        <time>2019-02-22T16:56:09.000Z</time>
      </trkpt>
      <trkpt lat="41.43448800779879" lon="2.125790538266301">
        <ele>380.20001220703125</ele>
        <time>2019-02-22T16:56:11.000Z</time>
      </trkpt>
      <trkpt lat="41.43443964421749" lon="2.125996397808194">
        <ele>380.0</ele>
        <time>2019-02-22T16:56:14.000Z</time>
      </trkpt>
      <trkpt lat="41.43442430533469" lon="2.126206196844578">
        <ele>379.79998779296875</ele>
        <time>2019-02-22T16:56:17.000Z</time>
      </trkpt>
      <trkpt lat="41.43443017266691" lon="2.1263387985527515">
        <ele>379.6000061035156</ele>
        <time>2019-02-22T16:56:19.000Z</time>
      </trkpt>
      <trkpt lat="41.43450938165188" lon="2.126444997265935">
        <ele>379.20001220703125</ele>
        <time>2019-02-22T16:56:21.000Z</time>
      </trkpt>
      <trkpt lat="41.434576604515314" lon="2.126480955630541">
        <ele>379.0</ele>
        <time>2019-02-22T16:56:22.000Z</time>
      </trkpt>
      <trkpt lat="41.43464030697942" lon="2.126501826569438">
        <ele>378.79998779296875</ele>
        <time>2019-02-22T16:56:23.000Z</time>
      </trkpt>
      <trkpt lat="41.434705602005124" lon="2.126514734700322">
        <ele>378.6000061035156</ele>
        <time>2019-02-22T16:56:24.000Z</time>
      </trkpt>
      <trkpt lat="41.43477248959243" lon="2.1265364438295364">
        <ele>378.3999938964844</ele>
        <time>2019-02-22T16:56:25.000Z</time>
      </trkpt>
      <trkpt lat="41.434853710234165" lon="2.1265950333327055">
        <ele>378.0</ele>
        <time>2019-02-22T16:56:27.000Z</time>
      </trkpt>
      <trkpt lat="41.43489981070161" lon="2.1266365237534046">
        <ele>378.0</ele>
        <time>2019-02-22T16:56:28.000Z</time>
      </trkpt>
      <trkpt lat="41.43493954092264" lon="2.126690000295639">
        <ele>377.79998779296875</ele>
        <time>2019-02-22T16:56:29.000Z</time>
      </trkpt>
      <trkpt lat="41.43499511294067" lon="2.1268226858228445">
        <ele>377.79998779296875</ele>
        <time>2019-02-22T16:56:31.000Z</time>
      </trkpt>
      <trkpt lat="41.43503149040043" lon="2.126960987225175">
        <ele>378.0</ele>
        <time>2019-02-22T16:56:33.000Z</time>
      </trkpt>
      <trkpt lat="41.43512704409659" lon="2.12704966776073">
        <ele>378.0</ele>
        <time>2019-02-22T16:56:35.000Z</time>
      </trkpt>
      <trkpt lat="41.4352613221854" lon="2.127054613083601">
        <ele>377.6000061035156</ele>
        <time>2019-02-22T16:56:37.000Z</time>
      </trkpt>
      <trkpt lat="41.43532535992563" lon="2.127040447667241">
        <ele>377.3999938964844</ele>
        <time>2019-02-22T16:56:38.000Z</time>
      </trkpt>
      <trkpt lat="41.43554035574198" lon="2.127013709396124">
        <ele>377.0</ele>
        <time>2019-02-22T16:56:41.000Z</time>
      </trkpt>
      <trkpt lat="41.435591569170356" lon="2.126986300572753">
        <ele>377.20001220703125</ele>
        <time>2019-02-22T16:56:42.000Z</time>
      </trkpt>
      <trkpt lat="41.435623839497566" lon="2.1269319020211697">
        <ele>377.20001220703125</ele>
        <time>2019-02-22T16:56:43.000Z</time>
      </trkpt>
      <trkpt lat="41.43563088029623" lon="2.1268671099096537">
        <ele>377.3999938964844</ele>
        <time>2019-02-22T16:56:44.000Z</time>
      </trkpt>
      <trkpt lat="41.43562652170658" lon="2.126801311969757">
        <ele>377.20001220703125</ele>
        <time>2019-02-22T16:56:45.000Z</time>
      </trkpt>
      <trkpt lat="41.43564554862678" lon="2.126672063022852">
        <ele>376.79998779296875</ele>
        <time>2019-02-22T16:56:47.000Z</time>
      </trkpt>
      <trkpt lat="41.43566985614598" lon="2.1266091987490654">
        <ele>376.6000061035156</ele>
        <time>2019-02-22T16:56:48.000Z</time>
      </trkpt>
      <trkpt lat="41.43573800101876" lon="2.1264798659831285">
        <ele>375.79998779296875</ele>
        <time>2019-02-22T16:56:50.000Z</time>
      </trkpt>
      <trkpt lat="41.435821233317256" lon="2.1263449173420668">
        <ele>374.79998779296875</ele>
        <time>2019-02-22T16:56:52.000Z</time>
      </trkpt>
      <trkpt lat="41.43586456775665" lon="2.126280376687646">
        <ele>374.20001220703125</ele>
        <time>2019-02-22T16:56:53.000Z</time>
      </trkpt>
      <trkpt lat="41.43595274537802" lon="2.1261494513601065">
        <ele>373.6000061035156</ele>
        <time>2019-02-22T16:56:55.000Z</time>
      </trkpt>
      <trkpt lat="41.43607830628753" lon="2.126000924035907">
        <ele>373.20001220703125</ele>
        <time>2019-02-22T16:56:58.000Z</time>
      </trkpt>
      <trkpt lat="41.436130022630095" lon="2.125970581546426">
        <ele>373.0</ele>
        <time>2019-02-22T16:56:59.000Z</time>
      </trkpt>
      <trkpt lat="41.43625977449119" lon="2.1259141713380814">
        <ele>372.79998779296875</ele>
        <time>2019-02-22T16:57:01.000Z</time>
      </trkpt>
      <trkpt lat="41.436339067295194" lon="2.1260000858455896">
        <ele>373.20001220703125</ele>
        <time>2019-02-22T16:57:03.000Z</time>
      </trkpt>
      <trkpt lat="41.43645532429218" lon="2.1261851582676172">
        <ele>373.6000061035156</ele>
        <time>2019-02-22T16:57:06.000Z</time>
      </trkpt>
      <trkpt lat="41.436556577682495" lon="2.1263508684933186">
        <ele>373.6000061035156</ele>
        <time>2019-02-22T16:57:09.000Z</time>
      </trkpt>
      <trkpt lat="41.4365959726274" lon="2.1264000702649355">
        <ele>373.6000061035156</ele>
        <time>2019-02-22T16:57:10.000Z</time>
      </trkpt>
      <trkpt lat="41.43668842501938" lon="2.1264842245727777">
        <ele>373.3999938964844</ele>
        <time>2019-02-22T16:57:12.000Z</time>
      </trkpt>
      <trkpt lat="41.436732346192" lon="2.1265219431370497">
        <ele>373.0</ele>
        <time>2019-02-22T16:57:13.000Z</time>
      </trkpt>
      <trkpt lat="41.43677609972656" lon="2.1265599131584167">
        <ele>372.3999938964844</ele>
        <time>2019-02-22T16:57:14.000Z</time>
      </trkpt>
      <trkpt lat="41.436957316473126" lon="2.1267098654061556">
        <ele>373.0</ele>
        <time>2019-02-22T16:57:18.000Z</time>
      </trkpt>
      <trkpt lat="41.43700542859733" lon="2.1267411299049854">
        <ele>372.79998779296875</ele>
        <time>2019-02-22T16:57:19.000Z</time>
      </trkpt>
      <trkpt lat="41.43711917102337" lon="2.126744734123349">
        <ele>372.79998779296875</ele>
        <time>2019-02-22T16:57:21.000Z</time>
      </trkpt>
      <trkpt lat="41.437214305624366" lon="2.1266907546669245">
        <ele>372.3999938964844</ele>
        <time>2019-02-22T16:57:23.000Z</time>
      </trkpt>
      <trkpt lat="41.437286641448736" lon="2.126636356115341">
        <ele>372.20001220703125</ele>
        <time>2019-02-22T16:57:25.000Z</time>
      </trkpt>
      <trkpt lat="41.43741915933788" lon="2.1265780180692673">
        <ele>373.0</ele>
        <time>2019-02-22T16:57:30.000Z</time>
      </trkpt>
      <trkpt lat="41.43742494285107" lon="2.1265827119350433">
        <ele>373.20001220703125</ele>
        <time>2019-02-22T16:57:31.000Z</time>
      </trkpt>
      <trkpt lat="41.43742804415524" lon="2.1266124676913023">
        <ele>373.3999938964844</ele>
        <time>2019-02-22T16:57:34.000Z</time>
      </trkpt>
      <trkpt lat="41.43742904998362" lon="2.1266274712979794">
        <ele>373.3999938964844</ele>
        <time>2019-02-22T16:57:35.000Z</time>
      </trkpt>
      <trkpt lat="41.437428714707494" lon="2.1266727335751057">
        <ele>373.3999938964844</ele>
        <time>2019-02-22T16:57:40.000Z</time>
      </trkpt>
      <trkpt lat="41.43741966225207" lon="2.126686731353402">
        <ele>373.20001220703125</ele>
        <time>2019-02-22T16:57:41.000Z</time>
      </trkpt>
      <trkpt lat="41.437420416623354" lon="2.1267022378742695">
        <ele>373.20001220703125</ele>
        <time>2019-02-22T16:57:42.000Z</time>
      </trkpt>
      <trkpt lat="41.43741153180599" lon="2.1267140563577414">
        <ele>373.0</ele>
        <time>2019-02-22T16:57:44.000Z</time>
      </trkpt>
      <trkpt lat="41.43740767613053" lon="2.1267192531377077">
        <ele>373.20001220703125</ele>
        <time>2019-02-22T16:57:45.000Z</time>
      </trkpt>
      <trkpt lat="41.43738957121968" lon="2.1267458237707615">
        <ele>373.0</ele>
        <time>2019-02-22T16:57:48.000Z</time>
      </trkpt>
      <trkpt lat="41.43735822290182" lon="2.126722689718008">
        <ele>373.0</ele>
        <time>2019-02-22T16:57:51.000Z</time>
      </trkpt>
      <trkpt lat="41.43740449100733" lon="2.1266353502869606">
        <ele>373.0</ele>
        <time>2019-02-22T16:57:55.000Z</time>
      </trkpt>
      <trkpt lat="41.437398958951235" lon="2.1265826281160116">
        <ele>373.0</ele>
        <time>2019-02-22T16:57:58.000Z</time>
      </trkpt>
      <trkpt lat="41.43737431615591" lon="2.126559494063258">
        <ele>373.0</ele>
        <time>2019-02-22T16:58:00.000Z</time>
      </trkpt>
      <trkpt lat="41.43736341968179" lon="2.126566031947732">
        <ele>373.0</ele>
        <time>2019-02-22T16:58:01.000Z</time>
      </trkpt>
      <trkpt lat="41.43734824843705" lon="2.126636942848563">
        <ele>373.0</ele>
        <time>2019-02-22T16:58:04.000Z</time>
      </trkpt>
      <trkpt lat="41.43739124760032" lon="2.1268271282315254">
        <ele>372.6000061035156</ele>
        <time>2019-02-22T16:58:10.000Z</time>
      </trkpt>
      <trkpt lat="41.43745553679764" lon="2.127081686630845">
        <ele>372.79998779296875</ele>
        <time>2019-02-22T16:58:15.000Z</time>
      </trkpt>
      <trkpt lat="41.43747540190816" lon="2.127181515097618">
        <ele>372.6000061035156</ele>
        <time>2019-02-22T16:58:17.000Z</time>
      </trkpt>
      <trkpt lat="41.43748914822936" lon="2.1272862050682306">
        <ele>372.3999938964844</ele>
        <time>2019-02-22T16:58:19.000Z</time>
      </trkpt>
      <trkpt lat="41.43749853596091" lon="2.127335323020816">
        <ele>372.3999938964844</ele>
        <time>2019-02-22T16:58:20.000Z</time>
      </trkpt>
      <trkpt lat="41.43755704164505" lon="2.1276007778942585">
        <ele>372.6000061035156</ele>
        <time>2019-02-22T16:58:25.000Z</time>
      </trkpt>
      <trkpt lat="41.437685284763575" lon="2.1278911270201206">
        <ele>373.3999938964844</ele>
        <time>2019-02-22T16:58:32.000Z</time>
      </trkpt>
      <trkpt lat="41.43774990923703" lon="2.128040911629796">
        <ele>374.6000061035156</ele>
        <time>2019-02-22T16:58:36.000Z</time>
      </trkpt>
      <trkpt lat="41.437775222584605" lon="2.128115426748991">
        <ele>375.20001220703125</ele>
        <time>2019-02-22T16:58:38.000Z</time>
      </trkpt>
      <trkpt lat="41.437781592831016" lon="2.1281500440090895">
        <ele>375.6000061035156</ele>
        <time>2019-02-22T16:58:39.000Z</time>
      </trkpt>
      <trkpt lat="41.43780179321766" lon="2.1282369643449783">
        <ele>376.79998779296875</ele>
        <time>2019-02-22T16:58:42.000Z</time>
      </trkpt>
      <trkpt lat="41.43782710656524" lon="2.1282742638140917">
        <ele>377.6000061035156</ele>
        <time>2019-02-22T16:58:44.000Z</time>
      </trkpt>
      <trkpt lat="41.437841188162565" lon="2.128292787820101">
        <ele>378.0</ele>
        <time>2019-02-22T16:58:45.000Z</time>
      </trkpt>
      <trkpt lat="41.437883181497455" lon="2.1283446718007326">
        <ele>379.0</ele>
        <time>2019-02-22T16:58:48.000Z</time>
      </trkpt>
      <trkpt lat="41.43794369883835" lon="2.128389934077859">
        <ele>379.3999938964844</ele>
        <time>2019-02-22T16:58:51.000Z</time>
      </trkpt>
      <trkpt lat="41.43797873519361" lon="2.1284012496471405">
        <ele>380.3999938964844</ele>
        <time>2019-02-22T16:58:53.000Z</time>
      </trkpt>
      <trkpt lat="41.43804176710546" lon="2.128393119201064">
        <ele>381.3999938964844</ele>
        <time>2019-02-22T16:58:56.000Z</time>
      </trkpt>
      <trkpt lat="41.43806163221598" lon="2.1283871680498123">
        <ele>381.6000061035156</ele>
        <time>2019-02-22T16:58:57.000Z</time>
      </trkpt>
      <trkpt lat="41.43815919756889" lon="2.1283824741840363">
        <ele>382.6000061035156</ele>
        <time>2019-02-22T16:59:02.000Z</time>
      </trkpt>
      <trkpt lat="41.438205214217305" lon="2.128399657085538">
        <ele>382.6000061035156</ele>
        <time>2019-02-22T16:59:04.000Z</time>
      </trkpt>
      <trkpt lat="41.43830236047506" lon="2.128493534401059">
        <ele>383.6000061035156</ele>
        <time>2019-02-22T16:59:10.000Z</time>
      </trkpt>
      <trkpt lat="41.43831158056855" lon="2.128510633483529">
        <ele>383.6000061035156</ele>
        <time>2019-02-22T16:59:11.000Z</time>
      </trkpt>
      <trkpt lat="41.438317112624645" lon="2.128531336784363">
        <ele>383.79998779296875</ele>
        <time>2019-02-22T16:59:12.000Z</time>
      </trkpt>
      <trkpt lat="41.43833597190678" lon="2.1286061871796846">
        <ele>384.6000061035156</ele>
        <time>2019-02-22T16:59:15.000Z</time>
      </trkpt>
      <trkpt lat="41.43834619782865" lon="2.1286283154040575">
        <ele>384.79998779296875</ele>
        <time>2019-02-22T16:59:16.000Z</time>
      </trkpt>
      <trkpt lat="41.438398165628314" lon="2.128739459440112">
        <ele>385.0</ele>
        <time>2019-02-22T16:59:21.000Z</time>
      </trkpt>
      <trkpt lat="41.438419707119465" lon="2.1287765074521303">
        <ele>385.3999938964844</ele>
        <time>2019-02-22T16:59:23.000Z</time>
      </trkpt>
      <trkpt lat="41.43843454308808" lon="2.128789499402046">
        <ele>385.6000061035156</ele>
        <time>2019-02-22T16:59:24.000Z</time>
      </trkpt>
      <trkpt lat="41.43845214508474" lon="2.1288002282381058">
        <ele>386.0</ele>
        <time>2019-02-22T16:59:25.000Z</time>
      </trkpt>
      <trkpt lat="41.438490534201264" lon="2.1288202609866858">
        <ele>386.3999938964844</ele>
        <time>2019-02-22T16:59:27.000Z</time>
      </trkpt>
      <trkpt lat="41.438536047935486" lon="2.128858817741275">
        <ele>386.79998779296875</ele>
        <time>2019-02-22T16:59:30.000Z</time>
      </trkpt>
      <trkpt lat="41.438594637438655" lon="2.1289030741900206">
        <ele>387.79998779296875</ele>
        <time>2019-02-22T16:59:34.000Z</time>
      </trkpt>
      <trkpt lat="41.43863579258323" lon="2.1289438102394342">
        <ele>388.3999938964844</ele>
        <time>2019-02-22T16:59:37.000Z</time>
      </trkpt>
      <trkpt lat="41.438652724027634" lon="2.1289747394621372">
        <ele>389.0</ele>
        <time>2019-02-22T16:59:39.000Z</time>
      </trkpt>
      <trkpt lat="41.438707960769534" lon="2.129039531573653">
        <ele>390.0</ele>
        <time>2019-02-22T16:59:44.000Z</time>
      </trkpt>
      <trkpt lat="41.438720282167196" lon="2.1290504280477762">
        <ele>390.20001220703125</ele>
        <time>2019-02-22T16:59:45.000Z</time>
      </trkpt>
      <trkpt lat="41.43884005956352" lon="2.1291012223809958">
        <ele>391.20001220703125</ele>
        <time>2019-02-22T16:59:52.000Z</time>
      </trkpt>
      <trkpt lat="41.438916167244315" lon="2.129104072228074">
        <ele>392.20001220703125</ele>
        <time>2019-02-22T16:59:57.000Z</time>
      </trkpt>
      <trkpt lat="41.43894508481026" lon="2.129101138561964">
        <ele>392.6000061035156</ele>
        <time>2019-02-22T16:59:59.000Z</time>
      </trkpt>
      <trkpt lat="41.43899931572378" lon="2.1290889848023653">
        <ele>393.3999938964844</ele>
        <time>2019-02-22T17:00:02.000Z</time>
      </trkpt>
      <trkpt lat="41.43906687386334" lon="2.129060570150614">
        <ele>394.20001220703125</ele>
        <time>2019-02-22T17:00:06.000Z</time>
      </trkpt>
      <trkpt lat="41.43907902762294" lon="2.129053696990013">
        <ele>394.3999938964844</ele>
        <time>2019-02-22T17:00:07.000Z</time>
      </trkpt>
      <trkpt lat="41.43908891826868" lon="2.1290483325719833">
        <ele>394.6000061035156</ele>
        <time>2019-02-22T17:00:08.000Z</time>
      </trkpt>
      <trkpt lat="41.43911364488304" lon="2.1290353406220675">
        <ele>394.79998779296875</ele>
        <time>2019-02-22T17:00:10.000Z</time>
      </trkpt>
      <trkpt lat="41.439179107546806" lon="2.129003657028079">
        <ele>395.6000061035156</ele>
        <time>2019-02-22T17:00:15.000Z</time>
      </trkpt>
      <trkpt lat="41.43927013501525" lon="2.1289672795683146">
        <ele>396.3999938964844</ele>
        <time>2019-02-22T17:00:21.000Z</time>
      </trkpt>
      <trkpt lat="41.43928580917418" lon="2.128962082788348">
        <ele>396.3999938964844</ele>
        <time>2019-02-22T17:00:22.000Z</time>
      </trkpt>
      <trkpt lat="41.439331993460655" lon="2.1289658546447754">
        <ele>397.0</ele>
        <time>2019-02-22T17:00:25.000Z</time>
      </trkpt>
      <trkpt lat="41.4393968693912" lon="2.128998711705208">
        <ele>397.79998779296875</ele>
        <time>2019-02-22T17:00:29.000Z</time>
      </trkpt>
      <trkpt lat="41.43942930735648" lon="2.1290347538888454">
        <ele>398.0</ele>
        <time>2019-02-22T17:00:32.000Z</time>
      </trkpt>
      <trkpt lat="41.439477587118745" lon="2.1290791779756546">
        <ele>398.20001220703125</ele>
        <time>2019-02-22T17:00:36.000Z</time>
      </trkpt>
      <trkpt lat="41.43952653743327" lon="2.12913173250854">
        <ele>398.79998779296875</ele>
        <time>2019-02-22T17:00:40.000Z</time>
      </trkpt>
      <trkpt lat="41.439558221027255" lon="2.1291608177125454">
        <ele>399.0</ele>
        <time>2019-02-22T17:00:42.000Z</time>
      </trkpt>
      <trkpt lat="41.439578253775835" lon="2.129179509356618">
        <ele>399.0</ele>
        <time>2019-02-22T17:00:43.000Z</time>
      </trkpt>
      <trkpt lat="41.4396489970386" lon="2.1292594727128744">
        <ele>399.3999938964844</ele>
        <time>2019-02-22T17:00:49.000Z</time>
      </trkpt>
      <trkpt lat="41.439731139689684" lon="2.129349410533905">
        <ele>399.6000061035156</ele>
        <time>2019-02-22T17:00:56.000Z</time>
      </trkpt>
      <trkpt lat="41.43974748440087" lon="2.129346141591668">
        <ele>399.6000061035156</ele>
        <time>2019-02-22T17:00:58.000Z</time>
      </trkpt>
      <trkpt lat="41.43977019935846" lon="2.1293236780911684">
        <ele>399.6000061035156</ele>
        <time>2019-02-22T17:01:01.000Z</time>
      </trkpt>
      <trkpt lat="41.43976449966431" lon="2.129308842122555">
        <ele>399.6000061035156</ele>
        <time>2019-02-22T17:01:02.000Z</time>
      </trkpt>
      <trkpt lat="41.43968487158418" lon="2.1292381826788187">
        <ele>399.20001220703125</ele>
        <time>2019-02-22T17:01:07.000Z</time>
      </trkpt>
      <trkpt lat="41.43955889157951" lon="2.129129134118557">
        <ele>398.6000061035156</ele>
        <time>2019-02-22T17:01:13.000Z</time>
      </trkpt>
      <trkpt lat="41.43950709141791" lon="2.1290877275168896">
        <ele>398.6000061035156</ele>
        <time>2019-02-22T17:01:15.000Z</time>
      </trkpt>
      <trkpt lat="41.439416985958815" lon="2.12902519851923">
        <ele>398.0</ele>
        <time>2019-02-22T17:01:18.000Z</time>
      </trkpt>
      <trkpt lat="41.439388236030936" lon="2.128998711705208">
        <ele>397.79998779296875</ele>
        <time>2019-02-22T17:01:19.000Z</time>
      </trkpt>
      <trkpt lat="41.43930324353278" lon="2.128985719755292">
        <ele>397.6000061035156</ele>
        <time>2019-02-22T17:01:21.000Z</time>
      </trkpt>
      <trkpt lat="41.439205007627606" lon="2.129008937627077">
        <ele>397.0</ele>
        <time>2019-02-22T17:01:23.000Z</time>
      </trkpt>
      <trkpt lat="41.43915723077953" lon="2.129031401127577">
        <ele>396.6000061035156</ele>
        <time>2019-02-22T17:01:24.000Z</time>
      </trkpt>
      <trkpt lat="41.43908539786935" lon="2.1290821954607964">
        <ele>395.3999938964844</ele>
        <time>2019-02-22T17:01:26.000Z</time>
      </trkpt>
      <trkpt lat="41.43905656412244" lon="2.129101725295186">
        <ele>395.0</ele>
        <time>2019-02-22T17:01:27.000Z</time>
      </trkpt>
      <trkpt lat="41.438996717333794" lon="2.129107676446438">
        <ele>394.6000061035156</ele>
        <time>2019-02-22T17:01:28.000Z</time>
      </trkpt>
      <trkpt lat="41.438941145315766" lon="2.129103150218725">
        <ele>394.20001220703125</ele>
        <time>2019-02-22T17:01:29.000Z</time>
      </trkpt>
      <trkpt lat="41.43888331018388" lon="2.129096193239093">
        <ele>393.79998779296875</ele>
        <time>2019-02-22T17:01:30.000Z</time>
      </trkpt>
      <trkpt lat="41.438835030421615" lon="2.1290721371769905">
        <ele>393.0</ele>
        <time>2019-02-22T17:01:31.000Z</time>
      </trkpt>
      <trkpt lat="41.438785661011934" lon="2.129029640927911">
        <ele>391.3999938964844</ele>
        <time>2019-02-22T17:01:32.000Z</time>
      </trkpt>
      <trkpt lat="41.438727490603924" lon="2.1289873961359262">
        <ele>389.79998779296875</ele>
        <time>2019-02-22T17:01:33.000Z</time>
      </trkpt>
      <trkpt lat="41.438663536682725" lon="2.1289360988885164">
        <ele>388.3999938964844</ele>
        <time>2019-02-22T17:01:34.000Z</time>
      </trkpt>
      <trkpt lat="41.43853286281228" lon="2.1288236137479544">
        <ele>386.79998779296875</ele>
        <time>2019-02-22T17:01:36.000Z</time>
      </trkpt>
      <trkpt lat="41.43847921863198" lon="2.128756809979677">
        <ele>386.20001220703125</ele>
        <time>2019-02-22T17:01:37.000Z</time>
      </trkpt>
      <trkpt lat="41.43843269906938" lon="2.1286815404891968">
        <ele>385.6000061035156</ele>
        <time>2019-02-22T17:01:38.000Z</time>
      </trkpt>
      <trkpt lat="41.438361536711454" lon="2.1285414788872004">
        <ele>384.0</ele>
        <time>2019-02-22T17:01:40.000Z</time>
      </trkpt>
      <trkpt lat="41.43828232772648" lon="2.1284512896090746">
        <ele>383.20001220703125</ele>
        <time>2019-02-22T17:01:42.000Z</time>
      </trkpt>
      <trkpt lat="41.43823932856321" lon="2.1284274011850357">
        <ele>382.79998779296875</ele>
        <time>2019-02-22T17:01:43.000Z</time>
      </trkpt>
      <trkpt lat="41.43818392418325" lon="2.1284192707389593">
        <ele>382.6000061035156</ele>
        <time>2019-02-22T17:01:44.000Z</time>
      </trkpt>
      <trkpt lat="41.438134387135506" lon="2.128419606015086">
        <ele>382.20001220703125</ele>
        <time>2019-02-22T17:01:45.000Z</time>
      </trkpt>
      <trkpt lat="41.438015615567565" lon="2.128410553559661">
        <ele>382.0</ele>
        <time>2019-02-22T17:01:47.000Z</time>
      </trkpt>
      <trkpt lat="41.437954511493444" lon="2.1283759362995625">
        <ele>381.6000061035156</ele>
        <time>2019-02-22T17:01:48.000Z</time>
      </trkpt>
      <trkpt lat="41.43792727030814" lon="2.1282988227903843">
        <ele>381.0</ele>
        <time>2019-02-22T17:01:49.000Z</time>
      </trkpt>
      <trkpt lat="41.43788603134453" lon="2.1282054483890533">
        <ele>379.6000061035156</ele>
        <time>2019-02-22T17:01:50.000Z</time>
      </trkpt>
      <trkpt lat="41.43785250373185" lon="2.128108721226454">
        <ele>378.3999938964844</ele>
        <time>2019-02-22T17:01:51.000Z</time>
      </trkpt>
      <trkpt lat="41.43781780265272" lon="2.128008222207427">
        <ele>377.3999938964844</ele>
        <time>2019-02-22T17:01:52.000Z</time>
      </trkpt>
      <trkpt lat="41.437731217592955" lon="2.1278018597513437">
        <ele>375.6000061035156</ele>
        <time>2019-02-22T17:01:54.000Z</time>
      </trkpt>
      <trkpt lat="41.437679501250386" lon="2.1276935655623674">
        <ele>374.20001220703125</ele>
        <time>2019-02-22T17:01:55.000Z</time>
      </trkpt>
      <trkpt lat="41.43763214349747" lon="2.1275866124778986">
        <ele>373.0</ele>
        <time>2019-02-22T17:01:56.000Z</time>
      </trkpt>
      <trkpt lat="41.43759769387543" lon="2.127479240298271">
        <ele>372.20001220703125</ele>
        <time>2019-02-22T17:01:57.000Z</time>
      </trkpt>
      <trkpt lat="41.437573386356235" lon="2.127374801784754">
        <ele>371.6000061035156</ele>
        <time>2019-02-22T17:01:58.000Z</time>
      </trkpt>
      <trkpt lat="41.43753508105874" lon="2.127186292782426">
        <ele>371.0</ele>
        <time>2019-02-22T17:02:00.000Z</time>
      </trkpt>
      <trkpt lat="41.43749166280031" lon="2.127021001651883">
        <ele>370.6000061035156</ele>
        <time>2019-02-22T17:02:02.000Z</time>
      </trkpt>
      <trkpt lat="41.43745696172118" lon="2.1268768329173326">
        <ele>371.0</ele>
        <time>2019-02-22T17:02:04.000Z</time>
      </trkpt>
      <trkpt lat="41.43744698725641" lon="2.1268321573734283">
        <ele>371.6000061035156</ele>
        <time>2019-02-22T17:02:05.000Z</time>
      </trkpt>
      <trkpt lat="41.43743290565908" lon="2.126707686111331">
        <ele>372.79998779296875</ele>
        <time>2019-02-22T17:02:08.000Z</time>
      </trkpt>
      <trkpt lat="41.43743793480098" lon="2.1266824565827847">
        <ele>372.79998779296875</ele>
        <time>2019-02-22T17:02:09.000Z</time>
      </trkpt>
      <trkpt lat="41.43746115267277" lon="2.126753618940711">
        <ele>373.0</ele>
        <time>2019-02-22T17:02:11.000Z</time>
      </trkpt>
      <trkpt lat="41.43748520873487" lon="2.126883789896965">
        <ele>372.6000061035156</ele>
        <time>2019-02-22T17:02:14.000Z</time>
      </trkpt>
      <trkpt lat="41.437514796853065" lon="2.127098785713315">
        <ele>371.79998779296875</ele>
        <time>2019-02-22T17:02:18.000Z</time>
      </trkpt>
      <trkpt lat="41.43752393312752" lon="2.1271630749106407">
        <ele>371.3999938964844</ele>
        <time>2019-02-22T17:02:19.000Z</time>
      </trkpt>
      <trkpt lat="41.43752393312752" lon="2.1271630749106407">
        <ele>371.3999938964844</ele>
        <time>2019-02-22T17:02:19.000Z</time>
      </trkpt>
      <trkpt lat="41.437535248696804" lon="2.127234321087599">
        <ele>371.0</ele>
        <time>2019-02-22T17:02:20.000Z</time>
      </trkpt>
      <trkpt lat="41.437547486275434" lon="2.1273069083690643">
        <ele>370.3999938964844</ele>
        <time>2019-02-22T17:02:21.000Z</time>
      </trkpt>
      <trkpt lat="41.437563579529524" lon="2.1273821778595448">
        <ele>370.0</ele>
        <time>2019-02-22T17:02:22.000Z</time>
      </trkpt>
      <trkpt lat="41.43758847378194" lon="2.1274582017213106">
        <ele>369.3999938964844</ele>
        <time>2019-02-22T17:02:23.000Z</time>
      </trkpt>
      <trkpt lat="41.4376269467175" lon="2.127536153420806">
        <ele>368.79998779296875</ele>
        <time>2019-02-22T17:02:24.000Z</time>
      </trkpt>
      <trkpt lat="41.43767103552818" lon="2.1276134345680475">
        <ele>368.0</ele>
        <time>2019-02-22T17:02:25.000Z</time>
      </trkpt>
      <trkpt lat="41.437762482091784" lon="2.127750813961029">
        <ele>366.3999938964844</ele>
        <time>2019-02-22T17:02:27.000Z</time>
      </trkpt>
      <trkpt lat="41.43784713931382" lon="2.127890707924962">
        <ele>364.79998779296875</ele>
        <time>2019-02-22T17:02:29.000Z</time>
      </trkpt>
      <trkpt lat="41.43790648318827" lon="2.127952901646495">
        <ele>364.3999938964844</ele>
        <time>2019-02-22T17:02:30.000Z</time>
      </trkpt>
      <trkpt lat="41.43796272575855" lon="2.1280013490468264">
        <ele>363.79998779296875</ele>
        <time>2019-02-22T17:02:31.000Z</time>
      </trkpt>
      <trkpt lat="41.43802626058459" lon="2.1280319429934025">
        <ele>363.3999938964844</ele>
        <time>2019-02-22T17:02:32.000Z</time>
      </trkpt>
      <trkpt lat="41.43812885507941" lon="2.128011155873537">
        <ele>363.0</ele>
        <time>2019-02-22T17:02:33.000Z</time>
      </trkpt>
      <trkpt lat="41.438203202560544" lon="2.127974359318614">
        <ele>362.3999938964844</ele>
        <time>2019-02-22T17:02:34.000Z</time>
      </trkpt>
      <trkpt lat="41.438313173130155" lon="2.127891881391406">
        <ele>361.0</ele>
        <time>2019-02-22T17:02:36.000Z</time>
      </trkpt>
      <trkpt lat="41.43842347897589" lon="2.127854162827134">
        <ele>360.0</ele>
        <time>2019-02-22T17:02:38.000Z</time>
      </trkpt>
      <trkpt lat="41.43847276456654" lon="2.1278557553887367">
        <ele>359.6000061035156</ele>
        <time>2019-02-22T17:02:39.000Z</time>
      </trkpt>
      <trkpt lat="41.43852364271879" lon="2.127882828935981">
        <ele>359.20001220703125</ele>
        <time>2019-02-22T17:02:40.000Z</time>
      </trkpt>
      <trkpt lat="41.438613161444664" lon="2.1279845852404833">
        <ele>358.6000061035156</ele>
        <time>2019-02-22T17:02:42.000Z</time>
      </trkpt>
      <trkpt lat="41.43864459358156" lon="2.1280504669994116">
        <ele>358.20001220703125</ele>
        <time>2019-02-22T17:02:43.000Z</time>
      </trkpt>
      <trkpt lat="41.43868868239224" lon="2.1280996687710285">
        <ele>357.79998779296875</ele>
        <time>2019-02-22T17:02:44.000Z</time>
      </trkpt>
      <trkpt lat="41.438799323514104" lon="2.1281629521399736">
        <ele>356.6000061035156</ele>
        <time>2019-02-22T17:02:46.000Z</time>
      </trkpt>
      <trkpt lat="41.438851123675704" lon="2.128170747309923">
        <ele>355.20001220703125</ele>
        <time>2019-02-22T17:02:47.000Z</time>
      </trkpt>
      <trkpt lat="41.438924046233296" lon="2.128145517781377">
        <ele>354.0</ele>
        <time>2019-02-22T17:02:48.000Z</time>
      </trkpt>
      <trkpt lat="41.43897492438555" lon="2.1280922926962376">
        <ele>353.20001220703125</ele>
        <time>2019-02-22T17:02:49.000Z</time>
      </trkpt>
      <trkpt lat="41.4390033390373" lon="2.128022387623787">
        <ele>352.0</ele>
        <time>2019-02-22T17:02:50.000Z</time>
      </trkpt>
      <trkpt lat="41.439034854993224" lon="2.127866568043828">
        <ele>350.3999938964844</ele>
        <time>2019-02-22T17:02:52.000Z</time>
      </trkpt>
      <trkpt lat="41.439058827236295" lon="2.12778409011662">
        <ele>350.0</ele>
        <time>2019-02-22T17:02:53.000Z</time>
      </trkpt>
      <trkpt lat="41.43914557993412" lon="2.1276319585740566">
        <ele>349.0</ele>
        <time>2019-02-22T17:02:55.000Z</time>
      </trkpt>
      <trkpt lat="41.43925404176116" lon="2.127482509240508">
        <ele>347.79998779296875</ele>
        <time>2019-02-22T17:02:57.000Z</time>
      </trkpt>
      <trkpt lat="41.43934381194413" lon="2.1273551881313324">
        <ele>346.3999938964844</ele>
        <time>2019-02-22T17:02:59.000Z</time>
      </trkpt>
      <trkpt lat="41.439381865784526" lon="2.127315541729331">
        <ele>346.0</ele>
        <time>2019-02-22T17:03:00.000Z</time>
      </trkpt>
      <trkpt lat="41.439427798613906" lon="2.127263406291604">
        <ele>345.6000061035156</ele>
        <time>2019-02-22T17:03:01.000Z</time>
      </trkpt>
      <trkpt lat="41.439468786120415" lon="2.127280170097947">
        <ele>344.79998779296875</ele>
        <time>2019-02-22T17:03:02.000Z</time>
      </trkpt>
      <trkpt lat="41.43951731733978" lon="2.127300202846527">
        <ele>344.79998779296875</ele>
        <time>2019-02-22T17:03:03.000Z</time>
      </trkpt>
      <trkpt lat="41.43961370922625" lon="2.1273851953446865">
        <ele>343.6000061035156</ele>
        <time>2019-02-22T17:03:05.000Z</time>
      </trkpt>
      <trkpt lat="41.43965821713209" lon="2.127453675493598">
        <ele>342.3999938964844</ele>
        <time>2019-02-22T17:03:06.000Z</time>
      </trkpt>
      <trkpt lat="41.43971085548401" lon="2.127535818144679">
        <ele>341.3999938964844</ele>
        <time>2019-02-22T17:03:07.000Z</time>
      </trkpt>
      <trkpt lat="41.43979584798217" lon="2.1276882849633694">
        <ele>339.79998779296875</ele>
        <time>2019-02-22T17:03:09.000Z</time>
      </trkpt>
      <trkpt lat="41.43984127789736" lon="2.1277466230094433">
        <ele>339.0</ele>
        <time>2019-02-22T17:03:10.000Z</time>
      </trkpt>
      <trkpt lat="41.4398892223835" lon="2.127780569717288">
        <ele>338.6000061035156</ele>
        <time>2019-02-22T17:03:11.000Z</time>
      </trkpt>
      <trkpt lat="41.43993423320353" lon="2.127795573323965">
        <ele>338.20001220703125</ele>
        <time>2019-02-22T17:03:12.000Z</time>
      </trkpt>
      <trkpt lat="41.439998522400856" lon="2.127776714041829">
        <ele>337.6000061035156</ele>
        <time>2019-02-22T17:03:13.000Z</time>
      </trkpt>
      <trkpt lat="41.440060548484325" lon="2.1277363132685423">
        <ele>337.20001220703125</ele>
        <time>2019-02-22T17:03:14.000Z</time>
      </trkpt>
      <trkpt lat="41.440164567902684" lon="2.1276231575757265">
        <ele>336.6000061035156</ele>
        <time>2019-02-22T17:03:16.000Z</time>
      </trkpt>
      <trkpt lat="41.440209494903684" lon="2.127564735710621">
        <ele>336.20001220703125</ele>
        <time>2019-02-22T17:03:17.000Z</time>
      </trkpt>
      <trkpt lat="41.440304880961776" lon="2.1274500712752342">
        <ele>335.0</ele>
        <time>2019-02-22T17:03:19.000Z</time>
      </trkpt>
      <trkpt lat="41.44038610160351" lon="2.127432134002447">
        <ele>333.0</ele>
        <time>2019-02-22T17:03:21.000Z</time>
      </trkpt>
      <trkpt lat="41.44046572968364" lon="2.127473372966051">
        <ele>331.3999938964844</ele>
        <time>2019-02-22T17:03:23.000Z</time>
      </trkpt>
      <trkpt lat="41.44050638191402" lon="2.1275064814835787">
        <ele>331.0</ele>
        <time>2019-02-22T17:03:24.000Z</time>
      </trkpt>
      <trkpt lat="41.44053999334574" lon="2.127545541152358">
        <ele>330.79998779296875</ele>
        <time>2019-02-22T17:03:25.000Z</time>
      </trkpt>
      <trkpt lat="41.440607300028205" lon="2.127598011866212">
        <ele>330.20001220703125</ele>
        <time>2019-02-22T17:03:27.000Z</time>
      </trkpt>
      <trkpt lat="41.4406646322459" lon="2.1275884564965963">
        <ele>329.79998779296875</ele>
        <time>2019-02-22T17:03:28.000Z</time>
      </trkpt>
      <trkpt lat="41.44075063057244" lon="2.127494579181075">
        <ele>329.3999938964844</ele>
        <time>2019-02-22T17:03:30.000Z</time>
      </trkpt>
      <trkpt lat="41.440785666927695" lon="2.1274249255657196">
        <ele>328.79998779296875</ele>
        <time>2019-02-22T17:03:31.000Z</time>
      </trkpt>
      <trkpt lat="41.44082254730165" lon="2.1273583732545376">
        <ele>328.3999938964844</ele>
        <time>2019-02-22T17:03:32.000Z</time>
      </trkpt>
      <trkpt lat="41.440860852599144" lon="2.1272930782288313">
        <ele>327.3999938964844</ele>
        <time>2019-02-22T17:03:33.000Z</time>
      </trkpt>
      <trkpt lat="41.44093059003353" lon="2.1271640807390213">
        <ele>325.6000061035156</ele>
        <time>2019-02-22T17:03:35.000Z</time>
      </trkpt>
      <trkpt lat="41.44095875322819" lon="2.127096774056554">
        <ele>324.6000061035156</ele>
        <time>2019-02-22T17:03:36.000Z</time>
      </trkpt>
      <trkpt lat="41.44098197109997" lon="2.1270358376204967">
        <ele>323.79998779296875</ele>
        <time>2019-02-22T17:03:37.000Z</time>
      </trkpt>
      <trkpt lat="41.441006530076265" lon="2.1269746497273445">
        <ele>323.20001220703125</ele>
        <time>2019-02-22T17:03:38.000Z</time>
      </trkpt>
      <trkpt lat="41.44106143154204" lon="2.1268444787710905">
        <ele>321.79998779296875</ele>
        <time>2019-02-22T17:03:40.000Z</time>
      </trkpt>
      <trkpt lat="41.44108389504254" lon="2.1267761662602425">
        <ele>321.0</ele>
        <time>2019-02-22T17:03:41.000Z</time>
      </trkpt>
      <trkpt lat="41.44110191613436" lon="2.1267089433968067">
        <ele>320.6000061035156</ele>
        <time>2019-02-22T17:03:42.000Z</time>
      </trkpt>
      <trkpt lat="41.44113074988127" lon="2.1266136411577463">
        <ele>319.6000061035156</ele>
        <time>2019-02-22T17:03:45.000Z</time>
      </trkpt>
      <trkpt lat="41.44112546928227" lon="2.126599894836545">
        <ele>319.3999938964844</ele>
        <time>2019-02-22T17:03:47.000Z</time>
      </trkpt>
      <trkpt lat="41.44110593944788" lon="2.1265994757413864">
        <ele>319.20001220703125</ele>
        <time>2019-02-22T17:03:49.000Z</time>
      </trkpt>
      <trkpt lat="41.44109671935439" lon="2.126612886786461">
        <ele>319.20001220703125</ele>
        <time>2019-02-22T17:03:50.000Z</time>
      </trkpt>
      <trkpt lat="41.44108213484287" lon="2.1266242023557425">
        <ele>319.20001220703125</ele>
        <time>2019-02-22T17:03:53.000Z</time>
      </trkpt>
      <trkpt lat="41.44108020700514" lon="2.126626130193472">
        <ele>319.3999938964844</ele>
        <time>2019-02-22T17:03:54.000Z</time>
      </trkpt>
      <trkpt lat="41.441082470119" lon="2.1266256272792816">
        <ele>319.3999938964844</ele>
        <time>2019-02-22T17:03:55.000Z</time>
      </trkpt>
      <trkpt lat="41.44108599051833" lon="2.126623699441552">
        <ele>319.3999938964844</ele>
        <time>2019-02-22T17:03:56.000Z</time>
      </trkpt>
      <trkpt lat="41.44107677042484" lon="2.126636691391468">
        <ele>319.3999938964844</ele>
        <time>2019-02-22T17:03:57.000Z</time>
      </trkpt>
      <trkpt lat="41.44110501743853" lon="2.126660915091634">
        <ele>319.6000061035156</ele>
        <time>2019-02-22T17:03:59.000Z</time>
      </trkpt>
      <trkpt lat="41.44112018868327" lon="2.1266556344926357">
        <ele>319.6000061035156</ele>
        <time>2019-02-22T17:04:00.000Z</time>
      </trkpt>
      <trkpt lat="41.44115296192467" lon="2.126562260091305">
        <ele>319.6000061035156</ele>
        <time>2019-02-22T17:04:03.000Z</time>
      </trkpt>
      <trkpt lat="41.441191770136356" lon="2.126408200711012">
        <ele>318.79998779296875</ele>
        <time>2019-02-22T17:04:07.000Z</time>
      </trkpt>
      <trkpt lat="41.441214736551046" lon="2.1263842284679413">
        <ele>318.3999938964844</ele>
        <time>2019-02-22T17:04:08.000Z</time>
      </trkpt>
      <trkpt lat="41.44130861386657" lon="2.1263382118195295">
        <ele>317.20001220703125</ele>
        <time>2019-02-22T17:04:10.000Z</time>
      </trkpt>
      <trkpt lat="41.44141288474202" lon="2.126316921785474">
        <ele>315.6000061035156</ele>
        <time>2019-02-22T17:04:12.000Z</time>
      </trkpt>
      <trkpt lat="41.441510785371065" lon="2.1263384632766247">
        <ele>314.20001220703125</ele>
        <time>2019-02-22T17:04:14.000Z</time>
      </trkpt>
      <trkpt lat="41.44156468100846" lon="2.1263302490115166">
        <ele>313.79998779296875</ele>
        <time>2019-02-22T17:04:15.000Z</time>
      </trkpt>
      <trkpt lat="41.44160985946655" lon="2.1263044327497482">
        <ele>313.20001220703125</ele>
        <time>2019-02-22T17:04:16.000Z</time>
      </trkpt>
      <trkpt lat="41.441646572202444" lon="2.12626151740551">
        <ele>312.3999938964844</ele>
        <time>2019-02-22T17:04:17.000Z</time>
      </trkpt>
      <trkpt lat="41.44167423248291" lon="2.1261992398649454">
        <ele>311.3999938964844</ele>
        <time>2019-02-22T17:04:18.000Z</time>
      </trkpt>
      <trkpt lat="41.44169074483216" lon="2.126132184639573">
        <ele>310.6000061035156</ele>
        <time>2019-02-22T17:04:19.000Z</time>
      </trkpt>
      <trkpt lat="41.44169468432665" lon="2.126051550731063">
        <ele>309.79998779296875</ele>
        <time>2019-02-22T17:04:20.000Z</time>
      </trkpt>
      <trkpt lat="41.44169133156538" lon="2.1259759459644556">
        <ele>309.20001220703125</ele>
        <time>2019-02-22T17:04:21.000Z</time>
      </trkpt>
      <trkpt lat="41.44168353639543" lon="2.125832950696349">
        <ele>308.3999938964844</ele>
        <time>2019-02-22T17:04:23.000Z</time>
      </trkpt>
      <trkpt lat="41.441706167533994" lon="2.1256752870976925">
        <ele>307.20001220703125</ele>
        <time>2019-02-22T17:04:25.000Z</time>
      </trkpt>
      <trkpt lat="41.44176936708391" lon="2.125529693439603">
        <ele>306.0</ele>
        <time>2019-02-22T17:04:27.000Z</time>
      </trkpt>
      <trkpt lat="41.44181949086487" lon="2.1254717744886875">
        <ele>305.6000061035156</ele>
        <time>2019-02-22T17:04:28.000Z</time>
      </trkpt>
      <trkpt lat="41.44188151694834" lon="2.125423913821578">
        <ele>305.3999938964844</ele>
        <time>2019-02-22T17:04:29.000Z</time>
      </trkpt>
      <trkpt lat="41.44203004427254" lon="2.1253619715571404">
        <ele>304.79998779296875</ele>
        <time>2019-02-22T17:04:31.000Z</time>
      </trkpt>
      <trkpt lat="41.442170441150665" lon="2.1253213193267584">
        <ele>302.3999938964844</ele>
        <time>2019-02-22T17:04:33.000Z</time>
      </trkpt>
      <trkpt lat="41.44222743809223" lon="2.1253057289868593">
        <ele>301.20001220703125</ele>
        <time>2019-02-22T17:04:34.000Z</time>
      </trkpt>
      <trkpt lat="41.44227957352996" lon="2.125286450609565">
        <ele>300.6000061035156</ele>
        <time>2019-02-22T17:04:35.000Z</time>
      </trkpt>
      <trkpt lat="41.44233053550124" lon="2.125282594934106">
        <ele>300.0</ele>
        <time>2019-02-22T17:04:36.000Z</time>
      </trkpt>
      <trkpt lat="41.442423574626446" lon="2.1252444572746754">
        <ele>299.20001220703125</ele>
        <time>2019-02-22T17:04:39.000Z</time>
      </trkpt>
      <trkpt lat="41.442414689809084" lon="2.125192154198885">
        <ele>299.0</ele>
        <time>2019-02-22T17:04:41.000Z</time>
      </trkpt>
      <trkpt lat="41.44238359294832" lon="2.1251691039651632">
        <ele>298.6000061035156</ele>
        <time>2019-02-22T17:04:42.000Z</time>
      </trkpt>
      <trkpt lat="41.442196257412434" lon="2.125104647129774">
        <ele>297.6000061035156</ele>
        <time>2019-02-22T17:04:46.000Z</time>
      </trkpt>
      <trkpt lat="41.442077150568366" lon="2.1250582113862038">
        <ele>296.0</ele>
        <time>2019-02-22T17:04:48.000Z</time>
      </trkpt>
      <trkpt lat="41.441965755075216" lon="2.1250191517174244">
        <ele>294.3999938964844</ele>
        <time>2019-02-22T17:04:50.000Z</time>
      </trkpt>
      <trkpt lat="41.44190733321011" lon="2.1250037290155888">
        <ele>293.6000061035156</ele>
        <time>2019-02-22T17:04:51.000Z</time>
      </trkpt>
      <trkpt lat="41.441843966022134" lon="2.124995095655322">
        <ele>293.0</ele>
        <time>2019-02-22T17:04:52.000Z</time>
      </trkpt>
      <trkpt lat="41.44177531823516" lon="2.12498864158988">
        <ele>292.6000061035156</ele>
        <time>2019-02-22T17:04:53.000Z</time>
      </trkpt>
      <trkpt lat="41.44165285862982" lon="2.1249698661267757">
        <ele>291.6000061035156</ele>
        <time>2019-02-22T17:04:55.000Z</time>
      </trkpt>
      <trkpt lat="41.4415970351547" lon="2.1249914914369583">
        <ele>291.0</ele>
        <time>2019-02-22T17:04:56.000Z</time>
      </trkpt>
      <trkpt lat="41.4414934348315" lon="2.1250455547124147">
        <ele>290.0</ele>
        <time>2019-02-22T17:04:58.000Z</time>
      </trkpt>
      <trkpt lat="41.44141858443618" lon="2.1251302119344473">
        <ele>288.3999938964844</ele>
        <time>2019-02-22T17:05:00.000Z</time>
      </trkpt>
      <trkpt lat="41.44138245843351" lon="2.125176563858986">
        <ele>288.0</ele>
        <time>2019-02-22T17:05:01.000Z</time>
      </trkpt>
      <trkpt lat="41.44132521003485" lon="2.125225681811571">
        <ele>287.6000061035156</ele>
        <time>2019-02-22T17:05:02.000Z</time>
      </trkpt>
      <trkpt lat="41.44125312566757" lon="2.1252717822790146">
        <ele>287.3999938964844</ele>
        <time>2019-02-22T17:05:03.000Z</time>
      </trkpt>
      <trkpt lat="41.441183388233185" lon="2.125294916331768">
        <ele>287.0</ele>
        <time>2019-02-22T17:05:04.000Z</time>
      </trkpt>
      <trkpt lat="41.441060258075595" lon="2.1252885460853577">
        <ele>285.20001220703125</ele>
        <time>2019-02-22T17:05:06.000Z</time>
      </trkpt>
      <trkpt lat="41.44100200384855" lon="2.1252768114209175">
        <ele>283.6000061035156</ele>
        <time>2019-02-22T17:05:07.000Z</time>
      </trkpt>
      <trkpt lat="41.44094995222986" lon="2.1252701058983803">
        <ele>282.3999938964844</ele>
        <time>2019-02-22T17:05:08.000Z</time>
      </trkpt>
      <trkpt lat="41.440898487344384" lon="2.125271363183856">
        <ele>281.6000061035156</ele>
        <time>2019-02-22T17:05:09.000Z</time>
      </trkpt>
      <trkpt lat="41.44085909239948" lon="2.125277230516076">
        <ele>281.20001220703125</ele>
        <time>2019-02-22T17:05:10.000Z</time>
      </trkpt>
      <trkpt lat="41.4408197812736" lon="2.1252982690930367">
        <ele>280.79998779296875</ele>
        <time>2019-02-22T17:05:11.000Z</time>
      </trkpt>
      <trkpt lat="41.4407473616302" lon="2.1253905538469553">
        <ele>280.0</ele>
        <time>2019-02-22T17:05:13.000Z</time>
      </trkpt>
      <trkpt lat="41.44071324728429" lon="2.1254509035497904">
        <ele>279.6000061035156</ele>
        <time>2019-02-22T17:05:14.000Z</time>
      </trkpt>
      <trkpt lat="41.44066169857979" lon="2.1255721896886826">
        <ele>279.0</ele>
        <time>2019-02-22T17:05:16.000Z</time>
      </trkpt>
      <trkpt lat="41.44059967249632" lon="2.1257044561207294">
        <ele>278.3999938964844</ele>
        <time>2019-02-22T17:05:19.000Z</time>
      </trkpt>
      <trkpt lat="41.440545693039894" lon="2.12574259378016">
        <ele>277.79998779296875</ele>
        <time>2019-02-22T17:05:21.000Z</time>
      </trkpt>
      <trkpt lat="41.440531611442566" lon="2.125705713406205">
        <ele>277.0</ele>
        <time>2019-02-22T17:05:22.000Z</time>
      </trkpt>
      <trkpt lat="41.44051669165492" lon="2.1256419271230698">
        <ele>275.79998779296875</ele>
        <time>2019-02-22T17:05:23.000Z</time>
      </trkpt>
      <trkpt lat="41.4404986705631" lon="2.125572105869651">
        <ele>274.6000061035156</ele>
        <time>2019-02-22T17:05:24.000Z</time>
      </trkpt>
      <trkpt lat="41.44047528505325" lon="2.125492561608553">
        <ele>273.6000061035156</ele>
        <time>2019-02-22T17:05:25.000Z</time>
      </trkpt>
      <trkpt lat="41.44045131281018" lon="2.1254043001681566">
        <ele>272.6000061035156</ele>
        <time>2019-02-22T17:05:26.000Z</time>
      </trkpt>
      <trkpt lat="41.440425077453256" lon="2.1253195591270924">
        <ele>271.3999938964844</ele>
        <time>2019-02-22T17:05:27.000Z</time>
      </trkpt>
      <trkpt lat="41.440378557890654" lon="2.1251474786549807">
        <ele>269.6000061035156</ele>
        <time>2019-02-22T17:05:29.000Z</time>
      </trkpt>
      <trkpt lat="41.440362464636564" lon="2.1250644978135824">
        <ele>269.20001220703125</ele>
        <time>2019-02-22T17:05:30.000Z</time>
      </trkpt>
      <trkpt lat="41.44033572636545" lon="2.1249261125922203">
        <ele>268.79998779296875</ele>
        <time>2019-02-22T17:05:32.000Z</time>
      </trkpt>
      <trkpt lat="41.440320471301675" lon="2.1248660143464804">
        <ele>268.6000061035156</ele>
        <time>2019-02-22T17:05:33.000Z</time>
      </trkpt>
      <trkpt lat="41.440294068306684" lon="2.124818405136466">
        <ele>268.6000061035156</ele>
        <time>2019-02-22T17:05:34.000Z</time>
      </trkpt>
      <trkpt lat="41.440187618136406" lon="2.1247596479952335">
        <ele>267.3999938964844</ele>
        <time>2019-02-22T17:05:37.000Z</time>
      </trkpt>
      <trkpt lat="41.44014772027731" lon="2.124764760956168">
        <ele>266.3999938964844</ele>
        <time>2019-02-22T17:05:38.000Z</time>
      </trkpt>
      <trkpt lat="41.44005442969501" lon="2.1247870568186045">
        <ele>265.0</ele>
        <time>2019-02-22T17:05:40.000Z</time>
      </trkpt>
      <trkpt lat="41.43997932784259" lon="2.1247738134115934">
        <ele>264.6000061035156</ele>
        <time>2019-02-22T17:05:41.000Z</time>
      </trkpt>
      <trkpt lat="41.4399288687855" lon="2.12467297911644">
        <ele>264.20001220703125</ele>
        <time>2019-02-22T17:05:43.000Z</time>
      </trkpt>
      <trkpt lat="41.43993507139385" lon="2.124625202268362">
        <ele>263.79998779296875</ele>
        <time>2019-02-22T17:05:44.000Z</time>
      </trkpt>
      <trkpt lat="41.439954433590174" lon="2.124585136771202">
        <ele>263.79998779296875</ele>
        <time>2019-02-22T17:05:45.000Z</time>
      </trkpt>
      <trkpt lat="41.4400168787688" lon="2.124490337446332">
        <ele>263.3999938964844</ele>
        <time>2019-02-22T17:05:47.000Z</time>
      </trkpt>
      <trkpt lat="41.440150989219546" lon="2.1243178378790617">
        <ele>262.79998779296875</ele>
        <time>2019-02-22T17:05:50.000Z</time>
      </trkpt>
      <trkpt lat="41.440196335315704" lon="2.1242439094930887">
        <ele>262.0</ele>
        <time>2019-02-22T17:05:51.000Z</time>
      </trkpt>
      <trkpt lat="41.44023514352739" lon="2.1241738367825747">
        <ele>260.79998779296875</ele>
        <time>2019-02-22T17:05:52.000Z</time>
      </trkpt>
      <trkpt lat="41.44026104360819" lon="2.1240825578570366">
        <ele>259.6000061035156</ele>
        <time>2019-02-22T17:05:53.000Z</time>
      </trkpt>
      <trkpt lat="41.44031787291169" lon="2.1239274088293314">
        <ele>258.20001220703125</ele>
        <time>2019-02-22T17:05:55.000Z</time>
      </trkpt>
      <trkpt lat="41.440340504050255" lon="2.123850714415312">
        <ele>257.79998779296875</ele>
        <time>2019-02-22T17:05:56.000Z</time>
      </trkpt>
      <trkpt lat="41.440361542627215" lon="2.1237580943852663">
        <ele>257.20001220703125</ele>
        <time>2019-02-22T17:05:57.000Z</time>
      </trkpt>
      <trkpt lat="41.44038702361286" lon="2.123668994754553">
        <ele>256.6000061035156</ele>
        <time>2019-02-22T17:05:58.000Z</time>
      </trkpt>
      <trkpt lat="41.4404159411788" lon="2.123588863760233">
        <ele>256.20001220703125</ele>
        <time>2019-02-22T17:05:59.000Z</time>
      </trkpt>
      <trkpt lat="41.44044661894441" lon="2.123519880697131">
        <ele>255.39999389648438</ele>
        <time>2019-02-22T17:06:00.000Z</time>
      </trkpt>
      <trkpt lat="41.44047419540584" lon="2.1234473772346973">
        <ele>254.8000030517578</ele>
        <time>2019-02-22T17:06:01.000Z</time>
      </trkpt>
      <trkpt lat="41.440500346943736" lon="2.1233478002250195">
        <ele>254.39999389648438</ele>
        <time>2019-02-22T17:06:02.000Z</time>
      </trkpt>
      <trkpt lat="41.44056304357946" lon="2.1231637336313725">
        <ele>253.8000030517578</ele>
        <time>2019-02-22T17:06:04.000Z</time>
      </trkpt>
      <trkpt lat="41.44060109741986" lon="2.123076980933547">
        <ele>253.1999969482422</ele>
        <time>2019-02-22T17:06:05.000Z</time>
      </trkpt>
      <trkpt lat="41.440638145431876" lon="2.1229916531592607">
        <ele>252.60000610351562</ele>
        <time>2019-02-22T17:06:06.000Z</time>
      </trkpt>
      <trkpt lat="41.44068215042353" lon="2.1228986140340567">
        <ele>251.1999969482422</ele>
        <time>2019-02-22T17:06:07.000Z</time>
      </trkpt>
      <trkpt lat="41.440723557025194" lon="2.1228203270584345">
        <ele>249.39999389648438</ele>
        <time>2019-02-22T17:06:08.000Z</time>
      </trkpt>
      <trkpt lat="41.440770076587796" lon="2.122741201892495">
        <ele>247.60000610351562</ele>
        <time>2019-02-22T17:06:09.000Z</time>
      </trkpt>
      <trkpt lat="41.440811567008495" lon="2.1226640045642853">
        <ele>246.39999389648438</ele>
        <time>2019-02-22T17:06:10.000Z</time>
      </trkpt>
      <trkpt lat="41.44091055728495" lon="2.12250592187047">
        <ele>244.60000610351562</ele>
        <time>2019-02-22T17:06:12.000Z</time>
      </trkpt>
      <trkpt lat="41.44095213152468" lon="2.122428473085165">
        <ele>243.39999389648438</ele>
        <time>2019-02-22T17:06:13.000Z</time>
      </trkpt>
      <trkpt lat="41.441003177315" lon="2.1223005652427673">
        <ele>242.1999969482422</ele>
        <time>2019-02-22T17:06:15.000Z</time>
      </trkpt>
      <trkpt lat="41.44102790392935" lon="2.1221037581562996">
        <ele>241.60000610351562</ele>
        <time>2019-02-22T17:06:19.000Z</time>
      </trkpt>
      <trkpt lat="41.441041650250554" lon="2.122012982144952">
        <ele>240.8000030517578</ele>
        <time>2019-02-22T17:06:22.000Z</time>
      </trkpt>
      <trkpt lat="41.441048020496964" lon="2.122000576928258">
        <ele>240.8000030517578</ele>
        <time>2019-02-22T17:06:23.000Z</time>
      </trkpt>
      <trkpt lat="41.44106838852167" lon="2.121936706826091">
        <ele>240.60000610351562</ele>
        <time>2019-02-22T17:06:25.000Z</time>
      </trkpt>
      <trkpt lat="41.44110409542918" lon="2.12191809900105">
        <ele>240.1999969482422</ele>
        <time>2019-02-22T17:06:27.000Z</time>
      </trkpt>
      <trkpt lat="41.44111432135105" lon="2.1219477709382772">
        <ele>240.0</ele>
        <time>2019-02-22T17:06:28.000Z</time>
      </trkpt>
      <trkpt lat="41.441125720739365" lon="2.121973503381014">
        <ele>239.8000030517578</ele>
        <time>2019-02-22T17:06:29.000Z</time>
      </trkpt>
      <trkpt lat="41.44118757918477" lon="2.1220263093709946">
        <ele>239.39999389648438</ele>
        <time>2019-02-22T17:06:31.000Z</time>
      </trkpt>
      <trkpt lat="41.44126963801682" lon="2.1220059413462877">
        <ele>239.0</ele>
        <time>2019-02-22T17:06:33.000Z</time>
      </trkpt>
      <trkpt lat="41.441301656886935" lon="2.1219636127352715">
        <ele>238.8000030517578</ele>
        <time>2019-02-22T17:06:34.000Z</time>
      </trkpt>
      <trkpt lat="41.441311379894614" lon="2.1219103038311005">
        <ele>238.1999969482422</ele>
        <time>2019-02-22T17:06:35.000Z</time>
      </trkpt>
      <trkpt lat="41.441256143152714" lon="2.1218055300414562">
        <ele>237.0</ele>
        <time>2019-02-22T17:06:37.000Z</time>
      </trkpt>
      <trkpt lat="41.44109286367893" lon="2.1216743532568216">
        <ele>235.60000610351562</ele>
        <time>2019-02-22T17:06:40.000Z</time>
      </trkpt>
      <trkpt lat="41.44102438353002" lon="2.121640406548977">
        <ele>234.8000030517578</ele>
        <time>2019-02-22T17:06:41.000Z</time>
      </trkpt>
      <trkpt lat="41.440959675237536" lon="2.121610064059496">
        <ele>233.8000030517578</ele>
        <time>2019-02-22T17:06:42.000Z</time>
      </trkpt>
      <trkpt lat="41.44084216095507" lon="2.1215521451085806">
        <ele>232.39999389648438</ele>
        <time>2019-02-22T17:06:44.000Z</time>
      </trkpt>
      <trkpt lat="41.44079371355474" lon="2.1215220540761948">
        <ele>232.0</ele>
        <time>2019-02-22T17:06:45.000Z</time>
      </trkpt>
      <trkpt lat="41.440744176506996" lon="2.1214858442544937">
        <ele>231.60000610351562</ele>
        <time>2019-02-22T17:06:46.000Z</time>
      </trkpt>
      <trkpt lat="41.440700171515346" lon="2.121434463188052">
        <ele>231.39999389648438</ele>
        <time>2019-02-22T17:06:47.000Z</time>
      </trkpt>
      <trkpt lat="41.44066262058914" lon="2.1213887818157673">
        <ele>231.0</ele>
        <time>2019-02-22T17:06:48.000Z</time>
      </trkpt>
      <trkpt lat="41.44058357924223" lon="2.121292557567358">
        <ele>230.60000610351562</ele>
        <time>2019-02-22T17:06:50.000Z</time>
      </trkpt>
      <trkpt lat="41.4405383169651" lon="2.1212517376989126">
        <ele>230.60000610351562</ele>
        <time>2019-02-22T17:06:51.000Z</time>
      </trkpt>
      <trkpt lat="41.44043932668865" lon="2.121173283085227">
        <ele>230.39999389648438</ele>
        <time>2019-02-22T17:06:55.000Z</time>
      </trkpt>
      <trkpt lat="41.440426502376795" lon="2.1211590338498354">
        <ele>230.1999969482422</ele>
        <time>2019-02-22T17:06:57.000Z</time>
      </trkpt>
      <trkpt lat="41.44041711464524" lon="2.121082004159689">
        <ele>230.39999389648438</ele>
        <time>2019-02-22T17:06:59.000Z</time>
      </trkpt>
      <trkpt lat="41.4404571801424" lon="2.1210473030805588">
        <ele>230.0</ele>
        <time>2019-02-22T17:07:01.000Z</time>
      </trkpt>
      <trkpt lat="41.44049188122153" lon="2.121030790731311">
        <ele>229.8000030517578</ele>
        <time>2019-02-22T17:07:02.000Z</time>
      </trkpt>
      <trkpt lat="41.44057343713939" lon="2.1210259292274714">
        <ele>228.8000030517578</ele>
        <time>2019-02-22T17:07:04.000Z</time>
      </trkpt>
      <trkpt lat="41.44063336774707" lon="2.121028108522296">
        <ele>227.60000610351562</ele>
        <time>2019-02-22T17:07:05.000Z</time>
      </trkpt>
      <trkpt lat="41.44070721231401" lon="2.12103758007288">
        <ele>226.60000610351562</ele>
        <time>2019-02-22T17:07:06.000Z</time>
      </trkpt>
      <trkpt lat="41.44089597277343" lon="2.121055433526635">
        <ele>224.39999389648438</ele>
        <time>2019-02-22T17:07:08.000Z</time>
      </trkpt>
      <trkpt lat="41.44098239019513" lon="2.1210803277790546">
        <ele>223.39999389648438</ele>
        <time>2019-02-22T17:07:09.000Z</time>
      </trkpt>
      <trkpt lat="41.441069478169084" lon="2.1211045514792204">
        <ele>222.60000610351562</ele>
        <time>2019-02-22T17:07:10.000Z</time>
      </trkpt>
      <trkpt lat="41.44114977680147" lon="2.121125254780054">
        <ele>222.0</ele>
        <time>2019-02-22T17:07:11.000Z</time>
      </trkpt>
      <trkpt lat="41.44138312898576" lon="2.1211861073970795">
        <ele>220.60000610351562</ele>
        <time>2019-02-22T17:07:14.000Z</time>
      </trkpt>
      <trkpt lat="41.44147004932165" lon="2.121187364682555">
        <ele>220.0</ele>
        <time>2019-02-22T17:07:15.000Z</time>
      </trkpt>
      <trkpt lat="41.44162595272064" lon="2.121179820969701">
        <ele>219.60000610351562</ele>
        <time>2019-02-22T17:07:17.000Z</time>
      </trkpt>
      <trkpt lat="41.44170708954334" lon="2.1211733669042587">
        <ele>219.39999389648438</ele>
        <time>2019-02-22T17:07:18.000Z</time>
      </trkpt>
      <trkpt lat="41.44175570458174" lon="2.1211646497249603">
        <ele>219.39999389648438</ele>
        <time>2019-02-22T17:07:19.000Z</time>
      </trkpt>
      <trkpt lat="41.44187078811228" lon="2.1211357321590185">
        <ele>219.8000030517578</ele>
        <time>2019-02-22T17:07:22.000Z</time>
      </trkpt>
      <trkpt lat="41.44190875813365" lon="2.121152998879552">
        <ele>220.0</ele>
        <time>2019-02-22T17:07:23.000Z</time>
      </trkpt>
      <trkpt lat="41.442022835835814" lon="2.121193064376712">
        <ele>220.60000610351562</ele>
        <time>2019-02-22T17:07:26.000Z</time>
      </trkpt>
      <trkpt lat="41.442108331248164" lon="2.1212244126945734">
        <ele>221.0</ele>
        <time>2019-02-22T17:07:28.000Z</time>
      </trkpt>
      <trkpt lat="41.442140182480216" lon="2.1212349738925695">
        <ele>221.1999969482422</ele>
        <time>2019-02-22T17:07:29.000Z</time>
      </trkpt>
      <trkpt lat="41.44222693517804" lon="2.121256934478879">
        <ele>222.0</ele>
        <time>2019-02-22T17:07:31.000Z</time>
      </trkpt>
      <trkpt lat="41.44228954799473" lon="2.121290462091565">
        <ele>223.0</ele>
        <time>2019-02-22T17:07:33.000Z</time>
      </trkpt>
      <trkpt lat="41.44230606034398" lon="2.1213135961443186">
        <ele>223.39999389648438</ele>
        <time>2019-02-22T17:07:34.000Z</time>
      </trkpt>
      <trkpt lat="41.4423552621156" lon="2.1213195472955704">
        <ele>224.0</ele>
        <time>2019-02-22T17:07:36.000Z</time>
      </trkpt>
      <trkpt lat="41.44239599816501" lon="2.121306387707591">
        <ele>224.39999389648438</ele>
        <time>2019-02-22T17:07:38.000Z</time>
      </trkpt>
      <trkpt lat="41.44241066649556" lon="2.1212909650057554">
        <ele>224.8000030517578</ele>
        <time>2019-02-22T17:07:39.000Z</time>
      </trkpt>
      <trkpt lat="41.442431788891554" lon="2.121273698285222">
        <ele>225.39999389648438</ele>
        <time>2019-02-22T17:07:40.000Z</time>
      </trkpt>
      <trkpt lat="41.442481745034456" lon="2.1212023682892323">
        <ele>226.60000610351562</ele>
        <time>2019-02-22T17:07:43.000Z</time>
      </trkpt>
      <trkpt lat="41.442521810531616" lon="2.121150316670537">
        <ele>227.0</ele>
        <time>2019-02-22T17:07:45.000Z</time>
      </trkpt>
      <trkpt lat="41.442561876028776" lon="2.121068090200424">
        <ele>228.0</ele>
        <time>2019-02-22T17:07:48.000Z</time>
      </trkpt>
      <trkpt lat="41.442572018131614" lon="2.1210120990872383">
        <ele>228.60000610351562</ele>
        <time>2019-02-22T17:07:50.000Z</time>
      </trkpt>
      <trkpt lat="41.44256941974163" lon="2.1209561079740524">
        <ele>229.0</ele>
        <time>2019-02-22T17:07:52.000Z</time>
      </trkpt>
      <trkpt lat="41.44254779443145" lon="2.120890561491251">
        <ele>230.39999389648438</ele>
        <time>2019-02-22T17:07:55.000Z</time>
      </trkpt>
      <trkpt lat="41.442517787218094" lon="2.1208308823406696">
        <ele>231.0</ele>
        <time>2019-02-22T17:07:58.000Z</time>
      </trkpt>
      <trkpt lat="41.44249892793596" lon="2.1207935828715563">
        <ele>231.39999389648438</ele>
        <time>2019-02-22T17:08:00.000Z</time>
      </trkpt>
      <trkpt lat="41.44246330484748" lon="2.120677074417472">
        <ele>231.60000610351562</ele>
        <time>2019-02-22T17:08:04.000Z</time>
      </trkpt>
      <trkpt lat="41.44247026182711" lon="2.12056752294302">
        <ele>231.8000030517578</ele>
        <time>2019-02-22T17:08:07.000Z</time>
      </trkpt>
      <trkpt lat="41.44247981719673" lon="2.120533576235175">
        <ele>232.0</ele>
        <time>2019-02-22T17:08:08.000Z</time>
      </trkpt>
      <trkpt lat="41.44248442724347" lon="2.1205030661076307">
        <ele>232.39999389648438</ele>
        <time>2019-02-22T17:08:09.000Z</time>
      </trkpt>
      <trkpt lat="41.44249171949923" lon="2.120477920398116">
        <ele>232.60000610351562</ele>
        <time>2019-02-22T17:08:10.000Z</time>
      </trkpt>
      <trkpt lat="41.44250110723078" lon="2.120457300916314">
        <ele>233.0</ele>
        <time>2019-02-22T17:08:11.000Z</time>
      </trkpt>
      <trkpt lat="41.4425138477236" lon="2.1204403694719076">
        <ele>233.1999969482422</ele>
        <time>2019-02-22T17:08:12.000Z</time>
      </trkpt>
      <trkpt lat="41.44252398982644" lon="2.120416983962059">
        <ele>233.60000610351562</ele>
        <time>2019-02-22T17:08:13.000Z</time>
      </trkpt>
      <trkpt lat="41.44253622740507" lon="2.120393179357052">
        <ele>233.8000030517578</ele>
        <time>2019-02-22T17:08:14.000Z</time>
      </trkpt>
      <trkpt lat="41.442561373114586" lon="2.120342804118991">
        <ele>234.1999969482422</ele>
        <time>2019-02-22T17:08:16.000Z</time>
      </trkpt>
      <trkpt lat="41.44264351576567" lon="2.1202082745730877">
        <ele>234.8000030517578</ele>
        <time>2019-02-22T17:08:21.000Z</time>
      </trkpt>
      <trkpt lat="41.44270562566817" lon="2.1200315002352">
        <ele>234.39999389648438</ele>
        <time>2019-02-22T17:08:26.000Z</time>
      </trkpt>
      <trkpt lat="41.44274862483144" lon="2.119836453348398">
        <ele>233.60000610351562</ele>
        <time>2019-02-22T17:08:30.000Z</time>
      </trkpt>
      <trkpt lat="41.4427730999887" lon="2.1197872515767813">
        <ele>233.1999969482422</ele>
        <time>2019-02-22T17:08:31.000Z</time>
      </trkpt>
      <trkpt lat="41.44284501671791" lon="2.119715167209506">
        <ele>232.8000030517578</ele>
        <time>2019-02-22T17:08:33.000Z</time>
      </trkpt>
      <trkpt lat="41.44289907999337" lon="2.1196835674345493">
        <ele>232.39999389648438</ele>
        <time>2019-02-22T17:08:34.000Z</time>
      </trkpt>
      <trkpt lat="41.44303813576698" lon="2.1195996645838022">
        <ele>231.8000030517578</ele>
        <time>2019-02-22T17:08:37.000Z</time>
      </trkpt>
      <trkpt lat="41.443082643672824" lon="2.119559096172452">
        <ele>231.39999389648438</ele>
        <time>2019-02-22T17:08:38.000Z</time>
      </trkpt>
      <trkpt lat="41.44312388263643" lon="2.1195109840482473">
        <ele>231.1999969482422</ele>
        <time>2019-02-22T17:08:39.000Z</time>
      </trkpt>
      <trkpt lat="41.443250784650445" lon="2.1193801425397396">
        <ele>230.60000610351562</ele>
        <time>2019-02-22T17:08:42.000Z</time>
      </trkpt>
      <trkpt lat="41.44346896559" lon="2.119165314361453">
        <ele>230.8000030517578</ele>
        <time>2019-02-22T17:08:47.000Z</time>
      </trkpt>
      <trkpt lat="41.44359301775694" lon="2.1190075669437647">
        <ele>231.60000610351562</ele>
        <time>2019-02-22T17:08:51.000Z</time>
      </trkpt>
      <trkpt lat="41.44366920925677" lon="2.1188860293477774">
        <ele>232.0</ele>
        <time>2019-02-22T17:08:54.000Z</time>
      </trkpt>
      <trkpt lat="41.443771217018366" lon="2.1187534276396036">
        <ele>231.60000610351562</ele>
        <time>2019-02-22T17:08:57.000Z</time>
      </trkpt>
      <trkpt lat="41.44387029111385" lon="2.118602804839611">
        <ele>230.0</ele>
        <time>2019-02-22T17:09:00.000Z</time>
      </trkpt>
      <trkpt lat="41.4439267013222" lon="2.11848889477551">
        <ele>228.8000030517578</ele>
        <time>2019-02-22T17:09:02.000Z</time>
      </trkpt>
      <trkpt lat="41.44399811513722" lon="2.118409601971507">
        <ele>227.8000030517578</ele>
        <time>2019-02-22T17:09:04.000Z</time>
      </trkpt>
      <trkpt lat="41.444048658013344" lon="2.118375487625599">
        <ele>227.1999969482422</ele>
        <time>2019-02-22T17:09:05.000Z</time>
      </trkpt>
      <trkpt lat="41.444089729338884" lon="2.118328884243965">
        <ele>226.8000030517578</ele>
        <time>2019-02-22T17:09:06.000Z</time>
      </trkpt>
      <trkpt lat="41.44413541071117" lon="2.1182811073958874">
        <ele>226.1999969482422</ele>
        <time>2019-02-22T17:09:07.000Z</time>
      </trkpt>
      <trkpt lat="41.44418871961534" lon="2.118242885917425">
        <ele>225.39999389648438</ele>
        <time>2019-02-22T17:09:08.000Z</time>
      </trkpt>
      <trkpt lat="41.44425401464105" lon="2.1181143913418055">
        <ele>223.60000610351562</ele>
        <time>2019-02-22T17:09:10.000Z</time>
      </trkpt>
      <trkpt lat="41.44427111372352" lon="2.118046162649989">
        <ele>222.8000030517578</ele>
        <time>2019-02-22T17:09:11.000Z</time>
      </trkpt>
      <trkpt lat="41.44427999854088" lon="2.1179650258272886">
        <ele>222.0</ele>
        <time>2019-02-22T17:09:12.000Z</time>
      </trkpt>
      <trkpt lat="41.44428452476859" lon="2.117896880954504">
        <ele>221.60000610351562</ele>
        <time>2019-02-22T17:09:13.000Z</time>
      </trkpt>
      <trkpt lat="41.444292990490794" lon="2.117835944518447">
        <ele>221.0</ele>
        <time>2019-02-22T17:09:14.000Z</time>
      </trkpt>
      <trkpt lat="41.44431369379163" lon="2.1177665423601866">
        <ele>220.0</ele>
        <time>2019-02-22T17:09:15.000Z</time>
      </trkpt>
      <trkpt lat="41.44433330744505" lon="2.117699906229973">
        <ele>219.1999969482422</ele>
        <time>2019-02-22T17:09:16.000Z</time>
      </trkpt>
      <trkpt lat="41.4443757198751" lon="2.1175804641097784">
        <ele>218.1999969482422</ele>
        <time>2019-02-22T17:09:18.000Z</time>
      </trkpt>
      <trkpt lat="41.44440363161266" lon="2.117484323680401">
        <ele>218.39999389648438</ele>
        <time>2019-02-22T17:09:20.000Z</time>
      </trkpt>
      <trkpt lat="41.4444188028574" lon="2.117365300655365">
        <ele>219.8000030517578</ele>
        <time>2019-02-22T17:09:24.000Z</time>
      </trkpt>
      <trkpt lat="41.44446054473519" lon="2.117240745574236">
        <ele>219.60000610351562</ele>
        <time>2019-02-22T17:09:29.000Z</time>
      </trkpt>
      <trkpt lat="41.44450530409813" lon="2.117161536589265">
        <ele>219.39999389648438</ele>
        <time>2019-02-22T17:09:31.000Z</time>
      </trkpt>
      <trkpt lat="41.44468861632049" lon="2.117001861333847">
        <ele>218.60000610351562</ele>
        <time>2019-02-22T17:09:36.000Z</time>
      </trkpt>
      <trkpt lat="41.44476137124002" lon="2.116925250738859">
        <ele>217.8000030517578</ele>
        <time>2019-02-22T17:09:38.000Z</time>
      </trkpt>
      <trkpt lat="41.44486061297357" lon="2.1167858596891165">
        <ele>216.60000610351562</ele>
        <time>2019-02-22T17:09:42.000Z</time>
      </trkpt>
      <trkpt lat="41.444869581609964" lon="2.116751577705145">
        <ele>216.39999389648438</ele>
        <time>2019-02-22T17:09:43.000Z</time>
      </trkpt>
      <trkpt lat="41.44488123245537" lon="2.116679409518838">
        <ele>215.39999389648438</ele>
        <time>2019-02-22T17:09:45.000Z</time>
      </trkpt>
      <trkpt lat="41.44489657133818" lon="2.116603050380945">
        <ele>214.0</ele>
        <time>2019-02-22T17:09:47.000Z</time>
      </trkpt>
      <trkpt lat="41.4449058752507" lon="2.11656860075891">
        <ele>213.1999969482422</ele>
        <time>2019-02-22T17:09:48.000Z</time>
      </trkpt>
      <trkpt lat="41.44491392187774" lon="2.1165511664003134">
        <ele>212.60000610351562</ele>
        <time>2019-02-22T17:09:49.000Z</time>
      </trkpt>
      <trkpt lat="41.4449283387512" lon="2.1165390126407146">
        <ele>212.0</ele>
        <time>2019-02-22T17:09:50.000Z</time>
      </trkpt>
      <trkpt lat="41.444957088679075" lon="2.1165420301258564">
        <ele>211.1999969482422</ele>
        <time>2019-02-22T17:09:52.000Z</time>
      </trkpt>
      <trkpt lat="41.44500033929944" lon="2.1165980212390423">
        <ele>210.1999969482422</ele>
        <time>2019-02-22T17:09:55.000Z</time>
      </trkpt>
      <trkpt lat="41.44501509144902" lon="2.11661696434021">
        <ele>209.60000610351562</ele>
        <time>2019-02-22T17:09:56.000Z</time>
      </trkpt>
      <trkpt lat="41.44503151997924" lon="2.1166370809078217">
        <ele>209.0</ele>
        <time>2019-02-22T17:09:57.000Z</time>
      </trkpt>
      <trkpt lat="41.44505163654685" lon="2.116696508601308">
        <ele>207.60000610351562</ele>
        <time>2019-02-22T17:09:59.000Z</time>
      </trkpt>
      <trkpt lat="41.44508935511112" lon="2.1167552657425404">
        <ele>206.1999969482422</ele>
        <time>2019-02-22T17:10:01.000Z</time>
      </trkpt>
      <trkpt lat="41.4451458491385" lon="2.116797845810652">
        <ele>205.1999969482422</ele>
        <time>2019-02-22T17:10:03.000Z</time>
      </trkpt>
      <trkpt lat="41.445187674835324" lon="2.116818632930517">
        <ele>204.39999389648438</ele>
        <time>2019-02-22T17:10:04.000Z</time>
      </trkpt>
      <trkpt lat="41.445236122235656" lon="2.116839839145541">
        <ele>203.60000610351562</ele>
        <time>2019-02-22T17:10:05.000Z</time>
      </trkpt>
      <trkpt lat="41.44528700038791" lon="2.116859285160899">
        <ele>202.60000610351562</ele>
        <time>2019-02-22T17:10:06.000Z</time>
      </trkpt>
      <trkpt lat="41.44533368758857" lon="2.1168772224336863">
        <ele>201.39999389648438</ele>
        <time>2019-02-22T17:10:07.000Z</time>
      </trkpt>
      <trkpt lat="41.4454254694283" lon="2.116933213546872">
        <ele>200.1999969482422</ele>
        <time>2019-02-22T17:10:09.000Z</time>
      </trkpt>
      <trkpt lat="41.44550107419491" lon="2.1170824114233255">
        <ele>199.1999969482422</ele>
        <time>2019-02-22T17:10:11.000Z</time>
      </trkpt>
      <trkpt lat="41.44564281217754" lon="2.117238901555538">
        <ele>197.39999389648438</ele>
        <time>2019-02-22T17:10:13.000Z</time>
      </trkpt>
      <trkpt lat="41.44573241472244" lon="2.1172736864537">
        <ele>196.0</ele>
        <time>2019-02-22T17:10:15.000Z</time>
      </trkpt>
      <trkpt lat="41.44583391956985" lon="2.1172729320824146">
        <ele>195.60000610351562</ele>
        <time>2019-02-22T17:10:18.000Z</time>
      </trkpt>
      <trkpt lat="41.44586325623095" lon="2.1172453556209803">
        <ele>196.0</ele>
        <time>2019-02-22T17:10:23.000Z</time>
      </trkpt>
      <trkpt lat="41.445858646184206" lon="2.1172125823795795">
        <ele>195.8000030517578</ele>
        <time>2019-02-22T17:10:25.000Z</time>
      </trkpt>
      <trkpt lat="41.44589636474848" lon="2.117151729762554">
        <ele>195.60000610351562</ele>
        <time>2019-02-22T17:10:28.000Z</time>
      </trkpt>
      <trkpt lat="41.44596601836383" lon="2.117013009265065">
        <ele>195.1999969482422</ele>
        <time>2019-02-22T17:10:34.000Z</time>
      </trkpt>
      <trkpt lat="41.44598831422627" lon="2.1169757936149836">
        <ele>195.0</ele>
        <time>2019-02-22T17:10:36.000Z</time>
      </trkpt>
      <trkpt lat="41.44606810994446" lon="2.1169255021959543">
        <ele>195.1999969482422</ele>
        <time>2019-02-22T17:10:40.000Z</time>
      </trkpt>
      <trkpt lat="41.44614866003394" lon="2.116813436150551">
        <ele>195.0</ele>
        <time>2019-02-22T17:10:44.000Z</time>
      </trkpt>
      <trkpt lat="41.446185456588864" lon="2.1168014500290155">
        <ele>194.8000030517578</ele>
        <time>2019-02-22T17:10:45.000Z</time>
      </trkpt>
      <trkpt lat="41.4462613966316" lon="2.1168096642941236">
        <ele>194.8000030517578</ele>
        <time>2019-02-22T17:10:47.000Z</time>
      </trkpt>
      <trkpt lat="41.44630674272776" lon="2.1168043836951256">
        <ele>194.8000030517578</ele>
        <time>2019-02-22T17:10:48.000Z</time>
      </trkpt>
      <trkpt lat="41.44640707410872" lon="2.11676012724638">
        <ele>194.8000030517578</ele>
        <time>2019-02-22T17:10:50.000Z</time>
      </trkpt>
      <trkpt lat="41.44645870663226" lon="2.1167281083762646">
        <ele>194.60000610351562</ele>
        <time>2019-02-22T17:10:51.000Z</time>
      </trkpt>
      <trkpt lat="41.446658028289676" lon="2.116575725376606">
        <ele>194.0</ele>
        <time>2019-02-22T17:10:55.000Z</time>
      </trkpt>
      <trkpt lat="41.44670848734677" lon="2.116534151136875">
        <ele>193.8000030517578</ele>
        <time>2019-02-22T17:10:56.000Z</time>
      </trkpt>
      <trkpt lat="41.44691627472639" lon="2.116328040137887">
        <ele>192.8000030517578</ele>
        <time>2019-02-22T17:11:00.000Z</time>
      </trkpt>
      <trkpt lat="41.44701358862221" lon="2.1162132918834686">
        <ele>191.8000030517578</ele>
        <time>2019-02-22T17:11:02.000Z</time>
      </trkpt>
      <trkpt lat="41.447058683261275" lon="2.1161700412631035">
        <ele>191.1999969482422</ele>
        <time>2019-02-22T17:11:03.000Z</time>
      </trkpt>
      <trkpt lat="41.44710143096745" lon="2.1161402855068445">
        <ele>191.0</ele>
        <time>2019-02-22T17:11:04.000Z</time>
      </trkpt>
      <trkpt lat="41.44714501686394" lon="2.116121845319867">
        <ele>190.8000030517578</ele>
        <time>2019-02-22T17:11:05.000Z</time>
      </trkpt>
      <trkpt lat="41.447189105674624" lon="2.116112792864442">
        <ele>190.8000030517578</ele>
        <time>2019-02-22T17:11:06.000Z</time>
      </trkpt>
      <trkpt lat="41.44723495468497" lon="2.116116564720869">
        <ele>190.8000030517578</ele>
        <time>2019-02-22T17:11:07.000Z</time>
      </trkpt>
      <trkpt lat="41.447357665747404" lon="2.116134585812688">
        <ele>191.1999969482422</ele>
        <time>2019-02-22T17:11:10.000Z</time>
      </trkpt>
      <trkpt lat="41.447398820891976" lon="2.1161188278347254">
        <ele>191.1999969482422</ele>
        <time>2019-02-22T17:11:11.000Z</time>
      </trkpt>
      <trkpt lat="41.447480879724026" lon="2.116035846993327">
        <ele>191.1999969482422</ele>
        <time>2019-02-22T17:11:13.000Z</time>
      </trkpt>
      <trkpt lat="41.44752748310566" lon="2.1159910038113594">
        <ele>190.60000610351562</ele>
        <time>2019-02-22T17:11:14.000Z</time>
      </trkpt>
      <trkpt lat="41.44757827743888" lon="2.1159630082547665">
        <ele>190.0</ele>
        <time>2019-02-22T17:11:15.000Z</time>
      </trkpt>
      <trkpt lat="41.44763208925724" lon="2.1159456577152014">
        <ele>189.60000610351562</ele>
        <time>2019-02-22T17:11:16.000Z</time>
      </trkpt>
      <trkpt lat="41.4477895013988" lon="2.115929815918207">
        <ele>189.0</ele>
        <time>2019-02-22T17:11:19.000Z</time>
      </trkpt>
      <trkpt lat="41.447837026789784" lon="2.115933336317539">
        <ele>189.0</ele>
        <time>2019-02-22T17:11:20.000Z</time>
      </trkpt>
      <trkpt lat="41.44787918776274" lon="2.1159339230507612">
        <ele>189.0</ele>
        <time>2019-02-22T17:11:21.000Z</time>
      </trkpt>
      <trkpt lat="41.44791313447058" lon="2.115929815918207">
        <ele>188.8000030517578</ele>
        <time>2019-02-22T17:11:22.000Z</time>
      </trkpt>
      <trkpt lat="41.44798521883786" lon="2.1159073524177074">
        <ele>187.60000610351562</ele>
        <time>2019-02-22T17:11:24.000Z</time>
      </trkpt>
      <trkpt lat="41.44806400872767" lon="2.115902826189995">
        <ele>186.1999969482422</ele>
        <time>2019-02-22T17:11:26.000Z</time>
      </trkpt>
      <trkpt lat="41.448107762262225" lon="2.1159049216657877">
        <ele>185.0</ele>
        <time>2019-02-22T17:11:27.000Z</time>
      </trkpt>
      <trkpt lat="41.44814355298877" lon="2.1159038320183754">
        <ele>184.0</ele>
        <time>2019-02-22T17:11:28.000Z</time>
      </trkpt>
      <trkpt lat="41.448170291259885" lon="2.115905676037073">
        <ele>183.1999969482422</ele>
        <time>2019-02-22T17:11:29.000Z</time>
      </trkpt>
      <trkpt lat="41.448225444182754" lon="2.115892767906189">
        <ele>182.60000610351562</ele>
        <time>2019-02-22T17:11:32.000Z</time>
      </trkpt>
      <trkpt lat="41.448253355920315" lon="2.1158672869205475">
        <ele>182.8000030517578</ele>
        <time>2019-02-22T17:11:34.000Z</time>
      </trkpt>
      <trkpt lat="41.44836307503283" lon="2.1158045064657927">
        <ele>182.8000030517578</ele>
        <time>2019-02-22T17:11:38.000Z</time>
      </trkpt>
      <trkpt lat="41.4484890550375" lon="2.1158169116824865">
        <ele>182.60000610351562</ele>
        <time>2019-02-22T17:11:40.000Z</time>
      </trkpt>
      <trkpt lat="41.44859944470227" lon="2.1158611681312323">
        <ele>182.39999389648438</ele>
        <time>2019-02-22T17:11:42.000Z</time>
      </trkpt>
      <trkpt lat="41.44873481243849" lon="2.1159082744270563">
        <ele>182.1999969482422</ele>
        <time>2019-02-22T17:11:44.000Z</time>
      </trkpt>
      <trkpt lat="41.448851991444826" lon="2.115951692685485">
        <ele>182.0</ele>
        <time>2019-02-22T17:11:46.000Z</time>
      </trkpt>
      <trkpt lat="41.44891460426152" lon="2.115965774282813">
        <ele>181.8000030517578</ele>
        <time>2019-02-22T17:11:47.000Z</time>
      </trkpt>
      <trkpt lat="41.4492694940418" lon="2.1160469111055136">
        <ele>181.8000030517578</ele>
        <time>2019-02-22T17:11:53.000Z</time>
      </trkpt>
      <trkpt lat="41.449356162920594" lon="2.1160676144063473">
        <ele>182.0</ele>
        <time>2019-02-22T17:11:55.000Z</time>
      </trkpt>
      <trkpt lat="41.449458757415414" lon="2.1160801872611046">
        <ele>182.0</ele>
        <time>2019-02-22T17:11:57.000Z</time>
      </trkpt>
      <trkpt lat="41.44951022230089" lon="2.116071553900838">
        <ele>181.60000610351562</ele>
        <time>2019-02-22T17:11:58.000Z</time>
      </trkpt>
      <trkpt lat="41.449557077139616" lon="2.116049760952592">
        <ele>181.0</ele>
        <time>2019-02-22T17:11:59.000Z</time>
      </trkpt>
      <trkpt lat="41.44960074685514" lon="2.1160253696143627">
        <ele>180.60000610351562</ele>
        <time>2019-02-22T17:12:00.000Z</time>
      </trkpt>
      <trkpt lat="41.44963653758168" lon="2.1159977931529284">
        <ele>179.8000030517578</ele>
        <time>2019-02-22T17:12:01.000Z</time>
      </trkpt>
      <trkpt lat="41.44969881512225" lon="2.1159496810287237">
        <ele>178.60000610351562</ele>
        <time>2019-02-22T17:12:03.000Z</time>
      </trkpt>
      <trkpt lat="41.44972044043243" lon="2.1159318275749683">
        <ele>177.8000030517578</ele>
        <time>2019-02-22T17:12:04.000Z</time>
      </trkpt>
      <trkpt lat="41.44974474795163" lon="2.1159174107015133">
        <ele>177.1999969482422</ele>
        <time>2019-02-22T17:12:05.000Z</time>
      </trkpt>
      <trkpt lat="41.44980853423476" lon="2.115869801491499">
        <ele>176.0</ele>
        <time>2019-02-22T17:12:08.000Z</time>
      </trkpt>
      <trkpt lat="41.449829153716564" lon="2.11585714481771">
        <ele>175.8000030517578</ele>
        <time>2019-02-22T17:12:09.000Z</time>
      </trkpt>
      <trkpt lat="41.44995748065412" lon="2.1158164087682962">
        <ele>175.0</ele>
        <time>2019-02-22T17:12:13.000Z</time>
      </trkpt>
      <trkpt lat="41.45002109929919" lon="2.1158242039382458">
        <ele>174.8000030517578</ele>
        <time>2019-02-22T17:12:15.000Z</time>
      </trkpt>
      <trkpt lat="41.45008790306747" lon="2.1158387046307325">
        <ele>174.8000030517578</ele>
        <time>2019-02-22T17:12:17.000Z</time>
      </trkpt>
      <trkpt lat="41.45029116421938" lon="2.1158613357692957">
        <ele>174.60000610351562</ele>
        <time>2019-02-22T17:12:22.000Z</time>
      </trkpt>
      <trkpt lat="41.45044815726578" lon="2.1158625930547714">
        <ele>174.0</ele>
        <time>2019-02-22T17:12:27.000Z</time>
      </trkpt>
      <trkpt lat="41.45060154609382" lon="2.115884469822049">
        <ele>174.1999969482422</ele>
        <time>2019-02-22T17:12:31.000Z</time>
      </trkpt>
      <trkpt lat="41.45080095157027" lon="2.1159084420651197">
        <ele>175.0</ele>
        <time>2019-02-22T17:12:36.000Z</time>
      </trkpt>
      <trkpt lat="41.450993064790964" lon="2.1158910915255547">
        <ele>175.1999969482422</ele>
        <time>2019-02-22T17:12:41.000Z</time>
      </trkpt>
      <trkpt lat="41.451132874935865" lon="2.115881284698844">
        <ele>175.0</ele>
        <time>2019-02-22T17:12:44.000Z</time>
      </trkpt>
      <trkpt lat="41.451193476095796" lon="2.115881871432066">
        <ele>175.0</ele>
        <time>2019-02-22T17:12:45.000Z</time>
      </trkpt>
      <trkpt lat="41.45142967812717" lon="2.1158779319375753">
        <ele>175.8000030517578</ele>
        <time>2019-02-22T17:12:49.000Z</time>
      </trkpt>
      <trkpt lat="41.45147804170847" lon="2.1158704720437527">
        <ele>176.0</ele>
        <time>2019-02-22T17:12:50.000Z</time>
      </trkpt>
      <trkpt lat="41.4515539817512" lon="2.11583711206913">
        <ele>176.1999969482422</ele>
        <time>2019-02-22T17:12:52.000Z</time>
      </trkpt>
      <trkpt lat="41.45163746550679" lon="2.1157900895923376">
        <ele>176.39999389648438</ele>
        <time>2019-02-22T17:12:54.000Z</time>
      </trkpt>
      <trkpt lat="41.45178590901196" lon="2.115620272234082">
        <ele>176.0</ele>
        <time>2019-02-22T17:12:58.000Z</time>
      </trkpt>
      <trkpt lat="41.45182094536722" lon="2.1155604254454374">
        <ele>175.60000610351562</ele>
        <time>2019-02-22T17:12:59.000Z</time>
      </trkpt>
      <trkpt lat="41.45185489207506" lon="2.1154976449906826">
        <ele>175.0</ele>
        <time>2019-02-22T17:13:00.000Z</time>
      </trkpt>
      <trkpt lat="41.451927898451686" lon="2.115385914221406">
        <ele>173.8000030517578</ele>
        <time>2019-02-22T17:13:02.000Z</time>
      </trkpt>
      <trkpt lat="41.45199486985803" lon="2.1152668073773384">
        <ele>172.60000610351562</ele>
        <time>2019-02-22T17:13:04.000Z</time>
      </trkpt>
      <trkpt lat="41.45202429033816" lon="2.1152002550661564">
        <ele>172.0</ele>
        <time>2019-02-22T17:13:05.000Z</time>
      </trkpt>
      <trkpt lat="41.45205421373248" lon="2.115142922848463">
        <ele>171.60000610351562</ele>
        <time>2019-02-22T17:13:06.000Z</time>
      </trkpt>
      <trkpt lat="41.45210509188473" lon="2.1150885242968798">
        <ele>171.1999969482422</ele>
        <time>2019-02-22T17:13:07.000Z</time>
      </trkpt>
      <trkpt lat="41.45220726728439" lon="2.114963047206402">
        <ele>169.1999969482422</ele>
        <time>2019-02-22T17:13:09.000Z</time>
      </trkpt>
      <trkpt lat="41.45224682986736" lon="2.1148963272571564">
        <ele>168.39999389648438</ele>
        <time>2019-02-22T17:13:10.000Z</time>
      </trkpt>
      <trkpt lat="41.452286560088396" lon="2.1148358937352896">
        <ele>167.60000610351562</ele>
        <time>2019-02-22T17:13:11.000Z</time>
      </trkpt>
      <trkpt lat="41.45236895419657" lon="2.1146948263049126">
        <ele>166.1999969482422</ele>
        <time>2019-02-22T17:13:14.000Z</time>
      </trkpt>
      <trkpt lat="41.45238345488906" lon="2.1146535873413086">
        <ele>166.1999969482422</ele>
        <time>2019-02-22T17:13:15.000Z</time>
      </trkpt>
      <trkpt lat="41.45245830528438" lon="2.1145463827997446">
        <ele>166.0</ele>
        <time>2019-02-22T17:13:19.000Z</time>
      </trkpt>
      <trkpt lat="41.45249099470675" lon="2.1144727058708668">
        <ele>166.0</ele>
        <time>2019-02-22T17:13:20.000Z</time>
      </trkpt>
      <trkpt lat="41.45258587785065" lon="2.1143509168177843">
        <ele>165.8000030517578</ele>
        <time>2019-02-22T17:13:23.000Z</time>
      </trkpt>
      <trkpt lat="41.45275225862861" lon="2.114319819957018">
        <ele>165.1999969482422</ele>
        <time>2019-02-22T17:13:27.000Z</time>
      </trkpt>
      <trkpt lat="41.452792240306735" lon="2.1143039781600237">
        <ele>165.1999969482422</ele>
        <time>2019-02-22T17:13:28.000Z</time>
      </trkpt>
      <trkpt lat="41.45287564024329" lon="2.1142712887376547">
        <ele>165.0</ele>
        <time>2019-02-22T17:13:30.000Z</time>
      </trkpt>
      <trkpt lat="41.45297965966165" lon="2.11425201036036">
        <ele>164.60000610351562</ele>
        <time>2019-02-22T17:13:32.000Z</time>
      </trkpt>
      <trkpt lat="41.453216364607215" lon="2.1141930017620325">
        <ele>164.39999389648438</ele>
        <time>2019-02-22T17:13:37.000Z</time>
      </trkpt>
      <trkpt lat="41.45329875871539" lon="2.1141688618808985">
        <ele>164.39999389648438</ele>
        <time>2019-02-22T17:13:39.000Z</time>
      </trkpt>
      <trkpt lat="41.45345793105662" lon="2.1141306404024363">
        <ele>164.39999389648438</ele>
        <time>2019-02-22T17:13:43.000Z</time>
      </trkpt>
      <trkpt lat="41.4535712543875" lon="2.1141294669359922">
        <ele>164.60000610351562</ele>
        <time>2019-02-22T17:13:45.000Z</time>
      </trkpt>
      <trkpt lat="41.45368223078549" lon="2.114164587110281">
        <ele>164.60000610351562</ele>
        <time>2019-02-22T17:13:48.000Z</time>
      </trkpt>
      <trkpt lat="41.45374291576445" lon="2.1141967736184597">
        <ele>163.39999389648438</ele>
        <time>2019-02-22T17:13:50.000Z</time>
      </trkpt>
      <trkpt lat="41.45381240174174" lon="2.114210519939661">
        <ele>162.1999969482422</ele>
        <time>2019-02-22T17:13:52.000Z</time>
      </trkpt>
      <trkpt lat="41.45384358242154" lon="2.114212280139327">
        <ele>162.0</ele>
        <time>2019-02-22T17:13:53.000Z</time>
      </trkpt>
      <trkpt lat="41.45397048443556" lon="2.114257710054517">
        <ele>161.39999389648438</ele>
        <time>2019-02-22T17:13:57.000Z</time>
      </trkpt>
      <trkpt lat="41.45410048775375" lon="2.11432090960443">
        <ele>162.0</ele>
        <time>2019-02-22T17:14:01.000Z</time>
      </trkpt>
      <trkpt lat="41.45417952910066" lon="2.114308923482895">
        <ele>162.39999389648438</ele>
        <time>2019-02-22T17:14:03.000Z</time>
      </trkpt>
      <trkpt lat="41.45435186102986" lon="2.114278245717287">
        <ele>163.0</ele>
        <time>2019-02-22T17:14:07.000Z</time>
      </trkpt>
      <trkpt lat="41.4544275496155" lon="2.1142269484698772">
        <ele>163.1999969482422</ele>
        <time>2019-02-22T17:14:09.000Z</time>
      </trkpt>
      <trkpt lat="41.454509273171425" lon="2.1141638327389956">
        <ele>163.60000610351562</ele>
        <time>2019-02-22T17:14:11.000Z</time>
      </trkpt>
      <trkpt lat="41.454586973413825" lon="2.1140923351049423">
        <ele>163.8000030517578</ele>
        <time>2019-02-22T17:14:13.000Z</time>
      </trkpt>
      <trkpt lat="41.45467163063586" lon="2.114012287929654">
        <ele>163.8000030517578</ele>
        <time>2019-02-22T17:14:15.000Z</time>
      </trkpt>
      <trkpt lat="41.45471362397075" lon="2.1139689534902573">
        <ele>163.60000610351562</ele>
        <time>2019-02-22T17:14:16.000Z</time>
      </trkpt>
      <trkpt lat="41.45484312437475" lon="2.1138713881373405">
        <ele>162.39999389648438</ele>
        <time>2019-02-22T17:14:19.000Z</time>
      </trkpt>
      <trkpt lat="41.454891907051206" lon="2.1138410456478596">
        <ele>162.1999969482422</ele>
        <time>2019-02-22T17:14:20.000Z</time>
      </trkpt>
      <trkpt lat="41.45500405691564" lon="2.1137906704097986">
        <ele>161.39999389648438</ele>
        <time>2019-02-22T17:14:22.000Z</time>
      </trkpt>
      <trkpt lat="41.45507974550128" lon="2.113770470023155">
        <ele>161.0</ele>
        <time>2019-02-22T17:14:23.000Z</time>
      </trkpt>
      <trkpt lat="41.45515610463917" lon="2.1137462463229895">
        <ele>160.60000610351562</ele>
        <time>2019-02-22T17:14:24.000Z</time>
      </trkpt>
      <trkpt lat="41.45522944629192" lon="2.1137076895684004">
        <ele>159.8000030517578</ele>
        <time>2019-02-22T17:14:25.000Z</time>
      </trkpt>
      <trkpt lat="41.45530203357339" lon="2.113676592707634">
        <ele>158.0</ele>
        <time>2019-02-22T17:14:26.000Z</time>
      </trkpt>
      <trkpt lat="41.45536791533232" lon="2.1136529557406902">
        <ele>156.60000610351562</ele>
        <time>2019-02-22T17:14:27.000Z</time>
      </trkpt>
      <trkpt lat="41.4555190410465" lon="2.1136078611016273">
        <ele>155.60000610351562</ele>
        <time>2019-02-22T17:14:29.000Z</time>
      </trkpt>
      <trkpt lat="41.45567435771227" lon="2.1135748364031315">
        <ele>155.1999969482422</ele>
        <time>2019-02-22T17:14:31.000Z</time>
      </trkpt>
      <trkpt lat="41.455854484811425" lon="2.113567627966404">
        <ele>155.39999389648438</ele>
        <time>2019-02-22T17:14:33.000Z</time>
      </trkpt>
      <trkpt lat="41.45601608790457" lon="2.1135936956852674">
        <ele>155.60000610351562</ele>
        <time>2019-02-22T17:14:35.000Z</time>
      </trkpt>
      <trkpt lat="41.45612396299839" lon="2.1136641036719084">
        <ele>155.1999969482422</ele>
        <time>2019-02-22T17:14:37.000Z</time>
      </trkpt>
      <trkpt lat="41.45619227550924" lon="2.113682711496949">
        <ele>155.1999969482422</ele>
        <time>2019-02-22T17:14:38.000Z</time>
      </trkpt>
      <trkpt lat="41.45636988803744" lon="2.113723363727331">
        <ele>155.0</ele>
        <time>2019-02-22T17:14:41.000Z</time>
      </trkpt>
      <trkpt lat="41.456414479762316" lon="2.113720513880253">
        <ele>155.1999969482422</ele>
        <time>2019-02-22T17:14:42.000Z</time>
      </trkpt>
      <trkpt lat="41.45655018277466" lon="2.11368715390563">
        <ele>155.60000610351562</ele>
        <time>2019-02-22T17:14:44.000Z</time>
      </trkpt>
      <trkpt lat="41.45662385970354" lon="2.1136487647891045">
        <ele>155.8000030517578</ele>
        <time>2019-02-22T17:14:45.000Z</time>
      </trkpt>
      <trkpt lat="41.45668848417699" lon="2.1135998144745827">
        <ele>155.8000030517578</ele>
        <time>2019-02-22T17:14:46.000Z</time>
      </trkpt>
      <trkpt lat="41.45679837092757" lon="2.1135056018829346">
        <ele>155.39999389648438</ele>
        <time>2019-02-22T17:14:48.000Z</time>
      </trkpt>
      <trkpt lat="41.45686173811555" lon="2.113465452566743">
        <ele>154.60000610351562</ele>
        <time>2019-02-22T17:14:49.000Z</time>
      </trkpt>
      <trkpt lat="41.45689216442406" lon="2.113403845578432">
        <ele>154.0</ele>
        <time>2019-02-22T17:14:50.000Z</time>
      </trkpt>
      <trkpt lat="41.45692041143775" lon="2.1133502013981342">
        <ele>153.60000610351562</ele>
        <time>2019-02-22T17:14:51.000Z</time>
      </trkpt>
      <trkpt lat="41.45694429986179" lon="2.113233944401145">
        <ele>153.0</ele>
        <time>2019-02-22T17:14:53.000Z</time>
      </trkpt>
      <trkpt lat="41.456976570189" lon="2.113151466473937">
        <ele>153.39999389648438</ele>
        <time>2019-02-22T17:14:55.000Z</time>
      </trkpt>
      <trkpt lat="41.4570059068501" lon="2.113119615241885">
        <ele>155.39999389648438</ele>
        <time>2019-02-22T17:14:57.000Z</time>
      </trkpt>
      <trkpt lat="41.45702602341771" lon="2.1131109818816185">
        <ele>156.39999389648438</ele>
        <time>2019-02-22T17:14:58.000Z</time>
      </trkpt>
      <trkpt lat="41.45704354159534" lon="2.113092876970768">
        <ele>157.1999969482422</ele>
        <time>2019-02-22T17:14:59.000Z</time>
      </trkpt>
      <trkpt lat="41.45706550218165" lon="2.1130717545747757">
        <ele>157.8000030517578</ele>
        <time>2019-02-22T17:15:00.000Z</time>
      </trkpt>
      <trkpt lat="41.45714554935694" lon="2.112984834238887">
        <ele>159.0</ele>
        <time>2019-02-22T17:15:05.000Z</time>
      </trkpt>
      <trkpt lat="41.45717790350318" lon="2.1129575930535793">
        <ele>159.8000030517578</ele>
        <time>2019-02-22T17:15:07.000Z</time>
      </trkpt>
      <trkpt lat="41.457197265699506" lon="2.1129346266388893">
        <ele>160.1999969482422</ele>
        <time>2019-02-22T17:15:08.000Z</time>
      </trkpt>
      <trkpt lat="41.45725694485009" lon="2.1128686610609293">
        <ele>161.39999389648438</ele>
        <time>2019-02-22T17:15:12.000Z</time>
      </trkpt>
      <trkpt lat="41.457275385037065" lon="2.1128542441874743">
        <ele>161.60000610351562</ele>
        <time>2019-02-22T17:15:13.000Z</time>
      </trkpt>
      <trkpt lat="41.45733347162604" lon="2.1128028631210327">
        <ele>162.60000610351562</ele>
        <time>2019-02-22T17:15:17.000Z</time>
      </trkpt>
      <trkpt lat="41.45734646357596" lon="2.1127906255424023">
        <ele>162.8000030517578</ele>
        <time>2019-02-22T17:15:18.000Z</time>
      </trkpt>
      <trkpt lat="41.45737102255225" lon="2.112735053524375">
        <ele>163.60000610351562</ele>
        <time>2019-02-22T17:15:21.000Z</time>
      </trkpt>
      <trkpt lat="41.4573978446424" lon="2.1126819122582674">
        <ele>164.39999389648438</ele>
        <time>2019-02-22T17:15:24.000Z</time>
      </trkpt>
      <trkpt lat="41.457420475780964" lon="2.11264880374074">
        <ele>164.60000610351562</ele>
        <time>2019-02-22T17:15:26.000Z</time>
      </trkpt>
      <trkpt lat="41.457434725016356" lon="2.1126362308859825">
        <ele>164.8000030517578</ele>
        <time>2019-02-22T17:15:27.000Z</time>
      </trkpt>
      <trkpt lat="41.45748032256961" lon="2.112614270299673">
        <ele>164.8000030517578</ele>
        <time>2019-02-22T17:15:29.000Z</time>
      </trkpt>
      <trkpt lat="41.45753815770149" lon="2.1125832572579384">
        <ele>164.8000030517578</ele>
        <time>2019-02-22T17:15:31.000Z</time>
      </trkpt>
      <trkpt lat="41.45775583572686" lon="2.1125831734389067">
        <ele>163.39999389648438</ele>
        <time>2019-02-22T17:15:36.000Z</time>
      </trkpt>
      <trkpt lat="41.457850048318505" lon="2.1125832572579384">
        <ele>162.8000030517578</ele>
        <time>2019-02-22T17:15:38.000Z</time>
      </trkpt>
      <trkpt lat="41.45800125785172" lon="2.1125431079417467">
        <ele>162.8000030517578</ele>
        <time>2019-02-22T17:15:41.000Z</time>
      </trkpt>
      <trkpt lat="41.45818549208343" lon="2.11241134442389">
        <ele>163.60000610351562</ele>
        <time>2019-02-22T17:15:46.000Z</time>
      </trkpt>
      <trkpt lat="41.458271238952875" lon="2.112290896475315">
        <ele>164.0</ele>
        <time>2019-02-22T17:15:50.000Z</time>
      </trkpt>
      <trkpt lat="41.45824818871915" lon="2.112123342230916">
        <ele>164.8000030517578</ele>
        <time>2019-02-22T17:15:54.000Z</time>
      </trkpt>
      <trkpt lat="41.458217427134514" lon="2.1119976975023746">
        <ele>166.1999969482422</ele>
        <time>2019-02-22T17:15:57.000Z</time>
      </trkpt>
      <trkpt lat="41.45819345489144" lon="2.111925445497036">
        <ele>167.39999389648438</ele>
        <time>2019-02-22T17:15:59.000Z</time>
      </trkpt>
      <trkpt lat="41.458189096301794" lon="2.1118448954075575">
        <ele>168.1999969482422</ele>
        <time>2019-02-22T17:16:02.000Z</time>
      </trkpt>
      <trkpt lat="41.45822128280997" lon="2.1117909997701645">
        <ele>168.39999389648438</ele>
        <time>2019-02-22T17:16:04.000Z</time>
      </trkpt>
      <trkpt lat="41.45828523673117" lon="2.1116870641708374">
        <ele>168.1999969482422</ele>
        <time>2019-02-22T17:16:07.000Z</time>
      </trkpt>
      <trkpt lat="41.45845916122198" lon="2.1114821266382933">
        <ele>168.0</ele>
        <time>2019-02-22T17:16:13.000Z</time>
      </trkpt>
      <trkpt lat="41.458550188690424" lon="2.1112788654863834">
        <ele>167.1999969482422</ele>
        <time>2019-02-22T17:16:17.000Z</time>
      </trkpt>
      <trkpt lat="41.458566365763545" lon="2.111224802210927">
        <ele>167.0</ele>
        <time>2019-02-22T17:16:18.000Z</time>
      </trkpt>
      <trkpt lat="41.45858673378825" lon="2.1111751813441515">
        <ele>167.0</ele>
        <time>2019-02-22T17:16:19.000Z</time>
      </trkpt>
      <trkpt lat="41.458647502586246" lon="2.1110049448907375">
        <ele>167.0</ele>
        <time>2019-02-22T17:16:23.000Z</time>
      </trkpt>
      <trkpt lat="41.458687568083405" lon="2.110926825553179">
        <ele>167.1999969482422</ele>
        <time>2019-02-22T17:16:25.000Z</time>
      </trkpt>
      <trkpt lat="41.45880793221295" lon="2.1107246540486813">
        <ele>167.39999389648438</ele>
        <time>2019-02-22T17:16:30.000Z</time>
      </trkpt>
      <trkpt lat="41.45883156917989" lon="2.1106807328760624">
        <ele>167.60000610351562</ele>
        <time>2019-02-22T17:16:31.000Z</time>
      </trkpt>
      <trkpt lat="41.45885931327939" lon="2.1106363087892532">
        <ele>167.60000610351562</ele>
        <time>2019-02-22T17:16:32.000Z</time>
      </trkpt>
      <trkpt lat="41.45900406874716" lon="2.1104295272380114">
        <ele>167.60000610351562</ele>
        <time>2019-02-22T17:16:37.000Z</time>
      </trkpt>
      <trkpt lat="41.45907925441861" lon="2.1103520784527063">
        <ele>167.39999389648438</ele>
        <time>2019-02-22T17:16:39.000Z</time>
      </trkpt>
      <trkpt lat="41.459304224699736" lon="2.1101844403892756">
        <ele>166.8000030517578</ele>
        <time>2019-02-22T17:16:44.000Z</time>
      </trkpt>
      <trkpt lat="41.45935920998454" lon="2.1101647429168224">
        <ele>166.39999389648438</ele>
        <time>2019-02-22T17:16:45.000Z</time>
      </trkpt>
      <trkpt lat="41.45942416973412" lon="2.1101564448326826">
        <ele>165.8000030517578</ele>
        <time>2019-02-22T17:16:46.000Z</time>
      </trkpt>
      <trkpt lat="41.45963128656149" lon="2.110183769837022">
        <ele>164.8000030517578</ele>
        <time>2019-02-22T17:16:49.000Z</time>
      </trkpt>
      <trkpt lat="41.45977319218218" lon="2.1102082449942827">
        <ele>163.60000610351562</ele>
        <time>2019-02-22T17:16:51.000Z</time>
      </trkpt>
      <trkpt lat="41.45997888408601" lon="2.11022668518126">
        <ele>162.39999389648438</ele>
        <time>2019-02-22T17:16:54.000Z</time>
      </trkpt>
      <trkpt lat="41.460047950968146" lon="2.1102474723011255">
        <ele>162.0</ele>
        <time>2019-02-22T17:16:55.000Z</time>
      </trkpt>
      <trkpt lat="41.460122214630246" lon="2.110286196693778">
        <ele>161.39999389648438</ele>
        <time>2019-02-22T17:16:56.000Z</time>
      </trkpt>
      <trkpt lat="41.46028214134276" lon="2.11036691442132">
        <ele>159.60000610351562</ele>
        <time>2019-02-22T17:16:58.000Z</time>
      </trkpt>
      <trkpt lat="41.46036076359451" lon="2.1103838458657265">
        <ele>158.39999389648438</ele>
        <time>2019-02-22T17:16:59.000Z</time>
      </trkpt>
      <trkpt lat="41.46051532588899" lon="2.11040748283267">
        <ele>156.39999389648438</ele>
        <time>2019-02-22T17:17:01.000Z</time>
      </trkpt>
      <trkpt lat="41.4605925232172" lon="2.1104200556874275">
        <ele>155.39999389648438</ele>
        <time>2019-02-22T17:17:02.000Z</time>
      </trkpt>
      <trkpt lat="41.46073912270367" lon="2.110446961596608">
        <ele>153.8000030517578</ele>
        <time>2019-02-22T17:17:04.000Z</time>
      </trkpt>
      <trkpt lat="41.46094632335007" lon="2.1104427706450224">
        <ele>152.1999969482422</ele>
        <time>2019-02-22T17:17:07.000Z</time>
      </trkpt>
      <trkpt lat="41.46100818179548" lon="2.1104483865201473">
        <ele>152.0</ele>
        <time>2019-02-22T17:17:08.000Z</time>
      </trkpt>
      <trkpt lat="41.46119677461684" lon="2.1104468777775764">
        <ele>151.1999969482422</ele>
        <time>2019-02-22T17:17:11.000Z</time>
      </trkpt>
      <trkpt lat="41.461263075470924" lon="2.110453750938177">
        <ele>150.1999969482422</ele>
        <time>2019-02-22T17:17:12.000Z</time>
      </trkpt>
      <trkpt lat="41.46134169772267" lon="2.11048174649477">
        <ele>149.1999969482422</ele>
        <time>2019-02-22T17:17:13.000Z</time>
      </trkpt>
      <trkpt lat="41.46141889505088" lon="2.11051594465971">
        <ele>148.39999389648438</ele>
        <time>2019-02-22T17:17:14.000Z</time>
      </trkpt>
      <trkpt lat="41.461580414325" lon="2.1106006018817425">
        <ele>146.60000610351562</ele>
        <time>2019-02-22T17:17:16.000Z</time>
      </trkpt>
      <trkpt lat="41.461665742099285" lon="2.110667573288083">
        <ele>146.0</ele>
        <time>2019-02-22T17:17:17.000Z</time>
      </trkpt>
      <trkpt lat="41.46174645982683" lon="2.110740663483739">
        <ele>145.60000610351562</ele>
        <time>2019-02-22T17:17:18.000Z</time>
      </trkpt>
      <trkpt lat="41.46190621890128" lon="2.110910816118121">
        <ele>144.1999969482422</ele>
        <time>2019-02-22T17:17:20.000Z</time>
      </trkpt>
      <trkpt lat="41.46198375150561" lon="2.1110016759485006">
        <ele>143.39999389648438</ele>
        <time>2019-02-22T17:17:21.000Z</time>
      </trkpt>
      <trkpt lat="41.46206069737673" lon="2.1110965590924025">
        <ele>142.8000030517578</ele>
        <time>2019-02-22T17:17:22.000Z</time>
      </trkpt>
      <trkpt lat="41.462303940206766" lon="2.111409204080701">
        <ele>142.39999389648438</ele>
        <time>2019-02-22T17:17:25.000Z</time>
      </trkpt>
      <trkpt lat="41.46258347667754" lon="2.111700978130102">
        <ele>143.1999969482422</ele>
        <time>2019-02-22T17:17:29.000Z</time>
      </trkpt>
      <trkpt lat="41.46273527294397" lon="2.111724866554141">
        <ele>144.1999969482422</ele>
        <time>2019-02-22T17:17:31.000Z</time>
      </trkpt>
      <trkpt lat="41.46280651912093" lon="2.1117135509848595">
        <ele>145.0</ele>
        <time>2019-02-22T17:17:32.000Z</time>
      </trkpt>
      <trkpt lat="41.462873658165336" lon="2.111691003665328">
        <ele>145.39999389648438</ele>
        <time>2019-02-22T17:17:33.000Z</time>
      </trkpt>
      <trkpt lat="41.463009444996715" lon="2.111671892926097">
        <ele>146.39999389648438</ele>
        <time>2019-02-22T17:17:35.000Z</time>
      </trkpt>
      <trkpt lat="41.463136514648795" lon="2.1116993855684996">
        <ele>146.8000030517578</ele>
        <time>2019-02-22T17:17:37.000Z</time>
      </trkpt>
      <trkpt lat="41.46324422210455" lon="2.1117615792900324">
        <ele>147.0</ele>
        <time>2019-02-22T17:17:39.000Z</time>
      </trkpt>
      <trkpt lat="41.4633400272578" lon="2.111769877374172">
        <ele>147.60000610351562</ele>
        <time>2019-02-22T17:17:41.000Z</time>
      </trkpt>
      <trkpt lat="41.46347329951823" lon="2.111733080819249">
        <ele>148.1999969482422</ele>
        <time>2019-02-22T17:17:43.000Z</time>
      </trkpt>
      <trkpt lat="41.46353021264076" lon="2.1117002237588167">
        <ele>148.60000610351562</ele>
        <time>2019-02-22T17:17:44.000Z</time>
      </trkpt>
      <trkpt lat="41.46357757039368" lon="2.111658062785864">
        <ele>148.8000030517578</ele>
        <time>2019-02-22T17:17:45.000Z</time>
      </trkpt>
      <trkpt lat="41.46362358704209" lon="2.111602071672678">
        <ele>149.0</ele>
        <time>2019-02-22T17:17:46.000Z</time>
      </trkpt>
      <trkpt lat="41.463706735521555" lon="2.1114548854529858">
        <ele>148.8000030517578</ele>
        <time>2019-02-22T17:17:48.000Z</time>
      </trkpt>
      <trkpt lat="41.46374981850386" lon="2.1113900933414698">
        <ele>148.60000610351562</ele>
        <time>2019-02-22T17:17:49.000Z</time>
      </trkpt>
      <trkpt lat="41.463820645585656" lon="2.111271321773529">
        <ele>148.0</ele>
        <time>2019-02-22T17:17:51.000Z</time>
      </trkpt>
      <trkpt lat="41.46384704858065" lon="2.111213905736804">
        <ele>147.60000610351562</ele>
        <time>2019-02-22T17:17:52.000Z</time>
      </trkpt>
      <trkpt lat="41.463853754103184" lon="2.1111613512039185">
        <ele>147.60000610351562</ele>
        <time>2019-02-22T17:17:53.000Z</time>
      </trkpt>
      <trkpt lat="41.46387839689851" lon="2.1110533084720373">
        <ele>147.39999389648438</ele>
        <time>2019-02-22T17:17:55.000Z</time>
      </trkpt>
      <trkpt lat="41.46389474160969" lon="2.1110090520232916">
        <ele>147.39999389648438</ele>
        <time>2019-02-22T17:17:56.000Z</time>
      </trkpt>
      <trkpt lat="41.463916786015034" lon="2.1109613589942455">
        <ele>147.1999969482422</ele>
        <time>2019-02-22T17:17:57.000Z</time>
      </trkpt>
      <trkpt lat="41.4639357291162" lon="2.110895225778222">
        <ele>147.0</ele>
        <time>2019-02-22T17:17:58.000Z</time>
      </trkpt>
      <trkpt lat="41.46399230696261" lon="2.1107705868780613">
        <ele>146.39999389648438</ele>
        <time>2019-02-22T17:18:00.000Z</time>
      </trkpt>
      <trkpt lat="41.46403538994491" lon="2.1107149310410023">
        <ele>146.0</ele>
        <time>2019-02-22T17:18:01.000Z</time>
      </trkpt>
      <trkpt lat="41.464109402149916" lon="2.1104294434189796">
        <ele>145.1999969482422</ele>
        <time>2019-02-22T17:18:05.000Z</time>
      </trkpt>
      <trkpt lat="41.46410948596895" lon="2.11032684892416">
        <ele>145.0</ele>
        <time>2019-02-22T17:18:06.000Z</time>
      </trkpt>
      <trkpt lat="41.4640789758414" lon="2.110031805932522">
        <ele>145.1999969482422</ele>
        <time>2019-02-22T17:18:11.000Z</time>
      </trkpt>
      <trkpt lat="41.46410504356027" lon="2.109644478186965">
        <ele>144.39999389648438</ele>
        <time>2019-02-22T17:18:16.000Z</time>
      </trkpt>
      <trkpt lat="41.46412474103272" lon="2.1095660235732794">
        <ele>144.1999969482422</ele>
        <time>2019-02-22T17:18:17.000Z</time>
      </trkpt>
      <trkpt lat="41.464154329150915" lon="2.1094754990190268">
        <ele>143.60000610351562</ele>
        <time>2019-02-22T17:18:18.000Z</time>
      </trkpt>
      <trkpt lat="41.46419908851385" lon="2.109393524006009">
        <ele>143.1999969482422</ele>
        <time>2019-02-22T17:18:19.000Z</time>
      </trkpt>
      <trkpt lat="41.46425281651318" lon="2.1093177516013384">
        <ele>142.60000610351562</ele>
        <time>2019-02-22T17:18:20.000Z</time>
      </trkpt>
      <trkpt lat="41.46432179957628" lon="2.1092403028160334">
        <ele>141.8000030517578</ele>
        <time>2019-02-22T17:18:21.000Z</time>
      </trkpt>
      <trkpt lat="41.46432179957628" lon="2.1092403028160334">
        <ele>141.8000030517578</ele>
        <time>2019-02-22T17:18:21.000Z</time>
      </trkpt>
      <trkpt lat="41.464386843144894" lon="2.1091604232788086">
        <ele>141.0</ele>
        <time>2019-02-22T17:18:22.000Z</time>
      </trkpt>
      <trkpt lat="41.46445658057928" lon="2.1090746764093637">
        <ele>139.60000610351562</ele>
        <time>2019-02-22T17:18:23.000Z</time>
      </trkpt>
      <trkpt lat="41.46452162414789" lon="2.108983900398016">
        <ele>137.8000030517578</ele>
        <time>2019-02-22T17:18:24.000Z</time>
      </trkpt>
      <trkpt lat="41.46457023918629" lon="2.10888491012156">
        <ele>135.8000030517578</ele>
        <time>2019-02-22T17:18:25.000Z</time>
      </trkpt>
      <trkpt lat="41.46460862830281" lon="2.1087822318077087">
        <ele>134.0</ele>
        <time>2019-02-22T17:18:26.000Z</time>
      </trkpt>
      <trkpt lat="41.46464819088578" lon="2.1087380591779947">
        <ele>133.0</ele>
        <time>2019-02-22T17:18:27.000Z</time>
      </trkpt>
      <trkpt lat="41.46470711566508" lon="2.108721798285842">
        <ele>132.1999969482422</ele>
        <time>2019-02-22T17:18:28.000Z</time>
      </trkpt>
      <trkpt lat="41.46476872265339" lon="2.1087204571813345">
        <ele>131.8000030517578</ele>
        <time>2019-02-22T17:18:29.000Z</time>
      </trkpt>
      <trkpt lat="41.464829575270414" lon="2.1087192837148905">
        <ele>131.60000610351562</ele>
        <time>2019-02-22T17:18:30.000Z</time>
      </trkpt>
      <trkpt lat="41.464966451749206" lon="2.1086497977375984">
        <ele>131.60000610351562</ele>
        <time>2019-02-22T17:18:33.000Z</time>
      </trkpt>
      <trkpt lat="41.46499017253518" lon="2.108568074181676">
        <ele>131.39999389648438</ele>
        <time>2019-02-22T17:18:34.000Z</time>
      </trkpt>
      <trkpt lat="41.465064687654376" lon="2.108234306797385">
        <ele>130.39999389648438</ele>
        <time>2019-02-22T17:18:38.000Z</time>
      </trkpt>
      <trkpt lat="41.465089498087764" lon="2.1081530023366213">
        <ele>129.8000030517578</ele>
        <time>2019-02-22T17:18:39.000Z</time>
      </trkpt>
      <trkpt lat="41.46516116335988" lon="2.1079956740140915">
        <ele>129.0</ele>
        <time>2019-02-22T17:18:41.000Z</time>
      </trkpt>
      <trkpt lat="41.465181866660714" lon="2.107905400916934">
        <ele>128.60000610351562</ele>
        <time>2019-02-22T17:18:42.000Z</time>
      </trkpt>
      <trkpt lat="41.465179519727826" lon="2.1077897306531668">
        <ele>127.5999984741211</ele>
        <time>2019-02-22T17:18:43.000Z</time>
      </trkpt>
      <trkpt lat="41.465161833912134" lon="2.1076625771820545">
        <ele>127.5999984741211</ele>
        <time>2019-02-22T17:18:44.000Z</time>
      </trkpt>
      <trkpt lat="41.46509813144803" lon="2.10744540207088">
        <ele>126.19999694824219</ele>
        <time>2019-02-22T17:18:46.000Z</time>
      </trkpt>
      <trkpt lat="41.46502093411982" lon="2.107227388769388">
        <ele>125.0</ele>
        <time>2019-02-22T17:18:48.000Z</time>
      </trkpt>
      <trkpt lat="41.46499997936189" lon="2.1070002391934395">
        <ele>124.5999984741211</ele>
        <time>2019-02-22T17:18:50.000Z</time>
      </trkpt>
      <trkpt lat="41.465049013495445" lon="2.1068583335727453">
        <ele>124.80000305175781</ele>
        <time>2019-02-22T17:18:52.000Z</time>
      </trkpt>
      <trkpt lat="41.46508019417524" lon="2.1068134903907776">
        <ele>125.4000015258789</ele>
        <time>2019-02-22T17:18:53.000Z</time>
      </trkpt>
      <trkpt lat="41.465113554149866" lon="2.106789769604802">
        <ele>126.0</ele>
        <time>2019-02-22T17:18:54.000Z</time>
      </trkpt>
      <trkpt lat="41.46514398045838" lon="2.1067516319453716">
        <ele>126.5999984741211</ele>
        <time>2019-02-22T17:18:55.000Z</time>
      </trkpt>
      <trkpt lat="41.465182369574904" lon="2.1067124884575605">
        <ele>127.19999694824219</ele>
        <time>2019-02-22T17:18:56.000Z</time>
      </trkpt>
      <trkpt lat="41.465218998491764" lon="2.106661694124341">
        <ele>127.4000015258789</ele>
        <time>2019-02-22T17:18:57.000Z</time>
      </trkpt>
      <trkpt lat="41.46528052166104" lon="2.1065514720976353">
        <ele>128.0</ele>
        <time>2019-02-22T17:18:59.000Z</time>
      </trkpt>
      <trkpt lat="41.465302063152194" lon="2.106497660279274">
        <ele>128.1999969482422</ele>
        <time>2019-02-22T17:19:00.000Z</time>
      </trkpt>
      <trkpt lat="41.46531882695854" lon="2.106438400223851">
        <ele>128.0</ele>
        <time>2019-02-22T17:19:01.000Z</time>
      </trkpt>
      <trkpt lat="41.46538940258324" lon="2.1060024574398994">
        <ele>128.1999969482422</ele>
        <time>2019-02-22T17:19:07.000Z</time>
      </trkpt>
      <trkpt lat="41.465556705370545" lon="2.1056387666612864">
        <ele>128.0</ele>
        <time>2019-02-22T17:19:12.000Z</time>
      </trkpt>
      <trkpt lat="41.46558738313615" lon="2.1055583842098713">
        <ele>128.1999969482422</ele>
        <time>2019-02-22T17:19:13.000Z</time>
      </trkpt>
      <trkpt lat="41.465686205774546" lon="2.105310196056962">
        <ele>128.1999969482422</ele>
        <time>2019-02-22T17:19:16.000Z</time>
      </trkpt>
      <trkpt lat="41.4657629840076" lon="2.105123531073332">
        <ele>127.80000305175781</ele>
        <time>2019-02-22T17:19:18.000Z</time>
      </trkpt>
      <trkpt lat="41.46584864705801" lon="2.1048011630773544">
        <ele>127.0</ele>
        <time>2019-02-22T17:19:21.000Z</time>
      </trkpt>
      <trkpt lat="41.46591796539724" lon="2.1044952236115932">
        <ele>126.0</ele>
        <time>2019-02-22T17:19:24.000Z</time>
      </trkpt>
      <trkpt lat="41.46594679914415" lon="2.104395981878042">
        <ele>125.5999984741211</ele>
        <time>2019-02-22T17:19:25.000Z</time>
      </trkpt>
      <trkpt lat="41.466104965656996" lon="2.1040565986186266">
        <ele>125.0</ele>
        <time>2019-02-22T17:19:29.000Z</time>
      </trkpt>
      <trkpt lat="41.46621468476951" lon="2.103971354663372">
        <ele>124.80000305175781</ele>
        <time>2019-02-22T17:19:31.000Z</time>
      </trkpt>
      <trkpt lat="41.46626438945532" lon="2.1039497293531895">
        <ele>125.0</ele>
        <time>2019-02-22T17:19:32.000Z</time>
      </trkpt>
      <trkpt lat="41.46631325595081" lon="2.103920979425311">
        <ele>125.19999694824219</ele>
        <time>2019-02-22T17:19:33.000Z</time>
      </trkpt>
      <trkpt lat="41.46641559898853" lon="2.103815283626318">
        <ele>125.4000015258789</ele>
        <time>2019-02-22T17:19:35.000Z</time>
      </trkpt>
      <trkpt lat="41.46657284349203" lon="2.1034323144704103">
        <ele>123.80000305175781</ele>
        <time>2019-02-22T17:19:40.000Z</time>
      </trkpt>
      <trkpt lat="41.46672866307199" lon="2.103043058887124">
        <ele>123.19999694824219</ele>
        <time>2019-02-22T17:19:45.000Z</time>
      </trkpt>
      <trkpt lat="41.4667662139982" lon="2.1029813680797815">
        <ele>123.4000015258789</ele>
        <time>2019-02-22T17:19:46.000Z</time>
      </trkpt>
      <trkpt lat="41.46690065972507" lon="2.1027110517024994">
        <ele>124.0</ele>
        <time>2019-02-22T17:19:50.000Z</time>
      </trkpt>
      <trkpt lat="41.4670286513865" lon="2.1022972371429205">
        <ele>122.5999984741211</ele>
        <time>2019-02-22T17:19:54.000Z</time>
      </trkpt>
      <trkpt lat="41.46705522201955" lon="2.102179639041424">
        <ele>121.19999694824219</ele>
        <time>2019-02-22T17:19:55.000Z</time>
      </trkpt>
      <trkpt lat="41.467073913663626" lon="2.102054413408041">
        <ele>120.0</ele>
        <time>2019-02-22T17:19:56.000Z</time>
      </trkpt>
      <trkpt lat="41.467126132920384" lon="2.101677730679512">
        <ele>119.19999694824219</ele>
        <time>2019-02-22T17:19:59.000Z</time>
      </trkpt>
      <trkpt lat="41.46718396805227" lon="2.101342286914587">
        <ele>119.0</ele>
        <time>2019-02-22T17:20:02.000Z</time>
      </trkpt>
      <trkpt lat="41.46723526529968" lon="2.100984714925289">
        <ele>118.19999694824219</ele>
        <time>2019-02-22T17:20:05.000Z</time>
      </trkpt>
      <trkpt lat="41.46727164275944" lon="2.1007704734802246">
        <ele>118.0</ele>
        <time>2019-02-22T17:20:07.000Z</time>
      </trkpt>
      <trkpt lat="41.467331908643246" lon="2.100369483232498">
        <ele>117.5999984741211</ele>
        <time>2019-02-22T17:20:11.000Z</time>
      </trkpt>
      <trkpt lat="41.467499462887645" lon="2.0999114122241735">
        <ele>117.4000015258789</ele>
        <time>2019-02-22T17:20:16.000Z</time>
      </trkpt>
      <trkpt lat="41.46757833659649" lon="2.0997350569814444">
        <ele>116.80000305175781</ele>
        <time>2019-02-22T17:20:18.000Z</time>
      </trkpt>
      <trkpt lat="41.46777673624456" lon="2.099286625161767">
        <ele>115.5999984741211</ele>
        <time>2019-02-22T17:20:23.000Z</time>
      </trkpt>
      <trkpt lat="41.46804411895573" lon="2.098828721791506">
        <ele>115.19999694824219</ele>
        <time>2019-02-22T17:20:29.000Z</time>
      </trkpt>
      <trkpt lat="41.468093656003475" lon="2.098768623545766">
        <ele>115.0</ele>
        <time>2019-02-22T17:20:30.000Z</time>
      </trkpt>
      <trkpt lat="41.46826095879078" lon="2.0986223593354225">
        <ele>114.5999984741211</ele>
        <time>2019-02-22T17:20:33.000Z</time>
      </trkpt>
      <trkpt lat="41.468356680125" lon="2.0985077787190676">
        <ele>114.5999984741211</ele>
        <time>2019-02-22T17:20:35.000Z</time>
      </trkpt>
      <trkpt lat="41.468445025384426" lon="2.0983698964118958">
        <ele>115.0</ele>
        <time>2019-02-22T17:20:37.000Z</time>
      </trkpt>
      <trkpt lat="41.468720119446516" lon="2.097781067714095">
        <ele>115.0</ele>
        <time>2019-02-22T17:20:44.000Z</time>
      </trkpt>
      <trkpt lat="41.46900728344917" lon="2.097125183790922">
        <ele>115.5999984741211</ele>
        <time>2019-02-22T17:20:52.000Z</time>
      </trkpt>
      <trkpt lat="41.46912580356002" lon="2.0968782529234886">
        <ele>116.0</ele>
        <time>2019-02-22T17:20:56.000Z</time>
      </trkpt>
      <trkpt lat="41.469173496589065" lon="2.096754116937518">
        <ele>116.19999694824219</ele>
        <time>2019-02-22T17:20:58.000Z</time>
      </trkpt>
      <trkpt lat="41.4692460000515" lon="2.0965773425996304">
        <ele>116.4000015258789</ele>
        <time>2019-02-22T17:21:01.000Z</time>
      </trkpt>
      <trkpt lat="41.469293693080544" lon="2.096469048410654">
        <ele>116.19999694824219</ele>
        <time>2019-02-22T17:21:03.000Z</time>
      </trkpt>
      <trkpt lat="41.46932017989457" lon="2.096359748393297">
        <ele>116.19999694824219</ele>
        <time>2019-02-22T17:21:05.000Z</time>
      </trkpt>
      <trkpt lat="41.46931942552328" lon="2.0962257217615843">
        <ele>115.19999694824219</ele>
        <time>2019-02-22T17:21:08.000Z</time>
      </trkpt>
      <trkpt lat="41.46929042413831" lon="2.0961472671478987">
        <ele>114.5999984741211</ele>
        <time>2019-02-22T17:21:10.000Z</time>
      </trkpt>
      <trkpt lat="41.46924801170826" lon="2.096052635461092">
        <ele>114.0</ele>
        <time>2019-02-22T17:21:13.000Z</time>
      </trkpt>
      <trkpt lat="41.46923627704382" lon="2.0958388969302177">
        <ele>114.5999984741211</ele>
        <time>2019-02-22T17:21:18.000Z</time>
      </trkpt>
      <trkpt lat="41.4692320022732" lon="2.0957167726010084">
        <ele>115.5999984741211</ele>
        <time>2019-02-22T17:21:22.000Z</time>
      </trkpt>
      <trkpt lat="41.469227811321616" lon="2.0956922974437475">
        <ele>115.80000305175781</ele>
        <time>2019-02-22T17:21:23.000Z</time>
      </trkpt>
      <trkpt lat="41.46923577412963" lon="2.095655333250761">
        <ele>116.19999694824219</ele>
        <time>2019-02-22T17:21:25.000Z</time>
      </trkpt>
      <trkpt lat="41.46926024928689" lon="2.0955984201282263">
        <ele>116.80000305175781</ele>
        <time>2019-02-22T17:21:28.000Z</time>
      </trkpt>
      <trkpt lat="41.46930869668722" lon="2.0955627970397472">
        <ele>118.0</ele>
        <time>2019-02-22T17:21:31.000Z</time>
      </trkpt>
      <trkpt lat="41.4693237002939" lon="2.0955185405910015">
        <ele>119.0</ele>
        <time>2019-02-22T17:21:33.000Z</time>
      </trkpt>
      <trkpt lat="41.46933409385383" lon="2.0954944007098675">
        <ele>119.0</ele>
        <time>2019-02-22T17:21:34.000Z</time>
      </trkpt>
      <trkpt lat="41.46935563534498" lon="2.095437655225396">
        <ele>119.0</ele>
        <time>2019-02-22T17:21:36.000Z</time>
      </trkpt>
      <trkpt lat="41.46937650628388" lon="2.095380909740925">
        <ele>119.0</ele>
        <time>2019-02-22T17:21:38.000Z</time>
      </trkpt>
      <trkpt lat="41.46939989179373" lon="2.0953269302845">
        <ele>119.0</ele>
        <time>2019-02-22T17:21:40.000Z</time>
      </trkpt>
      <trkpt lat="41.469470551237464" lon="2.0951459649950266">
        <ele>119.19999694824219</ele>
        <time>2019-02-22T17:21:47.000Z</time>
      </trkpt>
      <trkpt lat="41.46961648017168" lon="2.0950818434357643">
        <ele>119.4000015258789</ele>
        <time>2019-02-22T17:21:52.000Z</time>
      </trkpt>
      <trkpt lat="41.469685547053814" lon="2.0949846133589745">
        <ele>119.4000015258789</ele>
        <time>2019-02-22T17:21:55.000Z</time>
      </trkpt>
      <trkpt lat="41.4697156380862" lon="2.0949104335159063">
        <ele>119.4000015258789</ele>
        <time>2019-02-22T17:21:57.000Z</time>
      </trkpt>
      <trkpt lat="41.46980113349855" lon="2.0947448071092367">
        <ele>119.5999984741211</ele>
        <time>2019-02-22T17:22:02.000Z</time>
      </trkpt>
      <trkpt lat="41.46981873549521" lon="2.0947154704481363">
        <ele>119.5999984741211</ele>
        <time>2019-02-22T17:22:03.000Z</time>
      </trkpt>
      <trkpt lat="41.46988185122609" lon="2.0945914182811975">
        <ele>120.19999694824219</ele>
        <time>2019-02-22T17:22:07.000Z</time>
      </trkpt>
      <trkpt lat="41.46993071772158" lon="2.094443142414093">
        <ele>120.19999694824219</ele>
        <time>2019-02-22T17:22:11.000Z</time>
      </trkpt>
      <trkpt lat="41.470004143193364" lon="2.0941931940615177">
        <ele>120.19999694824219</ele>
        <time>2019-02-22T17:22:18.000Z</time>
      </trkpt>
      <trkpt lat="41.47005083039403" lon="2.0939139928668737">
        <ele>120.19999694824219</ele>
        <time>2019-02-22T17:22:24.000Z</time>
      </trkpt>
      <trkpt lat="41.470100954174995" lon="2.0936390664428473">
        <ele>120.4000015258789</ele>
        <time>2019-02-22T17:22:30.000Z</time>
      </trkpt>
      <trkpt lat="41.47012400440872" lon="2.0934239868074656">
        <ele>120.4000015258789</ele>
        <time>2019-02-22T17:22:34.000Z</time>
      </trkpt>
      <trkpt lat="41.47013330832124" lon="2.0933108311146498">
        <ele>120.4000015258789</ele>
        <time>2019-02-22T17:22:36.000Z</time>
      </trkpt>
      <trkpt lat="41.47016700357199" lon="2.0929059851914644">
        <ele>120.4000015258789</ele>
        <time>2019-02-22T17:22:43.000Z</time>
      </trkpt>
      <trkpt lat="41.47016474045813" lon="2.0928470604121685">
        <ele>120.4000015258789</ele>
        <time>2019-02-22T17:22:44.000Z</time>
      </trkpt>
      <trkpt lat="41.47017831914127" lon="2.0925461500883102">
        <ele>120.4000015258789</ele>
        <time>2019-02-22T17:22:49.000Z</time>
      </trkpt>
      <trkpt lat="41.470175636932254" lon="2.09248261526227">
        <ele>120.4000015258789</ele>
        <time>2019-02-22T17:22:50.000Z</time>
      </trkpt>
      <trkpt lat="41.4701768103987" lon="2.092417236417532">
        <ele>120.5999984741211</ele>
        <time>2019-02-22T17:22:51.000Z</time>
      </trkpt>
      <trkpt lat="41.4701733738184" lon="2.092109704390168">
        <ele>121.0</ele>
        <time>2019-02-22T17:22:56.000Z</time>
      </trkpt>
      <trkpt lat="41.47016583010554" lon="2.0920434035360813">
        <ele>121.19999694824219</ele>
        <time>2019-02-22T17:22:57.000Z</time>
      </trkpt>
      <trkpt lat="41.470150826498866" lon="2.0918612647801638">
        <ele>121.19999694824219</ele>
        <time>2019-02-22T17:23:00.000Z</time>
      </trkpt>
      <trkpt lat="41.47014915011823" lon="2.091805273666978">
        <ele>121.4000015258789</ele>
        <time>2019-02-22T17:23:01.000Z</time>
      </trkpt>
      <trkpt lat="41.470120986923575" lon="2.091332618147135">
        <ele>121.80000305175781</ele>
        <time>2019-02-22T17:23:08.000Z</time>
      </trkpt>
      <trkpt lat="41.470105396583676" lon="2.0910685043781996">
        <ele>122.4000015258789</ele>
        <time>2019-02-22T17:23:12.000Z</time>
      </trkpt>
      <trkpt lat="41.47009584121406" lon="2.0908803306519985">
        <ele>122.4000015258789</ele>
        <time>2019-02-22T17:23:15.000Z</time>
      </trkpt>
      <trkpt lat="41.47005904465914" lon="2.090781591832638">
        <ele>122.4000015258789</ele>
        <time>2019-02-22T17:23:17.000Z</time>
      </trkpt>
      <trkpt lat="41.46998830139637" lon="2.090701712295413">
        <ele>122.5999984741211</ele>
        <time>2019-02-22T17:23:19.000Z</time>
      </trkpt>
      <trkpt lat="41.469853185117245" lon="2.0905601419508457">
        <ele>123.0</ele>
        <time>2019-02-22T17:23:23.000Z</time>
      </trkpt>
      <trkpt lat="41.46980490535498" lon="2.09052711725235">
        <ele>123.5999984741211</ele>
        <time>2019-02-22T17:23:25.000Z</time>
      </trkpt>
      <trkpt lat="41.46976995281875" lon="2.0905269496142864">
        <ele>124.19999694824219</ele>
        <time>2019-02-22T17:23:27.000Z</time>
      </trkpt>
      <trkpt lat="41.46975050680339" lon="2.0905127841979265">
        <ele>124.4000015258789</ele>
        <time>2019-02-22T17:23:28.000Z</time>
      </trkpt>
      <trkpt lat="41.4697241038084" lon="2.0904686115682125">
        <ele>124.5999984741211</ele>
        <time>2019-02-22T17:23:30.000Z</time>
      </trkpt>
      <trkpt lat="41.46971966139972" lon="2.0904321502894163">
        <ele>124.80000305175781</ele>
        <time>2019-02-22T17:23:31.000Z</time>
      </trkpt>
      <trkpt lat="41.46974187344313" lon="2.0903679449111223">
        <ele>124.80000305175781</ele>
        <time>2019-02-22T17:23:33.000Z</time>
      </trkpt>
      <trkpt lat="41.46978797391057" lon="2.0903137139976025">
        <ele>124.5999984741211</ele>
        <time>2019-02-22T17:23:35.000Z</time>
      </trkpt>
      <trkpt lat="41.4698158018291" lon="2.0902821980416775">
        <ele>124.4000015258789</ele>
        <time>2019-02-22T17:23:36.000Z</time>
      </trkpt>
      <trkpt lat="41.46989408880472" lon="2.0901547092944384">
        <ele>124.19999694824219</ele>
        <time>2019-02-22T17:23:39.000Z</time>
      </trkpt>
      <trkpt lat="41.470028115436435" lon="2.0899299066513777">
        <ele>123.80000305175781</ele>
        <time>2019-02-22T17:23:44.000Z</time>
      </trkpt>
      <trkpt lat="41.47002576850355" lon="2.0898725744336843">
        <ele>123.5999984741211</ele>
        <time>2019-02-22T17:23:45.000Z</time>
      </trkpt>
      <trkpt lat="41.46998687647283" lon="2.0895497035235167">
        <ele>123.4000015258789</ele>
        <time>2019-02-22T17:23:51.000Z</time>
      </trkpt>
      <trkpt lat="41.469942620024085" lon="2.0891436841338873">
        <ele>123.5999984741211</ele>
        <time>2019-02-22T17:23:59.000Z</time>
      </trkpt>
      <trkpt lat="41.469918731600046" lon="2.088870769366622">
        <ele>124.4000015258789</ele>
        <time>2019-02-22T17:24:04.000Z</time>
      </trkpt>
      <trkpt lat="41.46990850567818" lon="2.0888096652925014">
        <ele>124.5999984741211</ele>
        <time>2019-02-22T17:24:05.000Z</time>
      </trkpt>
      <trkpt lat="41.46990288980305" lon="2.08874998614192">
        <ele>124.80000305175781</ele>
        <time>2019-02-22T17:24:06.000Z</time>
      </trkpt>
      <trkpt lat="41.469905907288194" lon="2.0884592179208994">
        <ele>125.0</ele>
        <time>2019-02-22T17:24:11.000Z</time>
      </trkpt>
      <trkpt lat="41.46988612599671" lon="2.0881599001586437">
        <ele>125.4000015258789</ele>
        <time>2019-02-22T17:24:17.000Z</time>
      </trkpt>
      <trkpt lat="41.469879085198045" lon="2.0880765840411186">
        <ele>125.80000305175781</ele>
        <time>2019-02-22T17:24:19.000Z</time>
      </trkpt>
      <trkpt lat="41.46984949707985" lon="2.08790710195899">
        <ele>126.0</ele>
        <time>2019-02-22T17:24:23.000Z</time>
      </trkpt>
      <trkpt lat="41.46980616264045" lon="2.0876464247703552">
        <ele>126.5999984741211</ele>
        <time>2019-02-22T17:24:29.000Z</time>
      </trkpt>
      <trkpt lat="41.46976609714329" lon="2.087495131418109">
        <ele>126.80000305175781</ele>
        <time>2019-02-22T17:24:32.000Z</time>
      </trkpt>
      <trkpt lat="41.46971479989588" lon="2.0873271580785513">
        <ele>127.5999984741211</ele>
        <time>2019-02-22T17:24:36.000Z</time>
      </trkpt>
      <trkpt lat="41.46963031031191" lon="2.0870943926274776">
        <ele>127.5999984741211</ele>
        <time>2019-02-22T17:24:41.000Z</time>
      </trkpt>
      <trkpt lat="41.46953986957669" lon="2.0868809055536985">
        <ele>127.80000305175781</ele>
        <time>2019-02-22T17:24:46.000Z</time>
      </trkpt>
      <trkpt lat="41.46949200890958" lon="2.0868026185780764">
        <ele>128.1999969482422</ele>
        <time>2019-02-22T17:24:49.000Z</time>
      </trkpt>
      <trkpt lat="41.46940777078271" lon="2.0866120979189873">
        <ele>128.39999389648438</ele>
        <time>2019-02-22T17:24:55.000Z</time>
      </trkpt>
      <trkpt lat="41.46927919238806" lon="2.0862881373614073">
        <ele>128.8000030517578</ele>
        <time>2019-02-22T17:25:03.000Z</time>
      </trkpt>
      <trkpt lat="41.4692232850939" lon="2.0861584693193436">
        <ele>129.0</ele>
        <time>2019-02-22T17:25:06.000Z</time>
      </trkpt>
      <trkpt lat="41.46920660510659" lon="2.086119996383786">
        <ele>129.0</ele>
        <time>2019-02-22T17:25:07.000Z</time>
      </trkpt>
      <trkpt lat="41.46912781521678" lon="2.0859687868505716">
        <ele>130.0</ele>
        <time>2019-02-22T17:25:11.000Z</time>
      </trkpt>
      <trkpt lat="41.469043577089906" lon="2.085809111595154">
        <ele>130.39999389648438</ele>
        <time>2019-02-22T17:25:16.000Z</time>
      </trkpt>
      <trkpt lat="41.46890016272664" lon="2.0854760985821486">
        <ele>130.1999969482422</ele>
        <time>2019-02-22T17:25:23.000Z</time>
      </trkpt>
      <trkpt lat="41.468730848282576" lon="2.0851333625614643">
        <ele>130.39999389648438</ele>
        <time>2019-02-22T17:25:30.000Z</time>
      </trkpt>
      <trkpt lat="41.46864015609026" lon="2.0849706698209047">
        <ele>130.8000030517578</ele>
        <time>2019-02-22T17:25:35.000Z</time>
      </trkpt>
      <trkpt lat="41.46858927793801" lon="2.084797164425254">
        <ele>130.8000030517578</ele>
        <time>2019-02-22T17:25:40.000Z</time>
      </trkpt>
      <trkpt lat="41.46850931458175" lon="2.0845695957541466">
        <ele>130.0</ele>
        <time>2019-02-22T17:25:45.000Z</time>
      </trkpt>
      <trkpt lat="41.46849129348993" lon="2.0845262613147497">
        <ele>130.0</ele>
        <time>2019-02-22T17:25:46.000Z</time>
      </trkpt>
      <trkpt lat="41.468363301828504" lon="2.0842309668660164">
        <ele>130.1999969482422</ele>
        <time>2019-02-22T17:25:53.000Z</time>
      </trkpt>
      <trkpt lat="41.46825852803886" lon="2.0841037295758724">
        <ele>130.0</ele>
        <time>2019-02-22T17:25:58.000Z</time>
      </trkpt>
      <trkpt lat="41.468217791989446" lon="2.084080930799246">
        <ele>130.0</ele>
        <time>2019-02-22T17:26:00.000Z</time>
      </trkpt>
      <trkpt lat="41.4682131819427" lon="2.0840410329401493">
        <ele>130.1999969482422</ele>
        <time>2019-02-22T17:26:02.000Z</time>
      </trkpt>
      <trkpt lat="41.468213349580765" lon="2.083937181159854">
        <ele>130.39999389648438</ele>
        <time>2019-02-22T17:26:07.000Z</time>
      </trkpt>
      <trkpt lat="41.468203626573086" lon="2.0839158073067665">
        <ele>130.1999969482422</ele>
        <time>2019-02-22T17:26:08.000Z</time>
      </trkpt>
      <trkpt lat="41.46813992410898" lon="2.0838342513889074">
        <ele>129.8000030517578</ele>
        <time>2019-02-22T17:26:11.000Z</time>
      </trkpt>
      <trkpt lat="41.46808016113937" lon="2.0836614165455103">
        <ele>130.1999969482422</ele>
        <time>2019-02-22T17:26:16.000Z</time>
      </trkpt>
      <trkpt lat="41.46800053305924" lon="2.083465363830328">
        <ele>130.60000610351562</ele>
        <time>2019-02-22T17:26:21.000Z</time>
      </trkpt>
      <trkpt lat="41.46792274899781" lon="2.0832711551338434">
        <ele>130.39999389648438</ele>
        <time>2019-02-22T17:26:26.000Z</time>
      </trkpt>
      <trkpt lat="41.46773239597678" lon="2.0829286705702543">
        <ele>130.60000610351562</ele>
        <time>2019-02-22T17:26:33.000Z</time>
      </trkpt>
      <trkpt lat="41.46769132465124" lon="2.082844013348222">
        <ele>131.0</ele>
        <time>2019-02-22T17:26:35.000Z</time>
      </trkpt>
      <trkpt lat="41.467623598873615" lon="2.0826938934624195">
        <ele>131.0</ele>
        <time>2019-02-22T17:26:39.000Z</time>
      </trkpt>
      <trkpt lat="41.46751480177045" lon="2.0824172906577587">
        <ele>131.39999389648438</ele>
        <time>2019-02-22T17:26:46.000Z</time>
      </trkpt>
      <trkpt lat="41.467380775138736" lon="2.082172455266118">
        <ele>131.39999389648438</ele>
        <time>2019-02-22T17:26:52.000Z</time>
      </trkpt>
      <trkpt lat="41.46732763387263" lon="2.0820824336260557">
        <ele>132.1999969482422</ele>
        <time>2019-02-22T17:26:56.000Z</time>
      </trkpt>
      <trkpt lat="41.46731464192271" lon="2.0820675138384104">
        <ele>132.39999389648438</ele>
        <time>2019-02-22T17:26:57.000Z</time>
      </trkpt>
      <trkpt lat="41.467297207564116" lon="2.082037003710866">
        <ele>132.60000610351562</ele>
        <time>2019-02-22T17:27:04.000Z</time>
      </trkpt>
      <trkpt lat="41.46729838103056" lon="2.082017222419381">
        <ele>132.1999969482422</ele>
        <time>2019-02-22T17:27:10.000Z</time>
      </trkpt>
      <trkpt lat="41.46729066967964" lon="2.081979000940919">
        <ele>132.1999969482422</ele>
        <time>2019-02-22T17:27:12.000Z</time>
      </trkpt>
      <trkpt lat="41.46721674129367" lon="2.081867605447769">
        <ele>131.8000030517578</ele>
        <time>2019-02-22T17:27:16.000Z</time>
      </trkpt>
      <trkpt lat="41.46706712432206" lon="2.081668870523572">
        <ele>131.60000610351562</ele>
        <time>2019-02-22T17:27:22.000Z</time>
      </trkpt>
      <trkpt lat="41.4669335167855" lon="2.081498382613063">
        <ele>132.0</ele>
        <time>2019-02-22T17:27:27.000Z</time>
      </trkpt>
      <trkpt lat="41.46690619178116" lon="2.0814634300768375">
        <ele>132.0</ele>
        <time>2019-02-22T17:27:28.000Z</time>
      </trkpt>
      <trkpt lat="41.46686436608434" lon="2.081387070938945">
        <ele>132.1999969482422</ele>
        <time>2019-02-22T17:27:31.000Z</time>
      </trkpt>
      <trkpt lat="41.46686495281756" lon="2.0813651103526354">
        <ele>132.1999969482422</ele>
        <time>2019-02-22T17:27:32.000Z</time>
      </trkpt>
      <trkpt lat="41.46686151623726" lon="2.081323117017746">
        <ele>133.0</ele>
        <time>2019-02-22T17:27:35.000Z</time>
      </trkpt>
      <trkpt lat="41.46685388870537" lon="2.0813203509896994">
        <ele>133.1999969482422</ele>
        <time>2019-02-22T17:27:36.000Z</time>
      </trkpt>
      <trkpt lat="41.466827150434256" lon="2.0812404714524746">
        <ele>133.39999389648438</ele>
        <time>2019-02-22T17:27:38.000Z</time>
      </trkpt>
      <trkpt lat="41.466812901198864" lon="2.0811968855559826">
        <ele>133.39999389648438</ele>
        <time>2019-02-22T17:27:39.000Z</time>
      </trkpt>
      <trkpt lat="41.4667971432209" lon="2.081167884171009">
        <ele>133.1999969482422</ele>
        <time>2019-02-22T17:27:40.000Z</time>
      </trkpt>
      <trkpt lat="41.46672556176782" lon="2.08112639375031">
        <ele>132.60000610351562</ele>
        <time>2019-02-22T17:27:43.000Z</time>
      </trkpt>
      <trkpt lat="41.46669748239219" lon="2.0809919480234385">
        <ele>132.39999389648438</ele>
        <time>2019-02-22T17:27:48.000Z</time>
      </trkpt>
      <trkpt lat="41.46668809466064" lon="2.080947356298566">
        <ele>132.60000610351562</ele>
        <time>2019-02-22T17:27:53.000Z</time>
      </trkpt>
      <trkpt lat="41.46668289788067" lon="2.0809333585202694">
        <ele>132.60000610351562</ele>
        <time>2019-02-22T17:27:57.000Z</time>
      </trkpt>
      <trkpt lat="41.46666965447366" lon="2.0808949694037437">
        <ele>132.8000030517578</ele>
        <time>2019-02-22T17:27:59.000Z</time>
      </trkpt>
      <trkpt lat="41.46659933030605" lon="2.080818861722946">
        <ele>132.60000610351562</ele>
        <time>2019-02-22T17:28:03.000Z</time>
      </trkpt>
      <trkpt lat="41.46658893674612" lon="2.08079949952662">
        <ele>132.60000610351562</ele>
        <time>2019-02-22T17:28:04.000Z</time>
      </trkpt>
      <trkpt lat="41.466563707217574" lon="2.080770917236805">
        <ele>132.60000610351562</ele>
        <time>2019-02-22T17:28:06.000Z</time>
      </trkpt>
      <trkpt lat="41.46654736250639" lon="2.0807504653930664">
        <ele>132.60000610351562</ele>
        <time>2019-02-22T17:28:08.000Z</time>
      </trkpt>
      <trkpt lat="41.46657678298652" lon="2.0807286724448204">
        <ele>132.60000610351562</ele>
        <time>2019-02-22T17:28:10.000Z</time>
      </trkpt>
      <trkpt lat="41.466614082455635" lon="2.080710232257843">
        <ele>132.39999389648438</ele>
        <time>2019-02-22T17:28:13.000Z</time>
      </trkpt>
      <trkpt lat="41.466652220115066" lon="2.0806627068668604">
        <ele>132.1999969482422</ele>
        <time>2019-02-22T17:28:17.000Z</time>
      </trkpt>
      <trkpt lat="41.46666839718819" lon="2.080649882555008">
        <ele>132.1999969482422</ele>
        <time>2019-02-22T17:28:18.000Z</time>
      </trkpt>
      <trkpt lat="41.46674584597349" lon="2.080611577257514">
        <ele>132.39999389648438</ele>
        <time>2019-02-22T17:28:25.000Z</time>
      </trkpt>
      <trkpt lat="41.46678431890905" lon="2.08036070689559">
        <ele>132.1999969482422</ele>
        <time>2019-02-22T17:28:31.000Z</time>
      </trkpt>
      <trkpt lat="41.46679362282157" lon="2.0803292747586966">
        <ele>132.1999969482422</ele>
        <time>2019-02-22T17:28:32.000Z</time>
      </trkpt>
      <trkpt lat="41.46679789759219" lon="2.0803001895546913">
        <ele>132.1999969482422</ele>
        <time>2019-02-22T17:28:33.000Z</time>
      </trkpt>
      <trkpt lat="41.46682882681489" lon="2.080282084643841">
        <ele>132.0</ele>
        <time>2019-02-22T17:28:36.000Z</time>
      </trkpt>
      <trkpt lat="41.4668542239815" lon="2.0802582800388336">
        <ele>131.8000030517578</ele>
        <time>2019-02-22T17:28:38.000Z</time>
      </trkpt>
      <trkpt lat="41.46687802858651" lon="2.0802314579486847">
        <ele>132.39999389648438</ele>
        <time>2019-02-22T17:28:44.000Z</time>
      </trkpt>
      <trkpt lat="41.4668750949204" lon="2.080222573131323">
        <ele>132.39999389648438</ele>
        <time>2019-02-22T17:28:48.000Z</time>
      </trkpt>
      <trkpt lat="41.46686369553208" lon="2.0802151132375">
        <ele>132.39999389648438</ele>
        <time>2019-02-22T17:28:49.000Z</time>
      </trkpt>
      <trkpt lat="41.46677509881556" lon="2.0801237504929304">
        <ele>132.39999389648438</ele>
        <time>2019-02-22T17:28:53.000Z</time>
      </trkpt>
      <trkpt lat="41.46679462864995" lon="2.0799809228628874">
        <ele>131.8000030517578</ele>
        <time>2019-02-22T17:28:57.000Z</time>
      </trkpt>
      <trkpt lat="41.4668058604002" lon="2.079707169905305">
        <ele>131.8000030517578</ele>
        <time>2019-02-22T17:29:03.000Z</time>
      </trkpt>
      <trkpt lat="41.46682086400688" lon="2.0795411244034767">
        <ele>132.0</ele>
        <time>2019-02-22T17:29:07.000Z</time>
      </trkpt>
      <trkpt lat="41.46683578379452" lon="2.079472476616502">
        <ele>132.0</ele>
        <time>2019-02-22T17:29:09.000Z</time>
      </trkpt>
      <trkpt lat="41.46684014238417" lon="2.0794322434812784">
        <ele>132.0</ele>
        <time>2019-02-22T17:29:10.000Z</time>
      </trkpt>
      <trkpt lat="41.466844165697694" lon="2.0793936029076576">
        <ele>132.0</ele>
        <time>2019-02-22T17:29:11.000Z</time>
      </trkpt>
      <trkpt lat="41.466848608106375" lon="2.079353453591466">
        <ele>132.1999969482422</ele>
        <time>2019-02-22T17:29:12.000Z</time>
      </trkpt>
      <trkpt lat="41.466858331114054" lon="2.0792410522699356">
        <ele>132.39999389648438</ele>
        <time>2019-02-22T17:29:15.000Z</time>
      </trkpt>
      <trkpt lat="41.46687366999686" lon="2.0789992343634367">
        <ele>133.0</ele>
        <time>2019-02-22T17:29:21.000Z</time>
      </trkpt>
      <trkpt lat="41.46684844046831" lon="2.078841822221875">
        <ele>133.39999389648438</ele>
        <time>2019-02-22T17:29:25.000Z</time>
      </trkpt>
      <trkpt lat="41.46683905273676" lon="2.0787575002759695">
        <ele>133.60000610351562</ele>
        <time>2019-02-22T17:29:27.000Z</time>
      </trkpt>
      <trkpt lat="41.466832933947444" lon="2.0786773692816496">
        <ele>134.0</ele>
        <time>2019-02-22T17:29:31.000Z</time>
      </trkpt>
      <trkpt lat="41.466828156262636" lon="2.0786618627607822">
        <ele>134.0</ele>
        <time>2019-02-22T17:29:36.000Z</time>
      </trkpt>
      <trkpt lat="41.46684835664928" lon="2.07867250777781">
        <ele>134.0</ele>
        <time>2019-02-22T17:29:39.000Z</time>
      </trkpt>
      <trkpt lat="41.466852966696024" lon="2.0786555763334036">
        <ele>133.8000030517578</ele>
        <time>2019-02-22T17:29:40.000Z</time>
      </trkpt>
      <trkpt lat="41.466874508187175" lon="2.0785181131213903">
        <ele>133.1999969482422</ele>
        <time>2019-02-22T17:29:44.000Z</time>
      </trkpt>
      <trkpt lat="41.46689881570637" lon="2.078311499208212">
        <ele>134.0</ele>
        <time>2019-02-22T17:29:48.000Z</time>
      </trkpt>
      <trkpt lat="41.466908287256956" lon="2.0782458689063787">
        <ele>134.0</ele>
        <time>2019-02-22T17:29:49.000Z</time>
      </trkpt>
      <trkpt lat="41.466910215094686" lon="2.078178059309721">
        <ele>134.1999969482422</ele>
        <time>2019-02-22T17:29:50.000Z</time>
      </trkpt>
      <trkpt lat="41.46692354232073" lon="2.0779853593558073">
        <ele>134.1999969482422</ele>
        <time>2019-02-22T17:29:54.000Z</time>
      </trkpt>
      <trkpt lat="41.466905772686005" lon="2.0778860338032246">
        <ele>134.39999389648438</ele>
        <time>2019-02-22T17:29:56.000Z</time>
      </trkpt>
      <trkpt lat="41.4668885897845" lon="2.077740775421262">
        <ele>134.60000610351562</ele>
        <time>2019-02-22T17:29:58.000Z</time>
      </trkpt>
      <trkpt lat="41.46688247099519" lon="2.0776746422052383">
        <ele>134.60000610351562</ele>
        <time>2019-02-22T17:29:59.000Z</time>
      </trkpt>
      <trkpt lat="41.46687517873943" lon="2.077552517876029">
        <ele>135.60000610351562</ele>
        <time>2019-02-22T17:30:02.000Z</time>
      </trkpt>
      <trkpt lat="41.46687475964427" lon="2.0774419605731964">
        <ele>137.0</ele>
        <time>2019-02-22T17:30:05.000Z</time>
      </trkpt>
      <trkpt lat="41.466858917847276" lon="2.0773432217538357">
        <ele>138.1999969482422</ele>
        <time>2019-02-22T17:30:08.000Z</time>
      </trkpt>
      <trkpt lat="41.46686738356948" lon="2.0772682037204504">
        <ele>139.1999969482422</ele>
        <time>2019-02-22T17:30:11.000Z</time>
      </trkpt>
      <trkpt lat="41.46686704829335" lon="2.0772428903728724">
        <ele>139.60000610351562</ele>
        <time>2019-02-22T17:30:12.000Z</time>
      </trkpt>
      <trkpt lat="41.46686662919819" lon="2.0771801099181175">
        <ele>140.39999389648438</ele>
        <time>2019-02-22T17:30:15.000Z</time>
      </trkpt>
      <trkpt lat="41.466864701360464" lon="2.077161753550172">
        <ele>140.60000610351562</ele>
        <time>2019-02-22T17:30:16.000Z</time>
      </trkpt>
      <trkpt lat="41.46685522980988" lon="2.0771176647394896">
        <ele>141.0</ele>
        <time>2019-02-22T17:30:18.000Z</time>
      </trkpt>
      <trkpt lat="41.466842237859964" lon="2.0769200194627047">
        <ele>141.1999969482422</ele>
        <time>2019-02-22T17:30:25.000Z</time>
      </trkpt>
      <trkpt lat="41.466822288930416" lon="2.0768134854733944">
        <ele>141.39999389648438</ele>
        <time>2019-02-22T17:30:29.000Z</time>
      </trkpt>
      <trkpt lat="41.46682237274945" lon="2.0767538901418447">
        <ele>141.60000610351562</ele>
        <time>2019-02-22T17:30:32.000Z</time>
      </trkpt>
      <trkpt lat="41.46682245656848" lon="2.076719608157873">
        <ele>141.8000030517578</ele>
        <time>2019-02-22T17:30:37.000Z</time>
      </trkpt>
      <trkpt lat="41.466802172362804" lon="2.0765861682593822">
        <ele>142.39999389648438</ele>
        <time>2019-02-22T17:30:44.000Z</time>
      </trkpt>
      <trkpt lat="41.46679747849703" lon="2.0765627827495337">
        <ele>142.60000610351562</ele>
        <time>2019-02-22T17:30:45.000Z</time>
      </trkpt>
      <trkpt lat="41.46676227450371" lon="2.0763657242059708">
        <ele>143.0</ele>
        <time>2019-02-22T17:30:52.000Z</time>
      </trkpt>
      <trkpt lat="41.4667574968189" lon="2.0762834139168262">
        <ele>143.0</ele>
        <time>2019-02-22T17:30:55.000Z</time>
      </trkpt>
      <trkpt lat="41.466748444363475" lon="2.076168330386281">
        <ele>143.1999969482422</ele>
        <time>2019-02-22T17:30:59.000Z</time>
      </trkpt>
      <trkpt lat="41.466742577031255" lon="2.076087947934866">
        <ele>143.60000610351562</ele>
        <time>2019-02-22T17:31:01.000Z</time>
      </trkpt>
      <trkpt lat="41.46675841882825" lon="2.075952496379614">
        <ele>143.60000610351562</ele>
        <time>2019-02-22T17:31:05.000Z</time>
      </trkpt>
      <trkpt lat="41.46679513156414" lon="2.075677653774619">
        <ele>143.8000030517578</ele>
        <time>2019-02-22T17:31:12.000Z</time>
      </trkpt>
      <trkpt lat="41.466805189847946" lon="2.075459137558937">
        <ele>144.0</ele>
        <time>2019-02-22T17:31:17.000Z</time>
      </trkpt>
      <trkpt lat="41.46681264974177" lon="2.0753780845552683">
        <ele>144.1999969482422</ele>
        <time>2019-02-22T17:31:19.000Z</time>
      </trkpt>
      <trkpt lat="41.46682874299586" lon="2.075210530310869">
        <ele>144.1999969482422</ele>
        <time>2019-02-22T17:31:24.000Z</time>
      </trkpt>
      <trkpt lat="41.46683142520487" lon="2.0751415472477674">
        <ele>144.0</ele>
        <time>2019-02-22T17:31:27.000Z</time>
      </trkpt>
      <trkpt lat="41.46685120649636" lon="2.075005592778325">
        <ele>144.39999389648438</ele>
        <time>2019-02-22T17:31:34.000Z</time>
      </trkpt>
      <trkpt lat="41.46689881570637" lon="2.074951697140932">
        <ele>144.0</ele>
        <time>2019-02-22T17:31:37.000Z</time>
      </trkpt>
      <trkpt lat="41.466904766857624" lon="2.074882797896862">
        <ele>144.0</ele>
        <time>2019-02-22T17:31:39.000Z</time>
      </trkpt>
      <trkpt lat="41.46688607521355" lon="2.074726978316903">
        <ele>143.60000610351562</ele>
        <time>2019-02-22T17:31:45.000Z</time>
      </trkpt>
      <trkpt lat="41.46688406355679" lon="2.0746936183422804">
        <ele>143.60000610351562</ele>
        <time>2019-02-22T17:31:46.000Z</time>
      </trkpt>
      <trkpt lat="41.466924380511045" lon="2.0746040996164083">
        <ele>143.8000030517578</ele>
        <time>2019-02-22T17:31:49.000Z</time>
      </trkpt>
      <trkpt lat="41.46700392477214" lon="2.07442338578403">
        <ele>143.60000610351562</ele>
        <time>2019-02-22T17:31:54.000Z</time>
      </trkpt>
      <trkpt lat="41.46703510545194" lon="2.07435205578804">
        <ele>143.60000610351562</ele>
        <time>2019-02-22T17:31:56.000Z</time>
      </trkpt>
      <trkpt lat="41.467091515660286" lon="2.0742003433406353">
        <ele>143.60000610351562</ele>
        <time>2019-02-22T17:31:59.000Z</time>
      </trkpt>
      <trkpt lat="41.467127557843924" lon="2.074092635884881">
        <ele>143.60000610351562</ele>
        <time>2019-02-22T17:32:01.000Z</time>
      </trkpt>
      <trkpt lat="41.467257644981146" lon="2.0737905520945787">
        <ele>142.39999389648438</ele>
        <time>2019-02-22T17:32:07.000Z</time>
      </trkpt>
      <trkpt lat="41.46735998801887" lon="2.0734795834869146">
        <ele>141.8000030517578</ele>
        <time>2019-02-22T17:32:13.000Z</time>
      </trkpt>
      <trkpt lat="41.46747482009232" lon="2.073225863277912">
        <ele>141.39999389648438</ele>
        <time>2019-02-22T17:32:20.000Z</time>
      </trkpt>
      <trkpt lat="41.467480435967445" lon="2.0732025615870953">
        <ele>141.1999969482422</ele>
        <time>2019-02-22T17:32:21.000Z</time>
      </trkpt>
      <trkpt lat="41.46749535575509" lon="2.0731247775256634">
        <ele>141.0</ele>
        <time>2019-02-22T17:32:24.000Z</time>
      </trkpt>
      <trkpt lat="41.467512119561434" lon="2.073119832202792">
        <ele>141.0</ele>
        <time>2019-02-22T17:32:25.000Z</time>
      </trkpt>
      <trkpt lat="41.46753592416644" lon="2.073116982355714">
        <ele>140.8000030517578</ele>
        <time>2019-02-22T17:32:26.000Z</time>
      </trkpt>
      <trkpt lat="41.46755746565759" lon="2.0730964466929436">
        <ele>140.8000030517578</ele>
        <time>2019-02-22T17:32:27.000Z</time>
      </trkpt>
      <trkpt lat="41.46760809235275" lon="2.0730448979884386">
        <ele>140.60000610351562</ele>
        <time>2019-02-22T17:32:29.000Z</time>
      </trkpt>
      <trkpt lat="41.46764790639281" lon="2.0727077778428793">
        <ele>140.60000610351562</ele>
        <time>2019-02-22T17:32:35.000Z</time>
      </trkpt>
      <trkpt lat="41.46770138293505" lon="2.0725177600979805">
        <ele>140.8000030517578</ele>
        <time>2019-02-22T17:32:40.000Z</time>
      </trkpt>
      <trkpt lat="41.46780556999147" lon="2.072441903874278">
        <ele>141.1999969482422</ele>
        <time>2019-02-22T17:32:45.000Z</time>
      </trkpt>
      <trkpt lat="41.46797362715006" lon="2.072408879175782">
        <ele>140.60000610351562</ele>
        <time>2019-02-22T17:32:50.000Z</time>
      </trkpt>
      <trkpt lat="41.46810187026858" lon="2.0723695680499077">
        <ele>140.1999969482422</ele>
        <time>2019-02-22T17:32:54.000Z</time>
      </trkpt>
      <trkpt lat="41.468165405094624" lon="2.072350373491645">
        <ele>140.1999969482422</ele>
        <time>2019-02-22T17:32:56.000Z</time>
      </trkpt>
      <trkpt lat="41.46829046308994" lon="2.0722948852926493">
        <ele>140.0</ele>
        <time>2019-02-22T17:33:01.000Z</time>
      </trkpt>
      <trkpt lat="41.46848919801414" lon="2.072246354073286">
        <ele>139.8000030517578</ele>
        <time>2019-02-22T17:33:07.000Z</time>
      </trkpt>
      <trkpt lat="41.468633031472564" lon="2.0722194481641054">
        <ele>139.60000610351562</ele>
        <time>2019-02-22T17:33:12.000Z</time>
      </trkpt>
      <trkpt lat="41.46873353049159" lon="2.0721587631851435">
        <ele>140.0</ele>
        <time>2019-02-22T17:33:16.000Z</time>
      </trkpt>
      <trkpt lat="41.468757251277566" lon="2.0721328631043434">
        <ele>140.1999969482422</ele>
        <time>2019-02-22T17:33:17.000Z</time>
      </trkpt>
      <trkpt lat="41.46888415329158" lon="2.072079135105014">
        <ele>140.39999389648438</ele>
        <time>2019-02-22T17:33:22.000Z</time>
      </trkpt>
      <trkpt lat="41.468980042263865" lon="2.0720036141574383">
        <ele>140.39999389648438</ele>
        <time>2019-02-22T17:33:25.000Z</time>
      </trkpt>
      <trkpt lat="41.468984903767705" lon="2.0719582680612803">
        <ele>140.1999969482422</ele>
        <time>2019-02-22T17:33:26.000Z</time>
      </trkpt>
      <trkpt lat="41.46896671503782" lon="2.071649143472314">
        <ele>139.60000610351562</ele>
        <time>2019-02-22T17:33:32.000Z</time>
      </trkpt>
      <trkpt lat="41.46892447024584" lon="2.0713780727237463">
        <ele>140.1999969482422</ele>
        <time>2019-02-22T17:33:37.000Z</time>
      </trkpt>
      <trkpt lat="41.468874681741" lon="2.071030978113413">
        <ele>140.1999969482422</ele>
        <time>2019-02-22T17:33:44.000Z</time>
      </trkpt>
      <trkpt lat="41.468829587101936" lon="2.070621270686388">
        <ele>140.60000610351562</ele>
        <time>2019-02-22T17:33:51.000Z</time>
      </trkpt>
      <trkpt lat="41.46882045082748" lon="2.0703778602182865">
        <ele>140.8000030517578</ele>
        <time>2019-02-22T17:33:55.000Z</time>
      </trkpt>
      <trkpt lat="41.46881039254367" lon="2.0702465157955885">
        <ele>140.8000030517578</ele>
        <time>2019-02-22T17:33:57.000Z</time>
      </trkpt>
      <trkpt lat="41.46873629651964" lon="2.0699148438870907">
        <ele>140.8000030517578</ele>
        <time>2019-02-22T17:34:03.000Z</time>
      </trkpt>
      <trkpt lat="41.468712743371725" lon="2.0698486268520355">
        <ele>140.8000030517578</ele>
        <time>2019-02-22T17:34:04.000Z</time>
      </trkpt>
      <trkpt lat="41.468689693138" lon="2.0695773884654045">
        <ele>140.60000610351562</ele>
        <time>2019-02-22T17:34:08.000Z</time>
      </trkpt>
      <trkpt lat="41.468705870211124" lon="2.0691074151545763">
        <ele>140.60000610351562</ele>
        <time>2019-02-22T17:34:15.000Z</time>
      </trkpt>
      <trkpt lat="41.468695141375065" lon="2.0688447263091803">
        <ele>140.1999969482422</ele>
        <time>2019-02-22T17:34:19.000Z</time>
      </trkpt>
      <trkpt lat="41.468677623197436" lon="2.068745819851756">
        <ele>140.39999389648438</ele>
        <time>2019-02-22T17:34:21.000Z</time>
      </trkpt>
      <trkpt lat="41.46867879666388" lon="2.068613637238741">
        <ele>140.8000030517578</ele>
        <time>2019-02-22T17:34:26.000Z</time>
      </trkpt>
      <trkpt lat="41.4687311835587" lon="2.0684760063886642">
        <ele>140.8000030517578</ele>
        <time>2019-02-22T17:34:32.000Z</time>
      </trkpt>
      <trkpt lat="41.468734201043844" lon="2.0682916045188904">
        <ele>141.39999389648438</ele>
        <time>2019-02-22T17:34:38.000Z</time>
      </trkpt>
      <trkpt lat="41.468729842454195" lon="2.068229913711548">
        <ele>141.8000030517578</ele>
        <time>2019-02-22T17:34:40.000Z</time>
      </trkpt>
      <trkpt lat="41.46872757934034" lon="2.0680759381502867">
        <ele>142.39999389648438</ele>
        <time>2019-02-22T17:34:45.000Z</time>
      </trkpt>
      <trkpt lat="41.46871576085687" lon="2.0679805520921946">
        <ele>143.1999969482422</ele>
        <time>2019-02-22T17:34:48.000Z</time>
      </trkpt>
      <trkpt lat="41.46870905533433" lon="2.0678877644240856">
        <ele>143.39999389648438</ele>
        <time>2019-02-22T17:34:51.000Z</time>
      </trkpt>
      <trkpt lat="41.46872699260712" lon="2.067845771089196">
        <ele>143.60000610351562</ele>
        <time>2019-02-22T17:34:53.000Z</time>
      </trkpt>
      <trkpt lat="41.468760101124644" lon="2.0678383950144053">
        <ele>143.60000610351562</ele>
        <time>2019-02-22T17:34:54.000Z</time>
      </trkpt>
      <trkpt lat="41.46884945221245" lon="2.0678186137229204">
        <ele>144.60000610351562</ele>
        <time>2019-02-22T17:34:58.000Z</time>
      </trkpt>
      <trkpt lat="41.468863701447845" lon="2.0678191166371107">
        <ele>144.8000030517578</ele>
        <time>2019-02-22T17:34:59.000Z</time>
      </trkpt>
      <trkpt lat="41.46896763704717" lon="2.067830516025424">
        <ele>144.60000610351562</ele>
        <time>2019-02-22T17:35:03.000Z</time>
      </trkpt>
      <trkpt lat="41.469032764434814" lon="2.067947778850794">
        <ele>144.0</ele>
        <time>2019-02-22T17:35:06.000Z</time>
      </trkpt>
      <trkpt lat="41.46915388293564" lon="2.0679915323853493">
        <ele>144.1999969482422</ele>
        <time>2019-02-22T17:35:10.000Z</time>
      </trkpt>
      <trkpt lat="41.46924993954599" lon="2.0679808035492897">
        <ele>144.60000610351562</ele>
        <time>2019-02-22T17:35:13.000Z</time>
      </trkpt>
      <trkpt lat="41.46934767253697" lon="2.0679722540080547">
        <ele>145.0</ele>
        <time>2019-02-22T17:35:16.000Z</time>
      </trkpt>
      <trkpt lat="41.46944507025182" lon="2.0679675601422787">
        <ele>145.8000030517578</ele>
        <time>2019-02-22T17:35:19.000Z</time>
      </trkpt>
      <trkpt lat="41.469508269801736" lon="2.0679616928100586">
        <ele>146.1999969482422</ele>
        <time>2019-02-22T17:35:21.000Z</time>
      </trkpt>
      <trkpt lat="41.46957004442811" lon="2.06794953905046">
        <ele>146.60000610351562</ele>
        <time>2019-02-22T17:35:23.000Z</time>
      </trkpt>
      <trkpt lat="41.46960315294564" lon="2.067950125783682">
        <ele>146.60000610351562</ele>
        <time>2019-02-22T17:35:24.000Z</time>
      </trkpt>
      <trkpt lat="41.469626454636455" lon="2.067954232916236">
        <ele>146.8000030517578</ele>
        <time>2019-02-22T17:35:25.000Z</time>
      </trkpt>
      <trkpt lat="41.46972829475999" lon="2.067947778850794">
        <ele>147.39999389648438</ele>
        <time>2019-02-22T17:35:29.000Z</time>
      </trkpt>
      <trkpt lat="41.46981144323945" lon="2.0679381396621466">
        <ele>147.8000030517578</ele>
        <time>2019-02-22T17:35:32.000Z</time>
      </trkpt>
      <trkpt lat="41.46984086371958" lon="2.067931517958641">
        <ele>148.0</ele>
        <time>2019-02-22T17:35:33.000Z</time>
      </trkpt>
      <trkpt lat="41.470032976940274" lon="2.0679331943392754">
        <ele>148.8000030517578</ele>
        <time>2019-02-22T17:35:39.000Z</time>
      </trkpt>
      <trkpt lat="41.47009743377566" lon="2.0679310988634825">
        <ele>149.0</ele>
        <time>2019-02-22T17:35:41.000Z</time>
      </trkpt>
      <trkpt lat="41.470289044082165" lon="2.0679258182644844">
        <ele>150.1999969482422</ele>
        <time>2019-02-22T17:35:47.000Z</time>
      </trkpt>
      <trkpt lat="41.47051367908716" lon="2.067906456068158">
        <ele>150.8000030517578</ele>
        <time>2019-02-22T17:35:54.000Z</time>
      </trkpt>
      <trkpt lat="41.470585176721215" lon="2.067856751382351">
        <ele>151.39999389648438</ele>
        <time>2019-02-22T17:35:57.000Z</time>
      </trkpt>
      <trkpt lat="41.4705893676728" lon="2.06782397814095">
        <ele>151.39999389648438</ele>
        <time>2019-02-22T17:35:58.000Z</time>
      </trkpt>
      <trkpt lat="41.470611998811364" lon="2.067563971504569">
        <ele>151.1999969482422</ele>
        <time>2019-02-22T17:36:04.000Z</time>
      </trkpt>
      <trkpt lat="41.470633959397674" lon="2.067473279312253">
        <ele>151.1999969482422</ele>
        <time>2019-02-22T17:36:08.000Z</time>
      </trkpt>
      <trkpt lat="41.47069095633924" lon="2.0674549229443073">
        <ele>151.39999389648438</ele>
        <time>2019-02-22T17:36:12.000Z</time>
      </trkpt>
      <trkpt lat="41.47073982283473" lon="2.067443272098899">
        <ele>151.39999389648438</ele>
        <time>2019-02-22T17:36:14.000Z</time>
      </trkpt>
      <trkpt lat="41.47078977897763" lon="2.067414103075862">
        <ele>151.1999969482422</ele>
        <time>2019-02-22T17:36:16.000Z</time>
      </trkpt>
      <trkpt lat="41.47080780006945" lon="2.067351657897234">
        <ele>151.1999969482422</ele>
        <time>2019-02-22T17:36:18.000Z</time>
      </trkpt>
      <trkpt lat="41.470822133123875" lon="2.067264234647155">
        <ele>151.1999969482422</ele>
        <time>2019-02-22T17:36:20.000Z</time>
      </trkpt>
      <trkpt lat="41.47082867100835" lon="2.0670769829303026">
        <ele>151.0</ele>
        <time>2019-02-22T17:36:24.000Z</time>
      </trkpt>
      <trkpt lat="41.47082129493356" lon="2.066784705966711">
        <ele>150.8000030517578</ele>
        <time>2019-02-22T17:36:30.000Z</time>
      </trkpt>
      <trkpt lat="41.47078030742705" lon="2.066473988816142">
        <ele>150.39999389648438</ele>
        <time>2019-02-22T17:36:38.000Z</time>
      </trkpt>
      <trkpt lat="41.470774775370955" lon="2.066439287737012">
        <ele>150.1999969482422</ele>
        <time>2019-02-22T17:36:39.000Z</time>
      </trkpt>
      <trkpt lat="41.47075801156461" lon="2.0663356874138117">
        <ele>150.1999969482422</ele>
        <time>2019-02-22T17:36:42.000Z</time>
      </trkpt>
      <trkpt lat="41.47074610926211" lon="2.066187160089612">
        <ele>150.39999389648438</ele>
        <time>2019-02-22T17:36:46.000Z</time>
      </trkpt>
      <trkpt lat="41.470742002129555" lon="2.0660503674298525">
        <ele>150.1999969482422</ele>
        <time>2019-02-22T17:36:50.000Z</time>
      </trkpt>
      <trkpt lat="41.47073504514992" lon="2.0659258123487234">
        <ele>150.1999969482422</ele>
        <time>2019-02-22T17:36:54.000Z</time>
      </trkpt>
      <trkpt lat="41.47073504514992" lon="2.0657595153898">
        <ele>150.0</ele>
        <time>2019-02-22T17:36:59.000Z</time>
      </trkpt>
      <trkpt lat="41.47077552974224" lon="2.0657070446759462">
        <ele>150.0</ele>
        <time>2019-02-22T17:37:02.000Z</time>
      </trkpt>
      <trkpt lat="41.47085381671786" lon="2.065720036625862">
        <ele>149.8000030517578</ele>
        <time>2019-02-22T17:37:05.000Z</time>
      </trkpt>
      <trkpt lat="41.47088751196861" lon="2.065730346366763">
        <ele>149.60000610351562</ele>
        <time>2019-02-22T17:37:06.000Z</time>
      </trkpt>
      <trkpt lat="41.4710486959666" lon="2.065783403813839">
        <ele>149.39999389648438</ele>
        <time>2019-02-22T17:37:11.000Z</time>
      </trkpt>
      <trkpt lat="41.47114341147244" lon="2.065796060487628">
        <ele>149.39999389648438</ele>
        <time>2019-02-22T17:37:14.000Z</time>
      </trkpt>
      <trkpt lat="41.47133745253086" lon="2.065823720768094">
        <ele>150.39999389648438</ele>
        <time>2019-02-22T17:37:20.000Z</time>
      </trkpt>
      <trkpt lat="41.47148941643536" lon="2.065842831507325">
        <ele>151.39999389648438</ele>
        <time>2019-02-22T17:37:24.000Z</time>
      </trkpt>
      <trkpt lat="41.4715841319412" lon="2.0658518839627504">
        <ele>151.8000030517578</ele>
        <time>2019-02-22T17:37:27.000Z</time>
      </trkpt>
      <trkpt lat="41.47166384384036" lon="2.065858840942383">
        <ele>152.60000610351562</ele>
        <time>2019-02-22T17:37:30.000Z</time>
      </trkpt>
      <trkpt lat="41.47169309668243" lon="2.065861439332366">
        <ele>152.8000030517578</ele>
        <time>2019-02-22T17:37:31.000Z</time>
      </trkpt>
      <trkpt lat="41.47183500230312" lon="2.0658734254539013">
        <ele>153.8000030517578</ele>
        <time>2019-02-22T17:37:35.000Z</time>
      </trkpt>
      <trkpt lat="41.47201135754585" lon="2.0658748503774405">
        <ele>155.0</ele>
        <time>2019-02-22T17:37:40.000Z</time>
      </trkpt>
      <trkpt lat="41.47210992872715" lon="2.0658727549016476">
        <ele>156.0</ele>
        <time>2019-02-22T17:37:43.000Z</time>
      </trkpt>
      <trkpt lat="41.472196681424975" lon="2.065855823457241">
        <ele>156.8000030517578</ele>
        <time>2019-02-22T17:37:46.000Z</time>
      </trkpt>
      <trkpt lat="41.47225644439459" lon="2.0658373832702637">
        <ele>157.0</ele>
        <time>2019-02-22T17:37:48.000Z</time>
      </trkpt>
      <trkpt lat="41.47228133864701" lon="2.0658277440816164">
        <ele>157.0</ele>
        <time>2019-02-22T17:37:49.000Z</time>
      </trkpt>
      <trkpt lat="41.47231662645936" lon="2.0658176857978106">
        <ele>157.1999969482422</ele>
        <time>2019-02-22T17:37:50.000Z</time>
      </trkpt>
      <trkpt lat="41.47246305830777" lon="2.0658194459974766">
        <ele>158.0</ele>
        <time>2019-02-22T17:37:54.000Z</time>
      </trkpt>
      <trkpt lat="41.472486443817616" lon="2.065838724374771">
        <ele>158.39999389648438</ele>
        <time>2019-02-22T17:37:55.000Z</time>
      </trkpt>
      <trkpt lat="41.47250723093748" lon="2.065850542858243">
        <ele>158.60000610351562</ele>
        <time>2019-02-22T17:37:56.000Z</time>
      </trkpt>
      <trkpt lat="41.47256473079324" lon="2.0658311806619167">
        <ele>159.1999969482422</ele>
        <time>2019-02-22T17:37:59.000Z</time>
      </trkpt>
      <trkpt lat="41.47267336025834" lon="2.0657984912395477">
        <ele>160.60000610351562</ele>
        <time>2019-02-22T17:38:05.000Z</time>
      </trkpt>
      <trkpt lat="41.47274418734014" lon="2.0657711662352085">
        <ele>161.39999389648438</ele>
        <time>2019-02-22T17:38:09.000Z</time>
      </trkpt>
      <trkpt lat="41.47275240160525" lon="2.0657293405383825">
        <ele>161.60000610351562</ele>
        <time>2019-02-22T17:38:11.000Z</time>
      </trkpt>
      <trkpt lat="41.4728669822216" lon="2.0656148437410593">
        <ele>162.39999389648438</ele>
        <time>2019-02-22T17:38:16.000Z</time>
      </trkpt>
      <trkpt lat="41.47291291505098" lon="2.065627248957753">
        <ele>162.8000030517578</ele>
        <time>2019-02-22T17:38:18.000Z</time>
      </trkpt>
      <trkpt lat="41.472985250875354" lon="2.0656091440469027">
        <ele>163.1999969482422</ele>
        <time>2019-02-22T17:38:21.000Z</time>
      </trkpt>
      <trkpt lat="41.473115338012576" lon="2.06559631973505">
        <ele>163.8000030517578</ele>
        <time>2019-02-22T17:38:27.000Z</time>
      </trkpt>
      <trkpt lat="41.47315984591842" lon="2.0655777119100094">
        <ele>164.0</ele>
        <time>2019-02-22T17:38:29.000Z</time>
      </trkpt>
      <trkpt lat="41.47322413511574" lon="2.065531862899661">
        <ele>164.39999389648438</ele>
        <time>2019-02-22T17:38:32.000Z</time>
      </trkpt>
      <trkpt lat="41.47337551228702" lon="2.065463298931718">
        <ele>164.39999389648438</ele>
        <time>2019-02-22T17:38:38.000Z</time>
      </trkpt>
      <trkpt lat="41.47349118255079" lon="2.065434632822871">
        <ele>165.0</ele>
        <time>2019-02-22T17:38:44.000Z</time>
      </trkpt>
      <trkpt lat="41.47351624444127" lon="2.06543798558414">
        <ele>165.0</ele>
        <time>2019-02-22T17:38:45.000Z</time>
      </trkpt>
      <trkpt lat="41.47360718809068" lon="2.065433459356427">
        <ele>165.39999389648438</ele>
        <time>2019-02-22T17:38:50.000Z</time>
      </trkpt>
      <trkpt lat="41.473691426217556" lon="2.0653597824275494">
        <ele>165.60000610351562</ele>
        <time>2019-02-22T17:38:55.000Z</time>
      </trkpt>
      <trkpt lat="41.47370986640453" lon="2.0653494726866484">
        <ele>165.60000610351562</ele>
        <time>2019-02-22T17:38:56.000Z</time>
      </trkpt>
      <trkpt lat="41.47382880561054" lon="2.065304880961776">
        <ele>165.8000030517578</ele>
        <time>2019-02-22T17:39:02.000Z</time>
      </trkpt>
      <trkpt lat="41.47398144006729" lon="2.0653111673891544">
        <ele>166.0</ele>
        <time>2019-02-22T17:39:06.000Z</time>
      </trkpt>
      <trkpt lat="41.47402100265026" lon="2.0653102453798056">
        <ele>166.1999969482422</ele>
        <time>2019-02-22T17:39:07.000Z</time>
      </trkpt>
      <trkpt lat="41.47421018220484" lon="2.0653032045811415">
        <ele>166.1999969482422</ele>
        <time>2019-02-22T17:39:14.000Z</time>
      </trkpt>
      <trkpt lat="41.47428679279983" lon="2.0652057230472565">
        <ele>166.1999969482422</ele>
        <time>2019-02-22T17:39:18.000Z</time>
      </trkpt>
      <trkpt lat="41.474280674010515" lon="2.0649915654212236">
        <ele>166.39999389648438</ele>
        <time>2019-02-22T17:39:23.000Z</time>
      </trkpt>
      <trkpt lat="41.47424957714975" lon="2.0647821854799986">
        <ele>167.1999969482422</ele>
        <time>2019-02-22T17:39:28.000Z</time>
      </trkpt>
      <trkpt lat="41.47423708811402" lon="2.0646971091628075">
        <ele>167.39999389648438</ele>
        <time>2019-02-22T17:39:30.000Z</time>
      </trkpt>
      <trkpt lat="41.4741986989975" lon="2.0644856337457895">
        <ele>167.8000030517578</ele>
        <time>2019-02-22T17:39:35.000Z</time>
      </trkpt>
      <trkpt lat="41.47418964654207" lon="2.0644421316683292">
        <ele>167.8000030517578</ele>
        <time>2019-02-22T17:39:36.000Z</time>
      </trkpt>
      <trkpt lat="41.47409870289266" lon="2.064001075923443">
        <ele>167.60000610351562</ele>
        <time>2019-02-22T17:39:45.000Z</time>
      </trkpt>
      <trkpt lat="41.47398688830435" lon="2.0635373052209616">
        <ele>166.60000610351562</ele>
        <time>2019-02-22T17:39:52.000Z</time>
      </trkpt>
      <trkpt lat="41.4739566296339" lon="2.0634036976844072">
        <ele>166.60000610351562</ele>
        <time>2019-02-22T17:39:54.000Z</time>
      </trkpt>
      <trkpt lat="41.47389963269234" lon="2.0632204692810774">
        <ele>166.60000610351562</ele>
        <time>2019-02-22T17:39:57.000Z</time>
      </trkpt>
      <trkpt lat="41.47388454526663" lon="2.0631609577685595">
        <ele>166.8000030517578</ele>
        <time>2019-02-22T17:39:58.000Z</time>
      </trkpt>
      <trkpt lat="41.473822351545095" lon="2.062890725210309">
        <ele>167.39999389648438</ele>
        <time>2019-02-22T17:40:03.000Z</time>
      </trkpt>
      <trkpt lat="41.47370140068233" lon="2.062528459355235">
        <ele>168.39999389648438</ele>
        <time>2019-02-22T17:40:10.000Z</time>
      </trkpt>
      <trkpt lat="41.473662089556456" lon="2.0624284632503986">
        <ele>168.60000610351562</ele>
        <time>2019-02-22T17:40:12.000Z</time>
      </trkpt>
      <trkpt lat="41.47355630993843" lon="2.06217004917562">
        <ele>169.1999969482422</ele>
        <time>2019-02-22T17:40:18.000Z</time>
      </trkpt>
      <trkpt lat="41.473473915830255" lon="2.0620612520724535">
        <ele>169.60000610351562</ele>
        <time>2019-02-22T17:40:22.000Z</time>
      </trkpt>
      <trkpt lat="41.47343695163727" lon="2.0620099548250437">
        <ele>169.8000030517578</ele>
        <time>2019-02-22T17:40:24.000Z</time>
      </trkpt>
      <trkpt lat="41.47342530079186" lon="2.061982210725546">
        <ele>169.8000030517578</ele>
        <time>2019-02-22T17:40:25.000Z</time>
      </trkpt>
      <trkpt lat="41.473435778170824" lon="2.0619302429258823">
        <ele>170.0</ele>
        <time>2019-02-22T17:40:27.000Z</time>
      </trkpt>
      <trkpt lat="41.47345706820488" lon="2.0619237050414085">
        <ele>170.0</ele>
        <time>2019-02-22T17:40:28.000Z</time>
      </trkpt>
      <trkpt lat="41.47357634268701" lon="2.061892105266452">
        <ele>170.0</ele>
        <time>2019-02-22T17:40:34.000Z</time>
      </trkpt>
      <trkpt lat="41.473645996302366" lon="2.0618584100157022">
        <ele>170.0</ele>
        <time>2019-02-22T17:40:37.000Z</time>
      </trkpt>
      <trkpt lat="41.4737116266042" lon="2.061806106939912">
        <ele>170.0</ele>
        <time>2019-02-22T17:40:40.000Z</time>
      </trkpt>
      <trkpt lat="41.47373953834176" lon="2.0617852360010147">
        <ele>169.8000030517578</ele>
        <time>2019-02-22T17:40:41.000Z</time>
      </trkpt>
      <trkpt lat="41.47391337901354" lon="2.0616622734814882">
        <ele>169.39999389648438</ele>
        <time>2019-02-22T17:40:46.000Z</time>
      </trkpt>
      <trkpt lat="41.474046064540744" lon="2.06149916164577">
        <ele>169.0</ele>
        <time>2019-02-22T17:40:51.000Z</time>
      </trkpt>
      <trkpt lat="41.47411630488932" lon="2.0614188630133867">
        <ele>168.8000030517578</ele>
        <time>2019-02-22T17:40:53.000Z</time>
      </trkpt>
      <trkpt lat="41.47418327629566" lon="2.0613402407616377">
        <ele>168.60000610351562</ele>
        <time>2019-02-22T17:40:55.000Z</time>
      </trkpt>
      <trkpt lat="41.47427078336477" lon="2.0612755324691534">
        <ele>167.8000030517578</ele>
        <time>2019-02-22T17:40:57.000Z</time>
      </trkpt>
      <trkpt lat="41.47433909587562" lon="2.0612351316958666">
        <ele>167.39999389648438</ele>
        <time>2019-02-22T17:40:59.000Z</time>
      </trkpt>
      <trkpt lat="41.474412605166435" lon="2.061191713437438">
        <ele>167.39999389648438</ele>
        <time>2019-02-22T17:41:01.000Z</time>
      </trkpt>
      <trkpt lat="41.474556690081954" lon="2.061085095629096">
        <ele>167.60000610351562</ele>
        <time>2019-02-22T17:41:07.000Z</time>
      </trkpt>
      <trkpt lat="41.474658362567425" lon="2.061044108122587">
        <ele>167.1999969482422</ele>
        <time>2019-02-22T17:41:11.000Z</time>
      </trkpt>
      <trkpt lat="41.47470404393971" lon="2.0610325410962105">
        <ele>167.0</ele>
        <time>2019-02-22T17:41:13.000Z</time>
      </trkpt>
      <trkpt lat="41.47478652186692" lon="2.061019716784358">
        <ele>166.8000030517578</ele>
        <time>2019-02-22T17:41:18.000Z</time>
      </trkpt>
      <trkpt lat="41.47485684603453" lon="2.0610236562788486">
        <ele>166.8000030517578</ele>
        <time>2019-02-22T17:41:21.000Z</time>
      </trkpt>
      <trkpt lat="41.47487905807793" lon="2.061063051223755">
        <ele>166.8000030517578</ele>
        <time>2019-02-22T17:41:23.000Z</time>
      </trkpt>
      <trkpt lat="41.474900264292955" lon="2.061121640726924">
        <ele>166.8000030517578</ele>
        <time>2019-02-22T17:41:25.000Z</time>
      </trkpt>
      <trkpt lat="41.474937815219164" lon="2.061193222180009">
        <ele>166.39999389648438</ele>
        <time>2019-02-22T17:41:27.000Z</time>
      </trkpt>
      <trkpt lat="41.47495047189295" lon="2.0612306892871857">
        <ele>166.1999969482422</ele>
        <time>2019-02-22T17:41:28.000Z</time>
      </trkpt>
      <trkpt lat="41.4749910403043" lon="2.0613553281873465">
        <ele>166.0</ele>
        <time>2019-02-22T17:41:31.000Z</time>
      </trkpt>
      <trkpt lat="41.475009731948376" lon="2.0614324416965246">
        <ele>165.8000030517578</ele>
        <time>2019-02-22T17:41:33.000Z</time>
      </trkpt>
      <trkpt lat="41.475064884871244" lon="2.0617234613746405">
        <ele>166.1999969482422</ele>
        <time>2019-02-22T17:41:40.000Z</time>
      </trkpt>
      <trkpt lat="41.475181728601456" lon="2.0619890838861465">
        <ele>166.1999969482422</ele>
        <time>2019-02-22T17:41:46.000Z</time>
      </trkpt>
      <trkpt lat="41.47538230754435" lon="2.0621034130454063">
        <ele>166.39999389648438</ele>
        <time>2019-02-22T17:41:51.000Z</time>
      </trkpt>
      <trkpt lat="41.47554500028491" lon="2.062096120789647">
        <ele>166.39999389648438</ele>
        <time>2019-02-22T17:41:56.000Z</time>
      </trkpt>
      <trkpt lat="41.475749937817454" lon="2.062099138274789">
        <ele>166.39999389648438</ele>
        <time>2019-02-22T17:42:01.000Z</time>
      </trkpt>
      <trkpt lat="41.47599804215133" lon="2.0619699731469154">
        <ele>167.60000610351562</ele>
        <time>2019-02-22T17:42:10.000Z</time>
      </trkpt>
      <trkpt lat="41.4760772511363" lon="2.0619549695402384">
        <ele>169.0</ele>
        <time>2019-02-22T17:42:13.000Z</time>
      </trkpt>
      <trkpt lat="41.47612150758505" lon="2.061968883499503">
        <ele>169.8000030517578</ele>
        <time>2019-02-22T17:42:15.000Z</time>
      </trkpt>
      <trkpt lat="41.47614078596234" lon="2.0619697216898203">
        <ele>170.0</ele>
        <time>2019-02-22T17:42:16.000Z</time>
      </trkpt>
      <trkpt lat="41.476221503689885" lon="2.0620164088904858">
        <ele>170.39999389648438</ele>
        <time>2019-02-22T17:42:20.000Z</time>
      </trkpt>
      <trkpt lat="41.47620767354965" lon="2.0620804466307163">
        <ele>171.1999969482422</ele>
        <time>2019-02-22T17:42:23.000Z</time>
      </trkpt>
      <trkpt lat="41.47620105184615" lon="2.0620988868176937">
        <ele>171.8000030517578</ele>
        <time>2019-02-22T17:42:24.000Z</time>
      </trkpt>
      <trkpt lat="41.47618940100074" lon="2.0621428918093443">
        <ele>172.60000610351562</ele>
        <time>2019-02-22T17:42:26.000Z</time>
      </trkpt>
      <trkpt lat="41.476176995784044" lon="2.0621847175061703">
        <ele>173.60000610351562</ele>
        <time>2019-02-22T17:42:28.000Z</time>
      </trkpt>
      <trkpt lat="41.476187305524945" lon="2.06222134642303">
        <ele>174.60000610351562</ele>
        <time>2019-02-22T17:42:30.000Z</time>
      </trkpt>
      <trkpt lat="41.476197028532624" lon="2.062246073037386">
        <ele>175.0</ele>
        <time>2019-02-22T17:42:31.000Z</time>
      </trkpt>
      <trkpt lat="41.47623407654464" lon="2.0623525232076645">
        <ele>175.60000610351562</ele>
        <time>2019-02-22T17:42:34.000Z</time>
      </trkpt>
      <trkpt lat="41.47625444456935" lon="2.062409268692136">
        <ele>175.8000030517578</ele>
        <time>2019-02-22T17:42:36.000Z</time>
      </trkpt>
      <trkpt lat="41.476267855614424" lon="2.0624367613345385">
        <ele>175.8000030517578</ele>
        <time>2019-02-22T17:42:37.000Z</time>
      </trkpt>
      <trkpt lat="41.47629216313362" lon="2.0624868851155043">
        <ele>176.0</ele>
        <time>2019-02-22T17:42:39.000Z</time>
      </trkpt>
      <trkpt lat="41.47629543207586" lon="2.062546983361244">
        <ele>176.0</ele>
        <time>2019-02-22T17:42:41.000Z</time>
      </trkpt>
      <trkpt lat="41.47629551589489" lon="2.0625759847462177">
        <ele>176.1999969482422</ele>
        <time>2019-02-22T17:42:42.000Z</time>
      </trkpt>
      <trkpt lat="41.47624807432294" lon="2.0626119431108236">
        <ele>177.1999969482422</ele>
        <time>2019-02-22T17:42:47.000Z</time>
      </trkpt>
      <trkpt lat="41.4761966932565" lon="2.0626175589859486">
        <ele>178.39999389648438</ele>
        <time>2019-02-22T17:42:51.000Z</time>
      </trkpt>
      <trkpt lat="41.47617196664214" lon="2.062616553157568">
        <ele>179.39999389648438</ele>
        <time>2019-02-22T17:42:54.000Z</time>
      </trkpt>
      <trkpt lat="41.47616375237703" lon="2.0626163855195045">
        <ele>179.60000610351562</ele>
        <time>2019-02-22T17:42:55.000Z</time>
      </trkpt>
      <trkpt lat="41.4761324878782" lon="2.062631892040372">
        <ele>180.8000030517578</ele>
        <time>2019-02-22T17:42:58.000Z</time>
      </trkpt>
      <trkpt lat="41.476118909195065" lon="2.062636921182275">
        <ele>181.1999969482422</ele>
        <time>2019-02-22T17:42:59.000Z</time>
      </trkpt>
      <trkpt lat="41.47607264108956" lon="2.0626661740243435">
        <ele>182.0</ele>
        <time>2019-02-22T17:43:02.000Z</time>
      </trkpt>
      <trkpt lat="41.475998209789395" lon="2.062689559534192">
        <ele>183.0</ele>
        <time>2019-02-22T17:43:06.000Z</time>
      </trkpt>
      <trkpt lat="41.475933166220784" lon="2.062733480706811">
        <ele>183.8000030517578</ele>
        <time>2019-02-22T17:43:11.000Z</time>
      </trkpt>
      <trkpt lat="41.47590408101678" lon="2.062757033854723">
        <ele>184.0</ele>
        <time>2019-02-22T17:43:13.000Z</time>
      </trkpt>
      <trkpt lat="41.47589041851461" lon="2.062766505405307">
        <ele>184.1999969482422</ele>
        <time>2019-02-22T17:43:14.000Z</time>
      </trkpt>
      <trkpt lat="41.47587591782212" lon="2.062786119058728">
        <ele>184.1999969482422</ele>
        <time>2019-02-22T17:43:16.000Z</time>
      </trkpt>
      <trkpt lat="41.47587759420276" lon="2.0628063194453716">
        <ele>184.1999969482422</ele>
        <time>2019-02-22T17:43:18.000Z</time>
      </trkpt>
      <trkpt lat="41.47588765248656" lon="2.0628169644623995">
        <ele>184.1999969482422</ele>
        <time>2019-02-22T17:43:19.000Z</time>
      </trkpt>
      <trkpt lat="41.4759599044919" lon="2.0628395956009626">
        <ele>185.1999969482422</ele>
        <time>2019-02-22T17:43:24.000Z</time>
      </trkpt>
      <trkpt lat="41.475991336628795" lon="2.0628504920750856">
        <ele>185.60000610351562</ele>
        <time>2019-02-22T17:43:26.000Z</time>
      </trkpt>
      <trkpt lat="41.4760029874742" lon="2.062860717996955">
        <ele>185.8000030517578</ele>
        <time>2019-02-22T17:43:27.000Z</time>
      </trkpt>
      <trkpt lat="41.47601346485317" lon="2.0628953352570534">
        <ele>186.39999389648438</ele>
        <time>2019-02-22T17:43:29.000Z</time>
      </trkpt>
      <trkpt lat="41.47601363249123" lon="2.0629095006734133">
        <ele>186.60000610351562</ele>
        <time>2019-02-22T17:43:30.000Z</time>
      </trkpt>
      <trkpt lat="41.47601371631026" lon="2.062921989709139">
        <ele>186.8000030517578</ele>
        <time>2019-02-22T17:43:31.000Z</time>
      </trkpt>
      <trkpt lat="41.476009441539645" lon="2.062935819849372">
        <ele>187.0</ele>
        <time>2019-02-22T17:43:32.000Z</time>
      </trkpt>
      <trkpt lat="41.475996784865856" lon="2.0629612170159817">
        <ele>187.60000610351562</ele>
        <time>2019-02-22T17:43:34.000Z</time>
      </trkpt>
      <trkpt lat="41.47598722949624" lon="2.063022656366229">
        <ele>188.1999969482422</ele>
        <time>2019-02-22T17:43:37.000Z</time>
      </trkpt>
      <trkpt lat="41.475990414619446" lon="2.0630628895014524">
        <ele>188.8000030517578</ele>
        <time>2019-02-22T17:43:39.000Z</time>
      </trkpt>
      <trkpt lat="41.475990917533636" lon="2.063146708533168">
        <ele>189.8000030517578</ele>
        <time>2019-02-22T17:43:44.000Z</time>
      </trkpt>
      <trkpt lat="41.475988486781716" lon="2.063177553936839">
        <ele>190.39999389648438</ele>
        <time>2019-02-22T17:43:46.000Z</time>
      </trkpt>
      <trkpt lat="41.475982116535306" lon="2.0632089022547007">
        <ele>190.8000030517578</ele>
        <time>2019-02-22T17:43:48.000Z</time>
      </trkpt>
      <trkpt lat="41.4759773388505" lon="2.0632239058613777">
        <ele>191.0</ele>
        <time>2019-02-22T17:43:49.000Z</time>
      </trkpt>
      <trkpt lat="41.47597700357437" lon="2.063237065449357">
        <ele>191.0</ele>
        <time>2019-02-22T17:43:50.000Z</time>
      </trkpt>
      <trkpt lat="41.475976249203086" lon="2.0632584393024445">
        <ele>191.1999969482422</ele>
        <time>2019-02-22T17:43:52.000Z</time>
      </trkpt>
      <trkpt lat="41.47596065886319" lon="2.0633137598633766">
        <ele>191.39999389648438</ele>
        <time>2019-02-22T17:43:56.000Z</time>
      </trkpt>
      <trkpt lat="41.475942973047495" lon="2.0633223094046116">
        <ele>191.39999389648438</ele>
        <time>2019-02-22T17:43:58.000Z</time>
      </trkpt>
      <trkpt lat="41.47592947818339" lon="2.0633246563374996">
        <ele>191.60000610351562</ele>
        <time>2019-02-22T17:43:59.000Z</time>
      </trkpt>
      <trkpt lat="41.475919084623456" lon="2.063327841460705">
        <ele>192.0</ele>
        <time>2019-02-22T17:44:01.000Z</time>
      </trkpt>
      <trkpt lat="41.475913636386395" lon="2.063338737934828">
        <ele>192.1999969482422</ele>
        <time>2019-02-22T17:44:04.000Z</time>
      </trkpt>
      <trkpt lat="41.47589226253331" lon="2.0633423421531916">
        <ele>192.60000610351562</ele>
        <time>2019-02-22T17:44:07.000Z</time>
      </trkpt>
      <trkpt lat="41.4758737385273" lon="2.0633453596383333">
        <ele>192.8000030517578</ele>
        <time>2019-02-22T17:44:10.000Z</time>
      </trkpt>
      <trkpt lat="41.47586787119508" lon="2.0633499696850777">
        <ele>193.0</ele>
        <time>2019-02-22T17:44:11.000Z</time>
      </trkpt>
      <trkpt lat="41.47586124949157" lon="2.0633570943027735">
        <ele>193.1999969482422</ele>
        <time>2019-02-22T17:44:12.000Z</time>
      </trkpt>
      <trkpt lat="41.47582160308957" lon="2.0633841678500175">
        <ele>193.8000030517578</ele>
        <time>2019-02-22T17:44:17.000Z</time>
      </trkpt>
      <trkpt lat="41.47577508352697" lon="2.0634188689291477">
        <ele>193.8000030517578</ele>
        <time>2019-02-22T17:44:22.000Z</time>
      </trkpt>
      <trkpt lat="41.4757579844445" lon="2.063432615250349">
        <ele>194.0</ele>
        <time>2019-02-22T17:44:24.000Z</time>
      </trkpt>
      <trkpt lat="41.475727558135986" lon="2.0634819008409977">
        <ele>194.0</ele>
        <time>2019-02-22T17:44:30.000Z</time>
      </trkpt>
      <trkpt lat="41.47572588175535" lon="2.0634686574339867">
        <ele>193.8000030517578</ele>
        <time>2019-02-22T17:44:35.000Z</time>
      </trkpt>
      <trkpt lat="41.47573225200176" lon="2.0634837448596954">
        <ele>193.8000030517578</ele>
        <time>2019-02-22T17:45:40.000Z</time>
      </trkpt>
      <trkpt lat="41.47573166526854" lon="2.0634825713932514">
        <ele>193.8000030517578</ele>
        <time>2019-02-22T17:45:41.000Z</time>
      </trkpt>
      <trkpt lat="41.475742142647505" lon="2.0635031908750534">
        <ele>194.0</ele>
        <time>2019-02-22T17:45:46.000Z</time>
      </trkpt>
      <trkpt lat="41.47572772577405" lon="2.0635048672556877">
        <ele>194.0</ele>
        <time>2019-02-22T17:45:47.000Z</time>
      </trkpt>
      <trkpt lat="41.475718170404434" lon="2.0635135006159544">
        <ele>194.1999969482422</ele>
        <time>2019-02-22T17:45:48.000Z</time>
      </trkpt>
      <trkpt lat="41.47564323619008" lon="2.06353772431612">
        <ele>194.1999969482422</ele>
        <time>2019-02-22T17:45:52.000Z</time>
      </trkpt>
      <trkpt lat="41.47554156370461" lon="2.0635799691081047">
        <ele>193.0</ele>
        <time>2019-02-22T17:45:58.000Z</time>
      </trkpt>
      <trkpt lat="41.475523207336664" lon="2.0636206213384867">
        <ele>192.39999389648438</ele>
        <time>2019-02-22T17:46:01.000Z</time>
      </trkpt>
      <trkpt lat="41.47552136331797" lon="2.063636463135481">
        <ele>192.1999969482422</ele>
        <time>2019-02-22T17:46:02.000Z</time>
      </trkpt>
      <trkpt lat="41.47552840411663" lon="2.0636681467294693">
        <ele>191.8000030517578</ele>
        <time>2019-02-22T17:46:04.000Z</time>
      </trkpt>
      <trkpt lat="41.475548101589084" lon="2.0636924542486668">
        <ele>191.60000610351562</ele>
        <time>2019-02-22T17:46:05.000Z</time>
      </trkpt>
      <trkpt lat="41.475599985569715" lon="2.063703518360853">
        <ele>191.1999969482422</ele>
        <time>2019-02-22T17:46:08.000Z</time>
      </trkpt>
      <trkpt lat="41.4757492672652" lon="2.0637122355401516">
        <ele>191.1999969482422</ele>
        <time>2019-02-22T17:46:15.000Z</time>
      </trkpt>
      <trkpt lat="41.475799391046166" lon="2.0637096371501684">
        <ele>191.1999969482422</ele>
        <time>2019-02-22T17:46:17.000Z</time>
      </trkpt>
      <trkpt lat="41.47588505409658" lon="2.0637069549411535">
        <ele>190.60000610351562</ele>
        <time>2019-02-22T17:46:20.000Z</time>
      </trkpt>
      <trkpt lat="41.47590768523514" lon="2.063705110922456">
        <ele>190.39999389648438</ele>
        <time>2019-02-22T17:46:21.000Z</time>
      </trkpt>
      <trkpt lat="41.47592629306018" lon="2.0637190248817205">
        <ele>190.1999969482422</ele>
        <time>2019-02-22T17:46:22.000Z</time>
      </trkpt>
      <trkpt lat="41.475934172049165" lon="2.0638133212924004">
        <ele>189.60000610351562</ele>
        <time>2019-02-22T17:46:24.000Z</time>
      </trkpt>
      <trkpt lat="41.475919503718615" lon="2.063932092860341">
        <ele>188.0</ele>
        <time>2019-02-22T17:46:26.000Z</time>
      </trkpt>
      <trkpt lat="41.47591229528189" lon="2.064036028459668">
        <ele>186.60000610351562</ele>
        <time>2019-02-22T17:46:28.000Z</time>
      </trkpt>
      <trkpt lat="41.47590173408389" lon="2.064131163060665">
        <ele>185.8000030517578</ele>
        <time>2019-02-22T17:46:30.000Z</time>
      </trkpt>
      <trkpt lat="41.475895531475544" lon="2.064188662916422">
        <ele>185.60000610351562</ele>
        <time>2019-02-22T17:46:31.000Z</time>
      </trkpt>
      <trkpt lat="41.47588262334466" lon="2.064301483333111">
        <ele>183.8000030517578</ele>
        <time>2019-02-22T17:46:33.000Z</time>
      </trkpt>
      <trkpt lat="41.47587390616536" lon="2.064390080049634">
        <ele>182.1999969482422</ele>
        <time>2019-02-22T17:46:35.000Z</time>
      </trkpt>
      <trkpt lat="41.475863847881556" lon="2.0644742343574762">
        <ele>181.0</ele>
        <time>2019-02-22T17:46:37.000Z</time>
      </trkpt>
      <trkpt lat="41.47585035301745" lon="2.0645789243280888">
        <ele>179.60000610351562</ele>
        <time>2019-02-22T17:46:39.000Z</time>
      </trkpt>
      <trkpt lat="41.47584465332329" lon="2.0646267849951982">
        <ele>178.39999389648438</ele>
        <time>2019-02-22T17:46:40.000Z</time>
      </trkpt>
      <trkpt lat="41.47583803161979" lon="2.064708173274994">
        <ele>176.8000030517578</ele>
        <time>2019-02-22T17:46:42.000Z</time>
      </trkpt>
      <trkpt lat="41.475830068811774" lon="2.064761985093355">
        <ele>175.1999969482422</ele>
        <time>2019-02-22T17:46:44.000Z</time>
      </trkpt>
      <trkpt lat="41.475824788212776" lon="2.0647949259728193">
        <ele>174.60000610351562</ele>
        <time>2019-02-22T17:46:45.000Z</time>
      </trkpt>
      <trkpt lat="41.47580877877772" lon="2.0648313872516155">
        <ele>174.0</ele>
        <time>2019-02-22T17:46:46.000Z</time>
      </trkpt>
      <trkpt lat="41.475755888968706" lon="2.064885450527072">
        <ele>172.8000030517578</ele>
        <time>2019-02-22T17:46:48.000Z</time>
      </trkpt>
      <trkpt lat="41.47572739049792" lon="2.0648925751447678">
        <ele>172.60000610351562</ele>
        <time>2019-02-22T17:46:49.000Z</time>
      </trkpt>
      <trkpt lat="41.47560250014067" lon="2.064857706427574">
        <ele>172.0</ele>
        <time>2019-02-22T17:46:54.000Z</time>
      </trkpt>
      <trkpt lat="41.47548247128725" lon="2.064768774434924">
        <ele>172.0</ele>
        <time>2019-02-22T17:46:59.000Z</time>
      </trkpt>
      <trkpt lat="41.47538926452398" lon="2.0646687783300877">
        <ele>174.0</ele>
        <time>2019-02-22T17:47:04.000Z</time>
      </trkpt>
      <trkpt lat="41.47536286152899" lon="2.0646213367581367">
        <ele>175.0</ele>
        <time>2019-02-22T17:47:06.000Z</time>
      </trkpt>
      <trkpt lat="41.47535037249327" lon="2.06459510140121">
        <ele>175.1999969482422</ele>
        <time>2019-02-22T17:47:07.000Z</time>
      </trkpt>
      <trkpt lat="41.47530494257808" lon="2.064518490806222">
        <ele>176.39999389648438</ele>
        <time>2019-02-22T17:47:10.000Z</time>
      </trkpt>
      <trkpt lat="41.47526076994836" lon="2.0644496753811836">
        <ele>177.60000610351562</ele>
        <time>2019-02-22T17:47:13.000Z</time>
      </trkpt>
      <trkpt lat="41.475205114111304" lon="2.0643742382526398">
        <ele>178.60000610351562</ele>
        <time>2019-02-22T17:47:17.000Z</time>
      </trkpt>
      <trkpt lat="41.475184075534344" lon="2.0643366035073996">
        <ele>179.0</ele>
        <time>2019-02-22T17:47:19.000Z</time>
      </trkpt>
      <trkpt lat="41.47517250850797" lon="2.0643192529678345">
        <ele>179.1999969482422</ele>
        <time>2019-02-22T17:47:20.000Z</time>
      </trkpt>
      <trkpt lat="41.47513017989695" lon="2.06424574367702">
        <ele>179.60000610351562</ele>
        <time>2019-02-22T17:47:24.000Z</time>
      </trkpt>
      <trkpt lat="41.475094221532345" lon="2.064191848039627">
        <ele>179.60000610351562</ele>
        <time>2019-02-22T17:47:27.000Z</time>
      </trkpt>
      <trkpt lat="41.47502766922116" lon="2.0640695560723543">
        <ele>180.1999969482422</ele>
        <time>2019-02-22T17:47:33.000Z</time>
      </trkpt>
      <trkpt lat="41.47500956431031" lon="2.0640430692583323">
        <ele>180.0</ele>
        <time>2019-02-22T17:47:34.000Z</time>
      </trkpt>
      <trkpt lat="41.47487469948828" lon="2.063881801441312">
        <ele>178.8000030517578</ele>
        <time>2019-02-22T17:47:38.000Z</time>
      </trkpt>
      <trkpt lat="41.47482507862151" lon="2.0638253912329674">
        <ele>178.39999389648438</ele>
        <time>2019-02-22T17:47:39.000Z</time>
      </trkpt>
      <trkpt lat="41.474694572389126" lon="2.0636763609945774">
        <ele>176.8000030517578</ele>
        <time>2019-02-22T17:47:42.000Z</time>
      </trkpt>
      <trkpt lat="41.474678395316005" lon="2.063650880008936">
        <ele>176.1999969482422</ele>
        <time>2019-02-22T17:47:43.000Z</time>
      </trkpt>
      <trkpt lat="41.474652076140046" lon="2.063608132302761">
        <ele>175.60000610351562</ele>
        <time>2019-02-22T17:47:44.000Z</time>
      </trkpt>
      <trkpt lat="41.474582171067595" lon="2.0634986646473408">
        <ele>174.39999389648438</ele>
        <time>2019-02-22T17:47:47.000Z</time>
      </trkpt>
      <trkpt lat="41.4745628926903" lon="2.063469495624304">
        <ele>174.1999969482422</ele>
        <time>2019-02-22T17:47:48.000Z</time>
      </trkpt>
      <trkpt lat="41.47445878945291" lon="2.063305964693427">
        <ele>173.1999969482422</ele>
        <time>2019-02-22T17:47:52.000Z</time>
      </trkpt>
      <trkpt lat="41.47442710585892" lon="2.0632584393024445">
        <ele>172.8000030517578</ele>
        <time>2019-02-22T17:47:53.000Z</time>
      </trkpt>
      <trkpt lat="41.47433180361986" lon="2.063111336901784">
        <ele>172.1999969482422</ele>
        <time>2019-02-22T17:47:56.000Z</time>
      </trkpt>
      <trkpt lat="41.4741918258369" lon="2.062919642776251">
        <ele>171.60000610351562</ele>
        <time>2019-02-22T17:48:00.000Z</time>
      </trkpt>
      <trkpt lat="41.47402485832572" lon="2.062653601169586">
        <ele>171.0</ele>
        <time>2019-02-22T17:48:05.000Z</time>
      </trkpt>
      <trkpt lat="41.47397389635444" lon="2.062563830986619">
        <ele>170.8000030517578</ele>
        <time>2019-02-22T17:48:07.000Z</time>
      </trkpt>
      <trkpt lat="41.473829140886664" lon="2.0623737294226885">
        <ele>170.39999389648438</ele>
        <time>2019-02-22T17:48:13.000Z</time>
      </trkpt>
      <trkpt lat="41.47380952723324" lon="2.062335340306163">
        <ele>170.1999969482422</ele>
        <time>2019-02-22T17:48:14.000Z</time>
      </trkpt>
      <trkpt lat="41.47374540567398" lon="2.0622303150594234">
        <ele>170.60000610351562</ele>
        <time>2019-02-22T17:48:17.000Z</time>
      </trkpt>
      <trkpt lat="41.473722606897354" lon="2.0622238609939814">
        <ele>170.8000030517578</ele>
        <time>2019-02-22T17:48:18.000Z</time>
      </trkpt>
      <trkpt lat="41.47365974262357" lon="2.0623015612363815">
        <ele>170.8000030517578</ele>
        <time>2019-02-22T17:48:22.000Z</time>
      </trkpt>
      <trkpt lat="41.47366929799318" lon="2.0623745676130056">
        <ele>170.39999389648438</ele>
        <time>2019-02-22T17:48:24.000Z</time>
      </trkpt>
      <trkpt lat="41.473688995465636" lon="2.062414465472102">
        <ele>170.1999969482422</ele>
        <time>2019-02-22T17:48:25.000Z</time>
      </trkpt>
      <trkpt lat="41.47370383143425" lon="2.062458386644721">
        <ele>169.8000030517578</ele>
        <time>2019-02-22T17:48:26.000Z</time>
      </trkpt>
      <trkpt lat="41.4737581461668" lon="2.062636837363243">
        <ele>169.1999969482422</ele>
        <time>2019-02-22T17:48:29.000Z</time>
      </trkpt>
      <trkpt lat="41.47377826273441" lon="2.0626997016370296">
        <ele>169.0</ele>
        <time>2019-02-22T17:48:30.000Z</time>
      </trkpt>
      <trkpt lat="41.47380206733942" lon="2.062764326110482">
        <ele>168.8000030517578</ele>
        <time>2019-02-22T17:48:31.000Z</time>
      </trkpt>
      <trkpt lat="41.47382637485862" lon="2.0628387574106455">
        <ele>168.39999389648438</ele>
        <time>2019-02-22T17:48:32.000Z</time>
      </trkpt>
      <trkpt lat="41.47384808398783" lon="2.0629112608730793">
        <ele>168.1999969482422</ele>
        <time>2019-02-22T17:48:33.000Z</time>
      </trkpt>
      <trkpt lat="41.47386744618416" lon="2.0629792381078005">
        <ele>167.8000030517578</ele>
        <time>2019-02-22T17:48:34.000Z</time>
      </trkpt>
      <trkpt lat="41.473886808380485" lon="2.063049226999283">
        <ele>167.8000030517578</ele>
        <time>2019-02-22T17:48:35.000Z</time>
      </trkpt>
      <trkpt lat="41.4739275444299" lon="2.063200017437339">
        <ele>167.60000610351562</ele>
        <time>2019-02-22T17:48:37.000Z</time>
      </trkpt>
      <trkpt lat="41.473974818363786" lon="2.0634192880243063">
        <ele>167.1999969482422</ele>
        <time>2019-02-22T17:48:40.000Z</time>
      </trkpt>
      <trkpt lat="41.474037850275636" lon="2.0636174362152815">
        <ele>167.1999969482422</ele>
        <time>2019-02-22T17:48:43.000Z</time>
      </trkpt>
      <trkpt lat="41.47410565987229" lon="2.063731849193573">
        <ele>167.0</ele>
        <time>2019-02-22T17:48:45.000Z</time>
      </trkpt>
      <trkpt lat="41.47420288994908" lon="2.0638825558125973">
        <ele>167.1999969482422</ele>
        <time>2019-02-22T17:48:48.000Z</time>
      </trkpt>
      <trkpt lat="41.47430690936744" lon="2.064112974330783">
        <ele>167.1999969482422</ele>
        <time>2019-02-22T17:48:52.000Z</time>
      </trkpt>
      <trkpt lat="41.47438997402787" lon="2.0643985457718372">
        <ele>167.60000610351562</ele>
        <time>2019-02-22T17:48:57.000Z</time>
      </trkpt>
      <trkpt lat="41.474416460841894" lon="2.0645210053771734">
        <ele>168.0</ele>
        <time>2019-02-22T17:48:59.000Z</time>
      </trkpt>
      <trkpt lat="41.47447555325925" lon="2.0647551957517862">
        <ele>168.1999969482422</ele>
        <time>2019-02-22T17:49:03.000Z</time>
      </trkpt>
      <trkpt lat="41.474505895748734" lon="2.064859550446272">
        <ele>169.0</ele>
        <time>2019-02-22T17:49:05.000Z</time>
      </trkpt>
      <trkpt lat="41.474534813314676" lon="2.064954601228237">
        <ele>169.39999389648438</ele>
        <time>2019-02-22T17:49:07.000Z</time>
      </trkpt>
      <trkpt lat="41.474583679810166" lon="2.0650467183440924">
        <ele>169.60000610351562</ele>
        <time>2019-02-22T17:49:09.000Z</time>
      </trkpt>
      <trkpt lat="41.47461645305157" lon="2.0650746300816536">
        <ele>169.60000610351562</ele>
        <time>2019-02-22T17:49:10.000Z</time>
      </trkpt>
      <trkpt lat="41.474645705893636" lon="2.065083011984825">
        <ele>169.60000610351562</ele>
        <time>2019-02-22T17:49:11.000Z</time>
      </trkpt>
      <trkpt lat="41.47475148551166" lon="2.0650591235607862">
        <ele>169.8000030517578</ele>
        <time>2019-02-22T17:49:14.000Z</time>
      </trkpt>
      <trkpt lat="41.47487075999379" lon="2.0650381688028574">
        <ele>170.39999389648438</ele>
        <time>2019-02-22T17:49:17.000Z</time>
      </trkpt>
      <trkpt lat="41.47502850741148" lon="2.065014699473977">
        <ele>171.0</ele>
        <time>2019-02-22T17:49:21.000Z</time>
      </trkpt>
      <trkpt lat="41.4751551579684" lon="2.064984105527401">
        <ele>171.60000610351562</ele>
        <time>2019-02-22T17:49:24.000Z</time>
      </trkpt>
      <trkpt lat="41.47532807663083" lon="2.0649323891848326">
        <ele>171.60000610351562</ele>
        <time>2019-02-22T17:49:28.000Z</time>
      </trkpt>
      <trkpt lat="41.475413739681244" lon="2.0649023819714785">
        <ele>171.39999389648438</ele>
        <time>2019-02-22T17:49:30.000Z</time>
      </trkpt>
      <trkpt lat="41.47545883432031" lon="2.0648914854973555">
        <ele>171.1999969482422</ele>
        <time>2019-02-22T17:49:31.000Z</time>
      </trkpt>
      <trkpt lat="41.4755058567971" lon="2.064883103594184">
        <ele>171.1999969482422</ele>
        <time>2019-02-22T17:49:32.000Z</time>
      </trkpt>
      <trkpt lat="41.47554952651262" lon="2.064872793853283">
        <ele>171.1999969482422</ele>
        <time>2019-02-22T17:49:33.000Z</time>
      </trkpt>
      <trkpt lat="41.47571942768991" lon="2.064823005348444">
        <ele>171.60000610351562</ele>
        <time>2019-02-22T17:49:37.000Z</time>
      </trkpt>
      <trkpt lat="41.47579670883715" lon="2.0648098457604647">
        <ele>171.60000610351562</ele>
        <time>2019-02-22T17:49:39.000Z</time>
      </trkpt>
      <trkpt lat="41.47586049512029" lon="2.0648634899407625">
        <ele>171.60000610351562</ele>
        <time>2019-02-22T17:49:41.000Z</time>
      </trkpt>
      <trkpt lat="41.47586510516703" lon="2.064987877383828">
        <ele>171.39999389648438</ele>
        <time>2019-02-22T17:49:43.000Z</time>
      </trkpt>
      <trkpt lat="41.47585622034967" lon="2.06505392678082">
        <ele>171.39999389648438</ele>
        <time>2019-02-22T17:49:44.000Z</time>
      </trkpt>
      <trkpt lat="41.475817915052176" lon="2.0653455331921577">
        <ele>170.39999389648438</ele>
        <time>2019-02-22T17:49:48.000Z</time>
      </trkpt>
      <trkpt lat="41.47581364028156" lon="2.0654051285237074">
        <ele>170.0</ele>
        <time>2019-02-22T17:49:49.000Z</time>
      </trkpt>
      <trkpt lat="41.47581221535802" lon="2.0655173622071743">
        <ele>169.1999969482422</ele>
        <time>2019-02-22T17:49:52.000Z</time>
      </trkpt>
      <trkpt lat="41.47581112571061" lon="2.0655382331460714">
        <ele>169.1999969482422</ele>
        <time>2019-02-22T17:49:53.000Z</time>
      </trkpt>
      <trkpt lat="41.475794948637486" lon="2.0657198689877987">
        <ele>168.39999389648438</ele>
        <time>2019-02-22T17:49:57.000Z</time>
      </trkpt>
      <trkpt lat="41.4757941942662" lon="2.0657833199948072">
        <ele>168.0</ele>
        <time>2019-02-22T17:49:58.000Z</time>
      </trkpt>
      <trkpt lat="41.47578430362046" lon="2.0659143291413784">
        <ele>166.8000030517578</ele>
        <time>2019-02-22T17:50:00.000Z</time>
      </trkpt>
      <trkpt lat="41.47577416151762" lon="2.0660242158919573">
        <ele>166.0</ele>
        <time>2019-02-22T17:50:02.000Z</time>
      </trkpt>
      <trkpt lat="41.47576921619475" lon="2.066074926406145">
        <ele>165.8000030517578</ele>
        <time>2019-02-22T17:50:03.000Z</time>
      </trkpt>
      <trkpt lat="41.47575622424483" lon="2.066351780667901">
        <ele>165.0</ele>
        <time>2019-02-22T17:50:08.000Z</time>
      </trkpt>
      <trkpt lat="41.47575756534934" lon="2.0664112083613873">
        <ele>164.8000030517578</ele>
        <time>2019-02-22T17:50:09.000Z</time>
      </trkpt>
      <trkpt lat="41.475757230073214" lon="2.0665142219513655">
        <ele>164.39999389648438</ele>
        <time>2019-02-22T17:50:12.000Z</time>
      </trkpt>
      <trkpt lat="41.47574373520911" lon="2.0665298961102962">
        <ele>164.39999389648438</ele>
        <time>2019-02-22T17:50:13.000Z</time>
      </trkpt>
      <trkpt lat="41.47572563029826" lon="2.06653643399477">
        <ele>164.39999389648438</ele>
        <time>2019-02-22T17:50:14.000Z</time>
      </trkpt>
      <trkpt lat="41.47567483596504" lon="2.0665403734892607">
        <ele>164.39999389648438</ele>
        <time>2019-02-22T17:50:16.000Z</time>
      </trkpt>
      <trkpt lat="41.4755766838789" lon="2.0665519405156374">
        <ele>164.39999389648438</ele>
        <time>2019-02-22T17:50:19.000Z</time>
      </trkpt>
      <trkpt lat="41.47542027756572" lon="2.0665849652141333">
        <ele>163.8000030517578</ele>
        <time>2019-02-22T17:50:23.000Z</time>
      </trkpt>
      <trkpt lat="41.47540150210261" lon="2.0666086860001087">
        <ele>163.8000030517578</ele>
        <time>2019-02-22T17:50:24.000Z</time>
      </trkpt>
      <trkpt lat="41.47539052180946" lon="2.066642800346017">
        <ele>163.60000610351562</ele>
        <time>2019-02-22T17:50:25.000Z</time>
      </trkpt>
      <trkpt lat="41.47537970915437" lon="2.066731732338667">
        <ele>163.1999969482422</ele>
        <time>2019-02-22T17:50:27.000Z</time>
      </trkpt>
      <trkpt lat="41.475377613678575" lon="2.0668849535286427">
        <ele>162.60000610351562</ele>
        <time>2019-02-22T17:50:30.000Z</time>
      </trkpt>
      <trkpt lat="41.47538901306689" lon="2.066972963511944">
        <ele>162.1999969482422</ele>
        <time>2019-02-22T17:50:32.000Z</time>
      </trkpt>
      <trkpt lat="41.47538415156305" lon="2.067125178873539">
        <ele>162.39999389648438</ele>
        <time>2019-02-22T17:50:36.000Z</time>
      </trkpt>
      <trkpt lat="41.475331764668226" lon="2.06731921993196">
        <ele>162.39999389648438</ele>
        <time>2019-02-22T17:50:42.000Z</time>
      </trkpt>
      <trkpt lat="41.4753298368305" lon="2.0673773903399706">
        <ele>162.39999389648438</ele>
        <time>2019-02-22T17:50:45.000Z</time>
      </trkpt>
      <trkpt lat="41.47531642578542" lon="2.0673997700214386">
        <ele>162.39999389648438</ele>
        <time>2019-02-22T17:50:47.000Z</time>
      </trkpt>
      <trkpt lat="41.47528273053467" lon="2.067508064210415">
        <ele>161.8000030517578</ele>
        <time>2019-02-22T17:50:51.000Z</time>
      </trkpt>
      <trkpt lat="41.475271163508296" lon="2.067557182163">
        <ele>161.1999969482422</ele>
        <time>2019-02-22T17:50:52.000Z</time>
      </trkpt>
      <trkpt lat="41.47522045299411" lon="2.0677381474524736">
        <ele>159.8000030517578</ele>
        <time>2019-02-22T17:50:55.000Z</time>
      </trkpt>
      <trkpt lat="41.47519941441715" lon="2.0678005926311016">
        <ele>159.1999969482422</ele>
        <time>2019-02-22T17:50:56.000Z</time>
      </trkpt>
      <trkpt lat="41.4751794654876" lon="2.0678627863526344">
        <ele>158.60000610351562</ele>
        <time>2019-02-22T17:50:57.000Z</time>
      </trkpt>
      <trkpt lat="41.47511794231832" lon="2.068074429407716">
        <ele>157.8000030517578</ele>
        <time>2019-02-22T17:51:01.000Z</time>
      </trkpt>
      <trkpt lat="41.47509455680847" lon="2.0681236311793327">
        <ele>157.60000610351562</ele>
        <time>2019-02-22T17:51:02.000Z</time>
      </trkpt>
      <trkpt lat="41.475036554038525" lon="2.068262519314885">
        <ele>156.60000610351562</ele>
        <time>2019-02-22T17:51:07.000Z</time>
      </trkpt>
      <trkpt lat="41.47502004168928" lon="2.0682694762945175">
        <ele>156.39999389648438</ele>
        <time>2019-02-22T17:51:08.000Z</time>
      </trkpt>
      <trkpt lat="41.47494871169329" lon="2.0682591665536165">
        <ele>156.0</ele>
        <time>2019-02-22T17:51:11.000Z</time>
      </trkpt>
      <trkpt lat="41.47488048300147" lon="2.068285485729575">
        <ele>155.8000030517578</ele>
        <time>2019-02-22T17:51:14.000Z</time>
      </trkpt>
      <trkpt lat="41.474837232381105" lon="2.068344494327903">
        <ele>155.60000610351562</ele>
        <time>2019-02-22T17:51:16.000Z</time>
      </trkpt>
      <trkpt lat="41.4747772179544" lon="2.068402161821723">
        <ele>155.39999389648438</ele>
        <time>2019-02-22T17:51:18.000Z</time>
      </trkpt>
      <trkpt lat="41.47476271726191" lon="2.0684602484107018">
        <ele>155.39999389648438</ele>
        <time>2019-02-22T17:51:19.000Z</time>
      </trkpt>
      <trkpt lat="41.47475500591099" lon="2.0685970410704613">
        <ele>155.1999969482422</ele>
        <time>2019-02-22T17:51:21.000Z</time>
      </trkpt>
      <trkpt lat="41.4747478812933" lon="2.068666024133563">
        <ele>155.0</ele>
        <time>2019-02-22T17:51:22.000Z</time>
      </trkpt>
      <trkpt lat="41.474737068638206" lon="2.068736683577299">
        <ele>154.8000030517578</ele>
        <time>2019-02-22T17:51:23.000Z</time>
      </trkpt>
      <trkpt lat="41.4747304469347" lon="2.0689153857529163">
        <ele>154.39999389648438</ele>
        <time>2019-02-22T17:51:26.000Z</time>
      </trkpt>
      <trkpt lat="41.47474109195173" lon="2.069033905863762">
        <ele>154.1999969482422</ele>
        <time>2019-02-22T17:51:28.000Z</time>
      </trkpt>
      <trkpt lat="41.474743438884616" lon="2.0690965186804533">
        <ele>154.0</ele>
        <time>2019-02-22T17:51:29.000Z</time>
      </trkpt>
      <trkpt lat="41.474746372550726" lon="2.069209171459079">
        <ele>153.1999969482422</ele>
        <time>2019-02-22T17:51:31.000Z</time>
      </trkpt>
      <trkpt lat="41.47475542500615" lon="2.0693007856607437">
        <ele>152.8000030517578</ele>
        <time>2019-02-22T17:51:33.000Z</time>
      </trkpt>
      <trkpt lat="41.47477260790765" lon="2.0694109238684177">
        <ele>152.1999969482422</ele>
        <time>2019-02-22T17:51:36.000Z</time>
      </trkpt>
      <trkpt lat="41.47477654740214" lon="2.0695550087839365">
        <ele>151.8000030517578</ele>
        <time>2019-02-22T17:51:40.000Z</time>
      </trkpt>
      <trkpt lat="41.474772691726685" lon="2.0696374867111444">
        <ele>151.8000030517578</ele>
        <time>2019-02-22T17:51:43.000Z</time>
      </trkpt>
      <trkpt lat="41.474788784980774" lon="2.069687442854047">
        <ele>151.8000030517578</ele>
        <time>2019-02-22T17:51:45.000Z</time>
      </trkpt>
      <trkpt lat="41.474772272631526" lon="2.0698439329862595">
        <ele>151.60000610351562</ele>
        <time>2019-02-22T17:51:50.000Z</time>
      </trkpt>
      <trkpt lat="41.474759532138705" lon="2.0698830764740705">
        <ele>151.39999389648438</ele>
        <time>2019-02-22T17:51:51.000Z</time>
      </trkpt>
      <trkpt lat="41.47471787407994" lon="2.0699932985007763">
        <ele>151.39999389648438</ele>
        <time>2019-02-22T17:51:57.000Z</time>
      </trkpt>
      <trkpt lat="41.47471091710031" lon="2.0700170192867517">
        <ele>151.39999389648438</ele>
        <time>2019-02-22T17:51:58.000Z</time>
      </trkpt>
      <trkpt lat="41.47470831871033" lon="2.0701195299625397">
        <ele>151.1999969482422</ele>
        <time>2019-02-22T17:52:01.000Z</time>
      </trkpt>
      <trkpt lat="41.4747027028352" lon="2.0701631996780634">
        <ele>151.0</ele>
        <time>2019-02-22T17:52:02.000Z</time>
      </trkpt>
      <trkpt lat="41.47466096095741" lon="2.07043862901628">
        <ele>150.0</ele>
        <time>2019-02-22T17:52:07.000Z</time>
      </trkpt>
      <trkpt lat="41.47463271394372" lon="2.070692265406251">
        <ele>148.8000030517578</ele>
        <time>2019-02-22T17:52:11.000Z</time>
      </trkpt>
      <trkpt lat="41.47461008280516" lon="2.070885468274355">
        <ele>148.1999969482422</ele>
        <time>2019-02-22T17:52:14.000Z</time>
      </trkpt>
      <trkpt lat="41.47459113970399" lon="2.0709572173655033">
        <ele>148.1999969482422</ele>
        <time>2019-02-22T17:52:15.000Z</time>
      </trkpt>
      <trkpt lat="41.47450824268162" lon="2.0712345745414495">
        <ele>148.0</ele>
        <time>2019-02-22T17:52:19.000Z</time>
      </trkpt>
      <trkpt lat="41.474490808323026" lon="2.071301629766822">
        <ele>148.0</ele>
        <time>2019-02-22T17:52:20.000Z</time>
      </trkpt>
      <trkpt lat="41.4744333922863" lon="2.0715942420065403">
        <ele>148.1999969482422</ele>
        <time>2019-02-22T17:52:25.000Z</time>
      </trkpt>
      <trkpt lat="41.47438972257078" lon="2.0717564318329096">
        <ele>148.1999969482422</ele>
        <time>2019-02-22T17:52:28.000Z</time>
      </trkpt>
      <trkpt lat="41.47436851635575" lon="2.071806639432907">
        <ele>148.0</ele>
        <time>2019-02-22T17:52:29.000Z</time>
      </trkpt>
      <trkpt lat="41.47434362210333" lon="2.071861205622554">
        <ele>148.0</ele>
        <time>2019-02-22T17:52:30.000Z</time>
      </trkpt>
      <trkpt lat="41.474292324855924" lon="2.0719814021140337">
        <ele>147.8000030517578</ele>
        <time>2019-02-22T17:52:32.000Z</time>
      </trkpt>
      <trkpt lat="41.474264580756426" lon="2.072042003273964">
        <ele>147.8000030517578</ele>
        <time>2019-02-22T17:52:33.000Z</time>
      </trkpt>
      <trkpt lat="41.47423541173339" lon="2.072099670767784">
        <ele>147.60000610351562</ele>
        <time>2019-02-22T17:52:34.000Z</time>
      </trkpt>
      <trkpt lat="41.474154610186815" lon="2.072260519489646">
        <ele>147.0</ele>
        <time>2019-02-22T17:52:37.000Z</time>
      </trkpt>
      <trkpt lat="41.474126698449254" lon="2.072319947183132">
        <ele>146.8000030517578</ele>
        <time>2019-02-22T17:52:38.000Z</time>
      </trkpt>
      <trkpt lat="41.4740689471364" lon="2.0724397245794535">
        <ele>146.39999389648438</ele>
        <time>2019-02-22T17:52:40.000Z</time>
      </trkpt>
      <trkpt lat="41.47404036484659" lon="2.072507534176111">
        <ele>146.0</ele>
        <time>2019-02-22T17:52:41.000Z</time>
      </trkpt>
      <trkpt lat="41.473943553864956" lon="2.07269755192101">
        <ele>145.1999969482422</ele>
        <time>2019-02-22T17:52:44.000Z</time>
      </trkpt>
      <trkpt lat="41.47381489165127" lon="2.072939621284604">
        <ele>144.39999389648438</ele>
        <time>2019-02-22T17:52:48.000Z</time>
      </trkpt>
      <trkpt lat="41.473786141723394" lon="2.072998797520995">
        <ele>144.1999969482422</ele>
        <time>2019-02-22T17:52:49.000Z</time>
      </trkpt>
      <trkpt lat="41.473758816719055" lon="2.0731557067483664">
        <ele>144.1999969482422</ele>
        <time>2019-02-22T17:52:52.000Z</time>
      </trkpt>
      <trkpt lat="41.473733419552445" lon="2.0733052399009466">
        <ele>144.0</ele>
        <time>2019-02-22T17:52:55.000Z</time>
      </trkpt>
      <trkpt lat="41.47370567545295" lon="2.073403475806117">
        <ele>143.8000030517578</ele>
        <time>2019-02-22T17:52:57.000Z</time>
      </trkpt>
      <trkpt lat="41.4736527018249" lon="2.0735078305006027">
        <ele>143.1999969482422</ele>
        <time>2019-02-22T17:52:59.000Z</time>
      </trkpt>
      <trkpt lat="41.473623448982835" lon="2.0735570322722197">
        <ele>143.0</ele>
        <time>2019-02-22T17:53:00.000Z</time>
      </trkpt>
      <trkpt lat="41.473572570830584" lon="2.0737269334495068">
        <ele>142.60000610351562</ele>
        <time>2019-02-22T17:53:03.000Z</time>
      </trkpt>
      <trkpt lat="41.473500318825245" lon="2.073912341147661">
        <ele>142.60000610351562</ele>
        <time>2019-02-22T17:53:08.000Z</time>
      </trkpt>
      <trkpt lat="41.473473915830255" lon="2.073969505727291">
        <ele>142.8000030517578</ele>
        <time>2019-02-22T17:53:10.000Z</time>
      </trkpt>
      <trkpt lat="41.47344139404595" lon="2.0740583539009094">
        <ele>142.8000030517578</ele>
        <time>2019-02-22T17:53:12.000Z</time>
      </trkpt>
      <trkpt lat="41.47335975430906" lon="2.0742114912718534">
        <ele>142.60000610351562</ele>
        <time>2019-02-22T17:53:16.000Z</time>
      </trkpt>
      <trkpt lat="41.473338128998876" lon="2.0743490383028984">
        <ele>142.0</ele>
        <time>2019-02-22T17:53:19.000Z</time>
      </trkpt>
      <trkpt lat="41.47330426611006" lon="2.0744910277426243">
        <ele>142.0</ele>
        <time>2019-02-22T17:53:22.000Z</time>
      </trkpt>
      <trkpt lat="41.47329395636916" lon="2.07475321367383">
        <ele>141.39999389648438</ele>
        <time>2019-02-22T17:53:27.000Z</time>
      </trkpt>
      <trkpt lat="41.47328599356115" lon="2.0750002283602953">
        <ele>141.1999969482422</ele>
        <time>2019-02-22T17:53:31.000Z</time>
      </trkpt>
      <trkpt lat="41.47325464524329" lon="2.075153114274144">
        <ele>140.60000610351562</ele>
        <time>2019-02-22T17:53:33.000Z</time>
      </trkpt>
      <trkpt lat="41.47323343902826" lon="2.0752875600010157">
        <ele>140.1999969482422</ele>
        <time>2019-02-22T17:53:35.000Z</time>
      </trkpt>
      <trkpt lat="41.47322556003928" lon="2.075342545285821">
        <ele>140.0</ele>
        <time>2019-02-22T17:53:36.000Z</time>
      </trkpt>
      <trkpt lat="41.47321684285998" lon="2.0753936748951674">
        <ele>139.8000030517578</ele>
        <time>2019-02-22T17:53:37.000Z</time>
      </trkpt>
      <trkpt lat="41.473208544775844" lon="2.0754375122487545">
        <ele>139.60000610351562</ele>
        <time>2019-02-22T17:53:38.000Z</time>
      </trkpt>
      <trkpt lat="41.47315850481391" lon="2.07560489885509">
        <ele>139.60000610351562</ele>
        <time>2019-02-22T17:53:43.000Z</time>
      </trkpt>
      <trkpt lat="41.473152469843626" lon="2.0756282843649387">
        <ele>139.60000610351562</ele>
        <time>2019-02-22T17:53:44.000Z</time>
      </trkpt>
      <trkpt lat="41.47310025058687" lon="2.0757297053933144">
        <ele>139.39999389648438</ele>
        <time>2019-02-22T17:53:49.000Z</time>
      </trkpt>
      <trkpt lat="41.47301500663161" lon="2.0759414322674274">
        <ele>139.0</ele>
        <time>2019-02-22T17:53:57.000Z</time>
      </trkpt>
      <trkpt lat="41.472954489290714" lon="2.0761119201779366">
        <ele>138.60000610351562</ele>
        <time>2019-02-22T17:54:02.000Z</time>
      </trkpt>
      <trkpt lat="41.472930517047644" lon="2.076148884370923">
        <ele>138.60000610351562</ele>
        <time>2019-02-22T17:54:03.000Z</time>
      </trkpt>
      <trkpt lat="41.47287502884865" lon="2.0762615371495485">
        <ele>138.0</ele>
        <time>2019-02-22T17:54:06.000Z</time>
      </trkpt>
      <trkpt lat="41.47285030223429" lon="2.076328257098794">
        <ele>137.8000030517578</ele>
        <time>2019-02-22T17:54:08.000Z</time>
      </trkpt>
      <trkpt lat="41.47279355674982" lon="2.0764479506760836">
        <ele>137.60000610351562</ele>
        <time>2019-02-22T17:54:13.000Z</time>
      </trkpt>
      <trkpt lat="41.472784001380205" lon="2.076475191861391">
        <ele>137.39999389648438</ele>
        <time>2019-02-22T17:54:14.000Z</time>
      </trkpt>
      <trkpt lat="41.47275357507169" lon="2.076529758051038">
        <ele>137.39999389648438</ele>
        <time>2019-02-22T17:54:16.000Z</time>
      </trkpt>
      <trkpt lat="41.47269909270108" lon="2.0765197835862637">
        <ele>137.1999969482422</ele>
        <time>2019-02-22T17:54:18.000Z</time>
      </trkpt>
      <trkpt lat="41.472687190398574" lon="2.0764962304383516">
        <ele>137.1999969482422</ele>
        <time>2019-02-22T17:54:19.000Z</time>
      </trkpt>
      <trkpt lat="41.47266942076385" lon="2.0764377247542143">
        <ele>137.0</ele>
        <time>2019-02-22T17:54:22.000Z</time>
      </trkpt>
      <trkpt lat="41.472660871222615" lon="2.0763222221285105">
        <ele>137.39999389648438</ele>
        <time>2019-02-22T17:54:27.000Z</time>
      </trkpt>
      <trkpt lat="41.47267277352512" lon="2.076124995946884">
        <ele>137.8000030517578</ele>
        <time>2019-02-22T17:54:32.000Z</time>
      </trkpt>
      <trkpt lat="41.47261661477387" lon="2.075898014008999">
        <ele>138.60000610351562</ele>
        <time>2019-02-22T17:54:38.000Z</time>
      </trkpt>
      <trkpt lat="41.472604712471366" lon="2.0757744647562504">
        <ele>139.60000610351562</ele>
        <time>2019-02-22T17:54:41.000Z</time>
      </trkpt>
      <trkpt lat="41.472600772976875" lon="2.075729789212346">
        <ele>139.8000030517578</ele>
        <time>2019-02-22T17:54:42.000Z</time>
      </trkpt>
      <trkpt lat="41.472596414387226" lon="2.0756425336003304">
        <ele>140.1999969482422</ele>
        <time>2019-02-22T17:54:44.000Z</time>
      </trkpt>
      <trkpt lat="41.472598761320114" lon="2.0754422899335623">
        <ele>140.39999389648438</ele>
        <time>2019-02-22T17:54:49.000Z</time>
      </trkpt>
      <trkpt lat="41.472612004727125" lon="2.0752708800137043">
        <ele>140.8000030517578</ele>
        <time>2019-02-22T17:54:53.000Z</time>
      </trkpt>
      <trkpt lat="41.47262784652412" lon="2.075103744864464">
        <ele>141.60000610351562</ele>
        <time>2019-02-22T17:54:57.000Z</time>
      </trkpt>
      <trkpt lat="41.47263145074248" lon="2.0750661101192236">
        <ele>141.8000030517578</ele>
        <time>2019-02-22T17:54:58.000Z</time>
      </trkpt>
      <trkpt lat="41.47264092229307" lon="2.075032163411379">
        <ele>141.8000030517578</ele>
        <time>2019-02-22T17:54:59.000Z</time>
      </trkpt>
      <trkpt lat="41.472652070224285" lon="2.074954966083169">
        <ele>142.1999969482422</ele>
        <time>2019-02-22T17:55:01.000Z</time>
      </trkpt>
      <trkpt lat="41.472665732726455" lon="2.0748724043369293">
        <ele>142.39999389648438</ele>
        <time>2019-02-22T17:55:03.000Z</time>
      </trkpt>
      <trkpt lat="41.47271049208939" lon="2.0746715739369392">
        <ele>143.0</ele>
        <time>2019-02-22T17:55:08.000Z</time>
      </trkpt>
      <trkpt lat="41.47271200083196" lon="2.074631592258811">
        <ele>143.0</ele>
        <time>2019-02-22T17:55:09.000Z</time>
      </trkpt>
      <trkpt lat="41.47272599861026" lon="2.0744617749005556">
        <ele>143.8000030517578</ele>
        <time>2019-02-22T17:55:13.000Z</time>
      </trkpt>
      <trkpt lat="41.47272909991443" lon="2.0744194462895393">
        <ele>144.0</ele>
        <time>2019-02-22T17:55:14.000Z</time>
      </trkpt>
      <trkpt lat="41.47273723036051" lon="2.0743791293352842">
        <ele>144.1999969482422</ele>
        <time>2019-02-22T17:55:15.000Z</time>
      </trkpt>
      <trkpt lat="41.472747791558504" lon="2.0743387285619974">
        <ele>144.1999969482422</ele>
        <time>2019-02-22T17:55:16.000Z</time>
      </trkpt>
      <trkpt lat="41.47275776602328" lon="2.0743003394454718">
        <ele>144.39999389648438</ele>
        <time>2019-02-22T17:55:17.000Z</time>
      </trkpt>
      <trkpt lat="41.47277302108705" lon="2.0742632914334536">
        <ele>144.39999389648438</ele>
        <time>2019-02-22T17:55:18.000Z</time>
      </trkpt>
      <trkpt lat="41.47278760559857" lon="2.0741908717900515">
        <ele>144.60000610351562</ele>
        <time>2019-02-22T17:55:20.000Z</time>
      </trkpt>
      <trkpt lat="41.47282222285867" lon="2.074088277295232">
        <ele>144.8000030517578</ele>
        <time>2019-02-22T17:55:23.000Z</time>
      </trkpt>
      <trkpt lat="41.4728688262403" lon="2.073960117995739">
        <ele>145.0</ele>
        <time>2019-02-22T17:55:27.000Z</time>
      </trkpt>
      <trkpt lat="41.47288374602795" lon="2.073935978114605">
        <ele>145.0</ele>
        <time>2019-02-22T17:55:28.000Z</time>
      </trkpt>
      <trkpt lat="41.47290897555649" lon="2.0738821662962437">
        <ele>145.1999969482422</ele>
        <time>2019-02-22T17:55:30.000Z</time>
      </trkpt>
      <trkpt lat="41.47299958392978" lon="2.073709834367037">
        <ele>145.8000030517578</ele>
        <time>2019-02-22T17:55:35.000Z</time>
      </trkpt>
      <trkpt lat="41.47301936522126" lon="2.073673792183399">
        <ele>145.8000030517578</ele>
        <time>2019-02-22T17:55:36.000Z</time>
      </trkpt>
      <trkpt lat="41.473069908097386" lon="2.073531299829483">
        <ele>146.1999969482422</ele>
        <time>2019-02-22T17:55:39.000Z</time>
      </trkpt>
      <trkpt lat="41.473101172596216" lon="2.073368774726987">
        <ele>147.1999969482422</ele>
        <time>2019-02-22T17:55:43.000Z</time>
      </trkpt>
      <trkpt lat="41.47311701439321" lon="2.07331714220345">
        <ele>148.0</ele>
        <time>2019-02-22T17:55:45.000Z</time>
      </trkpt>
      <trkpt lat="41.47313084453344" lon="2.0732964389026165">
        <ele>148.39999389648438</ele>
        <time>2019-02-22T17:55:46.000Z</time>
      </trkpt>
      <trkpt lat="41.4731590077281" lon="2.0732740592211485">
        <ele>148.60000610351562</ele>
        <time>2019-02-22T17:55:48.000Z</time>
      </trkpt>
      <trkpt lat="41.47325682453811" lon="2.073121340945363">
        <ele>148.39999389648438</ele>
        <time>2019-02-22T17:55:54.000Z</time>
      </trkpt>
      <trkpt lat="41.47329915314913" lon="2.072981782257557">
        <ele>148.1999969482422</ele>
        <time>2019-02-22T17:55:59.000Z</time>
      </trkpt>
      <trkpt lat="41.47332916036248" lon="2.0728849712759256">
        <ele>148.39999389648438</ele>
        <time>2019-02-22T17:56:03.000Z</time>
      </trkpt>
      <trkpt lat="41.4733506180346" lon="2.0728296507149935">
        <ele>148.39999389648438</ele>
        <time>2019-02-22T17:56:05.000Z</time>
      </trkpt>
      <trkpt lat="41.473422618582845" lon="2.072613062337041">
        <ele>148.60000610351562</ele>
        <time>2019-02-22T17:56:11.000Z</time>
      </trkpt>
      <trkpt lat="41.47350450977683" lon="2.07238825969398">
        <ele>148.60000610351562</ele>
        <time>2019-02-22T17:56:17.000Z</time>
      </trkpt>
      <trkpt lat="41.47362286224961" lon="2.072173682972789">
        <ele>149.0</ele>
        <time>2019-02-22T17:56:23.000Z</time>
      </trkpt>
      <trkpt lat="41.47372646257281" lon="2.0719799771904945">
        <ele>149.0</ele>
        <time>2019-02-22T17:56:28.000Z</time>
      </trkpt>
      <trkpt lat="41.47377775982022" lon="2.071872688829899">
        <ele>149.0</ele>
        <time>2019-02-22T17:56:31.000Z</time>
      </trkpt>
      <trkpt lat="41.47384540177882" lon="2.071726843714714">
        <ele>148.8000030517578</ele>
        <time>2019-02-22T17:56:35.000Z</time>
      </trkpt>
      <trkpt lat="41.473973309621215" lon="2.071473291143775">
        <ele>149.39999389648438</ele>
        <time>2019-02-22T17:56:41.000Z</time>
      </trkpt>
      <trkpt lat="41.47405955940485" lon="2.0713244285434484">
        <ele>149.39999389648438</ele>
        <time>2019-02-22T17:56:46.000Z</time>
      </trkpt>
      <trkpt lat="41.474139019846916" lon="2.070969119668007">
        <ele>149.8000030517578</ele>
        <time>2019-02-22T17:56:53.000Z</time>
      </trkpt>
      <trkpt lat="41.4741622377187" lon="2.070561507716775">
        <ele>149.60000610351562</ele>
        <time>2019-02-22T17:56:59.000Z</time>
      </trkpt>
      <trkpt lat="41.474177492782474" lon="2.070347685366869">
        <ele>149.0</ele>
        <time>2019-02-22T17:57:02.000Z</time>
      </trkpt>
      <trkpt lat="41.47416399791837" lon="2.0701684802770615">
        <ele>149.0</ele>
        <time>2019-02-22T17:57:04.000Z</time>
      </trkpt>
      <trkpt lat="41.47415737621486" lon="2.0700844936072826">
        <ele>149.0</ele>
        <time>2019-02-22T17:57:05.000Z</time>
      </trkpt>
      <trkpt lat="41.47414362989366" lon="2.069788360968232">
        <ele>149.39999389648438</ele>
        <time>2019-02-22T17:57:09.000Z</time>
      </trkpt>
      <trkpt lat="41.47413935512304" lon="2.0696591958403587">
        <ele>149.8000030517578</ele>
        <time>2019-02-22T17:57:11.000Z</time>
      </trkpt>
      <trkpt lat="41.474133152514696" lon="2.0695568528026342">
        <ele>150.8000030517578</ele>
        <time>2019-02-22T17:57:13.000Z</time>
      </trkpt>
      <trkpt lat="41.47411479614675" lon="2.0693632308393717">
        <ele>151.60000610351562</ele>
        <time>2019-02-22T17:57:17.000Z</time>
      </trkpt>
      <trkpt lat="41.47411320358515" lon="2.0693184714764357">
        <ele>152.0</ele>
        <time>2019-02-22T17:57:18.000Z</time>
      </trkpt>
      <trkpt lat="41.47411270067096" lon="2.0691892225295305">
        <ele>153.0</ele>
        <time>2019-02-22T17:57:21.000Z</time>
      </trkpt>
      <trkpt lat="41.47413172759116" lon="2.069070702418685">
        <ele>153.8000030517578</ele>
        <time>2019-02-22T17:57:24.000Z</time>
      </trkpt>
      <trkpt lat="41.47414539009333" lon="2.0690599735826254">
        <ele>154.1999969482422</ele>
        <time>2019-02-22T17:57:25.000Z</time>
      </trkpt>
      <trkpt lat="41.474162908270955" lon="2.068987973034382">
        <ele>155.1999969482422</ele>
        <time>2019-02-22T17:57:29.000Z</time>
      </trkpt>
      <trkpt lat="41.47413466125727" lon="2.068972634151578">
        <ele>156.1999969482422</ele>
        <time>2019-02-22T17:57:32.000Z</time>
      </trkpt>
      <trkpt lat="41.47408504039049" lon="2.0689388550817966">
        <ele>156.39999389648438</ele>
        <time>2019-02-22T17:57:36.000Z</time>
      </trkpt>
      <trkpt lat="41.47403676062822" lon="2.068906584754586">
        <ele>156.0</ele>
        <time>2019-02-22T17:57:39.000Z</time>
      </trkpt>
      <trkpt lat="41.47399703040719" lon="2.0688490010797977">
        <ele>156.0</ele>
        <time>2019-02-22T17:57:42.000Z</time>
      </trkpt>
      <trkpt lat="41.47397993132472" lon="2.0688311476260424">
        <ele>156.0</ele>
        <time>2019-02-22T17:57:43.000Z</time>
      </trkpt>
      <trkpt lat="41.473957719281316" lon="2.068817988038063">
        <ele>156.0</ele>
        <time>2019-02-22T17:57:44.000Z</time>
      </trkpt>
      <trkpt lat="41.47391203790903" lon="2.0687995478510857">
        <ele>156.1999969482422</ele>
        <time>2019-02-22T17:57:46.000Z</time>
      </trkpt>
      <trkpt lat="41.47388840094209" lon="2.068803319707513">
        <ele>156.39999389648438</ele>
        <time>2019-02-22T17:57:47.000Z</time>
      </trkpt>
      <trkpt lat="41.47378094494343" lon="2.0688096061348915">
        <ele>157.1999969482422</ele>
        <time>2019-02-22T17:57:52.000Z</time>
      </trkpt>
      <trkpt lat="41.473741717636585" lon="2.0688051637262106">
        <ele>157.39999389648438</ele>
        <time>2019-02-22T17:57:54.000Z</time>
      </trkpt>
      <trkpt lat="41.47371280007064" lon="2.0687695406377316">
        <ele>158.0</ele>
        <time>2019-02-22T17:57:57.000Z</time>
      </trkpt>
      <trkpt lat="41.47369645535946" lon="2.0687450654804707">
        <ele>158.39999389648438</ele>
        <time>2019-02-22T17:57:59.000Z</time>
      </trkpt>
      <trkpt lat="41.4737047534436" lon="2.068689577281475">
        <ele>158.1999969482422</ele>
        <time>2019-02-22T17:58:03.000Z</time>
      </trkpt>
      <trkpt lat="41.47372042760253" lon="2.068662252277136">
        <ele>158.0</ele>
        <time>2019-02-22T17:58:05.000Z</time>
      </trkpt>
      <trkpt lat="41.47372126579285" lon="2.0686550438404083">
        <ele>157.39999389648438</ele>
        <time>2019-02-22T17:58:09.000Z</time>
      </trkpt>
    </trkseg>
  </trk>
</gpx>
